<?xml version="1.0" encoding="UTF-8" standalone="no" ?>
<gpx xmlns="http://www.topografix.com/GPX/1/1" xmlns:xsi="http://www.w3.org/2001/XMLSchema-instance" xsi:schemaLocation="http://www.topografix.com/GPX/1/1 http://www.topografix.com/GPX/1/1/gpx.xsd" version="1.1" creator="VisuGPX - https://www.visugpx.com">
  <metadata>
    <name>Pornichet 28/11/2021</name>
    <desc><![CDATA[Sortie vtt dimanche 28 novembre 2021]]></desc>
  </metadata>
  <trk>
    <name><![CDATA[Pornichet Cyclisme]]></name>
    <trkseg>
      <trkpt lat="47.26393" lon="-2.31558">
        <ele>1</ele>
        <time>2021-11-28T07:58:49.000Z</time>
      </trkpt>
      <trkpt lat="47.26393" lon="-2.3157">
        <ele>1</ele>
        <time>2021-11-28T07:58:52.000Z</time>
      </trkpt>
      <trkpt lat="47.26393" lon="-2.31574">
        <ele>1</ele>
        <time>2021-11-28T07:58:53.000Z</time>
      </trkpt>
      <trkpt lat="47.26393" lon="-2.31578">
        <ele>1.3999999761581</ele>
        <time>2021-11-28T07:58:54.000Z</time>
      </trkpt>
      <trkpt lat="47.26393" lon="-2.31583">
        <ele>1.7999999523163</ele>
        <time>2021-11-28T07:58:55.000Z</time>
      </trkpt>
      <trkpt lat="47.26393" lon="-2.31587">
        <ele>1.7999999523163</ele>
        <time>2021-11-28T07:58:56.000Z</time>
      </trkpt>
      <trkpt lat="47.26396" lon="-2.31624">
        <ele>1.7999999523163</ele>
        <time>2021-11-28T07:59:03.000Z</time>
      </trkpt>
      <trkpt lat="47.26396" lon="-2.3166">
        <ele>1.7999999523163</ele>
        <time>2021-11-28T07:59:10.000Z</time>
      </trkpt>
      <trkpt lat="47.26395" lon="-2.31663">
        <ele>1.7999999523163</ele>
        <time>2021-11-28T07:59:11.000Z</time>
      </trkpt>
      <trkpt lat="47.26389" lon="-2.31667">
        <ele>1.7999999523163</ele>
        <time>2021-11-28T07:59:13.000Z</time>
      </trkpt>
      <trkpt lat="47.26369" lon="-2.31679">
        <ele>1.2000000476837</ele>
        <time>2021-11-28T07:59:18.000Z</time>
      </trkpt>
      <trkpt lat="47.26364" lon="-2.31683">
        <ele>0.40000000596046</ele>
        <time>2021-11-28T07:59:19.000Z</time>
      </trkpt>
      <trkpt lat="47.26359" lon="-2.31686">
        <ele>-0.80000001192093</ele>
        <time>2021-11-28T07:59:20.000Z</time>
      </trkpt>
      <trkpt lat="47.26354" lon="-2.31689">
        <ele>-1.6000000238419</ele>
        <time>2021-11-28T07:59:21.000Z</time>
      </trkpt>
      <trkpt lat="47.26333" lon="-2.31699">
        <ele>-1.6000000238419</ele>
        <time>2021-11-28T07:59:25.000Z</time>
      </trkpt>
      <trkpt lat="47.26311" lon="-2.31709">
        <ele>-2</ele>
        <time>2021-11-28T07:59:29.000Z</time>
      </trkpt>
      <trkpt lat="47.26306" lon="-2.31711">
        <ele>-2.4000000953674</ele>
        <time>2021-11-28T07:59:30.000Z</time>
      </trkpt>
      <trkpt lat="47.26302" lon="-2.31713">
        <ele>-2.7999999523163</ele>
        <time>2021-11-28T07:59:31.000Z</time>
      </trkpt>
      <trkpt lat="47.26298" lon="-2.31716">
        <ele>-3.2000000476837</ele>
        <time>2021-11-28T07:59:32.000Z</time>
      </trkpt>
      <trkpt lat="47.26296" lon="-2.3172">
        <ele>-3.7999999523163</ele>
        <time>2021-11-28T07:59:33.000Z</time>
      </trkpt>
      <trkpt lat="47.26295" lon="-2.31725">
        <ele>-3.7999999523163</ele>
        <time>2021-11-28T07:59:34.000Z</time>
      </trkpt>
      <trkpt lat="47.26297" lon="-2.31742">
        <ele>-3.7999999523163</ele>
        <time>2021-11-28T07:59:37.000Z</time>
      </trkpt>
      <trkpt lat="47.26298" lon="-2.31747">
        <ele>-3.7999999523163</ele>
        <time>2021-11-28T07:59:38.000Z</time>
      </trkpt>
      <trkpt lat="47.26299" lon="-2.3177">
        <ele>-3.7999999523163</ele>
        <time>2021-11-28T07:59:42.000Z</time>
      </trkpt>
      <trkpt lat="47.263" lon="-2.31776">
        <ele>-3.7999999523163</ele>
        <time>2021-11-28T07:59:43.000Z</time>
      </trkpt>
      <trkpt lat="47.263" lon="-2.31812">
        <ele>-3.7999999523163</ele>
        <time>2021-11-28T07:59:49.000Z</time>
      </trkpt>
      <trkpt lat="47.26296" lon="-2.31841">
        <ele>-3.7999999523163</ele>
        <time>2021-11-28T07:59:54.000Z</time>
      </trkpt>
      <trkpt lat="47.26296" lon="-2.31847">
        <ele>-3.7999999523163</ele>
        <time>2021-11-28T07:59:55.000Z</time>
      </trkpt>
      <trkpt lat="47.26294" lon="-2.31873">
        <ele>-3.7999999523163</ele>
        <time>2021-11-28T08:00:00.000Z</time>
      </trkpt>
      <trkpt lat="47.2629" lon="-2.31884">
        <ele>-4.1999998092651</ele>
        <time>2021-11-28T08:00:03.000Z</time>
      </trkpt>
      <trkpt lat="47.26288" lon="-2.31887">
        <ele>-4.5999999046326</ele>
        <time>2021-11-28T08:00:04.000Z</time>
      </trkpt>
      <trkpt lat="47.26285" lon="-2.3189">
        <ele>-5</ele>
        <time>2021-11-28T08:00:05.000Z</time>
      </trkpt>
      <trkpt lat="47.26282" lon="-2.31894">
        <ele>-5.4000000953674</ele>
        <time>2021-11-28T08:00:06.000Z</time>
      </trkpt>
      <trkpt lat="47.26279" lon="-2.31897">
        <ele>-6</ele>
        <time>2021-11-28T08:00:07.000Z</time>
      </trkpt>
      <trkpt lat="47.26271" lon="-2.31909">
        <ele>-6</ele>
        <time>2021-11-28T08:00:10.000Z</time>
      </trkpt>
      <trkpt lat="47.26252" lon="-2.31936">
        <ele>-6</ele>
        <time>2021-11-28T08:00:17.000Z</time>
      </trkpt>
      <trkpt lat="47.26237" lon="-2.31956">
        <ele>-6</ele>
        <time>2021-11-28T08:00:23.000Z</time>
      </trkpt>
      <trkpt lat="47.26222" lon="-2.31973">
        <ele>-6</ele>
        <time>2021-11-28T08:00:29.000Z</time>
      </trkpt>
      <trkpt lat="47.26205" lon="-2.31993">
        <ele>-6</ele>
        <time>2021-11-28T08:00:36.000Z</time>
      </trkpt>
      <trkpt lat="47.26191" lon="-2.31999">
        <ele>-6</ele>
        <time>2021-11-28T08:00:41.000Z</time>
      </trkpt>
      <trkpt lat="47.26178" lon="-2.32002">
        <ele>-6</ele>
        <time>2021-11-28T08:00:47.000Z</time>
      </trkpt>
      <trkpt lat="47.26175" lon="-2.32003">
        <ele>-6</ele>
        <time>2021-11-28T08:00:48.000Z</time>
      </trkpt>
      <trkpt lat="47.26164" lon="-2.32011">
        <ele>-6</ele>
        <time>2021-11-28T08:00:52.000Z</time>
      </trkpt>
      <trkpt lat="47.26153" lon="-2.32018">
        <ele>-6</ele>
        <time>2021-11-28T08:00:55.000Z</time>
      </trkpt>
      <trkpt lat="47.26146" lon="-2.32026">
        <ele>-6</ele>
        <time>2021-11-28T08:00:57.000Z</time>
      </trkpt>
      <trkpt lat="47.26127" lon="-2.3205">
        <ele>-6</ele>
        <time>2021-11-28T08:01:03.000Z</time>
      </trkpt>
      <trkpt lat="47.26113" lon="-2.3209">
        <ele>-6</ele>
        <time>2021-11-28T08:01:10.000Z</time>
      </trkpt>
      <trkpt lat="47.26098" lon="-2.3213">
        <ele>-6</ele>
        <time>2021-11-28T08:01:17.000Z</time>
      </trkpt>
      <trkpt lat="47.26094" lon="-2.32141">
        <ele>-6</ele>
        <time>2021-11-28T08:01:19.000Z</time>
      </trkpt>
      <trkpt lat="47.26083" lon="-2.32163">
        <ele>-6</ele>
        <time>2021-11-28T08:01:23.000Z</time>
      </trkpt>
      <trkpt lat="47.26062" lon="-2.32199">
        <ele>-6</ele>
        <time>2021-11-28T08:01:30.000Z</time>
      </trkpt>
      <trkpt lat="47.26043" lon="-2.3222">
        <ele>-6</ele>
        <time>2021-11-28T08:01:35.000Z</time>
      </trkpt>
      <trkpt lat="47.26039" lon="-2.32224">
        <ele>-6</ele>
        <time>2021-11-28T08:01:36.000Z</time>
      </trkpt>
      <trkpt lat="47.26026" lon="-2.32236">
        <ele>-6</ele>
        <time>2021-11-28T08:01:39.000Z</time>
      </trkpt>
      <trkpt lat="47.26019" lon="-2.32245">
        <ele>-6</ele>
        <time>2021-11-28T08:01:41.000Z</time>
      </trkpt>
      <trkpt lat="47.25994" lon="-2.32277">
        <ele>-6</ele>
        <time>2021-11-28T08:01:48.000Z</time>
      </trkpt>
      <trkpt lat="47.25972" lon="-2.32305">
        <ele>-6</ele>
        <time>2021-11-28T08:01:54.000Z</time>
      </trkpt>
      <trkpt lat="47.25941" lon="-2.32348">
        <ele>-6</ele>
        <time>2021-11-28T08:02:03.000Z</time>
      </trkpt>
      <trkpt lat="47.25911" lon="-2.32389">
        <ele>-6</ele>
        <time>2021-11-28T08:02:12.000Z</time>
      </trkpt>
      <trkpt lat="47.25887" lon="-2.3242">
        <ele>-6</ele>
        <time>2021-11-28T08:02:19.000Z</time>
      </trkpt>
      <trkpt lat="47.25874" lon="-2.32445">
        <ele>-6</ele>
        <time>2021-11-28T08:02:24.000Z</time>
      </trkpt>
      <trkpt lat="47.25868" lon="-2.32452">
        <ele>-6</ele>
        <time>2021-11-28T08:02:26.000Z</time>
      </trkpt>
      <trkpt lat="47.25864" lon="-2.32459">
        <ele>-6</ele>
        <time>2021-11-28T08:02:28.000Z</time>
      </trkpt>
      <trkpt lat="47.25851" lon="-2.32466">
        <ele>-6</ele>
        <time>2021-11-28T08:02:32.000Z</time>
      </trkpt>
      <trkpt lat="47.25847" lon="-2.32466">
        <ele>-6</ele>
        <time>2021-11-28T08:02:33.000Z</time>
      </trkpt>
      <trkpt lat="47.2583" lon="-2.32464">
        <ele>-6</ele>
        <time>2021-11-28T08:02:37.000Z</time>
      </trkpt>
      <trkpt lat="47.25801" lon="-2.3245">
        <ele>-6</ele>
        <time>2021-11-28T08:02:44.000Z</time>
      </trkpt>
      <trkpt lat="47.25783" lon="-2.32452">
        <ele>-6</ele>
        <time>2021-11-28T08:02:49.000Z</time>
      </trkpt>
      <trkpt lat="47.25773" lon="-2.32446">
        <ele>-6</ele>
        <time>2021-11-28T08:02:52.000Z</time>
      </trkpt>
      <trkpt lat="47.2577" lon="-2.32442">
        <ele>-6</ele>
        <time>2021-11-28T08:02:53.000Z</time>
      </trkpt>
      <trkpt lat="47.25762" lon="-2.32427">
        <ele>-6</ele>
        <time>2021-11-28T08:02:56.000Z</time>
      </trkpt>
      <trkpt lat="47.25758" lon="-2.32424">
        <ele>-6</ele>
        <time>2021-11-28T08:02:57.000Z</time>
      </trkpt>
      <trkpt lat="47.2574" lon="-2.32422">
        <ele>-6</ele>
        <time>2021-11-28T08:03:01.000Z</time>
      </trkpt>
      <trkpt lat="47.25729" lon="-2.32422">
        <ele>-6</ele>
        <time>2021-11-28T08:03:03.000Z</time>
      </trkpt>
      <trkpt lat="47.25709" lon="-2.32421">
        <ele>-6</ele>
        <time>2021-11-28T08:03:07.000Z</time>
      </trkpt>
      <trkpt lat="47.2568" lon="-2.32418">
        <ele>-6</ele>
        <time>2021-11-28T08:03:13.000Z</time>
      </trkpt>
      <trkpt lat="47.25671" lon="-2.32418">
        <ele>-6</ele>
        <time>2021-11-28T08:03:15.000Z</time>
      </trkpt>
      <trkpt lat="47.2566" lon="-2.32424">
        <ele>-6</ele>
        <time>2021-11-28T08:03:18.000Z</time>
      </trkpt>
      <trkpt lat="47.25658" lon="-2.32441">
        <ele>-6</ele>
        <time>2021-11-28T08:03:21.000Z</time>
      </trkpt>
      <trkpt lat="47.25661" lon="-2.32452">
        <ele>-5.5999999046326</ele>
        <time>2021-11-28T08:03:23.000Z</time>
      </trkpt>
      <trkpt lat="47.25662" lon="-2.32458">
        <ele>-5.1999998092651</ele>
        <time>2021-11-28T08:03:24.000Z</time>
      </trkpt>
      <trkpt lat="47.25664" lon="-2.32463">
        <ele>-4.8000001907349</ele>
        <time>2021-11-28T08:03:25.000Z</time>
      </trkpt>
      <trkpt lat="47.25666" lon="-2.32469">
        <ele>-4.4000000953674</ele>
        <time>2021-11-28T08:03:26.000Z</time>
      </trkpt>
      <trkpt lat="47.25669" lon="-2.32475">
        <ele>-4</ele>
        <time>2021-11-28T08:03:27.000Z</time>
      </trkpt>
      <trkpt lat="47.25685" lon="-2.32518">
        <ele>-4</ele>
        <time>2021-11-28T08:03:35.000Z</time>
      </trkpt>
      <trkpt lat="47.25686" lon="-2.32523">
        <ele>-3.5999999046326</ele>
        <time>2021-11-28T08:03:36.000Z</time>
      </trkpt>
      <trkpt lat="47.25688" lon="-2.32528">
        <ele>-3</ele>
        <time>2021-11-28T08:03:37.000Z</time>
      </trkpt>
      <trkpt lat="47.2569" lon="-2.32533">
        <ele>-2.5999999046326</ele>
        <time>2021-11-28T08:03:38.000Z</time>
      </trkpt>
      <trkpt lat="47.25692" lon="-2.32538">
        <ele>-2.2000000476837</ele>
        <time>2021-11-28T08:03:39.000Z</time>
      </trkpt>
      <trkpt lat="47.25693" lon="-2.32543">
        <ele>-1.7999999523163</ele>
        <time>2021-11-28T08:03:40.000Z</time>
      </trkpt>
      <trkpt lat="47.257" lon="-2.32563">
        <ele>-1.7999999523163</ele>
        <time>2021-11-28T08:03:44.000Z</time>
      </trkpt>
      <trkpt lat="47.2571" lon="-2.32598">
        <ele>-1.7999999523163</ele>
        <time>2021-11-28T08:03:51.000Z</time>
      </trkpt>
      <trkpt lat="47.25709" lon="-2.32614">
        <ele>-1.7999999523163</ele>
        <time>2021-11-28T08:03:54.000Z</time>
      </trkpt>
      <trkpt lat="47.25707" lon="-2.32618">
        <ele>-1.7999999523163</ele>
        <time>2021-11-28T08:03:55.000Z</time>
      </trkpt>
      <trkpt lat="47.25695" lon="-2.32629">
        <ele>-1.3999999761581</ele>
        <time>2021-11-28T08:03:59.000Z</time>
      </trkpt>
      <trkpt lat="47.25691" lon="-2.32631">
        <ele>-1</ele>
        <time>2021-11-28T08:04:00.000Z</time>
      </trkpt>
      <trkpt lat="47.25688" lon="-2.32632">
        <ele>-0.60000002384186</ele>
        <time>2021-11-28T08:04:01.000Z</time>
      </trkpt>
      <trkpt lat="47.25684" lon="-2.32634">
        <ele>-0.20000000298023</ele>
        <time>2021-11-28T08:04:02.000Z</time>
      </trkpt>
      <trkpt lat="47.2568" lon="-2.32635">
        <ele>0.20000000298023</ele>
        <time>2021-11-28T08:04:03.000Z</time>
      </trkpt>
      <trkpt lat="47.25662" lon="-2.32642">
        <ele>0.20000000298023</ele>
        <time>2021-11-28T08:04:08.000Z</time>
      </trkpt>
      <trkpt lat="47.25637" lon="-2.32654">
        <ele>0.20000000298023</ele>
        <time>2021-11-28T08:04:15.000Z</time>
      </trkpt>
      <trkpt lat="47.2563" lon="-2.32658">
        <ele>1</ele>
        <time>2021-11-28T08:04:17.000Z</time>
      </trkpt>
      <trkpt lat="47.25626" lon="-2.32659">
        <ele>1.3999999761581</ele>
        <time>2021-11-28T08:04:18.000Z</time>
      </trkpt>
      <trkpt lat="47.25623" lon="-2.32661">
        <ele>1.7999999523163</ele>
        <time>2021-11-28T08:04:19.000Z</time>
      </trkpt>
      <trkpt lat="47.25619" lon="-2.32662">
        <ele>2.2000000476837</ele>
        <time>2021-11-28T08:04:20.000Z</time>
      </trkpt>
      <trkpt lat="47.25612" lon="-2.32665">
        <ele>2.2000000476837</ele>
        <time>2021-11-28T08:04:22.000Z</time>
      </trkpt>
      <trkpt lat="47.25587" lon="-2.32676">
        <ele>2.2000000476837</ele>
        <time>2021-11-28T08:04:29.000Z</time>
      </trkpt>
      <trkpt lat="47.25558" lon="-2.3269">
        <ele>2.2000000476837</ele>
        <time>2021-11-28T08:04:36.000Z</time>
      </trkpt>
      <trkpt lat="47.25528" lon="-2.32701">
        <ele>2.2000000476837</ele>
        <time>2021-11-28T08:04:43.000Z</time>
      </trkpt>
      <trkpt lat="47.25519" lon="-2.32702">
        <ele>2.2000000476837</ele>
        <time>2021-11-28T08:04:45.000Z</time>
      </trkpt>
      <trkpt lat="47.25501" lon="-2.32703">
        <ele>2.2000000476837</ele>
        <time>2021-11-28T08:04:49.000Z</time>
      </trkpt>
      <trkpt lat="47.25496" lon="-2.32704">
        <ele>2.2000000476837</ele>
        <time>2021-11-28T08:04:50.000Z</time>
      </trkpt>
      <trkpt lat="47.25483" lon="-2.3271">
        <ele>2.2000000476837</ele>
        <time>2021-11-28T08:04:53.000Z</time>
      </trkpt>
      <trkpt lat="47.25475" lon="-2.32717">
        <ele>2.2000000476837</ele>
        <time>2021-11-28T08:04:55.000Z</time>
      </trkpt>
      <trkpt lat="47.25451" lon="-2.32751">
        <ele>2.2000000476837</ele>
        <time>2021-11-28T08:05:02.000Z</time>
      </trkpt>
      <trkpt lat="47.25439" lon="-2.32771">
        <ele>2.2000000476837</ele>
        <time>2021-11-28T08:05:06.000Z</time>
      </trkpt>
      <trkpt lat="47.25436" lon="-2.32783">
        <ele>2.2000000476837</ele>
        <time>2021-11-28T08:05:08.000Z</time>
      </trkpt>
      <trkpt lat="47.25422" lon="-2.32804">
        <ele>2.2000000476837</ele>
        <time>2021-11-28T08:05:12.000Z</time>
      </trkpt>
      <trkpt lat="47.25418" lon="-2.3281">
        <ele>2.2000000476837</ele>
        <time>2021-11-28T08:05:13.000Z</time>
      </trkpt>
      <trkpt lat="47.2539" lon="-2.32846">
        <ele>2.2000000476837</ele>
        <time>2021-11-28T08:05:20.000Z</time>
      </trkpt>
      <trkpt lat="47.25352" lon="-2.32884">
        <ele>2.2000000476837</ele>
        <time>2021-11-28T08:05:29.000Z</time>
      </trkpt>
      <trkpt lat="47.25336" lon="-2.32899">
        <ele>1.7999999523163</ele>
        <time>2021-11-28T08:05:33.000Z</time>
      </trkpt>
      <trkpt lat="47.25331" lon="-2.32903">
        <ele>1.3999999761581</ele>
        <time>2021-11-28T08:05:34.000Z</time>
      </trkpt>
      <trkpt lat="47.25327" lon="-2.32907">
        <ele>1</ele>
        <time>2021-11-28T08:05:35.000Z</time>
      </trkpt>
      <trkpt lat="47.25323" lon="-2.32911">
        <ele>0.60000002384186</ele>
        <time>2021-11-28T08:05:36.000Z</time>
      </trkpt>
      <trkpt lat="47.25319" lon="-2.32915">
        <ele>0.20000000298023</ele>
        <time>2021-11-28T08:05:37.000Z</time>
      </trkpt>
      <trkpt lat="47.25311" lon="-2.32938">
        <ele>0.20000000298023</ele>
        <time>2021-11-28T08:05:41.000Z</time>
      </trkpt>
      <trkpt lat="47.25315" lon="-2.32963">
        <ele>0.20000000298023</ele>
        <time>2021-11-28T08:05:45.000Z</time>
      </trkpt>
      <trkpt lat="47.25316" lon="-2.32969">
        <ele>0.20000000298023</ele>
        <time>2021-11-28T08:05:46.000Z</time>
      </trkpt>
      <trkpt lat="47.2533" lon="-2.33004">
        <ele>0.20000000298023</ele>
        <time>2021-11-28T08:05:52.000Z</time>
      </trkpt>
      <trkpt lat="47.25347" lon="-2.33049">
        <ele>0.20000000298023</ele>
        <time>2021-11-28T08:06:00.000Z</time>
      </trkpt>
      <trkpt lat="47.2535" lon="-2.33054">
        <ele>0.20000000298023</ele>
        <time>2021-11-28T08:06:01.000Z</time>
      </trkpt>
      <trkpt lat="47.25362" lon="-2.33079">
        <ele>0.20000000298023</ele>
        <time>2021-11-28T08:06:06.000Z</time>
      </trkpt>
      <trkpt lat="47.25367" lon="-2.33095">
        <ele>0.20000000298023</ele>
        <time>2021-11-28T08:06:11.000Z</time>
      </trkpt>
      <trkpt lat="47.25367" lon="-2.33095">
        <ele>0.20000000298023</ele>
        <time>2021-11-28T08:06:13.000Z</time>
      </trkpt>
      <trkpt lat="47.25374" lon="-2.33102">
        <ele>0.20000000298023</ele>
        <time>2021-11-28T08:10:58.000Z</time>
      </trkpt>
      <trkpt lat="47.25376" lon="-2.33107">
        <ele>0.20000000298023</ele>
        <time>2021-11-28T08:11:00.000Z</time>
      </trkpt>
      <trkpt lat="47.25383" lon="-2.33127">
        <ele>0.20000000298023</ele>
        <time>2021-11-28T08:11:06.000Z</time>
      </trkpt>
      <trkpt lat="47.25388" lon="-2.33136">
        <ele>0.20000000298023</ele>
        <time>2021-11-28T08:11:09.000Z</time>
      </trkpt>
      <trkpt lat="47.25394" lon="-2.33135">
        <ele>0.20000000298023</ele>
        <time>2021-11-28T08:11:11.000Z</time>
      </trkpt>
      <trkpt lat="47.25403" lon="-2.33129">
        <ele>0.20000000298023</ele>
        <time>2021-11-28T08:11:14.000Z</time>
      </trkpt>
      <trkpt lat="47.25413" lon="-2.33124">
        <ele>0.20000000298023</ele>
        <time>2021-11-28T08:11:17.000Z</time>
      </trkpt>
      <trkpt lat="47.25437" lon="-2.33115">
        <ele>0.20000000298023</ele>
        <time>2021-11-28T08:11:23.000Z</time>
      </trkpt>
      <trkpt lat="47.25446" lon="-2.3311">
        <ele>-0.20000000298023</ele>
        <time>2021-11-28T08:11:26.000Z</time>
      </trkpt>
      <trkpt lat="47.25449" lon="-2.33109">
        <ele>-0.60000002384186</ele>
        <time>2021-11-28T08:11:27.000Z</time>
      </trkpt>
      <trkpt lat="47.25452" lon="-2.33108">
        <ele>-1</ele>
        <time>2021-11-28T08:11:28.000Z</time>
      </trkpt>
      <trkpt lat="47.25456" lon="-2.33107">
        <ele>-1.6000000238419</ele>
        <time>2021-11-28T08:11:29.000Z</time>
      </trkpt>
      <trkpt lat="47.25459" lon="-2.33106">
        <ele>-2</ele>
        <time>2021-11-28T08:11:30.000Z</time>
      </trkpt>
      <trkpt lat="47.25478" lon="-2.33097">
        <ele>-2</ele>
        <time>2021-11-28T08:11:36.000Z</time>
      </trkpt>
      <trkpt lat="47.25496" lon="-2.3308">
        <ele>-2</ele>
        <time>2021-11-28T08:11:42.000Z</time>
      </trkpt>
      <trkpt lat="47.25515" lon="-2.33058">
        <ele>-2</ele>
        <time>2021-11-28T08:11:48.000Z</time>
      </trkpt>
      <trkpt lat="47.25536" lon="-2.33045">
        <ele>-2</ele>
        <time>2021-11-28T08:11:54.000Z</time>
      </trkpt>
      <trkpt lat="47.25563" lon="-2.33038">
        <ele>-2</ele>
        <time>2021-11-28T08:12:01.000Z</time>
      </trkpt>
      <trkpt lat="47.25588" lon="-2.33031">
        <ele>-2</ele>
        <time>2021-11-28T08:12:08.000Z</time>
      </trkpt>
      <trkpt lat="47.25591" lon="-2.3303">
        <ele>-1.3999999761581</ele>
        <time>2021-11-28T08:12:09.000Z</time>
      </trkpt>
      <trkpt lat="47.25595" lon="-2.3303">
        <ele>-1</ele>
        <time>2021-11-28T08:12:10.000Z</time>
      </trkpt>
      <trkpt lat="47.25598" lon="-2.33029">
        <ele>-0.60000002384186</ele>
        <time>2021-11-28T08:12:11.000Z</time>
      </trkpt>
      <trkpt lat="47.25602" lon="-2.33028">
        <ele>-0.20000000298023</ele>
        <time>2021-11-28T08:12:12.000Z</time>
      </trkpt>
      <trkpt lat="47.25605" lon="-2.33027">
        <ele>0.20000000298023</ele>
        <time>2021-11-28T08:12:13.000Z</time>
      </trkpt>
      <trkpt lat="47.25612" lon="-2.33026">
        <ele>0.20000000298023</ele>
        <time>2021-11-28T08:12:15.000Z</time>
      </trkpt>
      <trkpt lat="47.25619" lon="-2.33016">
        <ele>0.20000000298023</ele>
        <time>2021-11-28T08:12:18.000Z</time>
      </trkpt>
      <trkpt lat="47.25618" lon="-2.32991">
        <ele>0.20000000298023</ele>
        <time>2021-11-28T08:12:23.000Z</time>
      </trkpt>
      <trkpt lat="47.25612" lon="-2.32957">
        <ele>0.20000000298023</ele>
        <time>2021-11-28T08:12:29.000Z</time>
      </trkpt>
      <trkpt lat="47.2561" lon="-2.3294">
        <ele>0.60000002384186</ele>
        <time>2021-11-28T08:12:32.000Z</time>
      </trkpt>
      <trkpt lat="47.25609" lon="-2.32935">
        <ele>1</ele>
        <time>2021-11-28T08:12:33.000Z</time>
      </trkpt>
      <trkpt lat="47.25608" lon="-2.32929">
        <ele>1.3999999761581</ele>
        <time>2021-11-28T08:12:34.000Z</time>
      </trkpt>
      <trkpt lat="47.25607" lon="-2.32923">
        <ele>1.7999999523163</ele>
        <time>2021-11-28T08:12:35.000Z</time>
      </trkpt>
      <trkpt lat="47.25607" lon="-2.32917">
        <ele>2.2000000476837</ele>
        <time>2021-11-28T08:12:36.000Z</time>
      </trkpt>
      <trkpt lat="47.256" lon="-2.32866">
        <ele>2.2000000476837</ele>
        <time>2021-11-28T08:12:44.000Z</time>
      </trkpt>
      <trkpt lat="47.25597" lon="-2.32841">
        <ele>2.2000000476837</ele>
        <time>2021-11-28T08:12:48.000Z</time>
      </trkpt>
      <trkpt lat="47.25597" lon="-2.32827">
        <ele>2.2000000476837</ele>
        <time>2021-11-28T08:12:50.000Z</time>
      </trkpt>
      <trkpt lat="47.25601" lon="-2.32808">
        <ele>2.2000000476837</ele>
        <time>2021-11-28T08:12:53.000Z</time>
      </trkpt>
      <trkpt lat="47.25604" lon="-2.32795">
        <ele>2.2000000476837</ele>
        <time>2021-11-28T08:12:55.000Z</time>
      </trkpt>
      <trkpt lat="47.25605" lon="-2.32789">
        <ele>2.2000000476837</ele>
        <time>2021-11-28T08:12:56.000Z</time>
      </trkpt>
      <trkpt lat="47.25608" lon="-2.32757">
        <ele>2.2000000476837</ele>
        <time>2021-11-28T08:13:01.000Z</time>
      </trkpt>
      <trkpt lat="47.25611" lon="-2.32711">
        <ele>2.2000000476837</ele>
        <time>2021-11-28T08:13:09.000Z</time>
      </trkpt>
      <trkpt lat="47.25611" lon="-2.32675">
        <ele>2.2000000476837</ele>
        <time>2021-11-28T08:13:15.000Z</time>
      </trkpt>
      <trkpt lat="47.25612" lon="-2.3267">
        <ele>2.2000000476837</ele>
        <time>2021-11-28T08:13:16.000Z</time>
      </trkpt>
      <trkpt lat="47.25621" lon="-2.3266">
        <ele>2.2000000476837</ele>
        <time>2021-11-28T08:13:19.000Z</time>
      </trkpt>
      <trkpt lat="47.2563" lon="-2.32656">
        <ele>2.2000000476837</ele>
        <time>2021-11-28T08:13:21.000Z</time>
      </trkpt>
      <trkpt lat="47.2565" lon="-2.32649">
        <ele>2.2000000476837</ele>
        <time>2021-11-28T08:13:25.000Z</time>
      </trkpt>
      <trkpt lat="47.2568" lon="-2.32636">
        <ele>2.2000000476837</ele>
        <time>2021-11-28T08:13:31.000Z</time>
      </trkpt>
      <trkpt lat="47.25708" lon="-2.32621">
        <ele>2.2000000476837</ele>
        <time>2021-11-28T08:13:37.000Z</time>
      </trkpt>
      <trkpt lat="47.25712" lon="-2.32617">
        <ele>1.7999999523163</ele>
        <time>2021-11-28T08:13:38.000Z</time>
      </trkpt>
      <trkpt lat="47.25714" lon="-2.32612">
        <ele>1.3999999761581</ele>
        <time>2021-11-28T08:13:39.000Z</time>
      </trkpt>
      <trkpt lat="47.25714" lon="-2.32606">
        <ele>1</ele>
        <time>2021-11-28T08:13:40.000Z</time>
      </trkpt>
      <trkpt lat="47.25714" lon="-2.326">
        <ele>0.40000000596046</ele>
        <time>2021-11-28T08:13:41.000Z</time>
      </trkpt>
      <trkpt lat="47.25712" lon="-2.32594">
        <ele>9.4</ele>
        <time>2021-11-28T08:13:42.000Z</time>
      </trkpt>
      <trkpt lat="47.25711" lon="-2.32588">
        <ele>9.4</ele>
        <time>2021-11-28T08:13:43.000Z</time>
      </trkpt>
      <trkpt lat="47.25709" lon="-2.32582">
        <ele>9.4</ele>
        <time>2021-11-28T08:13:44.000Z</time>
      </trkpt>
      <trkpt lat="47.25694" lon="-2.32529">
        <ele>-0.40000000596046</ele>
        <time>2021-11-28T08:13:52.000Z</time>
      </trkpt>
      <trkpt lat="47.25692" lon="-2.32521">
        <ele>-0.80000001192093</ele>
        <time>2021-11-28T08:13:53.000Z</time>
      </trkpt>
      <trkpt lat="47.2569" lon="-2.32513">
        <ele>-1.2000000476837</ele>
        <time>2021-11-28T08:13:54.000Z</time>
      </trkpt>
      <trkpt lat="47.25688" lon="-2.32505">
        <ele>-1.7999999523163</ele>
        <time>2021-11-28T08:13:55.000Z</time>
      </trkpt>
      <trkpt lat="47.25686" lon="-2.32497">
        <ele>-2.2000000476837</ele>
        <time>2021-11-28T08:13:56.000Z</time>
      </trkpt>
      <trkpt lat="47.25681" lon="-2.32482">
        <ele>-2.2000000476837</ele>
        <time>2021-11-28T08:13:58.000Z</time>
      </trkpt>
      <trkpt lat="47.25668" lon="-2.32433">
        <ele>-2.5999999046326</ele>
        <time>2021-11-28T08:14:04.000Z</time>
      </trkpt>
      <trkpt lat="47.25668" lon="-2.32425">
        <ele>-3</ele>
        <time>2021-11-28T08:14:05.000Z</time>
      </trkpt>
      <trkpt lat="47.25669" lon="-2.32419">
        <ele>-3.4000000953674</ele>
        <time>2021-11-28T08:14:06.000Z</time>
      </trkpt>
      <trkpt lat="47.25672" lon="-2.32415">
        <ele>-3.7999999523163</ele>
        <time>2021-11-28T08:14:07.000Z</time>
      </trkpt>
      <trkpt lat="47.25676" lon="-2.32415">
        <ele>-4.1999998092651</ele>
        <time>2021-11-28T08:14:08.000Z</time>
      </trkpt>
      <trkpt lat="47.25681" lon="-2.32416">
        <ele>-4.1999998092651</ele>
        <time>2021-11-28T08:14:09.000Z</time>
      </trkpt>
      <trkpt lat="47.25686" lon="-2.32418">
        <ele>-4.1999998092651</ele>
        <time>2021-11-28T08:14:10.000Z</time>
      </trkpt>
      <trkpt lat="47.25715" lon="-2.32423">
        <ele>-4.1999998092651</ele>
        <time>2021-11-28T08:14:15.000Z</time>
      </trkpt>
      <trkpt lat="47.25748" lon="-2.32425">
        <ele>-4.1999998092651</ele>
        <time>2021-11-28T08:14:21.000Z</time>
      </trkpt>
      <trkpt lat="47.25765" lon="-2.32423">
        <ele>-4.1999998092651</ele>
        <time>2021-11-28T08:14:24.000Z</time>
      </trkpt>
      <trkpt lat="47.25778" lon="-2.32417">
        <ele>-4.1999998092651</ele>
        <time>2021-11-28T08:14:27.000Z</time>
      </trkpt>
      <trkpt lat="47.25782" lon="-2.32416">
        <ele>-4.1999998092651</ele>
        <time>2021-11-28T08:14:28.000Z</time>
      </trkpt>
      <trkpt lat="47.25789" lon="-2.32424">
        <ele>-4.1999998092651</ele>
        <time>2021-11-28T08:14:30.000Z</time>
      </trkpt>
      <trkpt lat="47.25799" lon="-2.32443">
        <ele>-4.1999998092651</ele>
        <time>2021-11-28T08:14:33.000Z</time>
      </trkpt>
      <trkpt lat="47.25803" lon="-2.32449">
        <ele>-4.1999998092651</ele>
        <time>2021-11-28T08:14:34.000Z</time>
      </trkpt>
      <trkpt lat="47.25824" lon="-2.32467">
        <ele>-4.1999998092651</ele>
        <time>2021-11-28T08:14:38.000Z</time>
      </trkpt>
      <trkpt lat="47.25856" lon="-2.3248">
        <ele>-4.1999998092651</ele>
        <time>2021-11-28T08:14:44.000Z</time>
      </trkpt>
      <trkpt lat="47.25861" lon="-2.3248">
        <ele>-4.1999998092651</ele>
        <time>2021-11-28T08:14:45.000Z</time>
      </trkpt>
      <trkpt lat="47.25871" lon="-2.32479">
        <ele>-4.1999998092651</ele>
        <time>2021-11-28T08:14:47.000Z</time>
      </trkpt>
      <trkpt lat="47.25882" lon="-2.32477">
        <ele>-4.1999998092651</ele>
        <time>2021-11-28T08:14:49.000Z</time>
      </trkpt>
      <trkpt lat="47.25887" lon="-2.32475">
        <ele>-4.5999999046326</ele>
        <time>2021-11-28T08:14:50.000Z</time>
      </trkpt>
      <trkpt lat="47.25893" lon="-2.32473">
        <ele>-5</ele>
        <time>2021-11-28T08:14:51.000Z</time>
      </trkpt>
      <trkpt lat="47.25898" lon="-2.3247">
        <ele>-5.4000000953674</ele>
        <time>2021-11-28T08:14:52.000Z</time>
      </trkpt>
      <trkpt lat="47.25903" lon="-2.32465">
        <ele>-5.8000001907349</ele>
        <time>2021-11-28T08:14:53.000Z</time>
      </trkpt>
      <trkpt lat="47.25908" lon="-2.32459">
        <ele>-6.1999998092651</ele>
        <time>2021-11-28T08:14:54.000Z</time>
      </trkpt>
      <trkpt lat="47.2594" lon="-2.32417">
        <ele>-6.1999998092651</ele>
        <time>2021-11-28T08:15:01.000Z</time>
      </trkpt>
      <trkpt lat="47.2597" lon="-2.32377">
        <ele>-6.1999998092651</ele>
        <time>2021-11-28T08:15:08.000Z</time>
      </trkpt>
      <trkpt lat="47.26009" lon="-2.32327">
        <ele>-6.1999998092651</ele>
        <time>2021-11-28T08:15:17.000Z</time>
      </trkpt>
      <trkpt lat="47.26034" lon="-2.32298">
        <ele>-6.1999998092651</ele>
        <time>2021-11-28T08:15:23.000Z</time>
      </trkpt>
      <trkpt lat="47.26063" lon="-2.32266">
        <ele>-6.1999998092651</ele>
        <time>2021-11-28T08:15:30.000Z</time>
      </trkpt>
      <trkpt lat="47.26087" lon="-2.32238">
        <ele>-6.1999998092651</ele>
        <time>2021-11-28T08:15:36.000Z</time>
      </trkpt>
      <trkpt lat="47.26113" lon="-2.32194">
        <ele>-6.1999998092651</ele>
        <time>2021-11-28T08:15:44.000Z</time>
      </trkpt>
      <trkpt lat="47.26137" lon="-2.32134">
        <ele>-6.1999998092651</ele>
        <time>2021-11-28T08:15:53.000Z</time>
      </trkpt>
      <trkpt lat="47.26149" lon="-2.32091">
        <ele>-6.1999998092651</ele>
        <time>2021-11-28T08:15:59.000Z</time>
      </trkpt>
      <trkpt lat="47.26164" lon="-2.32044">
        <ele>-6.1999998092651</ele>
        <time>2021-11-28T08:16:06.000Z</time>
      </trkpt>
      <trkpt lat="47.26173" lon="-2.32021">
        <ele>-6.1999998092651</ele>
        <time>2021-11-28T08:16:11.000Z</time>
      </trkpt>
      <trkpt lat="47.26181" lon="-2.32022">
        <ele>-6.1999998092651</ele>
        <time>2021-11-28T08:16:15.000Z</time>
      </trkpt>
      <trkpt lat="47.26189" lon="-2.32024">
        <ele>-6.1999998092651</ele>
        <time>2021-11-28T08:16:19.000Z</time>
      </trkpt>
      <trkpt lat="47.26194" lon="-2.32026">
        <ele>-6.1999998092651</ele>
        <time>2021-11-28T08:16:21.000Z</time>
      </trkpt>
      <trkpt lat="47.26201" lon="-2.32025">
        <ele>-6.1999998092651</ele>
        <time>2021-11-28T08:16:25.000Z</time>
      </trkpt>
      <trkpt lat="47.26202" lon="-2.32022">
        <ele>-6.1999998092651</ele>
        <time>2021-11-28T08:16:26.000Z</time>
      </trkpt>
      <trkpt lat="47.26205" lon="-2.32009">
        <ele>-6.1999998092651</ele>
        <time>2021-11-28T08:16:30.000Z</time>
      </trkpt>
      <trkpt lat="47.26206" lon="-2.32008">
        <ele>-6.1999998092651</ele>
        <time>2021-11-28T08:16:31.000Z</time>
      </trkpt>
      <trkpt lat="47.26212" lon="-2.31995">
        <ele>-6.1999998092651</ele>
        <time>2021-11-28T08:16:35.000Z</time>
      </trkpt>
      <trkpt lat="47.26216" lon="-2.31987">
        <ele>-6.1999998092651</ele>
        <time>2021-11-28T08:16:37.000Z</time>
      </trkpt>
      <trkpt lat="47.26235" lon="-2.31965">
        <ele>-6.1999998092651</ele>
        <time>2021-11-28T08:16:43.000Z</time>
      </trkpt>
      <trkpt lat="47.26245" lon="-2.31957">
        <ele>-6.1999998092651</ele>
        <time>2021-11-28T08:16:46.000Z</time>
      </trkpt>
      <trkpt lat="47.26248" lon="-2.31953">
        <ele>-6.1999998092651</ele>
        <time>2021-11-28T08:16:47.000Z</time>
      </trkpt>
      <trkpt lat="47.26256" lon="-2.31942">
        <ele>-6.1999998092651</ele>
        <time>2021-11-28T08:16:50.000Z</time>
      </trkpt>
      <trkpt lat="47.2626" lon="-2.31935">
        <ele>-6.1999998092651</ele>
        <time>2021-11-28T08:16:52.000Z</time>
      </trkpt>
      <trkpt lat="47.2627" lon="-2.31913">
        <ele>-6.1999998092651</ele>
        <time>2021-11-28T08:16:58.000Z</time>
      </trkpt>
      <trkpt lat="47.26286" lon="-2.31906">
        <ele>-6.1999998092651</ele>
        <time>2021-11-28T08:17:03.000Z</time>
      </trkpt>
      <trkpt lat="47.26292" lon="-2.31915">
        <ele>-6.1999998092651</ele>
        <time>2021-11-28T08:17:07.000Z</time>
      </trkpt>
      <trkpt lat="47.26293" lon="-2.31917">
        <ele>-6.1999998092651</ele>
        <time>2021-11-28T08:17:08.000Z</time>
      </trkpt>
      <trkpt lat="47.263" lon="-2.31931">
        <ele>-6.1999998092651</ele>
        <time>2021-11-28T08:17:13.000Z</time>
      </trkpt>
      <trkpt lat="47.26302" lon="-2.31932">
        <ele>-6.1999998092651</ele>
        <time>2021-11-28T08:17:14.000Z</time>
      </trkpt>
      <trkpt lat="47.26317" lon="-2.31935">
        <ele>-6.1999998092651</ele>
        <time>2021-11-28T08:17:18.000Z</time>
      </trkpt>
      <trkpt lat="47.26336" lon="-2.31935">
        <ele>-6.1999998092651</ele>
        <time>2021-11-28T08:17:23.000Z</time>
      </trkpt>
      <trkpt lat="47.26347" lon="-2.31945">
        <ele>-6.1999998092651</ele>
        <time>2021-11-28T08:17:27.000Z</time>
      </trkpt>
      <trkpt lat="47.26355" lon="-2.31964">
        <ele>-6.1999998092651</ele>
        <time>2021-11-28T08:17:32.000Z</time>
      </trkpt>
      <trkpt lat="47.26366" lon="-2.3198">
        <ele>-6.1999998092651</ele>
        <time>2021-11-28T08:17:37.000Z</time>
      </trkpt>
      <trkpt lat="47.2638" lon="-2.31984">
        <ele>-6.1999998092651</ele>
        <time>2021-11-28T08:17:41.000Z</time>
      </trkpt>
      <trkpt lat="47.26388" lon="-2.31986">
        <ele>-5.8000001907349</ele>
        <time>2021-11-28T08:17:43.000Z</time>
      </trkpt>
      <trkpt lat="47.26391" lon="-2.31987">
        <ele>-5.4000000953674</ele>
        <time>2021-11-28T08:17:44.000Z</time>
      </trkpt>
      <trkpt lat="47.26394" lon="-2.31987">
        <ele>-5</ele>
        <time>2021-11-28T08:17:45.000Z</time>
      </trkpt>
      <trkpt lat="47.26396" lon="-2.31987">
        <ele>-4.5999999046326</ele>
        <time>2021-11-28T08:17:46.000Z</time>
      </trkpt>
      <trkpt lat="47.26399" lon="-2.31987">
        <ele>-4.1999998092651</ele>
        <time>2021-11-28T08:17:47.000Z</time>
      </trkpt>
      <trkpt lat="47.26409" lon="-2.31991">
        <ele>-4.1999998092651</ele>
        <time>2021-11-28T08:17:51.000Z</time>
      </trkpt>
      <trkpt lat="47.26413" lon="-2.31992">
        <ele>-3.7999999523163</ele>
        <time>2021-11-28T08:17:52.000Z</time>
      </trkpt>
      <trkpt lat="47.26415" lon="-2.31993">
        <ele>-3</ele>
        <time>2021-11-28T08:17:53.000Z</time>
      </trkpt>
      <trkpt lat="47.26419" lon="-2.31994">
        <ele>-2.5999999046326</ele>
        <time>2021-11-28T08:17:54.000Z</time>
      </trkpt>
      <trkpt lat="47.26422" lon="-2.31995">
        <ele>-2.2000000476837</ele>
        <time>2021-11-28T08:17:55.000Z</time>
      </trkpt>
      <trkpt lat="47.26426" lon="-2.31995">
        <ele>-2.2000000476837</ele>
        <time>2021-11-28T08:17:56.000Z</time>
      </trkpt>
      <trkpt lat="47.26445" lon="-2.31996">
        <ele>-2.2000000476837</ele>
        <time>2021-11-28T08:18:01.000Z</time>
      </trkpt>
      <trkpt lat="47.26449" lon="-2.31997">
        <ele>-1.6000000238419</ele>
        <time>2021-11-28T08:18:02.000Z</time>
      </trkpt>
      <trkpt lat="47.26453" lon="-2.31998">
        <ele>-1.2000000476837</ele>
        <time>2021-11-28T08:18:03.000Z</time>
      </trkpt>
      <trkpt lat="47.26457" lon="-2.31998">
        <ele>-0.80000001192093</ele>
        <time>2021-11-28T08:18:04.000Z</time>
      </trkpt>
      <trkpt lat="47.2646" lon="-2.31999">
        <ele>-0.40000000596046</ele>
        <time>2021-11-28T08:18:05.000Z</time>
      </trkpt>
      <trkpt lat="47.26463" lon="-2.31999">
        <ele>12.7</ele>
        <time>2021-11-28T08:18:06.000Z</time>
      </trkpt>
      <trkpt lat="47.26469" lon="-2.31999">
        <ele>12.9</ele>
        <time>2021-11-28T08:18:08.000Z</time>
      </trkpt>
      <trkpt lat="47.26484" lon="-2.31997">
        <ele>0.60000002384186</ele>
        <time>2021-11-28T08:18:13.000Z</time>
      </trkpt>
      <trkpt lat="47.26487" lon="-2.31997">
        <ele>1</ele>
        <time>2021-11-28T08:18:14.000Z</time>
      </trkpt>
      <trkpt lat="47.2649" lon="-2.31997">
        <ele>1.3999999761581</ele>
        <time>2021-11-28T08:18:15.000Z</time>
      </trkpt>
      <trkpt lat="47.26494" lon="-2.31996">
        <ele>1.7999999523163</ele>
        <time>2021-11-28T08:18:16.000Z</time>
      </trkpt>
      <trkpt lat="47.26498" lon="-2.31997">
        <ele>2.2000000476837</ele>
        <time>2021-11-28T08:18:17.000Z</time>
      </trkpt>
      <trkpt lat="47.26506" lon="-2.31996">
        <ele>2.2000000476837</ele>
        <time>2021-11-28T08:18:20.000Z</time>
      </trkpt>
      <trkpt lat="47.26508" lon="-2.31994">
        <ele>2.2000000476837</ele>
        <time>2021-11-28T08:18:21.000Z</time>
      </trkpt>
      <trkpt lat="47.26513" lon="-2.31993">
        <ele>2.5999999046326</ele>
        <time>2021-11-28T08:18:23.000Z</time>
      </trkpt>
      <trkpt lat="47.26515" lon="-2.31993">
        <ele>3</ele>
        <time>2021-11-28T08:18:24.000Z</time>
      </trkpt>
      <trkpt lat="47.26517" lon="-2.31993">
        <ele>3.5999999046326</ele>
        <time>2021-11-28T08:18:25.000Z</time>
      </trkpt>
      <trkpt lat="47.2652" lon="-2.31993">
        <ele>4</ele>
        <time>2021-11-28T08:18:26.000Z</time>
      </trkpt>
      <trkpt lat="47.26523" lon="-2.31993">
        <ele>4.4000000953674</ele>
        <time>2021-11-28T08:18:27.000Z</time>
      </trkpt>
      <trkpt lat="47.26533" lon="-2.32">
        <ele>4.4000000953674</ele>
        <time>2021-11-28T08:18:31.000Z</time>
      </trkpt>
      <trkpt lat="47.26536" lon="-2.32003">
        <ele>4.8000001907349</ele>
        <time>2021-11-28T08:18:32.000Z</time>
      </trkpt>
      <trkpt lat="47.26537" lon="-2.32005">
        <ele>5.1999998092651</ele>
        <time>2021-11-28T08:18:33.000Z</time>
      </trkpt>
      <trkpt lat="47.26539" lon="-2.32007">
        <ele>5.5999999046326</ele>
        <time>2021-11-28T08:18:34.000Z</time>
      </trkpt>
      <trkpt lat="47.26541" lon="-2.32009">
        <ele>6</ele>
        <time>2021-11-28T08:18:35.000Z</time>
      </trkpt>
      <trkpt lat="47.26543" lon="-2.32012">
        <ele>6.4000000953674</ele>
        <time>2021-11-28T08:18:36.000Z</time>
      </trkpt>
      <trkpt lat="47.26548" lon="-2.32027">
        <ele>6.4000000953674</ele>
        <time>2021-11-28T08:18:41.000Z</time>
      </trkpt>
      <trkpt lat="47.26549" lon="-2.32028">
        <ele>6.4000000953674</ele>
        <time>2021-11-28T08:18:42.000Z</time>
      </trkpt>
      <trkpt lat="47.26556" lon="-2.32031">
        <ele>6.4000000953674</ele>
        <time>2021-11-28T08:18:45.000Z</time>
      </trkpt>
      <trkpt lat="47.26559" lon="-2.3203">
        <ele>6.4000000953674</ele>
        <time>2021-11-28T08:18:46.000Z</time>
      </trkpt>
      <trkpt lat="47.2657" lon="-2.32029">
        <ele>6.8000001907349</ele>
        <time>2021-11-28T08:18:50.000Z</time>
      </trkpt>
      <trkpt lat="47.26573" lon="-2.32029">
        <ele>7.1999998092651</ele>
        <time>2021-11-28T08:18:51.000Z</time>
      </trkpt>
      <trkpt lat="47.26576" lon="-2.32028">
        <ele>7.8000001907349</ele>
        <time>2021-11-28T08:18:52.000Z</time>
      </trkpt>
      <trkpt lat="47.2658" lon="-2.32028">
        <ele>8.1999998092651</ele>
        <time>2021-11-28T08:18:53.000Z</time>
      </trkpt>
      <trkpt lat="47.26583" lon="-2.32027">
        <ele>8.6000003814697</ele>
        <time>2021-11-28T08:18:54.000Z</time>
      </trkpt>
      <trkpt lat="47.266" lon="-2.32022">
        <ele>8.6000003814697</ele>
        <time>2021-11-28T08:19:00.000Z</time>
      </trkpt>
      <trkpt lat="47.26619" lon="-2.32018">
        <ele>9</ele>
        <time>2021-11-28T08:19:06.000Z</time>
      </trkpt>
      <trkpt lat="47.26622" lon="-2.32017">
        <ele>9.8000001907349</ele>
        <time>2021-11-28T08:19:07.000Z</time>
      </trkpt>
      <trkpt lat="47.26625" lon="-2.32016">
        <ele>10.199999809265</ele>
        <time>2021-11-28T08:19:08.000Z</time>
      </trkpt>
      <trkpt lat="47.26628" lon="-2.32015">
        <ele>10.60000038147</ele>
        <time>2021-11-28T08:19:09.000Z</time>
      </trkpt>
      <trkpt lat="47.26641" lon="-2.3201">
        <ele>10.60000038147</ele>
        <time>2021-11-28T08:19:14.000Z</time>
      </trkpt>
      <trkpt lat="47.26654" lon="-2.32013">
        <ele>10.60000038147</ele>
        <time>2021-11-28T08:19:19.000Z</time>
      </trkpt>
      <trkpt lat="47.26655" lon="-2.32017">
        <ele>10.60000038147</ele>
        <time>2021-11-28T08:19:20.000Z</time>
      </trkpt>
      <trkpt lat="47.26658" lon="-2.32032">
        <ele>10.60000038147</ele>
        <time>2021-11-28T08:19:23.000Z</time>
      </trkpt>
      <trkpt lat="47.26668" lon="-2.32077">
        <ele>10.60000038147</ele>
        <time>2021-11-28T08:19:31.000Z</time>
      </trkpt>
      <trkpt lat="47.26677" lon="-2.32119">
        <ele>10.60000038147</ele>
        <time>2021-11-28T08:19:39.000Z</time>
      </trkpt>
      <trkpt lat="47.26681" lon="-2.32124">
        <ele>10.60000038147</ele>
        <time>2021-11-28T08:19:41.000Z</time>
      </trkpt>
      <trkpt lat="47.26684" lon="-2.32123">
        <ele>10.60000038147</ele>
        <time>2021-11-28T08:19:42.000Z</time>
      </trkpt>
      <trkpt lat="47.26688" lon="-2.32108">
        <ele>10.60000038147</ele>
        <time>2021-11-28T08:19:46.000Z</time>
      </trkpt>
      <trkpt lat="47.26689" lon="-2.32092">
        <ele>10.60000038147</ele>
        <time>2021-11-28T08:19:49.000Z</time>
      </trkpt>
      <trkpt lat="47.26689" lon="-2.32075">
        <ele>10.60000038147</ele>
        <time>2021-11-28T08:19:52.000Z</time>
      </trkpt>
      <trkpt lat="47.26689" lon="-2.32038">
        <ele>10.60000038147</ele>
        <time>2021-11-28T08:19:59.000Z</time>
      </trkpt>
      <trkpt lat="47.267" lon="-2.32011">
        <ele>10.60000038147</ele>
        <time>2021-11-28T08:20:05.000Z</time>
      </trkpt>
      <trkpt lat="47.26708" lon="-2.32002">
        <ele>10.60000038147</ele>
        <time>2021-11-28T08:20:07.000Z</time>
      </trkpt>
      <trkpt lat="47.26718" lon="-2.31997">
        <ele>10.60000038147</ele>
        <time>2021-11-28T08:20:09.000Z</time>
      </trkpt>
      <trkpt lat="47.26723" lon="-2.31993">
        <ele>10.60000038147</ele>
        <time>2021-11-28T08:20:10.000Z</time>
      </trkpt>
      <trkpt lat="47.26732" lon="-2.31987">
        <ele>10.199999809265</ele>
        <time>2021-11-28T08:20:12.000Z</time>
      </trkpt>
      <trkpt lat="47.26737" lon="-2.31983">
        <ele>9.8000001907349</ele>
        <time>2021-11-28T08:20:13.000Z</time>
      </trkpt>
      <trkpt lat="47.26742" lon="-2.31979">
        <ele>9.3999996185303</ele>
        <time>2021-11-28T08:20:14.000Z</time>
      </trkpt>
      <trkpt lat="47.26747" lon="-2.31975">
        <ele>8.8000001907349</ele>
        <time>2021-11-28T08:20:15.000Z</time>
      </trkpt>
      <trkpt lat="47.26752" lon="-2.31971">
        <ele>8.3999996185303</ele>
        <time>2021-11-28T08:20:16.000Z</time>
      </trkpt>
      <trkpt lat="47.26755" lon="-2.31966">
        <ele>8.3999996185303</ele>
        <time>2021-11-28T08:20:17.000Z</time>
      </trkpt>
      <trkpt lat="47.26761" lon="-2.31954">
        <ele>8.3999996185303</ele>
        <time>2021-11-28T08:20:19.000Z</time>
      </trkpt>
      <trkpt lat="47.26771" lon="-2.31951">
        <ele>8.3999996185303</ele>
        <time>2021-11-28T08:20:22.000Z</time>
      </trkpt>
      <trkpt lat="47.26781" lon="-2.31969">
        <ele>8.3999996185303</ele>
        <time>2021-11-28T08:20:25.000Z</time>
      </trkpt>
      <trkpt lat="47.26784" lon="-2.31976">
        <ele>8</ele>
        <time>2021-11-28T08:20:26.000Z</time>
      </trkpt>
      <trkpt lat="47.26788" lon="-2.31983">
        <ele>7.5999999046326</ele>
        <time>2021-11-28T08:20:27.000Z</time>
      </trkpt>
      <trkpt lat="47.26792" lon="-2.31991">
        <ele>7.1999998092651</ele>
        <time>2021-11-28T08:20:28.000Z</time>
      </trkpt>
      <trkpt lat="47.26796" lon="-2.31999">
        <ele>6.5999999046326</ele>
        <time>2021-11-28T08:20:29.000Z</time>
      </trkpt>
      <trkpt lat="47.268" lon="-2.32007">
        <ele>6.1999998092651</ele>
        <time>2021-11-28T08:20:30.000Z</time>
      </trkpt>
      <trkpt lat="47.26807" lon="-2.32024">
        <ele>6.1999998092651</ele>
        <time>2021-11-28T08:20:32.000Z</time>
      </trkpt>
      <trkpt lat="47.26813" lon="-2.32043">
        <ele>6.1999998092651</ele>
        <time>2021-11-28T08:20:34.000Z</time>
      </trkpt>
      <trkpt lat="47.26816" lon="-2.32054">
        <ele>5.8000001907349</ele>
        <time>2021-11-28T08:20:35.000Z</time>
      </trkpt>
      <trkpt lat="47.26818" lon="-2.32064">
        <ele>5.4000000953674</ele>
        <time>2021-11-28T08:20:36.000Z</time>
      </trkpt>
      <trkpt lat="47.26821" lon="-2.32074">
        <ele>5</ele>
        <time>2021-11-28T08:20:37.000Z</time>
      </trkpt>
      <trkpt lat="47.26824" lon="-2.32083">
        <ele>4.5999999046326</ele>
        <time>2021-11-28T08:20:38.000Z</time>
      </trkpt>
      <trkpt lat="47.26826" lon="-2.32093">
        <ele>4.1999998092651</ele>
        <time>2021-11-28T08:20:39.000Z</time>
      </trkpt>
      <trkpt lat="47.2684" lon="-2.3214">
        <ele>4.1999998092651</ele>
        <time>2021-11-28T08:20:44.000Z</time>
      </trkpt>
      <trkpt lat="47.26842" lon="-2.32149">
        <ele>4.1999998092651</ele>
        <time>2021-11-28T08:20:45.000Z</time>
      </trkpt>
      <trkpt lat="47.26845" lon="-2.32158">
        <ele>3.4000000953674</ele>
        <time>2021-11-28T08:20:46.000Z</time>
      </trkpt>
      <trkpt lat="47.26847" lon="-2.32167">
        <ele>3</ele>
        <time>2021-11-28T08:20:47.000Z</time>
      </trkpt>
      <trkpt lat="47.2685" lon="-2.32175">
        <ele>2.5999999046326</ele>
        <time>2021-11-28T08:20:48.000Z</time>
      </trkpt>
      <trkpt lat="47.26853" lon="-2.32183">
        <ele>2</ele>
        <time>2021-11-28T08:20:49.000Z</time>
      </trkpt>
      <trkpt lat="47.26857" lon="-2.32191">
        <ele>2</ele>
        <time>2021-11-28T08:20:50.000Z</time>
      </trkpt>
      <trkpt lat="47.26874" lon="-2.32228">
        <ele>1.6000000238419</ele>
        <time>2021-11-28T08:20:55.000Z</time>
      </trkpt>
      <trkpt lat="47.26878" lon="-2.32236">
        <ele>1.2000000476837</ele>
        <time>2021-11-28T08:20:56.000Z</time>
      </trkpt>
      <trkpt lat="47.26882" lon="-2.32243">
        <ele>0.80000001192093</ele>
        <time>2021-11-28T08:20:57.000Z</time>
      </trkpt>
      <trkpt lat="47.26886" lon="-2.3225">
        <ele>0.40000000596046</ele>
        <time>2021-11-28T08:20:58.000Z</time>
      </trkpt>
      <trkpt lat="47.26891" lon="-2.32257">
        <ele>-0.20000000298023</ele>
        <time>2021-11-28T08:20:59.000Z</time>
      </trkpt>
      <trkpt lat="47.26907" lon="-2.32286">
        <ele>-0.60000002384186</ele>
        <time>2021-11-28T08:21:03.000Z</time>
      </trkpt>
      <trkpt lat="47.26911" lon="-2.32293">
        <ele>-1</ele>
        <time>2021-11-28T08:21:04.000Z</time>
      </trkpt>
      <trkpt lat="47.26914" lon="-2.32301">
        <ele>-1.3999999761581</ele>
        <time>2021-11-28T08:21:05.000Z</time>
      </trkpt>
      <trkpt lat="47.26917" lon="-2.3231">
        <ele>-2</ele>
        <time>2021-11-28T08:21:06.000Z</time>
      </trkpt>
      <trkpt lat="47.26919" lon="-2.32318">
        <ele>-2.4000000953674</ele>
        <time>2021-11-28T08:21:07.000Z</time>
      </trkpt>
      <trkpt lat="47.26925" lon="-2.3234">
        <ele>-2.4000000953674</ele>
        <time>2021-11-28T08:21:10.000Z</time>
      </trkpt>
      <trkpt lat="47.26936" lon="-2.32357">
        <ele>-2.7999999523163</ele>
        <time>2021-11-28T08:21:13.000Z</time>
      </trkpt>
      <trkpt lat="47.26938" lon="-2.32364">
        <ele>-3.2000000476837</ele>
        <time>2021-11-28T08:21:14.000Z</time>
      </trkpt>
      <trkpt lat="47.2694" lon="-2.32371">
        <ele>-3.5999999046326</ele>
        <time>2021-11-28T08:21:15.000Z</time>
      </trkpt>
      <trkpt lat="47.26942" lon="-2.32378">
        <ele>-4</ele>
        <time>2021-11-28T08:21:16.000Z</time>
      </trkpt>
      <trkpt lat="47.26944" lon="-2.32386">
        <ele>-4.4000000953674</ele>
        <time>2021-11-28T08:21:17.000Z</time>
      </trkpt>
      <trkpt lat="47.26952" lon="-2.3241">
        <ele>-4.4000000953674</ele>
        <time>2021-11-28T08:21:20.000Z</time>
      </trkpt>
      <trkpt lat="47.2697" lon="-2.32447">
        <ele>-4.4000000953674</ele>
        <time>2021-11-28T08:21:25.000Z</time>
      </trkpt>
      <trkpt lat="47.26992" lon="-2.32486">
        <ele>-4.4000000953674</ele>
        <time>2021-11-28T08:21:31.000Z</time>
      </trkpt>
      <trkpt lat="47.27003" lon="-2.32504">
        <ele>-4.8000001907349</ele>
        <time>2021-11-28T08:21:34.000Z</time>
      </trkpt>
      <trkpt lat="47.27008" lon="-2.32507">
        <ele>-5.1999998092651</ele>
        <time>2021-11-28T08:21:35.000Z</time>
      </trkpt>
      <trkpt lat="47.27013" lon="-2.32507">
        <ele>-6</ele>
        <time>2021-11-28T08:21:36.000Z</time>
      </trkpt>
      <trkpt lat="47.27018" lon="-2.32506">
        <ele>-6.4000000953674</ele>
        <time>2021-11-28T08:21:37.000Z</time>
      </trkpt>
      <trkpt lat="47.27028" lon="-2.32498">
        <ele>-6.4000000953674</ele>
        <time>2021-11-28T08:21:39.000Z</time>
      </trkpt>
      <trkpt lat="47.27035" lon="-2.32475">
        <ele>-6.4000000953674</ele>
        <time>2021-11-28T08:21:42.000Z</time>
      </trkpt>
      <trkpt lat="47.27037" lon="-2.3244">
        <ele>-6.4000000953674</ele>
        <time>2021-11-28T08:21:46.000Z</time>
      </trkpt>
      <trkpt lat="47.27035" lon="-2.3242">
        <ele>-6.4000000953674</ele>
        <time>2021-11-28T08:21:48.000Z</time>
      </trkpt>
      <trkpt lat="47.27032" lon="-2.32393">
        <ele>-6.4000000953674</ele>
        <time>2021-11-28T08:21:51.000Z</time>
      </trkpt>
      <trkpt lat="47.27023" lon="-2.32339">
        <ele>-6.4000000953674</ele>
        <time>2021-11-28T08:21:57.000Z</time>
      </trkpt>
      <trkpt lat="47.2702" lon="-2.32296">
        <ele>-6.4000000953674</ele>
        <time>2021-11-28T08:22:02.000Z</time>
      </trkpt>
      <trkpt lat="47.2702" lon="-2.32249">
        <ele>-6.4000000953674</ele>
        <time>2021-11-28T08:22:08.000Z</time>
      </trkpt>
      <trkpt lat="47.27018" lon="-2.32226">
        <ele>-6.4000000953674</ele>
        <time>2021-11-28T08:22:11.000Z</time>
      </trkpt>
      <trkpt lat="47.27014" lon="-2.32203">
        <ele>-6.4000000953674</ele>
        <time>2021-11-28T08:22:14.000Z</time>
      </trkpt>
      <trkpt lat="47.2701" lon="-2.32189">
        <ele>-6.4000000953674</ele>
        <time>2021-11-28T08:22:16.000Z</time>
      </trkpt>
      <trkpt lat="47.27001" lon="-2.32171">
        <ele>-6.4000000953674</ele>
        <time>2021-11-28T08:22:19.000Z</time>
      </trkpt>
      <trkpt lat="47.2699" lon="-2.32143">
        <ele>-6.4000000953674</ele>
        <time>2021-11-28T08:22:23.000Z</time>
      </trkpt>
      <trkpt lat="47.26997" lon="-2.32129">
        <ele>-6.4000000953674</ele>
        <time>2021-11-28T08:22:26.000Z</time>
      </trkpt>
      <trkpt lat="47.27004" lon="-2.32121">
        <ele>-6.4000000953674</ele>
        <time>2021-11-28T08:22:28.000Z</time>
      </trkpt>
      <trkpt lat="47.27009" lon="-2.32111">
        <ele>-6.4000000953674</ele>
        <time>2021-11-28T08:22:30.000Z</time>
      </trkpt>
      <trkpt lat="47.27014" lon="-2.32094">
        <ele>-6.4000000953674</ele>
        <time>2021-11-28T08:22:33.000Z</time>
      </trkpt>
      <trkpt lat="47.27015" lon="-2.3208">
        <ele>-6.4000000953674</ele>
        <time>2021-11-28T08:22:35.000Z</time>
      </trkpt>
      <trkpt lat="47.27017" lon="-2.32046">
        <ele>-6.4000000953674</ele>
        <time>2021-11-28T08:22:40.000Z</time>
      </trkpt>
      <trkpt lat="47.27015" lon="-2.32034">
        <ele>-6.4000000953674</ele>
        <time>2021-11-28T08:22:42.000Z</time>
      </trkpt>
      <trkpt lat="47.27012" lon="-2.32018">
        <ele>-6</ele>
        <time>2021-11-28T08:22:45.000Z</time>
      </trkpt>
      <trkpt lat="47.27011" lon="-2.32013">
        <ele>-5.5999999046326</ele>
        <time>2021-11-28T08:22:46.000Z</time>
      </trkpt>
      <trkpt lat="47.27009" lon="-2.32008">
        <ele>-5.1999998092651</ele>
        <time>2021-11-28T08:22:47.000Z</time>
      </trkpt>
      <trkpt lat="47.27008" lon="-2.32004">
        <ele>-4.8000001907349</ele>
        <time>2021-11-28T08:22:48.000Z</time>
      </trkpt>
      <trkpt lat="47.27007" lon="-2.32">
        <ele>-4.1999998092651</ele>
        <time>2021-11-28T08:22:49.000Z</time>
      </trkpt>
      <trkpt lat="47.27004" lon="-2.31992">
        <ele>-4.1999998092651</ele>
        <time>2021-11-28T08:22:52.000Z</time>
      </trkpt>
      <trkpt lat="47.27003" lon="-2.31991">
        <ele>-4.1999998092651</ele>
        <time>2021-11-28T08:22:53.000Z</time>
      </trkpt>
      <trkpt lat="47.26997" lon="-2.31989">
        <ele>-4.1999998092651</ele>
        <time>2021-11-28T08:22:59.000Z</time>
      </trkpt>
      <trkpt lat="47.26985" lon="-2.31993">
        <ele>-4.1999998092651</ele>
        <time>2021-11-28T08:23:04.000Z</time>
      </trkpt>
      <trkpt lat="47.26965" lon="-2.32001">
        <ele>-4.1999998092651</ele>
        <time>2021-11-28T08:23:09.000Z</time>
      </trkpt>
      <trkpt lat="47.26956" lon="-2.32003">
        <ele>-3.7999999523163</ele>
        <time>2021-11-28T08:23:11.000Z</time>
      </trkpt>
      <trkpt lat="47.26952" lon="-2.32001">
        <ele>-3.4000000953674</ele>
        <time>2021-11-28T08:23:12.000Z</time>
      </trkpt>
      <trkpt lat="47.26949" lon="-2.31999">
        <ele>-2.5999999046326</ele>
        <time>2021-11-28T08:23:13.000Z</time>
      </trkpt>
      <trkpt lat="47.26947" lon="-2.31995">
        <ele>-2.2000000476837</ele>
        <time>2021-11-28T08:23:14.000Z</time>
      </trkpt>
      <trkpt lat="47.26935" lon="-2.31979">
        <ele>-1.7999999523163</ele>
        <time>2021-11-28T08:23:19.000Z</time>
      </trkpt>
      <trkpt lat="47.26933" lon="-2.31975">
        <ele>-1.3999999761581</ele>
        <time>2021-11-28T08:23:20.000Z</time>
      </trkpt>
      <trkpt lat="47.26931" lon="-2.31972">
        <ele>-1</ele>
        <time>2021-11-28T08:23:21.000Z</time>
      </trkpt>
      <trkpt lat="47.26929" lon="-2.31968">
        <ele>-0.60000002384186</ele>
        <time>2021-11-28T08:23:22.000Z</time>
      </trkpt>
      <trkpt lat="47.26926" lon="-2.31964">
        <ele>-0.20000000298023</ele>
        <time>2021-11-28T08:23:23.000Z</time>
      </trkpt>
      <trkpt lat="47.26913" lon="-2.31948">
        <ele>-0.20000000298023</ele>
        <time>2021-11-28T08:23:27.000Z</time>
      </trkpt>
      <trkpt lat="47.26905" lon="-2.31937">
        <ele>0.20000000298023</ele>
        <time>2021-11-28T08:23:30.000Z</time>
      </trkpt>
      <trkpt lat="47.26902" lon="-2.31933">
        <ele>0.60000002384186</ele>
        <time>2021-11-28T08:23:31.000Z</time>
      </trkpt>
      <trkpt lat="47.269" lon="-2.31929">
        <ele>1</ele>
        <time>2021-11-28T08:23:32.000Z</time>
      </trkpt>
      <trkpt lat="47.26897" lon="-2.31926">
        <ele>1.3999999761581</ele>
        <time>2021-11-28T08:23:33.000Z</time>
      </trkpt>
      <trkpt lat="47.26894" lon="-2.31922">
        <ele>1.7999999523163</ele>
        <time>2021-11-28T08:23:34.000Z</time>
      </trkpt>
      <trkpt lat="47.26884" lon="-2.31905">
        <ele>2.5999999046326</ele>
        <time>2021-11-28T08:23:38.000Z</time>
      </trkpt>
      <trkpt lat="47.26882" lon="-2.31901">
        <ele>3.2000000476837</ele>
        <time>2021-11-28T08:23:39.000Z</time>
      </trkpt>
      <trkpt lat="47.26879" lon="-2.31897">
        <ele>3.5999999046326</ele>
        <time>2021-11-28T08:23:40.000Z</time>
      </trkpt>
      <trkpt lat="47.26875" lon="-2.31895">
        <ele>4</ele>
        <time>2021-11-28T08:23:41.000Z</time>
      </trkpt>
      <trkpt lat="47.2687" lon="-2.31893">
        <ele>4</ele>
        <time>2021-11-28T08:23:42.000Z</time>
      </trkpt>
      <trkpt lat="47.26866" lon="-2.31892">
        <ele>4</ele>
        <time>2021-11-28T08:23:43.000Z</time>
      </trkpt>
      <trkpt lat="47.26849" lon="-2.31888">
        <ele>4</ele>
        <time>2021-11-28T08:23:48.000Z</time>
      </trkpt>
      <trkpt lat="47.26842" lon="-2.3188">
        <ele>4.4000000953674</ele>
        <time>2021-11-28T08:23:51.000Z</time>
      </trkpt>
      <trkpt lat="47.26841" lon="-2.31877">
        <ele>4.8000001907349</ele>
        <time>2021-11-28T08:23:52.000Z</time>
      </trkpt>
      <trkpt lat="47.26839" lon="-2.31873">
        <ele>5.4000000953674</ele>
        <time>2021-11-28T08:23:53.000Z</time>
      </trkpt>
      <trkpt lat="47.26837" lon="-2.3187">
        <ele>5.8000001907349</ele>
        <time>2021-11-28T08:23:54.000Z</time>
      </trkpt>
      <trkpt lat="47.26835" lon="-2.31866">
        <ele>6.1999998092651</ele>
        <time>2021-11-28T08:23:55.000Z</time>
      </trkpt>
      <trkpt lat="47.2683" lon="-2.31849">
        <ele>6.1999998092651</ele>
        <time>2021-11-28T08:23:59.000Z</time>
      </trkpt>
      <trkpt lat="47.26827" lon="-2.3184">
        <ele>6.5999999046326</ele>
        <time>2021-11-28T08:24:01.000Z</time>
      </trkpt>
      <trkpt lat="47.26825" lon="-2.31836">
        <ele>7</ele>
        <time>2021-11-28T08:24:02.000Z</time>
      </trkpt>
      <trkpt lat="47.26824" lon="-2.31832">
        <ele>7.8000001907349</ele>
        <time>2021-11-28T08:24:03.000Z</time>
      </trkpt>
      <trkpt lat="47.26823" lon="-2.31829">
        <ele>8.3999996185303</ele>
        <time>2021-11-28T08:24:04.000Z</time>
      </trkpt>
      <trkpt lat="47.26822" lon="-2.31826">
        <ele>8.3999996185303</ele>
        <time>2021-11-28T08:24:05.000Z</time>
      </trkpt>
      <trkpt lat="47.26821" lon="-2.31819">
        <ele>8.3999996185303</ele>
        <time>2021-11-28T08:24:07.000Z</time>
      </trkpt>
      <trkpt lat="47.26823" lon="-2.3181">
        <ele>8.3999996185303</ele>
        <time>2021-11-28T08:24:10.000Z</time>
      </trkpt>
      <trkpt lat="47.26825" lon="-2.31807">
        <ele>8.3999996185303</ele>
        <time>2021-11-28T08:24:12.000Z</time>
      </trkpt>
      <trkpt lat="47.2683" lon="-2.31799">
        <ele>8.3999996185303</ele>
        <time>2021-11-28T08:24:17.000Z</time>
      </trkpt>
      <trkpt lat="47.26844" lon="-2.3179">
        <ele>8.3999996185303</ele>
        <time>2021-11-28T08:24:24.000Z</time>
      </trkpt>
      <trkpt lat="47.26852" lon="-2.31787">
        <ele>8.8000001907349</ele>
        <time>2021-11-28T08:24:27.000Z</time>
      </trkpt>
      <trkpt lat="47.26855" lon="-2.31786">
        <ele>9.6000003814697</ele>
        <time>2021-11-28T08:24:28.000Z</time>
      </trkpt>
      <trkpt lat="47.26858" lon="-2.31784">
        <ele>10</ele>
        <time>2021-11-28T08:24:29.000Z</time>
      </trkpt>
      <trkpt lat="47.26861" lon="-2.31782">
        <ele>10.39999961853</ele>
        <time>2021-11-28T08:24:30.000Z</time>
      </trkpt>
      <trkpt lat="47.26865" lon="-2.3178">
        <ele>10.39999961853</ele>
        <time>2021-11-28T08:24:31.000Z</time>
      </trkpt>
      <trkpt lat="47.26881" lon="-2.31761">
        <ele>10.39999961853</ele>
        <time>2021-11-28T08:24:36.000Z</time>
      </trkpt>
      <trkpt lat="47.26889" lon="-2.31738">
        <ele>10.39999961853</ele>
        <time>2021-11-28T08:24:40.000Z</time>
      </trkpt>
      <trkpt lat="47.2689" lon="-2.31732">
        <ele>10.39999961853</ele>
        <time>2021-11-28T08:24:41.000Z</time>
      </trkpt>
      <trkpt lat="47.26891" lon="-2.31707">
        <ele>10.39999961853</ele>
        <time>2021-11-28T08:24:45.000Z</time>
      </trkpt>
      <trkpt lat="47.2689" lon="-2.31701">
        <ele>10.39999961853</ele>
        <time>2021-11-28T08:24:46.000Z</time>
      </trkpt>
      <trkpt lat="47.26889" lon="-2.31689">
        <ele>10.39999961853</ele>
        <time>2021-11-28T08:24:48.000Z</time>
      </trkpt>
      <trkpt lat="47.26885" lon="-2.31658">
        <ele>10.39999961853</ele>
        <time>2021-11-28T08:24:53.000Z</time>
      </trkpt>
      <trkpt lat="47.26883" lon="-2.31646">
        <ele>10.800000190735</ele>
        <time>2021-11-28T08:24:55.000Z</time>
      </trkpt>
      <trkpt lat="47.26883" lon="-2.31639">
        <ele>11.199999809265</ele>
        <time>2021-11-28T08:24:56.000Z</time>
      </trkpt>
      <trkpt lat="47.26881" lon="-2.31633">
        <ele>11.60000038147</ele>
        <time>2021-11-28T08:24:57.000Z</time>
      </trkpt>
      <trkpt lat="47.26881" lon="-2.31627">
        <ele>12</ele>
        <time>2021-11-28T08:24:58.000Z</time>
      </trkpt>
      <trkpt lat="47.2688" lon="-2.3162">
        <ele>12.60000038147</ele>
        <time>2021-11-28T08:24:59.000Z</time>
      </trkpt>
      <trkpt lat="47.26879" lon="-2.31607">
        <ele>12.60000038147</ele>
        <time>2021-11-28T08:25:01.000Z</time>
      </trkpt>
      <trkpt lat="47.26874" lon="-2.31577">
        <ele>13</ele>
        <time>2021-11-28T08:25:06.000Z</time>
      </trkpt>
      <trkpt lat="47.26873" lon="-2.31571">
        <ele>13.39999961853</ele>
        <time>2021-11-28T08:25:07.000Z</time>
      </trkpt>
      <trkpt lat="47.26872" lon="-2.31565">
        <ele>13.800000190735</ele>
        <time>2021-11-28T08:25:08.000Z</time>
      </trkpt>
      <trkpt lat="47.26872" lon="-2.31559">
        <ele>14.199999809265</ele>
        <time>2021-11-28T08:25:09.000Z</time>
      </trkpt>
      <trkpt lat="47.26871" lon="-2.31553">
        <ele>14.60000038147</ele>
        <time>2021-11-28T08:25:10.000Z</time>
      </trkpt>
      <trkpt lat="47.26866" lon="-2.31516">
        <ele>14.60000038147</ele>
        <time>2021-11-28T08:25:16.000Z</time>
      </trkpt>
      <trkpt lat="47.26859" lon="-2.31475">
        <ele>15</ele>
        <time>2021-11-28T08:25:23.000Z</time>
      </trkpt>
      <trkpt lat="47.26858" lon="-2.31469">
        <ele>15.60000038147</ele>
        <time>2021-11-28T08:25:24.000Z</time>
      </trkpt>
      <trkpt lat="47.26857" lon="-2.31464">
        <ele>16</ele>
        <time>2021-11-28T08:25:25.000Z</time>
      </trkpt>
      <trkpt lat="47.26855" lon="-2.31458">
        <ele>16.39999961853</ele>
        <time>2021-11-28T08:25:26.000Z</time>
      </trkpt>
      <trkpt lat="47.26853" lon="-2.31452">
        <ele>16.799999237061</ele>
        <time>2021-11-28T08:25:27.000Z</time>
      </trkpt>
      <trkpt lat="47.26847" lon="-2.31435">
        <ele>16.799999237061</ele>
        <time>2021-11-28T08:25:30.000Z</time>
      </trkpt>
      <trkpt lat="47.26841" lon="-2.31418">
        <ele>16.799999237061</ele>
        <time>2021-11-28T08:25:33.000Z</time>
      </trkpt>
      <trkpt lat="47.26835" lon="-2.31402">
        <ele>16.799999237061</ele>
        <time>2021-11-28T08:25:36.000Z</time>
      </trkpt>
      <trkpt lat="47.26833" lon="-2.31397">
        <ele>17.200000762939</ele>
        <time>2021-11-28T08:25:37.000Z</time>
      </trkpt>
      <trkpt lat="47.26832" lon="-2.3139">
        <ele>17.60000038147</ele>
        <time>2021-11-28T08:25:38.000Z</time>
      </trkpt>
      <trkpt lat="47.26831" lon="-2.31384">
        <ele>18</ele>
        <time>2021-11-28T08:25:39.000Z</time>
      </trkpt>
      <trkpt lat="47.26829" lon="-2.31378">
        <ele>18.39999961853</ele>
        <time>2021-11-28T08:25:40.000Z</time>
      </trkpt>
      <trkpt lat="47.26828" lon="-2.31371">
        <ele>18.799999237061</ele>
        <time>2021-11-28T08:25:41.000Z</time>
      </trkpt>
      <trkpt lat="47.26828" lon="-2.31364">
        <ele>18.799999237061</ele>
        <time>2021-11-28T08:25:42.000Z</time>
      </trkpt>
      <trkpt lat="47.26833" lon="-2.31331">
        <ele>18.799999237061</ele>
        <time>2021-11-28T08:25:47.000Z</time>
      </trkpt>
      <trkpt lat="47.26845" lon="-2.31293">
        <ele>18.799999237061</ele>
        <time>2021-11-28T08:25:53.000Z</time>
      </trkpt>
      <trkpt lat="47.26846" lon="-2.31286">
        <ele>18.799999237061</ele>
        <time>2021-11-28T08:25:54.000Z</time>
      </trkpt>
      <trkpt lat="47.2685" lon="-2.31248">
        <ele>18.799999237061</ele>
        <time>2021-11-28T08:25:59.000Z</time>
      </trkpt>
      <trkpt lat="47.26853" lon="-2.31194">
        <ele>18.799999237061</ele>
        <time>2021-11-28T08:26:06.000Z</time>
      </trkpt>
      <trkpt lat="47.26855" lon="-2.31131">
        <ele>18.799999237061</ele>
        <time>2021-11-28T08:26:14.000Z</time>
      </trkpt>
      <trkpt lat="47.26855" lon="-2.31124">
        <ele>18.799999237061</ele>
        <time>2021-11-28T08:26:15.000Z</time>
      </trkpt>
      <trkpt lat="47.26856" lon="-2.31117">
        <ele>18.799999237061</ele>
        <time>2021-11-28T08:26:16.000Z</time>
      </trkpt>
      <trkpt lat="47.26856" lon="-2.31102">
        <ele>18.799999237061</ele>
        <time>2021-11-28T08:26:18.000Z</time>
      </trkpt>
      <trkpt lat="47.26855" lon="-2.31092">
        <ele>18.799999237061</ele>
        <time>2021-11-28T08:26:20.000Z</time>
      </trkpt>
      <trkpt lat="47.26854" lon="-2.31076">
        <ele>18.799999237061</ele>
        <time>2021-11-28T08:26:23.000Z</time>
      </trkpt>
      <trkpt lat="47.26853" lon="-2.31053">
        <ele>18.799999237061</ele>
        <time>2021-11-28T08:26:26.000Z</time>
      </trkpt>
      <trkpt lat="47.2685" lon="-2.31">
        <ele>18.799999237061</ele>
        <time>2021-11-28T08:26:32.000Z</time>
      </trkpt>
      <trkpt lat="47.26842" lon="-2.30937">
        <ele>18.799999237061</ele>
        <time>2021-11-28T08:26:39.000Z</time>
      </trkpt>
      <trkpt lat="47.26833" lon="-2.30882">
        <ele>18.799999237061</ele>
        <time>2021-11-28T08:26:45.000Z</time>
      </trkpt>
      <trkpt lat="47.26831" lon="-2.30815">
        <ele>18.799999237061</ele>
        <time>2021-11-28T08:26:52.000Z</time>
      </trkpt>
      <trkpt lat="47.26835" lon="-2.30777">
        <ele>18.799999237061</ele>
        <time>2021-11-28T08:26:56.000Z</time>
      </trkpt>
      <trkpt lat="47.26837" lon="-2.30768">
        <ele>18.799999237061</ele>
        <time>2021-11-28T08:26:57.000Z</time>
      </trkpt>
      <trkpt lat="47.26842" lon="-2.30751">
        <ele>18.799999237061</ele>
        <time>2021-11-28T08:26:59.000Z</time>
      </trkpt>
      <trkpt lat="47.26854" lon="-2.30719">
        <ele>18.799999237061</ele>
        <time>2021-11-28T08:27:03.000Z</time>
      </trkpt>
      <trkpt lat="47.26873" lon="-2.30682">
        <ele>18.799999237061</ele>
        <time>2021-11-28T08:27:08.000Z</time>
      </trkpt>
      <trkpt lat="47.26881" lon="-2.3067">
        <ele>18.799999237061</ele>
        <time>2021-11-28T08:27:10.000Z</time>
      </trkpt>
      <trkpt lat="47.26907" lon="-2.30649">
        <ele>18.799999237061</ele>
        <time>2021-11-28T08:27:15.000Z</time>
      </trkpt>
      <trkpt lat="47.26916" lon="-2.3064">
        <ele>18.799999237061</ele>
        <time>2021-11-28T08:27:17.000Z</time>
      </trkpt>
      <trkpt lat="47.26933" lon="-2.30631">
        <ele>18.799999237061</ele>
        <time>2021-11-28T08:27:20.000Z</time>
      </trkpt>
      <trkpt lat="47.26946" lon="-2.3063">
        <ele>18.799999237061</ele>
        <time>2021-11-28T08:27:22.000Z</time>
      </trkpt>
      <trkpt lat="47.26959" lon="-2.30625">
        <ele>18.799999237061</ele>
        <time>2021-11-28T08:27:24.000Z</time>
      </trkpt>
      <trkpt lat="47.26966" lon="-2.30622">
        <ele>18.39999961853</ele>
        <time>2021-11-28T08:27:25.000Z</time>
      </trkpt>
      <trkpt lat="47.26972" lon="-2.3062">
        <ele>18</ele>
        <time>2021-11-28T08:27:26.000Z</time>
      </trkpt>
      <trkpt lat="47.26978" lon="-2.30617">
        <ele>17.60000038147</ele>
        <time>2021-11-28T08:27:27.000Z</time>
      </trkpt>
      <trkpt lat="47.26985" lon="-2.30613">
        <ele>17.200000762939</ele>
        <time>2021-11-28T08:27:28.000Z</time>
      </trkpt>
      <trkpt lat="47.26991" lon="-2.30609">
        <ele>16.799999237061</ele>
        <time>2021-11-28T08:27:29.000Z</time>
      </trkpt>
      <trkpt lat="47.27003" lon="-2.30602">
        <ele>16.799999237061</ele>
        <time>2021-11-28T08:27:31.000Z</time>
      </trkpt>
      <trkpt lat="47.27011" lon="-2.3059">
        <ele>16.799999237061</ele>
        <time>2021-11-28T08:27:33.000Z</time>
      </trkpt>
      <trkpt lat="47.27016" lon="-2.30575">
        <ele>16.799999237061</ele>
        <time>2021-11-28T08:27:35.000Z</time>
      </trkpt>
      <trkpt lat="47.27023" lon="-2.30551">
        <ele>16.799999237061</ele>
        <time>2021-11-28T08:27:38.000Z</time>
      </trkpt>
      <trkpt lat="47.27035" lon="-2.305">
        <ele>16.799999237061</ele>
        <time>2021-11-28T08:27:44.000Z</time>
      </trkpt>
      <trkpt lat="47.27046" lon="-2.3045">
        <ele>16.799999237061</ele>
        <time>2021-11-28T08:27:50.000Z</time>
      </trkpt>
      <trkpt lat="47.27053" lon="-2.30391">
        <ele>16.799999237061</ele>
        <time>2021-11-28T08:27:57.000Z</time>
      </trkpt>
      <trkpt lat="47.27055" lon="-2.30375">
        <ele>16.799999237061</ele>
        <time>2021-11-28T08:27:59.000Z</time>
      </trkpt>
      <trkpt lat="47.27062" lon="-2.30343">
        <ele>16.799999237061</ele>
        <time>2021-11-28T08:28:03.000Z</time>
      </trkpt>
      <trkpt lat="47.27062" lon="-2.30336">
        <ele>16.799999237061</ele>
        <time>2021-11-28T08:28:04.000Z</time>
      </trkpt>
      <trkpt lat="47.27066" lon="-2.30306">
        <ele>16.799999237061</ele>
        <time>2021-11-28T08:28:08.000Z</time>
      </trkpt>
      <trkpt lat="47.27071" lon="-2.30284">
        <ele>16.799999237061</ele>
        <time>2021-11-28T08:28:11.000Z</time>
      </trkpt>
      <trkpt lat="47.27078" lon="-2.30273">
        <ele>16.799999237061</ele>
        <time>2021-11-28T08:28:13.000Z</time>
      </trkpt>
      <trkpt lat="47.27087" lon="-2.30263">
        <ele>16.799999237061</ele>
        <time>2021-11-28T08:28:15.000Z</time>
      </trkpt>
      <trkpt lat="47.27091" lon="-2.3026">
        <ele>16.39999961853</ele>
        <time>2021-11-28T08:28:16.000Z</time>
      </trkpt>
      <trkpt lat="47.27097" lon="-2.30258">
        <ele>16</ele>
        <time>2021-11-28T08:28:17.000Z</time>
      </trkpt>
      <trkpt lat="47.27103" lon="-2.30257">
        <ele>15.60000038147</ele>
        <time>2021-11-28T08:28:18.000Z</time>
      </trkpt>
      <trkpt lat="47.27109" lon="-2.30255">
        <ele>15</ele>
        <time>2021-11-28T08:28:19.000Z</time>
      </trkpt>
      <trkpt lat="47.27114" lon="-2.30252">
        <ele>14.60000038147</ele>
        <time>2021-11-28T08:28:20.000Z</time>
      </trkpt>
      <trkpt lat="47.27128" lon="-2.30246">
        <ele>14.60000038147</ele>
        <time>2021-11-28T08:28:23.000Z</time>
      </trkpt>
      <trkpt lat="47.27132" lon="-2.30239">
        <ele>14.60000038147</ele>
        <time>2021-11-28T08:28:25.000Z</time>
      </trkpt>
      <trkpt lat="47.27134" lon="-2.30235">
        <ele>14.60000038147</ele>
        <time>2021-11-28T08:28:26.000Z</time>
      </trkpt>
      <trkpt lat="47.27139" lon="-2.30232">
        <ele>14.60000038147</ele>
        <time>2021-11-28T08:28:28.000Z</time>
      </trkpt>
      <trkpt lat="47.27144" lon="-2.3023">
        <ele>14.60000038147</ele>
        <time>2021-11-28T08:28:30.000Z</time>
      </trkpt>
      <trkpt lat="47.27153" lon="-2.30232">
        <ele>14.60000038147</ele>
        <time>2021-11-28T08:28:33.000Z</time>
      </trkpt>
      <trkpt lat="47.27155" lon="-2.30236">
        <ele>14.60000038147</ele>
        <time>2021-11-28T08:28:34.000Z</time>
      </trkpt>
      <trkpt lat="47.2717" lon="-2.3025">
        <ele>14.60000038147</ele>
        <time>2021-11-28T08:28:39.000Z</time>
      </trkpt>
      <trkpt lat="47.27181" lon="-2.30255">
        <ele>14.60000038147</ele>
        <time>2021-11-28T08:28:42.000Z</time>
      </trkpt>
      <trkpt lat="47.27185" lon="-2.30254">
        <ele>14.60000038147</ele>
        <time>2021-11-28T08:28:43.000Z</time>
      </trkpt>
      <trkpt lat="47.27203" lon="-2.30248">
        <ele>14.60000038147</ele>
        <time>2021-11-28T08:28:47.000Z</time>
      </trkpt>
      <trkpt lat="47.27207" lon="-2.30252">
        <ele>14.60000038147</ele>
        <time>2021-11-28T08:28:48.000Z</time>
      </trkpt>
      <trkpt lat="47.27215" lon="-2.30255">
        <ele>14.199999809265</ele>
        <time>2021-11-28T08:28:50.000Z</time>
      </trkpt>
      <trkpt lat="47.27219" lon="-2.30255">
        <ele>13.800000190735</ele>
        <time>2021-11-28T08:28:51.000Z</time>
      </trkpt>
      <trkpt lat="47.27222" lon="-2.30255">
        <ele>13.39999961853</ele>
        <time>2021-11-28T08:28:52.000Z</time>
      </trkpt>
      <trkpt lat="47.27225" lon="-2.30256">
        <ele>13</ele>
        <time>2021-11-28T08:28:53.000Z</time>
      </trkpt>
      <trkpt lat="47.27228" lon="-2.30257">
        <ele>12.39999961853</ele>
        <time>2021-11-28T08:28:54.000Z</time>
      </trkpt>
      <trkpt lat="47.2725" lon="-2.30257">
        <ele>12.39999961853</ele>
        <time>2021-11-28T08:29:00.000Z</time>
      </trkpt>
      <trkpt lat="47.27273" lon="-2.30256">
        <ele>12.39999961853</ele>
        <time>2021-11-28T08:29:04.000Z</time>
      </trkpt>
      <trkpt lat="47.27313" lon="-2.30255">
        <ele>12.39999961853</ele>
        <time>2021-11-28T08:29:11.000Z</time>
      </trkpt>
      <trkpt lat="47.2734" lon="-2.30252">
        <ele>12.800000190735</ele>
        <time>2021-11-28T08:29:16.000Z</time>
      </trkpt>
      <trkpt lat="47.27345" lon="-2.30252">
        <ele>13.39999961853</ele>
        <time>2021-11-28T08:29:17.000Z</time>
      </trkpt>
      <trkpt lat="47.27349" lon="-2.30252">
        <ele>13.800000190735</ele>
        <time>2021-11-28T08:29:18.000Z</time>
      </trkpt>
      <trkpt lat="47.27354" lon="-2.30252">
        <ele>14.199999809265</ele>
        <time>2021-11-28T08:29:19.000Z</time>
      </trkpt>
      <trkpt lat="47.27359" lon="-2.30252">
        <ele>14.60000038147</ele>
        <time>2021-11-28T08:29:20.000Z</time>
      </trkpt>
      <trkpt lat="47.27374" lon="-2.30249">
        <ele>14.60000038147</ele>
        <time>2021-11-28T08:29:23.000Z</time>
      </trkpt>
      <trkpt lat="47.27378" lon="-2.30247">
        <ele>14.60000038147</ele>
        <time>2021-11-28T08:29:24.000Z</time>
      </trkpt>
      <trkpt lat="47.27397" lon="-2.3024">
        <ele>14.60000038147</ele>
        <time>2021-11-28T08:29:28.000Z</time>
      </trkpt>
      <trkpt lat="47.27407" lon="-2.30236">
        <ele>14.60000038147</ele>
        <time>2021-11-28T08:29:30.000Z</time>
      </trkpt>
      <trkpt lat="47.27434" lon="-2.30224">
        <ele>14.60000038147</ele>
        <time>2021-11-28T08:29:36.000Z</time>
      </trkpt>
      <trkpt lat="47.27455" lon="-2.30216">
        <ele>14.60000038147</ele>
        <time>2021-11-28T08:29:41.000Z</time>
      </trkpt>
      <trkpt lat="47.27469" lon="-2.30219">
        <ele>14.60000038147</ele>
        <time>2021-11-28T08:29:45.000Z</time>
      </trkpt>
      <trkpt lat="47.27469" lon="-2.30225">
        <ele>14.60000038147</ele>
        <time>2021-11-28T08:29:46.000Z</time>
      </trkpt>
      <trkpt lat="47.2747" lon="-2.30231">
        <ele>14.60000038147</ele>
        <time>2021-11-28T08:29:47.000Z</time>
      </trkpt>
      <trkpt lat="47.27477" lon="-2.30259">
        <ele>14.60000038147</ele>
        <time>2021-11-28T08:29:51.000Z</time>
      </trkpt>
      <trkpt lat="47.27478" lon="-2.30267">
        <ele>14.60000038147</ele>
        <time>2021-11-28T08:29:52.000Z</time>
      </trkpt>
      <trkpt lat="47.27484" lon="-2.30307">
        <ele>14.199999809265</ele>
        <time>2021-11-28T08:29:57.000Z</time>
      </trkpt>
      <trkpt lat="47.27486" lon="-2.30315">
        <ele>13.800000190735</ele>
        <time>2021-11-28T08:29:58.000Z</time>
      </trkpt>
      <trkpt lat="47.27487" lon="-2.30324">
        <ele>13.39999961853</ele>
        <time>2021-11-28T08:29:59.000Z</time>
      </trkpt>
      <trkpt lat="47.27489" lon="-2.30334">
        <ele>13</ele>
        <time>2021-11-28T08:30:00.000Z</time>
      </trkpt>
      <trkpt lat="47.27491" lon="-2.30344">
        <ele>12.60000038147</ele>
        <time>2021-11-28T08:30:01.000Z</time>
      </trkpt>
      <trkpt lat="47.27497" lon="-2.30371">
        <ele>12.60000038147</ele>
        <time>2021-11-28T08:30:04.000Z</time>
      </trkpt>
      <trkpt lat="47.275" lon="-2.3038">
        <ele>12.199999809265</ele>
        <time>2021-11-28T08:30:05.000Z</time>
      </trkpt>
      <trkpt lat="47.27502" lon="-2.30389">
        <ele>11.800000190735</ele>
        <time>2021-11-28T08:30:06.000Z</time>
      </trkpt>
      <trkpt lat="47.27503" lon="-2.30398">
        <ele>11.39999961853</ele>
        <time>2021-11-28T08:30:07.000Z</time>
      </trkpt>
      <trkpt lat="47.27504" lon="-2.30407">
        <ele>10.800000190735</ele>
        <time>2021-11-28T08:30:08.000Z</time>
      </trkpt>
      <trkpt lat="47.27506" lon="-2.30416">
        <ele>10.39999961853</ele>
        <time>2021-11-28T08:30:09.000Z</time>
      </trkpt>
      <trkpt lat="47.27506" lon="-2.30423">
        <ele>10.39999961853</ele>
        <time>2021-11-28T08:30:10.000Z</time>
      </trkpt>
      <trkpt lat="47.27505" lon="-2.3043">
        <ele>10.39999961853</ele>
        <time>2021-11-28T08:30:11.000Z</time>
      </trkpt>
      <trkpt lat="47.27498" lon="-2.30438">
        <ele>10.39999961853</ele>
        <time>2021-11-28T08:30:13.000Z</time>
      </trkpt>
      <trkpt lat="47.2748" lon="-2.30445">
        <ele>10.39999961853</ele>
        <time>2021-11-28T08:30:17.000Z</time>
      </trkpt>
      <trkpt lat="47.2747" lon="-2.30448">
        <ele>10.39999961853</ele>
        <time>2021-11-28T08:30:19.000Z</time>
      </trkpt>
      <trkpt lat="47.27461" lon="-2.3045">
        <ele>10.39999961853</ele>
        <time>2021-11-28T08:30:21.000Z</time>
      </trkpt>
      <trkpt lat="47.27455" lon="-2.3045">
        <ele>10.39999961853</ele>
        <time>2021-11-28T08:30:22.000Z</time>
      </trkpt>
      <trkpt lat="47.27435" lon="-2.30453">
        <ele>10.39999961853</ele>
        <time>2021-11-28T08:30:27.000Z</time>
      </trkpt>
      <trkpt lat="47.27426" lon="-2.30458">
        <ele>10.39999961853</ele>
        <time>2021-11-28T08:30:30.000Z</time>
      </trkpt>
      <trkpt lat="47.27424" lon="-2.30461">
        <ele>10.39999961853</ele>
        <time>2021-11-28T08:30:31.000Z</time>
      </trkpt>
      <trkpt lat="47.2742" lon="-2.30462">
        <ele>10.39999961853</ele>
        <time>2021-11-28T08:30:35.000Z</time>
      </trkpt>
      <trkpt lat="47.27413" lon="-2.30468">
        <ele>10</ele>
        <time>2021-11-28T08:30:40.000Z</time>
      </trkpt>
      <trkpt lat="47.2741" lon="-2.30473">
        <ele>9.6000003814697</ele>
        <time>2021-11-28T08:30:41.000Z</time>
      </trkpt>
      <trkpt lat="47.27407" lon="-2.30477">
        <ele>9.1999998092651</ele>
        <time>2021-11-28T08:30:42.000Z</time>
      </trkpt>
      <trkpt lat="47.27403" lon="-2.3048">
        <ele>8.8000001907349</ele>
        <time>2021-11-28T08:30:43.000Z</time>
      </trkpt>
      <trkpt lat="47.27401" lon="-2.30484">
        <ele>8.3999996185303</ele>
        <time>2021-11-28T08:30:44.000Z</time>
      </trkpt>
      <trkpt lat="47.27392" lon="-2.30492">
        <ele>8.3999996185303</ele>
        <time>2021-11-28T08:30:47.000Z</time>
      </trkpt>
      <trkpt lat="47.27383" lon="-2.30496">
        <ele>8.3999996185303</ele>
        <time>2021-11-28T08:30:49.000Z</time>
      </trkpt>
      <trkpt lat="47.27362" lon="-2.30508">
        <ele>8.3999996185303</ele>
        <time>2021-11-28T08:30:55.000Z</time>
      </trkpt>
      <trkpt lat="47.27339" lon="-2.30516">
        <ele>8.3999996185303</ele>
        <time>2021-11-28T08:31:01.000Z</time>
      </trkpt>
      <trkpt lat="47.2731" lon="-2.30526">
        <ele>8.3999996185303</ele>
        <time>2021-11-28T08:31:09.000Z</time>
      </trkpt>
      <trkpt lat="47.27293" lon="-2.30536">
        <ele>8.3999996185303</ele>
        <time>2021-11-28T08:31:14.000Z</time>
      </trkpt>
      <trkpt lat="47.27275" lon="-2.30543">
        <ele>8.3999996185303</ele>
        <time>2021-11-28T08:31:19.000Z</time>
      </trkpt>
      <trkpt lat="47.27256" lon="-2.30546">
        <ele>8.3999996185303</ele>
        <time>2021-11-28T08:31:25.000Z</time>
      </trkpt>
      <trkpt lat="47.27249" lon="-2.30548">
        <ele>8.3999996185303</ele>
        <time>2021-11-28T08:31:28.000Z</time>
      </trkpt>
      <trkpt lat="47.27243" lon="-2.30548">
        <ele>8.3999996185303</ele>
        <time>2021-11-28T08:31:30.000Z</time>
      </trkpt>
      <trkpt lat="47.2723" lon="-2.3055">
        <ele>8.3999996185303</ele>
        <time>2021-11-28T08:31:36.000Z</time>
      </trkpt>
      <trkpt lat="47.27209" lon="-2.3055">
        <ele>8.3999996185303</ele>
        <time>2021-11-28T08:31:44.000Z</time>
      </trkpt>
      <trkpt lat="47.27191" lon="-2.30546">
        <ele>8.3999996185303</ele>
        <time>2021-11-28T08:31:50.000Z</time>
      </trkpt>
      <trkpt lat="47.27176" lon="-2.30537">
        <ele>8.8000001907349</ele>
        <time>2021-11-28T08:31:55.000Z</time>
      </trkpt>
      <trkpt lat="47.27174" lon="-2.30534">
        <ele>9.1999998092651</ele>
        <time>2021-11-28T08:31:56.000Z</time>
      </trkpt>
      <trkpt lat="47.2717" lon="-2.3053">
        <ele>9.6000003814697</ele>
        <time>2021-11-28T08:31:57.000Z</time>
      </trkpt>
      <trkpt lat="47.27167" lon="-2.30526">
        <ele>10.199999809265</ele>
        <time>2021-11-28T08:31:58.000Z</time>
      </trkpt>
      <trkpt lat="47.27164" lon="-2.30522">
        <ele>10.60000038147</ele>
        <time>2021-11-28T08:31:59.000Z</time>
      </trkpt>
      <trkpt lat="47.27152" lon="-2.30515">
        <ele>10.60000038147</ele>
        <time>2021-11-28T08:32:02.000Z</time>
      </trkpt>
      <trkpt lat="47.27136" lon="-2.30507">
        <ele>10.60000038147</ele>
        <time>2021-11-28T08:32:06.000Z</time>
      </trkpt>
      <trkpt lat="47.27116" lon="-2.30494">
        <ele>10.60000038147</ele>
        <time>2021-11-28T08:32:11.000Z</time>
      </trkpt>
      <trkpt lat="47.27113" lon="-2.30494">
        <ele>11</ele>
        <time>2021-11-28T08:32:12.000Z</time>
      </trkpt>
      <trkpt lat="47.2711" lon="-2.30494">
        <ele>11.39999961853</ele>
        <time>2021-11-28T08:32:13.000Z</time>
      </trkpt>
      <trkpt lat="47.27108" lon="-2.30493">
        <ele>11.800000190735</ele>
        <time>2021-11-28T08:32:14.000Z</time>
      </trkpt>
      <trkpt lat="47.27105" lon="-2.30492">
        <ele>12.39999961853</ele>
        <time>2021-11-28T08:32:15.000Z</time>
      </trkpt>
      <trkpt lat="47.27102" lon="-2.30491">
        <ele>12.800000190735</ele>
        <time>2021-11-28T08:32:16.000Z</time>
      </trkpt>
      <trkpt lat="47.27096" lon="-2.3049">
        <ele>12.800000190735</ele>
        <time>2021-11-28T08:32:18.000Z</time>
      </trkpt>
      <trkpt lat="47.27067" lon="-2.3048">
        <ele>12.800000190735</ele>
        <time>2021-11-28T08:32:25.000Z</time>
      </trkpt>
      <trkpt lat="47.27053" lon="-2.30472">
        <ele>12.800000190735</ele>
        <time>2021-11-28T08:32:29.000Z</time>
      </trkpt>
      <trkpt lat="47.27051" lon="-2.3047">
        <ele>13.199999809265</ele>
        <time>2021-11-28T08:32:30.000Z</time>
      </trkpt>
      <trkpt lat="47.27048" lon="-2.30471">
        <ele>13.60000038147</ele>
        <time>2021-11-28T08:32:31.000Z</time>
      </trkpt>
      <trkpt lat="47.27046" lon="-2.30474">
        <ele>14</ele>
        <time>2021-11-28T08:32:32.000Z</time>
      </trkpt>
      <trkpt lat="47.27044" lon="-2.30477">
        <ele>14.39999961853</ele>
        <time>2021-11-28T08:32:33.000Z</time>
      </trkpt>
      <trkpt lat="47.27042" lon="-2.30481">
        <ele>15</ele>
        <time>2021-11-28T08:32:34.000Z</time>
      </trkpt>
      <trkpt lat="47.2704" lon="-2.30491">
        <ele>15</ele>
        <time>2021-11-28T08:32:36.000Z</time>
      </trkpt>
      <trkpt lat="47.27039" lon="-2.30497">
        <ele>15</ele>
        <time>2021-11-28T08:32:37.000Z</time>
      </trkpt>
      <trkpt lat="47.27028" lon="-2.30542">
        <ele>15</ele>
        <time>2021-11-28T08:32:45.000Z</time>
      </trkpt>
      <trkpt lat="47.27013" lon="-2.3059">
        <ele>15</ele>
        <time>2021-11-28T08:32:53.000Z</time>
      </trkpt>
      <trkpt lat="47.2701" lon="-2.30596">
        <ele>15</ele>
        <time>2021-11-28T08:32:54.000Z</time>
      </trkpt>
      <trkpt lat="47.26994" lon="-2.30612">
        <ele>15</ele>
        <time>2021-11-28T08:32:58.000Z</time>
      </trkpt>
      <trkpt lat="47.26972" lon="-2.30625">
        <ele>15</ele>
        <time>2021-11-28T08:33:03.000Z</time>
      </trkpt>
      <trkpt lat="47.26968" lon="-2.30627">
        <ele>15</ele>
        <time>2021-11-28T08:33:04.000Z</time>
      </trkpt>
      <trkpt lat="47.26954" lon="-2.30632">
        <ele>15</ele>
        <time>2021-11-28T08:33:07.000Z</time>
      </trkpt>
      <trkpt lat="47.26937" lon="-2.30635">
        <ele>15</ele>
        <time>2021-11-28T08:33:11.000Z</time>
      </trkpt>
      <trkpt lat="47.26934" lon="-2.30636">
        <ele>15.39999961853</ele>
        <time>2021-11-28T08:33:12.000Z</time>
      </trkpt>
      <trkpt lat="47.2693" lon="-2.30636">
        <ele>15.800000190735</ele>
        <time>2021-11-28T08:33:13.000Z</time>
      </trkpt>
      <trkpt lat="47.26926" lon="-2.30638">
        <ele>16.200000762939</ele>
        <time>2021-11-28T08:33:14.000Z</time>
      </trkpt>
      <trkpt lat="47.26923" lon="-2.30639">
        <ele>16.60000038147</ele>
        <time>2021-11-28T08:33:15.000Z</time>
      </trkpt>
      <trkpt lat="47.26919" lon="-2.30641">
        <ele>17</ele>
        <time>2021-11-28T08:33:16.000Z</time>
      </trkpt>
      <trkpt lat="47.26916" lon="-2.30643">
        <ele>17</ele>
        <time>2021-11-28T08:33:17.000Z</time>
      </trkpt>
      <trkpt lat="47.26906" lon="-2.30652">
        <ele>17</ele>
        <time>2021-11-28T08:33:20.000Z</time>
      </trkpt>
      <trkpt lat="47.26901" lon="-2.30662">
        <ele>17</ele>
        <time>2021-11-28T08:33:22.000Z</time>
      </trkpt>
      <trkpt lat="47.26905" lon="-2.30678">
        <ele>17</ele>
        <time>2021-11-28T08:33:25.000Z</time>
      </trkpt>
      <trkpt lat="47.26912" lon="-2.30687">
        <ele>17</ele>
        <time>2021-11-28T08:33:27.000Z</time>
      </trkpt>
      <trkpt lat="47.26927" lon="-2.30708">
        <ele>17</ele>
        <time>2021-11-28T08:33:31.000Z</time>
      </trkpt>
      <trkpt lat="47.26954" lon="-2.30745">
        <ele>17</ele>
        <time>2021-11-28T08:33:38.000Z</time>
      </trkpt>
      <trkpt lat="47.26976" lon="-2.30777">
        <ele>17</ele>
        <time>2021-11-28T08:33:43.000Z</time>
      </trkpt>
      <trkpt lat="47.26985" lon="-2.3079">
        <ele>17</ele>
        <time>2021-11-28T08:33:45.000Z</time>
      </trkpt>
      <trkpt lat="47.26989" lon="-2.30797">
        <ele>16.60000038147</ele>
        <time>2021-11-28T08:33:46.000Z</time>
      </trkpt>
      <trkpt lat="47.26994" lon="-2.30804">
        <ele>16.200000762939</ele>
        <time>2021-11-28T08:33:47.000Z</time>
      </trkpt>
      <trkpt lat="47.26998" lon="-2.30811">
        <ele>15.800000190735</ele>
        <time>2021-11-28T08:33:48.000Z</time>
      </trkpt>
      <trkpt lat="47.27003" lon="-2.30818">
        <ele>15.39999961853</ele>
        <time>2021-11-28T08:33:49.000Z</time>
      </trkpt>
      <trkpt lat="47.27007" lon="-2.30824">
        <ele>15</ele>
        <time>2021-11-28T08:33:50.000Z</time>
      </trkpt>
      <trkpt lat="47.2702" lon="-2.30844">
        <ele>14.60000038147</ele>
        <time>2021-11-28T08:33:53.000Z</time>
      </trkpt>
      <trkpt lat="47.27025" lon="-2.30851">
        <ele>14.199999809265</ele>
        <time>2021-11-28T08:33:54.000Z</time>
      </trkpt>
      <trkpt lat="47.27029" lon="-2.30857">
        <ele>13.39999961853</ele>
        <time>2021-11-28T08:33:55.000Z</time>
      </trkpt>
      <trkpt lat="47.27034" lon="-2.30863">
        <ele>12.800000190735</ele>
        <time>2021-11-28T08:33:56.000Z</time>
      </trkpt>
      <trkpt lat="47.27044" lon="-2.3088">
        <ele>12.39999961853</ele>
        <time>2021-11-28T08:33:59.000Z</time>
      </trkpt>
      <trkpt lat="47.27047" lon="-2.30885">
        <ele>12</ele>
        <time>2021-11-28T08:34:00.000Z</time>
      </trkpt>
      <trkpt lat="47.27047" lon="-2.3089">
        <ele>11.60000038147</ele>
        <time>2021-11-28T08:34:01.000Z</time>
      </trkpt>
      <trkpt lat="47.27048" lon="-2.30894">
        <ele>11.199999809265</ele>
        <time>2021-11-28T08:34:02.000Z</time>
      </trkpt>
      <trkpt lat="47.27048" lon="-2.30897">
        <ele>10.800000190735</ele>
        <time>2021-11-28T08:34:03.000Z</time>
      </trkpt>
      <trkpt lat="47.27049" lon="-2.30901">
        <ele>10.800000190735</ele>
        <time>2021-11-28T08:34:04.000Z</time>
      </trkpt>
      <trkpt lat="47.2706" lon="-2.30925">
        <ele>10.800000190735</ele>
        <time>2021-11-28T08:34:10.000Z</time>
      </trkpt>
      <trkpt lat="47.27066" lon="-2.30948">
        <ele>10.800000190735</ele>
        <time>2021-11-28T08:34:15.000Z</time>
      </trkpt>
      <trkpt lat="47.27067" lon="-2.3098">
        <ele>10.800000190735</ele>
        <time>2021-11-28T08:34:21.000Z</time>
      </trkpt>
      <trkpt lat="47.27057" lon="-2.30998">
        <ele>10.800000190735</ele>
        <time>2021-11-28T08:34:25.000Z</time>
      </trkpt>
      <trkpt lat="47.27026" lon="-2.31033">
        <ele>10.800000190735</ele>
        <time>2021-11-28T08:34:33.000Z</time>
      </trkpt>
      <trkpt lat="47.27009" lon="-2.31051">
        <ele>10.800000190735</ele>
        <time>2021-11-28T08:34:37.000Z</time>
      </trkpt>
      <trkpt lat="47.27005" lon="-2.31055">
        <ele>10.800000190735</ele>
        <time>2021-11-28T08:34:38.000Z</time>
      </trkpt>
      <trkpt lat="47.27002" lon="-2.31061">
        <ele>11.199999809265</ele>
        <time>2021-11-28T08:34:39.000Z</time>
      </trkpt>
      <trkpt lat="47.26999" lon="-2.31067">
        <ele>11.60000038147</ele>
        <time>2021-11-28T08:34:40.000Z</time>
      </trkpt>
      <trkpt lat="47.26997" lon="-2.31072">
        <ele>12</ele>
        <time>2021-11-28T08:34:41.000Z</time>
      </trkpt>
      <trkpt lat="47.26997" lon="-2.31079">
        <ele>12.39999961853</ele>
        <time>2021-11-28T08:34:42.000Z</time>
      </trkpt>
      <trkpt lat="47.26997" lon="-2.31085">
        <ele>12.800000190735</ele>
        <time>2021-11-28T08:34:43.000Z</time>
      </trkpt>
      <trkpt lat="47.26998" lon="-2.31099">
        <ele>12.800000190735</ele>
        <time>2021-11-28T08:34:45.000Z</time>
      </trkpt>
      <trkpt lat="47.26995" lon="-2.31126">
        <ele>13.199999809265</ele>
        <time>2021-11-28T08:34:49.000Z</time>
      </trkpt>
      <trkpt lat="47.26994" lon="-2.31133">
        <ele>13.60000038147</ele>
        <time>2021-11-28T08:34:50.000Z</time>
      </trkpt>
      <trkpt lat="47.26993" lon="-2.3114">
        <ele>14</ele>
        <time>2021-11-28T08:34:51.000Z</time>
      </trkpt>
      <trkpt lat="47.26992" lon="-2.31147">
        <ele>14.60000038147</ele>
        <time>2021-11-28T08:34:52.000Z</time>
      </trkpt>
      <trkpt lat="47.26992" lon="-2.31153">
        <ele>15</ele>
        <time>2021-11-28T08:34:53.000Z</time>
      </trkpt>
      <trkpt lat="47.26985" lon="-2.31192">
        <ele>15</ele>
        <time>2021-11-28T08:34:59.000Z</time>
      </trkpt>
      <trkpt lat="47.26983" lon="-2.31207">
        <ele>15.39999961853</ele>
        <time>2021-11-28T08:35:01.000Z</time>
      </trkpt>
      <trkpt lat="47.26982" lon="-2.31213">
        <ele>15.800000190735</ele>
        <time>2021-11-28T08:35:02.000Z</time>
      </trkpt>
      <trkpt lat="47.2698" lon="-2.3122">
        <ele>16.200000762939</ele>
        <time>2021-11-28T08:35:03.000Z</time>
      </trkpt>
      <trkpt lat="47.26979" lon="-2.31227">
        <ele>16.60000038147</ele>
        <time>2021-11-28T08:35:04.000Z</time>
      </trkpt>
      <trkpt lat="47.26978" lon="-2.31233">
        <ele>17</ele>
        <time>2021-11-28T08:35:05.000Z</time>
      </trkpt>
      <trkpt lat="47.26977" lon="-2.31245">
        <ele>17</ele>
        <time>2021-11-28T08:35:07.000Z</time>
      </trkpt>
      <trkpt lat="47.26978" lon="-2.31277">
        <ele>17</ele>
        <time>2021-11-28T08:35:13.000Z</time>
      </trkpt>
      <trkpt lat="47.26976" lon="-2.31303">
        <ele>17</ele>
        <time>2021-11-28T08:35:18.000Z</time>
      </trkpt>
      <trkpt lat="47.26982" lon="-2.31335">
        <ele>17</ele>
        <time>2021-11-28T08:35:23.000Z</time>
      </trkpt>
      <trkpt lat="47.26986" lon="-2.31391">
        <ele>17</ele>
        <time>2021-11-28T08:35:30.000Z</time>
      </trkpt>
      <trkpt lat="47.26987" lon="-2.31447">
        <ele>17</ele>
        <time>2021-11-28T08:35:36.000Z</time>
      </trkpt>
      <trkpt lat="47.26989" lon="-2.31465">
        <ele>17</ele>
        <time>2021-11-28T08:35:38.000Z</time>
      </trkpt>
      <trkpt lat="47.26992" lon="-2.31482">
        <ele>16.60000038147</ele>
        <time>2021-11-28T08:35:40.000Z</time>
      </trkpt>
      <trkpt lat="47.26993" lon="-2.3149">
        <ele>16.200000762939</ele>
        <time>2021-11-28T08:35:41.000Z</time>
      </trkpt>
      <trkpt lat="47.26995" lon="-2.31499">
        <ele>15.800000190735</ele>
        <time>2021-11-28T08:35:42.000Z</time>
      </trkpt>
      <trkpt lat="47.26997" lon="-2.31508">
        <ele>15.39999961853</ele>
        <time>2021-11-28T08:35:43.000Z</time>
      </trkpt>
      <trkpt lat="47.27" lon="-2.31518">
        <ele>14.800000190735</ele>
        <time>2021-11-28T08:35:44.000Z</time>
      </trkpt>
      <trkpt lat="47.27001" lon="-2.31528">
        <ele>14.800000190735</ele>
        <time>2021-11-28T08:35:45.000Z</time>
      </trkpt>
      <trkpt lat="47.27003" lon="-2.31538">
        <ele>14.39999961853</ele>
        <time>2021-11-28T08:35:46.000Z</time>
      </trkpt>
      <trkpt lat="47.27006" lon="-2.31548">
        <ele>14</ele>
        <time>2021-11-28T08:35:47.000Z</time>
      </trkpt>
      <trkpt lat="47.27008" lon="-2.31558">
        <ele>13.39999961853</ele>
        <time>2021-11-28T08:35:48.000Z</time>
      </trkpt>
      <trkpt lat="47.2701" lon="-2.31568">
        <ele>13</ele>
        <time>2021-11-28T08:35:49.000Z</time>
      </trkpt>
      <trkpt lat="47.27013" lon="-2.31577">
        <ele>12.60000038147</ele>
        <time>2021-11-28T08:35:50.000Z</time>
      </trkpt>
      <trkpt lat="47.27015" lon="-2.31586">
        <ele>12.60000038147</ele>
        <time>2021-11-28T08:35:51.000Z</time>
      </trkpt>
      <trkpt lat="47.27018" lon="-2.31594">
        <ele>12.199999809265</ele>
        <time>2021-11-28T08:35:52.000Z</time>
      </trkpt>
      <trkpt lat="47.2702" lon="-2.316">
        <ele>11.60000038147</ele>
        <time>2021-11-28T08:35:53.000Z</time>
      </trkpt>
      <trkpt lat="47.27022" lon="-2.31606">
        <ele>11.199999809265</ele>
        <time>2021-11-28T08:35:54.000Z</time>
      </trkpt>
      <trkpt lat="47.27024" lon="-2.31612">
        <ele>10.800000190735</ele>
        <time>2021-11-28T08:35:55.000Z</time>
      </trkpt>
      <trkpt lat="47.27026" lon="-2.31618">
        <ele>10.39999961853</ele>
        <time>2021-11-28T08:35:56.000Z</time>
      </trkpt>
      <trkpt lat="47.27028" lon="-2.31625">
        <ele>10</ele>
        <time>2021-11-28T08:35:57.000Z</time>
      </trkpt>
      <trkpt lat="47.2703" lon="-2.31632">
        <ele>9.3999996185303</ele>
        <time>2021-11-28T08:35:58.000Z</time>
      </trkpt>
      <trkpt lat="47.27031" lon="-2.31641">
        <ele>8.6000003814697</ele>
        <time>2021-11-28T08:35:59.000Z</time>
      </trkpt>
      <trkpt lat="47.27033" lon="-2.31649">
        <ele>8.1999998092651</ele>
        <time>2021-11-28T08:36:00.000Z</time>
      </trkpt>
      <trkpt lat="47.27034" lon="-2.31659">
        <ele>8.1999998092651</ele>
        <time>2021-11-28T08:36:01.000Z</time>
      </trkpt>
      <trkpt lat="47.27034" lon="-2.31668">
        <ele>7.5999999046326</ele>
        <time>2021-11-28T08:36:02.000Z</time>
      </trkpt>
      <trkpt lat="47.27033" lon="-2.31677">
        <ele>7.1999998092651</ele>
        <time>2021-11-28T08:36:03.000Z</time>
      </trkpt>
      <trkpt lat="47.27032" lon="-2.31685">
        <ele>6.8000001907349</ele>
        <time>2021-11-28T08:36:04.000Z</time>
      </trkpt>
      <trkpt lat="47.27031" lon="-2.31692">
        <ele>6.4000000953674</ele>
        <time>2021-11-28T08:36:05.000Z</time>
      </trkpt>
      <trkpt lat="47.2703" lon="-2.31698">
        <ele>6</ele>
        <time>2021-11-28T08:36:06.000Z</time>
      </trkpt>
      <trkpt lat="47.27029" lon="-2.31703">
        <ele>5.5999999046326</ele>
        <time>2021-11-28T08:36:07.000Z</time>
      </trkpt>
      <trkpt lat="47.27028" lon="-2.31707">
        <ele>5.1999998092651</ele>
        <time>2021-11-28T08:36:08.000Z</time>
      </trkpt>
      <trkpt lat="47.27029" lon="-2.31711">
        <ele>4.8000001907349</ele>
        <time>2021-11-28T08:36:09.000Z</time>
      </trkpt>
      <trkpt lat="47.27031" lon="-2.31715">
        <ele>4.4000000953674</ele>
        <time>2021-11-28T08:36:10.000Z</time>
      </trkpt>
      <trkpt lat="47.27034" lon="-2.31718">
        <ele>4</ele>
        <time>2021-11-28T08:36:11.000Z</time>
      </trkpt>
      <trkpt lat="47.27041" lon="-2.31724">
        <ele>4</ele>
        <time>2021-11-28T08:36:13.000Z</time>
      </trkpt>
      <trkpt lat="47.27048" lon="-2.31731">
        <ele>4</ele>
        <time>2021-11-28T08:36:15.000Z</time>
      </trkpt>
      <trkpt lat="47.27054" lon="-2.31743">
        <ele>4</ele>
        <time>2021-11-28T08:36:18.000Z</time>
      </trkpt>
      <trkpt lat="47.27054" lon="-2.31763">
        <ele>4</ele>
        <time>2021-11-28T08:36:23.000Z</time>
      </trkpt>
      <trkpt lat="47.27057" lon="-2.31789">
        <ele>4</ele>
        <time>2021-11-28T08:36:29.000Z</time>
      </trkpt>
      <trkpt lat="47.27058" lon="-2.31796">
        <ele>3.5999999046326</ele>
        <time>2021-11-28T08:36:30.000Z</time>
      </trkpt>
      <trkpt lat="47.27059" lon="-2.31803">
        <ele>3.2000000476837</ele>
        <time>2021-11-28T08:36:31.000Z</time>
      </trkpt>
      <trkpt lat="47.27059" lon="-2.31809">
        <ele>2.7999999523163</ele>
        <time>2021-11-28T08:36:32.000Z</time>
      </trkpt>
      <trkpt lat="47.2706" lon="-2.31815">
        <ele>2.4000000953674</ele>
        <time>2021-11-28T08:36:33.000Z</time>
      </trkpt>
      <trkpt lat="47.2706" lon="-2.31821">
        <ele>2</ele>
        <time>2021-11-28T08:36:34.000Z</time>
      </trkpt>
      <trkpt lat="47.27065" lon="-2.31844">
        <ele>2</ele>
        <time>2021-11-28T08:36:38.000Z</time>
      </trkpt>
      <trkpt lat="47.27066" lon="-2.31849">
        <ele>1.6000000238419</ele>
        <time>2021-11-28T08:36:39.000Z</time>
      </trkpt>
      <trkpt lat="47.27068" lon="-2.31852">
        <ele>1.2000000476837</ele>
        <time>2021-11-28T08:36:40.000Z</time>
      </trkpt>
      <trkpt lat="47.27071" lon="-2.31855">
        <ele>0.80000001192093</ele>
        <time>2021-11-28T08:36:41.000Z</time>
      </trkpt>
      <trkpt lat="47.27074" lon="-2.31856">
        <ele>0.20000000298023</ele>
        <time>2021-11-28T08:36:42.000Z</time>
      </trkpt>
      <trkpt lat="47.27076" lon="-2.31859">
        <ele>-0.20000000298023</ele>
        <time>2021-11-28T08:36:43.000Z</time>
      </trkpt>
      <trkpt lat="47.27079" lon="-2.31864">
        <ele>-0.20000000298023</ele>
        <time>2021-11-28T08:36:45.000Z</time>
      </trkpt>
      <trkpt lat="47.27079" lon="-2.31868">
        <ele>-0.20000000298023</ele>
        <time>2021-11-28T08:36:47.000Z</time>
      </trkpt>
      <trkpt lat="47.27077" lon="-2.31889">
        <ele>-0.20000000298023</ele>
        <time>2021-11-28T08:36:53.000Z</time>
      </trkpt>
      <trkpt lat="47.27079" lon="-2.31923">
        <ele>-0.60000002384186</ele>
        <time>2021-11-28T08:36:59.000Z</time>
      </trkpt>
      <trkpt lat="47.27079" lon="-2.31928">
        <ele>-1</ele>
        <time>2021-11-28T08:37:00.000Z</time>
      </trkpt>
      <trkpt lat="47.27079" lon="-2.31933">
        <ele>-1.3999999761581</ele>
        <time>2021-11-28T08:37:01.000Z</time>
      </trkpt>
      <trkpt lat="47.27078" lon="-2.31937">
        <ele>-1.7999999523163</ele>
        <time>2021-11-28T08:37:02.000Z</time>
      </trkpt>
      <trkpt lat="47.27076" lon="-2.3194">
        <ele>-2.2000000476837</ele>
        <time>2021-11-28T08:37:03.000Z</time>
      </trkpt>
      <trkpt lat="47.27074" lon="-2.31945">
        <ele>-2.2000000476837</ele>
        <time>2021-11-28T08:37:08.000Z</time>
      </trkpt>
      <trkpt lat="47.27076" lon="-2.31947">
        <ele>-2.2000000476837</ele>
        <time>2021-11-28T08:37:10.000Z</time>
      </trkpt>
      <trkpt lat="47.27079" lon="-2.31949">
        <ele>-2.2000000476837</ele>
        <time>2021-11-28T08:37:12.000Z</time>
      </trkpt>
      <trkpt lat="47.27085" lon="-2.31951">
        <ele>-2.2000000476837</ele>
        <time>2021-11-28T08:37:14.000Z</time>
      </trkpt>
      <trkpt lat="47.27092" lon="-2.31953">
        <ele>-2.2000000476837</ele>
        <time>2021-11-28T08:37:16.000Z</time>
      </trkpt>
      <trkpt lat="47.27112" lon="-2.31959">
        <ele>-2.5999999046326</ele>
        <time>2021-11-28T08:37:21.000Z</time>
      </trkpt>
      <trkpt lat="47.27115" lon="-2.31961">
        <ele>-3</ele>
        <time>2021-11-28T08:37:22.000Z</time>
      </trkpt>
      <trkpt lat="47.27118" lon="-2.31962">
        <ele>-3.4000000953674</ele>
        <time>2021-11-28T08:37:23.000Z</time>
      </trkpt>
      <trkpt lat="47.27121" lon="-2.31965">
        <ele>-3.7999999523163</ele>
        <time>2021-11-28T08:37:24.000Z</time>
      </trkpt>
      <trkpt lat="47.27124" lon="-2.31967">
        <ele>-4.1999998092651</ele>
        <time>2021-11-28T08:37:25.000Z</time>
      </trkpt>
      <trkpt lat="47.27128" lon="-2.31968">
        <ele>-4.1999998092651</ele>
        <time>2021-11-28T08:37:26.000Z</time>
      </trkpt>
      <trkpt lat="47.27138" lon="-2.31976">
        <ele>-4.1999998092651</ele>
        <time>2021-11-28T08:37:29.000Z</time>
      </trkpt>
      <trkpt lat="47.27146" lon="-2.31984">
        <ele>-4.1999998092651</ele>
        <time>2021-11-28T08:37:31.000Z</time>
      </trkpt>
      <trkpt lat="47.2715" lon="-2.31987">
        <ele>-4.1999998092651</ele>
        <time>2021-11-28T08:37:32.000Z</time>
      </trkpt>
      <trkpt lat="47.27164" lon="-2.31993">
        <ele>-4.1999998092651</ele>
        <time>2021-11-28T08:37:36.000Z</time>
      </trkpt>
      <trkpt lat="47.27167" lon="-2.31992">
        <ele>-4.1999998092651</ele>
        <time>2021-11-28T08:37:37.000Z</time>
      </trkpt>
      <trkpt lat="47.27171" lon="-2.31983">
        <ele>-4.1999998092651</ele>
        <time>2021-11-28T08:37:39.000Z</time>
      </trkpt>
      <trkpt lat="47.27177" lon="-2.31973">
        <ele>-4.1999998092651</ele>
        <time>2021-11-28T08:37:41.000Z</time>
      </trkpt>
      <trkpt lat="47.27186" lon="-2.31962">
        <ele>-4.1999998092651</ele>
        <time>2021-11-28T08:37:44.000Z</time>
      </trkpt>
      <trkpt lat="47.27193" lon="-2.31956">
        <ele>-4.1999998092651</ele>
        <time>2021-11-28T08:37:46.000Z</time>
      </trkpt>
      <trkpt lat="47.27203" lon="-2.31947">
        <ele>-4.1999998092651</ele>
        <time>2021-11-28T08:37:49.000Z</time>
      </trkpt>
      <trkpt lat="47.2722" lon="-2.31928">
        <ele>-4.1999998092651</ele>
        <time>2021-11-28T08:37:55.000Z</time>
      </trkpt>
      <trkpt lat="47.27222" lon="-2.31927">
        <ele>-4.1999998092651</ele>
        <time>2021-11-28T08:37:56.000Z</time>
      </trkpt>
      <trkpt lat="47.27237" lon="-2.31926">
        <ele>-4.1999998092651</ele>
        <time>2021-11-28T08:38:00.000Z</time>
      </trkpt>
      <trkpt lat="47.27241" lon="-2.31927">
        <ele>-4.1999998092651</ele>
        <time>2021-11-28T08:38:01.000Z</time>
      </trkpt>
      <trkpt lat="47.27275" lon="-2.31936">
        <ele>-4.1999998092651</ele>
        <time>2021-11-28T08:38:08.000Z</time>
      </trkpt>
      <trkpt lat="47.27307" lon="-2.31951">
        <ele>-4.1999998092651</ele>
        <time>2021-11-28T08:38:14.000Z</time>
      </trkpt>
      <trkpt lat="47.27332" lon="-2.31974">
        <ele>-4.1999998092651</ele>
        <time>2021-11-28T08:38:19.000Z</time>
      </trkpt>
      <trkpt lat="47.27369" lon="-2.32013">
        <ele>-4.1999998092651</ele>
        <time>2021-11-28T08:38:27.000Z</time>
      </trkpt>
      <trkpt lat="47.27396" lon="-2.32044">
        <ele>-3.7999999523163</ele>
        <time>2021-11-28T08:38:34.000Z</time>
      </trkpt>
      <trkpt lat="47.274" lon="-2.32047">
        <ele>-3.4000000953674</ele>
        <time>2021-11-28T08:38:35.000Z</time>
      </trkpt>
      <trkpt lat="47.27403" lon="-2.32051">
        <ele>-3</ele>
        <time>2021-11-28T08:38:36.000Z</time>
      </trkpt>
      <trkpt lat="47.27407" lon="-2.32055">
        <ele>-2.5999999046326</ele>
        <time>2021-11-28T08:38:37.000Z</time>
      </trkpt>
      <trkpt lat="47.2741" lon="-2.32059">
        <ele>-2.2000000476837</ele>
        <time>2021-11-28T08:38:38.000Z</time>
      </trkpt>
      <trkpt lat="47.27425" lon="-2.32075">
        <ele>-2.2000000476837</ele>
        <time>2021-11-28T08:38:42.000Z</time>
      </trkpt>
      <trkpt lat="47.27436" lon="-2.32087">
        <ele>-1.7999999523163</ele>
        <time>2021-11-28T08:38:45.000Z</time>
      </trkpt>
      <trkpt lat="47.27439" lon="-2.32092">
        <ele>-1.2000000476837</ele>
        <time>2021-11-28T08:38:46.000Z</time>
      </trkpt>
      <trkpt lat="47.27443" lon="-2.32096">
        <ele>-0.80000001192093</ele>
        <time>2021-11-28T08:38:47.000Z</time>
      </trkpt>
      <trkpt lat="47.27447" lon="-2.32101">
        <ele>-0.40000000596046</ele>
        <time>2021-11-28T08:38:48.000Z</time>
      </trkpt>
      <trkpt lat="47.27451" lon="-2.32106">
        <ele>6.9</ele>
        <time>2021-11-28T08:38:49.000Z</time>
      </trkpt>
      <trkpt lat="47.27481" lon="-2.32146">
        <ele>11.4</ele>
        <time>2021-11-28T08:38:57.000Z</time>
      </trkpt>
      <trkpt lat="47.27509" lon="-2.32183">
        <ele>13.1</ele>
        <time>2021-11-28T08:39:05.000Z</time>
      </trkpt>
      <trkpt lat="47.27512" lon="-2.32187">
        <ele>0.40000000596046</ele>
        <time>2021-11-28T08:39:06.000Z</time>
      </trkpt>
      <trkpt lat="47.27516" lon="-2.32192">
        <ele>1</ele>
        <time>2021-11-28T08:39:07.000Z</time>
      </trkpt>
      <trkpt lat="47.27519" lon="-2.32196">
        <ele>1.3999999761581</ele>
        <time>2021-11-28T08:39:08.000Z</time>
      </trkpt>
      <trkpt lat="47.27523" lon="-2.32201">
        <ele>1.7999999523163</ele>
        <time>2021-11-28T08:39:09.000Z</time>
      </trkpt>
      <trkpt lat="47.27527" lon="-2.32205">
        <ele>2.2000000476837</ele>
        <time>2021-11-28T08:39:10.000Z</time>
      </trkpt>
      <trkpt lat="47.27537" lon="-2.32216">
        <ele>2.2000000476837</ele>
        <time>2021-11-28T08:39:13.000Z</time>
      </trkpt>
      <trkpt lat="47.27548" lon="-2.32227">
        <ele>2.5999999046326</ele>
        <time>2021-11-28T08:39:16.000Z</time>
      </trkpt>
      <trkpt lat="47.27551" lon="-2.3223">
        <ele>3.4000000953674</ele>
        <time>2021-11-28T08:39:17.000Z</time>
      </trkpt>
      <trkpt lat="47.27555" lon="-2.32233">
        <ele>3.7999999523163</ele>
        <time>2021-11-28T08:39:18.000Z</time>
      </trkpt>
      <trkpt lat="47.27559" lon="-2.32236">
        <ele>4.4000000953674</ele>
        <time>2021-11-28T08:39:19.000Z</time>
      </trkpt>
      <trkpt lat="47.27562" lon="-2.32239">
        <ele>4.4000000953674</ele>
        <time>2021-11-28T08:39:20.000Z</time>
      </trkpt>
      <trkpt lat="47.2758" lon="-2.32254">
        <ele>4.8000001907349</ele>
        <time>2021-11-28T08:39:25.000Z</time>
      </trkpt>
      <trkpt lat="47.27583" lon="-2.32257">
        <ele>5.1999998092651</ele>
        <time>2021-11-28T08:39:26.000Z</time>
      </trkpt>
      <trkpt lat="47.27586" lon="-2.3226">
        <ele>5.5999999046326</ele>
        <time>2021-11-28T08:39:27.000Z</time>
      </trkpt>
      <trkpt lat="47.2759" lon="-2.32262">
        <ele>6</ele>
        <time>2021-11-28T08:39:28.000Z</time>
      </trkpt>
      <trkpt lat="47.27594" lon="-2.32265">
        <ele>6.5999999046326</ele>
        <time>2021-11-28T08:39:29.000Z</time>
      </trkpt>
      <trkpt lat="47.27616" lon="-2.32283">
        <ele>7</ele>
        <time>2021-11-28T08:39:36.000Z</time>
      </trkpt>
      <trkpt lat="47.27618" lon="-2.32287">
        <ele>7.4000000953674</ele>
        <time>2021-11-28T08:39:37.000Z</time>
      </trkpt>
      <trkpt lat="47.27621" lon="-2.32292">
        <ele>7.8000001907349</ele>
        <time>2021-11-28T08:39:38.000Z</time>
      </trkpt>
      <trkpt lat="47.27623" lon="-2.32296">
        <ele>8.1999998092651</ele>
        <time>2021-11-28T08:39:39.000Z</time>
      </trkpt>
      <trkpt lat="47.27626" lon="-2.323">
        <ele>8.6000003814697</ele>
        <time>2021-11-28T08:39:40.000Z</time>
      </trkpt>
      <trkpt lat="47.27629" lon="-2.32302">
        <ele>8.6000003814697</ele>
        <time>2021-11-28T08:39:41.000Z</time>
      </trkpt>
      <trkpt lat="47.27644" lon="-2.3231">
        <ele>8.6000003814697</ele>
        <time>2021-11-28T08:39:46.000Z</time>
      </trkpt>
      <trkpt lat="47.27665" lon="-2.32317">
        <ele>8.6000003814697</ele>
        <time>2021-11-28T08:39:53.000Z</time>
      </trkpt>
      <trkpt lat="47.27683" lon="-2.32322">
        <ele>9.1999998092651</ele>
        <time>2021-11-28T08:39:58.000Z</time>
      </trkpt>
      <trkpt lat="47.27686" lon="-2.32323">
        <ele>9.6000003814697</ele>
        <time>2021-11-28T08:39:59.000Z</time>
      </trkpt>
      <trkpt lat="47.2769" lon="-2.32324">
        <ele>10</ele>
        <time>2021-11-28T08:40:00.000Z</time>
      </trkpt>
      <trkpt lat="47.27693" lon="-2.32325">
        <ele>10.39999961853</ele>
        <time>2021-11-28T08:40:01.000Z</time>
      </trkpt>
      <trkpt lat="47.27696" lon="-2.32326">
        <ele>10.800000190735</ele>
        <time>2021-11-28T08:40:02.000Z</time>
      </trkpt>
      <trkpt lat="47.27707" lon="-2.32332">
        <ele>10.800000190735</ele>
        <time>2021-11-28T08:40:06.000Z</time>
      </trkpt>
      <trkpt lat="47.27724" lon="-2.32344">
        <ele>10.800000190735</ele>
        <time>2021-11-28T08:40:11.000Z</time>
      </trkpt>
      <trkpt lat="47.27742" lon="-2.32357">
        <ele>10.800000190735</ele>
        <time>2021-11-28T08:40:16.000Z</time>
      </trkpt>
      <trkpt lat="47.27762" lon="-2.3237">
        <ele>10.800000190735</ele>
        <time>2021-11-28T08:40:21.000Z</time>
      </trkpt>
      <trkpt lat="47.27776" lon="-2.32383">
        <ele>10.800000190735</ele>
        <time>2021-11-28T08:40:26.000Z</time>
      </trkpt>
      <trkpt lat="47.27791" lon="-2.32381">
        <ele>10.800000190735</ele>
        <time>2021-11-28T08:40:30.000Z</time>
      </trkpt>
      <trkpt lat="47.27802" lon="-2.32381">
        <ele>10.800000190735</ele>
        <time>2021-11-28T08:40:33.000Z</time>
      </trkpt>
      <trkpt lat="47.27806" lon="-2.32381">
        <ele>10.800000190735</ele>
        <time>2021-11-28T08:40:34.000Z</time>
      </trkpt>
      <trkpt lat="47.27818" lon="-2.32381">
        <ele>10.800000190735</ele>
        <time>2021-11-28T08:40:37.000Z</time>
      </trkpt>
      <trkpt lat="47.27831" lon="-2.3238">
        <ele>10.800000190735</ele>
        <time>2021-11-28T08:40:40.000Z</time>
      </trkpt>
      <trkpt lat="47.27847" lon="-2.32378">
        <ele>10.800000190735</ele>
        <time>2021-11-28T08:40:44.000Z</time>
      </trkpt>
      <trkpt lat="47.27863" lon="-2.32382">
        <ele>10.800000190735</ele>
        <time>2021-11-28T08:40:48.000Z</time>
      </trkpt>
      <trkpt lat="47.27881" lon="-2.32389">
        <ele>10.39999961853</ele>
        <time>2021-11-28T08:40:53.000Z</time>
      </trkpt>
      <trkpt lat="47.27884" lon="-2.32388">
        <ele>10</ele>
        <time>2021-11-28T08:40:54.000Z</time>
      </trkpt>
      <trkpt lat="47.27888" lon="-2.32385">
        <ele>9.6000003814697</ele>
        <time>2021-11-28T08:40:55.000Z</time>
      </trkpt>
      <trkpt lat="47.27891" lon="-2.32384">
        <ele>8.8000001907349</ele>
        <time>2021-11-28T08:40:56.000Z</time>
      </trkpt>
      <trkpt lat="47.27908" lon="-2.32386">
        <ele>8.8000001907349</ele>
        <time>2021-11-28T08:41:01.000Z</time>
      </trkpt>
      <trkpt lat="47.27927" lon="-2.32397">
        <ele>8.8000001907349</ele>
        <time>2021-11-28T08:41:07.000Z</time>
      </trkpt>
      <trkpt lat="47.27946" lon="-2.324">
        <ele>8.8000001907349</ele>
        <time>2021-11-28T08:41:12.000Z</time>
      </trkpt>
      <trkpt lat="47.27959" lon="-2.32406">
        <ele>8.8000001907349</ele>
        <time>2021-11-28T08:41:17.000Z</time>
      </trkpt>
      <trkpt lat="47.27961" lon="-2.32402">
        <ele>8.8000001907349</ele>
        <time>2021-11-28T08:41:44.000Z</time>
      </trkpt>
      <trkpt lat="47.27962" lon="-2.32397">
        <ele>8.8000001907349</ele>
        <time>2021-11-28T08:41:46.000Z</time>
      </trkpt>
      <trkpt lat="47.27963" lon="-2.32381">
        <ele>8.8000001907349</ele>
        <time>2021-11-28T08:41:50.000Z</time>
      </trkpt>
      <trkpt lat="47.27964" lon="-2.32376">
        <ele>8.8000001907349</ele>
        <time>2021-11-28T08:41:51.000Z</time>
      </trkpt>
      <trkpt lat="47.27969" lon="-2.32347">
        <ele>8.8000001907349</ele>
        <time>2021-11-28T08:41:57.000Z</time>
      </trkpt>
      <trkpt lat="47.27981" lon="-2.32317">
        <ele>8.8000001907349</ele>
        <time>2021-11-28T08:42:03.000Z</time>
      </trkpt>
      <trkpt lat="47.27991" lon="-2.32302">
        <ele>8.8000001907349</ele>
        <time>2021-11-28T08:42:06.000Z</time>
      </trkpt>
      <trkpt lat="47.28002" lon="-2.32286">
        <ele>8.8000001907349</ele>
        <time>2021-11-28T08:42:09.000Z</time>
      </trkpt>
      <trkpt lat="47.28027" lon="-2.32248">
        <ele>8.8000001907349</ele>
        <time>2021-11-28T08:42:16.000Z</time>
      </trkpt>
      <trkpt lat="47.28054" lon="-2.32198">
        <ele>8.8000001907349</ele>
        <time>2021-11-28T08:42:25.000Z</time>
      </trkpt>
      <trkpt lat="47.28069" lon="-2.3217">
        <ele>9.1999998092651</ele>
        <time>2021-11-28T08:42:30.000Z</time>
      </trkpt>
      <trkpt lat="47.28072" lon="-2.32163">
        <ele>9.6000003814697</ele>
        <time>2021-11-28T08:42:31.000Z</time>
      </trkpt>
      <trkpt lat="47.28075" lon="-2.32157">
        <ele>10</ele>
        <time>2021-11-28T08:42:32.000Z</time>
      </trkpt>
      <trkpt lat="47.28078" lon="-2.32151">
        <ele>10.39999961853</ele>
        <time>2021-11-28T08:42:33.000Z</time>
      </trkpt>
      <trkpt lat="47.2808" lon="-2.32143">
        <ele>10.800000190735</ele>
        <time>2021-11-28T08:42:34.000Z</time>
      </trkpt>
      <trkpt lat="47.28079" lon="-2.32129">
        <ele>10.800000190735</ele>
        <time>2021-11-28T08:42:36.000Z</time>
      </trkpt>
      <trkpt lat="47.2807" lon="-2.3211">
        <ele>10.800000190735</ele>
        <time>2021-11-28T08:42:39.000Z</time>
      </trkpt>
      <trkpt lat="47.28067" lon="-2.32103">
        <ele>10.800000190735</ele>
        <time>2021-11-28T08:42:40.000Z</time>
      </trkpt>
      <trkpt lat="47.28044" lon="-2.32052">
        <ele>10.800000190735</ele>
        <time>2021-11-28T08:42:48.000Z</time>
      </trkpt>
      <trkpt lat="47.28029" lon="-2.32017">
        <ele>10.800000190735</ele>
        <time>2021-11-28T08:42:54.000Z</time>
      </trkpt>
      <trkpt lat="47.28022" lon="-2.32005">
        <ele>11.199999809265</ele>
        <time>2021-11-28T08:42:56.000Z</time>
      </trkpt>
      <trkpt lat="47.28019" lon="-2.32">
        <ele>11.60000038147</ele>
        <time>2021-11-28T08:42:57.000Z</time>
      </trkpt>
      <trkpt lat="47.28016" lon="-2.31995">
        <ele>12</ele>
        <time>2021-11-28T08:42:58.000Z</time>
      </trkpt>
      <trkpt lat="47.28012" lon="-2.3199">
        <ele>12.800000190735</ele>
        <time>2021-11-28T08:42:59.000Z</time>
      </trkpt>
      <trkpt lat="47.28008" lon="-2.31985">
        <ele>12.800000190735</ele>
        <time>2021-11-28T08:43:00.000Z</time>
      </trkpt>
      <trkpt lat="47.27983" lon="-2.31956">
        <ele>12.800000190735</ele>
        <time>2021-11-28T08:43:06.000Z</time>
      </trkpt>
      <trkpt lat="47.27959" lon="-2.3193">
        <ele>12.800000190735</ele>
        <time>2021-11-28T08:43:12.000Z</time>
      </trkpt>
      <trkpt lat="47.27947" lon="-2.3192">
        <ele>12.800000190735</ele>
        <time>2021-11-28T08:43:15.000Z</time>
      </trkpt>
      <trkpt lat="47.27933" lon="-2.31909">
        <ele>12.800000190735</ele>
        <time>2021-11-28T08:43:18.000Z</time>
      </trkpt>
      <trkpt lat="47.27915" lon="-2.31896">
        <ele>12.800000190735</ele>
        <time>2021-11-28T08:43:22.000Z</time>
      </trkpt>
      <trkpt lat="47.27901" lon="-2.31887">
        <ele>12.800000190735</ele>
        <time>2021-11-28T08:43:25.000Z</time>
      </trkpt>
      <trkpt lat="47.27888" lon="-2.31876">
        <ele>12.800000190735</ele>
        <time>2021-11-28T08:43:28.000Z</time>
      </trkpt>
      <trkpt lat="47.27883" lon="-2.31864">
        <ele>12.800000190735</ele>
        <time>2021-11-28T08:43:30.000Z</time>
      </trkpt>
      <trkpt lat="47.2788" lon="-2.31841">
        <ele>12.800000190735</ele>
        <time>2021-11-28T08:43:33.000Z</time>
      </trkpt>
      <trkpt lat="47.27879" lon="-2.31832">
        <ele>12.800000190735</ele>
        <time>2021-11-28T08:43:34.000Z</time>
      </trkpt>
      <trkpt lat="47.27874" lon="-2.31765">
        <ele>12.800000190735</ele>
        <time>2021-11-28T08:43:42.000Z</time>
      </trkpt>
      <trkpt lat="47.27874" lon="-2.31756">
        <ele>12.800000190735</ele>
        <time>2021-11-28T08:43:43.000Z</time>
      </trkpt>
      <trkpt lat="47.2788" lon="-2.31734">
        <ele>12.800000190735</ele>
        <time>2021-11-28T08:43:46.000Z</time>
      </trkpt>
      <trkpt lat="47.27895" lon="-2.3172">
        <ele>12.800000190735</ele>
        <time>2021-11-28T08:43:49.000Z</time>
      </trkpt>
      <trkpt lat="47.279" lon="-2.31717">
        <ele>12.800000190735</ele>
        <time>2021-11-28T08:43:50.000Z</time>
      </trkpt>
      <trkpt lat="47.27949" lon="-2.31683">
        <ele>12.800000190735</ele>
        <time>2021-11-28T08:43:59.000Z</time>
      </trkpt>
      <trkpt lat="47.27995" lon="-2.31653">
        <ele>12.39999961853</ele>
        <time>2021-11-28T08:44:07.000Z</time>
      </trkpt>
      <trkpt lat="47.28001" lon="-2.3165">
        <ele>12</ele>
        <time>2021-11-28T08:44:08.000Z</time>
      </trkpt>
      <trkpt lat="47.28008" lon="-2.31647">
        <ele>11.60000038147</ele>
        <time>2021-11-28T08:44:09.000Z</time>
      </trkpt>
      <trkpt lat="47.28014" lon="-2.31645">
        <ele>11.199999809265</ele>
        <time>2021-11-28T08:44:10.000Z</time>
      </trkpt>
      <trkpt lat="47.28021" lon="-2.31642">
        <ele>10.800000190735</ele>
        <time>2021-11-28T08:44:11.000Z</time>
      </trkpt>
      <trkpt lat="47.28041" lon="-2.31635">
        <ele>10.800000190735</ele>
        <time>2021-11-28T08:44:14.000Z</time>
      </trkpt>
      <trkpt lat="47.28079" lon="-2.31628">
        <ele>10.800000190735</ele>
        <time>2021-11-28T08:44:20.000Z</time>
      </trkpt>
      <trkpt lat="47.28114" lon="-2.31627">
        <ele>10.800000190735</ele>
        <time>2021-11-28T08:44:26.000Z</time>
      </trkpt>
      <trkpt lat="47.28163" lon="-2.31623">
        <ele>10.800000190735</ele>
        <time>2021-11-28T08:44:34.000Z</time>
      </trkpt>
      <trkpt lat="47.28206" lon="-2.31616">
        <ele>10.800000190735</ele>
        <time>2021-11-28T08:44:41.000Z</time>
      </trkpt>
      <trkpt lat="47.28246" lon="-2.31608">
        <ele>10.800000190735</ele>
        <time>2021-11-28T08:44:48.000Z</time>
      </trkpt>
      <trkpt lat="47.28273" lon="-2.316">
        <ele>11.199999809265</ele>
        <time>2021-11-28T08:44:53.000Z</time>
      </trkpt>
      <trkpt lat="47.28277" lon="-2.31597">
        <ele>11.60000038147</ele>
        <time>2021-11-28T08:44:54.000Z</time>
      </trkpt>
      <trkpt lat="47.28282" lon="-2.31595">
        <ele>12</ele>
        <time>2021-11-28T08:44:55.000Z</time>
      </trkpt>
      <trkpt lat="47.28287" lon="-2.31594">
        <ele>12.39999961853</ele>
        <time>2021-11-28T08:44:56.000Z</time>
      </trkpt>
      <trkpt lat="47.28292" lon="-2.31593">
        <ele>12.800000190735</ele>
        <time>2021-11-28T08:44:57.000Z</time>
      </trkpt>
      <trkpt lat="47.28308" lon="-2.31591">
        <ele>12.800000190735</ele>
        <time>2021-11-28T08:45:01.000Z</time>
      </trkpt>
      <trkpt lat="47.28338" lon="-2.31584">
        <ele>12.800000190735</ele>
        <time>2021-11-28T08:45:08.000Z</time>
      </trkpt>
      <trkpt lat="47.28374" lon="-2.31572">
        <ele>12.800000190735</ele>
        <time>2021-11-28T08:45:15.000Z</time>
      </trkpt>
      <trkpt lat="47.2841" lon="-2.31558">
        <ele>12.800000190735</ele>
        <time>2021-11-28T08:45:22.000Z</time>
      </trkpt>
      <trkpt lat="47.28425" lon="-2.31549">
        <ele>12.800000190735</ele>
        <time>2021-11-28T08:45:25.000Z</time>
      </trkpt>
      <trkpt lat="47.28439" lon="-2.31536">
        <ele>12.800000190735</ele>
        <time>2021-11-28T08:45:28.000Z</time>
      </trkpt>
      <trkpt lat="47.28464" lon="-2.31514">
        <ele>12.800000190735</ele>
        <time>2021-11-28T08:45:33.000Z</time>
      </trkpt>
      <trkpt lat="47.28475" lon="-2.31509">
        <ele>12.800000190735</ele>
        <time>2021-11-28T08:45:35.000Z</time>
      </trkpt>
      <trkpt lat="47.28509" lon="-2.31503">
        <ele>12.800000190735</ele>
        <time>2021-11-28T08:45:41.000Z</time>
      </trkpt>
      <trkpt lat="47.28552" lon="-2.31496">
        <ele>12.800000190735</ele>
        <time>2021-11-28T08:45:49.000Z</time>
      </trkpt>
      <trkpt lat="47.28557" lon="-2.31494">
        <ele>13.199999809265</ele>
        <time>2021-11-28T08:45:50.000Z</time>
      </trkpt>
      <trkpt lat="47.28563" lon="-2.31492">
        <ele>13.60000038147</ele>
        <time>2021-11-28T08:45:51.000Z</time>
      </trkpt>
      <trkpt lat="47.28568" lon="-2.31491">
        <ele>14.199999809265</ele>
        <time>2021-11-28T08:45:52.000Z</time>
      </trkpt>
      <trkpt lat="47.28573" lon="-2.31489">
        <ele>15</ele>
        <time>2021-11-28T08:45:53.000Z</time>
      </trkpt>
      <trkpt lat="47.28588" lon="-2.31483">
        <ele>15</ele>
        <time>2021-11-28T08:45:56.000Z</time>
      </trkpt>
      <trkpt lat="47.28599" lon="-2.31479">
        <ele>15</ele>
        <time>2021-11-28T08:45:58.000Z</time>
      </trkpt>
      <trkpt lat="47.28609" lon="-2.31474">
        <ele>15.39999961853</ele>
        <time>2021-11-28T08:46:00.000Z</time>
      </trkpt>
      <trkpt lat="47.28613" lon="-2.31472">
        <ele>15.800000190735</ele>
        <time>2021-11-28T08:46:01.000Z</time>
      </trkpt>
      <trkpt lat="47.28618" lon="-2.3147">
        <ele>16.200000762939</ele>
        <time>2021-11-28T08:46:02.000Z</time>
      </trkpt>
      <trkpt lat="47.28623" lon="-2.31468">
        <ele>16.60000038147</ele>
        <time>2021-11-28T08:46:03.000Z</time>
      </trkpt>
      <trkpt lat="47.28627" lon="-2.31466">
        <ele>17</ele>
        <time>2021-11-28T08:46:04.000Z</time>
      </trkpt>
      <trkpt lat="47.28655" lon="-2.31455">
        <ele>17</ele>
        <time>2021-11-28T08:46:10.000Z</time>
      </trkpt>
      <trkpt lat="47.28664" lon="-2.31453">
        <ele>17</ele>
        <time>2021-11-28T08:46:12.000Z</time>
      </trkpt>
      <trkpt lat="47.28672" lon="-2.3146">
        <ele>17</ele>
        <time>2021-11-28T08:46:14.000Z</time>
      </trkpt>
      <trkpt lat="47.28679" lon="-2.31479">
        <ele>17</ele>
        <time>2021-11-28T08:46:17.000Z</time>
      </trkpt>
      <trkpt lat="47.28693" lon="-2.31493">
        <ele>17</ele>
        <time>2021-11-28T08:46:20.000Z</time>
      </trkpt>
      <trkpt lat="47.2871" lon="-2.31491">
        <ele>17</ele>
        <time>2021-11-28T08:46:23.000Z</time>
      </trkpt>
      <trkpt lat="47.28716" lon="-2.31489">
        <ele>17</ele>
        <time>2021-11-28T08:46:24.000Z</time>
      </trkpt>
      <trkpt lat="47.28745" lon="-2.31473">
        <ele>17</ele>
        <time>2021-11-28T08:46:29.000Z</time>
      </trkpt>
      <trkpt lat="47.28784" lon="-2.31451">
        <ele>17</ele>
        <time>2021-11-28T08:46:36.000Z</time>
      </trkpt>
      <trkpt lat="47.2883" lon="-2.31419">
        <ele>17</ele>
        <time>2021-11-28T08:46:44.000Z</time>
      </trkpt>
      <trkpt lat="47.28879" lon="-2.31395">
        <ele>17</ele>
        <time>2021-11-28T08:46:52.000Z</time>
      </trkpt>
      <trkpt lat="47.28897" lon="-2.31392">
        <ele>16.60000038147</ele>
        <time>2021-11-28T08:46:55.000Z</time>
      </trkpt>
      <trkpt lat="47.28904" lon="-2.31391">
        <ele>16.200000762939</ele>
        <time>2021-11-28T08:46:56.000Z</time>
      </trkpt>
      <trkpt lat="47.2891" lon="-2.31391">
        <ele>15.800000190735</ele>
        <time>2021-11-28T08:46:57.000Z</time>
      </trkpt>
      <trkpt lat="47.28916" lon="-2.31391">
        <ele>15.39999961853</ele>
        <time>2021-11-28T08:46:58.000Z</time>
      </trkpt>
      <trkpt lat="47.28922" lon="-2.31391">
        <ele>15</ele>
        <time>2021-11-28T08:46:59.000Z</time>
      </trkpt>
      <trkpt lat="47.28935" lon="-2.3139">
        <ele>15</ele>
        <time>2021-11-28T08:47:01.000Z</time>
      </trkpt>
      <trkpt lat="47.28947" lon="-2.31387">
        <ele>15</ele>
        <time>2021-11-28T08:47:03.000Z</time>
      </trkpt>
      <trkpt lat="47.2897" lon="-2.3137">
        <ele>15</ele>
        <time>2021-11-28T08:47:07.000Z</time>
      </trkpt>
      <trkpt lat="47.28974" lon="-2.31365">
        <ele>15</ele>
        <time>2021-11-28T08:47:08.000Z</time>
      </trkpt>
      <trkpt lat="47.28996" lon="-2.31335">
        <ele>15</ele>
        <time>2021-11-28T08:47:13.000Z</time>
      </trkpt>
      <trkpt lat="47.29018" lon="-2.31286">
        <ele>15</ele>
        <time>2021-11-28T08:47:19.000Z</time>
      </trkpt>
      <trkpt lat="47.29038" lon="-2.31238">
        <ele>14.60000038147</ele>
        <time>2021-11-28T08:47:25.000Z</time>
      </trkpt>
      <trkpt lat="47.2904" lon="-2.3123">
        <ele>14.199999809265</ele>
        <time>2021-11-28T08:47:26.000Z</time>
      </trkpt>
      <trkpt lat="47.29043" lon="-2.3122">
        <ele>13.800000190735</ele>
        <time>2021-11-28T08:47:27.000Z</time>
      </trkpt>
      <trkpt lat="47.29044" lon="-2.3121">
        <ele>13.39999961853</ele>
        <time>2021-11-28T08:47:28.000Z</time>
      </trkpt>
      <trkpt lat="47.29044" lon="-2.31201">
        <ele>13</ele>
        <time>2021-11-28T08:47:29.000Z</time>
      </trkpt>
      <trkpt lat="47.29043" lon="-2.31192">
        <ele>13</ele>
        <time>2021-11-28T08:47:30.000Z</time>
      </trkpt>
      <trkpt lat="47.29041" lon="-2.31174">
        <ele>13</ele>
        <time>2021-11-28T08:47:32.000Z</time>
      </trkpt>
      <trkpt lat="47.29037" lon="-2.31139">
        <ele>13</ele>
        <time>2021-11-28T08:47:36.000Z</time>
      </trkpt>
      <trkpt lat="47.29033" lon="-2.31085">
        <ele>12.60000038147</ele>
        <time>2021-11-28T08:47:42.000Z</time>
      </trkpt>
      <trkpt lat="47.29033" lon="-2.31075">
        <ele>12</ele>
        <time>2021-11-28T08:47:43.000Z</time>
      </trkpt>
      <trkpt lat="47.29032" lon="-2.31065">
        <ele>11.60000038147</ele>
        <time>2021-11-28T08:47:44.000Z</time>
      </trkpt>
      <trkpt lat="47.29032" lon="-2.31055">
        <ele>11.199999809265</ele>
        <time>2021-11-28T08:47:45.000Z</time>
      </trkpt>
      <trkpt lat="47.29032" lon="-2.31046">
        <ele>10.800000190735</ele>
        <time>2021-11-28T08:47:46.000Z</time>
      </trkpt>
      <trkpt lat="47.29032" lon="-2.31015">
        <ele>10.39999961853</ele>
        <time>2021-11-28T08:47:49.000Z</time>
      </trkpt>
      <trkpt lat="47.29032" lon="-2.31004">
        <ele>10</ele>
        <time>2021-11-28T08:47:50.000Z</time>
      </trkpt>
      <trkpt lat="47.29033" lon="-2.30993">
        <ele>9.6000003814697</ele>
        <time>2021-11-28T08:47:51.000Z</time>
      </trkpt>
      <trkpt lat="47.29033" lon="-2.30982">
        <ele>9.1999998092651</ele>
        <time>2021-11-28T08:47:52.000Z</time>
      </trkpt>
      <trkpt lat="47.29033" lon="-2.3097">
        <ele>8.8000001907349</ele>
        <time>2021-11-28T08:47:53.000Z</time>
      </trkpt>
      <trkpt lat="47.29032" lon="-2.30947">
        <ele>8.3999996185303</ele>
        <time>2021-11-28T08:47:55.000Z</time>
      </trkpt>
      <trkpt lat="47.29032" lon="-2.30935">
        <ele>7.5999999046326</ele>
        <time>2021-11-28T08:47:56.000Z</time>
      </trkpt>
      <trkpt lat="47.29032" lon="-2.30924">
        <ele>7.1999998092651</ele>
        <time>2021-11-28T08:47:57.000Z</time>
      </trkpt>
      <trkpt lat="47.29031" lon="-2.30911">
        <ele>6.8000001907349</ele>
        <time>2021-11-28T08:47:58.000Z</time>
      </trkpt>
      <trkpt lat="47.2903" lon="-2.30885">
        <ele>6.1999998092651</ele>
        <time>2021-11-28T08:48:00.000Z</time>
      </trkpt>
      <trkpt lat="47.29029" lon="-2.30872">
        <ele>5.8000001907349</ele>
        <time>2021-11-28T08:48:01.000Z</time>
      </trkpt>
      <trkpt lat="47.29027" lon="-2.3086">
        <ele>5.4000000953674</ele>
        <time>2021-11-28T08:48:02.000Z</time>
      </trkpt>
      <trkpt lat="47.29026" lon="-2.30847">
        <ele>5</ele>
        <time>2021-11-28T08:48:03.000Z</time>
      </trkpt>
      <trkpt lat="47.29024" lon="-2.30834">
        <ele>4.5999999046326</ele>
        <time>2021-11-28T08:48:04.000Z</time>
      </trkpt>
      <trkpt lat="47.29023" lon="-2.30822">
        <ele>4.5999999046326</ele>
        <time>2021-11-28T08:48:05.000Z</time>
      </trkpt>
      <trkpt lat="47.29019" lon="-2.30799">
        <ele>4</ele>
        <time>2021-11-28T08:48:07.000Z</time>
      </trkpt>
      <trkpt lat="47.29016" lon="-2.30788">
        <ele>3.5999999046326</ele>
        <time>2021-11-28T08:48:08.000Z</time>
      </trkpt>
      <trkpt lat="47.29014" lon="-2.30778">
        <ele>3.2000000476837</ele>
        <time>2021-11-28T08:48:09.000Z</time>
      </trkpt>
      <trkpt lat="47.29012" lon="-2.30767">
        <ele>2.5999999046326</ele>
        <time>2021-11-28T08:48:10.000Z</time>
      </trkpt>
      <trkpt lat="47.2901" lon="-2.30756">
        <ele>2.2000000476837</ele>
        <time>2021-11-28T08:48:11.000Z</time>
      </trkpt>
      <trkpt lat="47.29007" lon="-2.30722">
        <ele>2.2000000476837</ele>
        <time>2021-11-28T08:48:14.000Z</time>
      </trkpt>
      <trkpt lat="47.29006" lon="-2.30664">
        <ele>1.3999999761581</ele>
        <time>2021-11-28T08:48:20.000Z</time>
      </trkpt>
      <trkpt lat="47.29005" lon="-2.30657">
        <ele>1</ele>
        <time>2021-11-28T08:48:21.000Z</time>
      </trkpt>
      <trkpt lat="47.29005" lon="-2.3065">
        <ele>0.60000002384186</ele>
        <time>2021-11-28T08:48:22.000Z</time>
      </trkpt>
      <trkpt lat="47.29004" lon="-2.30644">
        <ele>0.20000000298023</ele>
        <time>2021-11-28T08:48:23.000Z</time>
      </trkpt>
      <trkpt lat="47.29003" lon="-2.30639">
        <ele>0.20000000298023</ele>
        <time>2021-11-28T08:48:24.000Z</time>
      </trkpt>
      <trkpt lat="47.29004" lon="-2.30611">
        <ele>0.20000000298023</ele>
        <time>2021-11-28T08:48:29.000Z</time>
      </trkpt>
      <trkpt lat="47.29004" lon="-2.306">
        <ele>0.20000000298023</ele>
        <time>2021-11-28T08:48:31.000Z</time>
      </trkpt>
      <trkpt lat="47.29002" lon="-2.30587">
        <ele>0.20000000298023</ele>
        <time>2021-11-28T08:48:33.000Z</time>
      </trkpt>
      <trkpt lat="47.28996" lon="-2.30536">
        <ele>0.20000000298023</ele>
        <time>2021-11-28T08:48:40.000Z</time>
      </trkpt>
      <trkpt lat="47.28988" lon="-2.30478">
        <ele>0.20000000298023</ele>
        <time>2021-11-28T08:48:47.000Z</time>
      </trkpt>
      <trkpt lat="47.28981" lon="-2.3042">
        <ele>0.20000000298023</ele>
        <time>2021-11-28T08:48:54.000Z</time>
      </trkpt>
      <trkpt lat="47.28977" lon="-2.30385">
        <ele>0.20000000298023</ele>
        <time>2021-11-28T08:48:58.000Z</time>
      </trkpt>
      <trkpt lat="47.28977" lon="-2.30368">
        <ele>0.20000000298023</ele>
        <time>2021-11-28T08:49:00.000Z</time>
      </trkpt>
      <trkpt lat="47.28975" lon="-2.30308">
        <ele>0.20000000298023</ele>
        <time>2021-11-28T08:49:07.000Z</time>
      </trkpt>
      <trkpt lat="47.28973" lon="-2.30281">
        <ele>0.20000000298023</ele>
        <time>2021-11-28T08:49:10.000Z</time>
      </trkpt>
      <trkpt lat="47.28976" lon="-2.30265">
        <ele>0.20000000298023</ele>
        <time>2021-11-28T08:49:12.000Z</time>
      </trkpt>
      <trkpt lat="47.28989" lon="-2.30255">
        <ele>0.20000000298023</ele>
        <time>2021-11-28T08:49:15.000Z</time>
      </trkpt>
      <trkpt lat="47.29004" lon="-2.30255">
        <ele>0.20000000298023</ele>
        <time>2021-11-28T08:49:18.000Z</time>
      </trkpt>
      <trkpt lat="47.29009" lon="-2.30254">
        <ele>0.20000000298023</ele>
        <time>2021-11-28T08:49:19.000Z</time>
      </trkpt>
      <trkpt lat="47.29053" lon="-2.3024">
        <ele>0.20000000298023</ele>
        <time>2021-11-28T08:49:27.000Z</time>
      </trkpt>
      <trkpt lat="47.29095" lon="-2.30221">
        <ele>0.20000000298023</ele>
        <time>2021-11-28T08:49:34.000Z</time>
      </trkpt>
      <trkpt lat="47.29142" lon="-2.30195">
        <ele>0.20000000298023</ele>
        <time>2021-11-28T08:49:42.000Z</time>
      </trkpt>
      <trkpt lat="47.29183" lon="-2.30173">
        <ele>0.20000000298023</ele>
        <time>2021-11-28T08:49:49.000Z</time>
      </trkpt>
      <trkpt lat="47.29228" lon="-2.30148">
        <ele>0.20000000298023</ele>
        <time>2021-11-28T08:49:57.000Z</time>
      </trkpt>
      <trkpt lat="47.29234" lon="-2.30146">
        <ele>-0.20000000298023</ele>
        <time>2021-11-28T08:49:58.000Z</time>
      </trkpt>
      <trkpt lat="47.2924" lon="-2.30145">
        <ele>-1.2000000476837</ele>
        <time>2021-11-28T08:49:59.000Z</time>
      </trkpt>
      <trkpt lat="47.29246" lon="-2.30144">
        <ele>-1.6000000238419</ele>
        <time>2021-11-28T08:50:00.000Z</time>
      </trkpt>
      <trkpt lat="47.29252" lon="-2.30142">
        <ele>-2</ele>
        <time>2021-11-28T08:50:01.000Z</time>
      </trkpt>
      <trkpt lat="47.29263" lon="-2.3014">
        <ele>-2</ele>
        <time>2021-11-28T08:50:03.000Z</time>
      </trkpt>
      <trkpt lat="47.29299" lon="-2.30137">
        <ele>-2</ele>
        <time>2021-11-28T08:50:09.000Z</time>
      </trkpt>
      <trkpt lat="47.29329" lon="-2.30135">
        <ele>-2</ele>
        <time>2021-11-28T08:50:15.000Z</time>
      </trkpt>
      <trkpt lat="47.29335" lon="-2.3012">
        <ele>-2</ele>
        <time>2021-11-28T08:50:18.000Z</time>
      </trkpt>
      <trkpt lat="47.2934" lon="-2.301">
        <ele>-2</ele>
        <time>2021-11-28T08:50:21.000Z</time>
      </trkpt>
      <trkpt lat="47.29341" lon="-2.30094">
        <ele>-2</ele>
        <time>2021-11-28T08:50:22.000Z</time>
      </trkpt>
      <trkpt lat="47.29342" lon="-2.30087">
        <ele>-2</ele>
        <time>2021-11-28T08:50:23.000Z</time>
      </trkpt>
      <trkpt lat="47.29344" lon="-2.30066">
        <ele>-2</ele>
        <time>2021-11-28T08:50:26.000Z</time>
      </trkpt>
      <trkpt lat="47.29346" lon="-2.30031">
        <ele>-2</ele>
        <time>2021-11-28T08:50:31.000Z</time>
      </trkpt>
      <trkpt lat="47.29347" lon="-2.30018">
        <ele>-2</ele>
        <time>2021-11-28T08:50:33.000Z</time>
      </trkpt>
      <trkpt lat="47.2935" lon="-2.30003">
        <ele>-2</ele>
        <time>2021-11-28T08:50:36.000Z</time>
      </trkpt>
      <trkpt lat="47.29358" lon="-2.30006">
        <ele>-2</ele>
        <time>2021-11-28T08:50:39.000Z</time>
      </trkpt>
      <trkpt lat="47.29381" lon="-2.30018">
        <ele>-2</ele>
        <time>2021-11-28T08:50:44.000Z</time>
      </trkpt>
      <trkpt lat="47.29386" lon="-2.3002">
        <ele>-2</ele>
        <time>2021-11-28T08:50:45.000Z</time>
      </trkpt>
      <trkpt lat="47.29408" lon="-2.30027">
        <ele>-2</ele>
        <time>2021-11-28T08:50:49.000Z</time>
      </trkpt>
      <trkpt lat="47.2942" lon="-2.30029">
        <ele>-2</ele>
        <time>2021-11-28T08:50:51.000Z</time>
      </trkpt>
      <trkpt lat="47.29438" lon="-2.3003">
        <ele>-2</ele>
        <time>2021-11-28T08:50:54.000Z</time>
      </trkpt>
      <trkpt lat="47.2948" lon="-2.30027">
        <ele>-2</ele>
        <time>2021-11-28T08:51:01.000Z</time>
      </trkpt>
      <trkpt lat="47.29503" lon="-2.30025">
        <ele>-2</ele>
        <time>2021-11-28T08:51:05.000Z</time>
      </trkpt>
      <trkpt lat="47.29515" lon="-2.30024">
        <ele>-2</ele>
        <time>2021-11-28T08:51:07.000Z</time>
      </trkpt>
      <trkpt lat="47.29521" lon="-2.30026">
        <ele>-2.4000000953674</ele>
        <time>2021-11-28T08:51:08.000Z</time>
      </trkpt>
      <trkpt lat="47.29527" lon="-2.30028">
        <ele>-2.7999999523163</ele>
        <time>2021-11-28T08:51:09.000Z</time>
      </trkpt>
      <trkpt lat="47.29534" lon="-2.30028">
        <ele>-3.2000000476837</ele>
        <time>2021-11-28T08:51:10.000Z</time>
      </trkpt>
      <trkpt lat="47.2954" lon="-2.30026">
        <ele>-3.5999999046326</ele>
        <time>2021-11-28T08:51:11.000Z</time>
      </trkpt>
      <trkpt lat="47.29547" lon="-2.30024">
        <ele>-4</ele>
        <time>2021-11-28T08:51:12.000Z</time>
      </trkpt>
      <trkpt lat="47.29578" lon="-2.30012">
        <ele>-4</ele>
        <time>2021-11-28T08:51:17.000Z</time>
      </trkpt>
      <trkpt lat="47.29614" lon="-2.30002">
        <ele>-4</ele>
        <time>2021-11-28T08:51:23.000Z</time>
      </trkpt>
      <trkpt lat="47.29641" lon="-2.29989">
        <ele>-4</ele>
        <time>2021-11-28T08:51:28.000Z</time>
      </trkpt>
      <trkpt lat="47.29646" lon="-2.29985">
        <ele>-4</ele>
        <time>2021-11-28T08:51:29.000Z</time>
      </trkpt>
      <trkpt lat="47.29659" lon="-2.29991">
        <ele>-4</ele>
        <time>2021-11-28T08:51:32.000Z</time>
      </trkpt>
      <trkpt lat="47.29663" lon="-2.29995">
        <ele>-4</ele>
        <time>2021-11-28T08:51:33.000Z</time>
      </trkpt>
      <trkpt lat="47.29675" lon="-2.3">
        <ele>-4</ele>
        <time>2021-11-28T08:51:35.000Z</time>
      </trkpt>
      <trkpt lat="47.29682" lon="-2.3">
        <ele>-4</ele>
        <time>2021-11-28T08:51:36.000Z</time>
      </trkpt>
      <trkpt lat="47.29709" lon="-2.29999">
        <ele>-4</ele>
        <time>2021-11-28T08:51:40.000Z</time>
      </trkpt>
      <trkpt lat="47.29728" lon="-2.29994">
        <ele>-4</ele>
        <time>2021-11-28T08:51:43.000Z</time>
      </trkpt>
      <trkpt lat="47.2974" lon="-2.29987">
        <ele>-4</ele>
        <time>2021-11-28T08:51:45.000Z</time>
      </trkpt>
      <trkpt lat="47.29773" lon="-2.29966">
        <ele>-4</ele>
        <time>2021-11-28T08:51:51.000Z</time>
      </trkpt>
      <trkpt lat="47.29783" lon="-2.29957">
        <ele>-4</ele>
        <time>2021-11-28T08:51:52.000Z</time>
      </trkpt>
      <trkpt lat="47.29788" lon="-2.29954">
        <ele>-4</ele>
        <time>2021-11-28T08:51:54.000Z</time>
      </trkpt>
      <trkpt lat="47.298" lon="-2.2995">
        <ele>-4</ele>
        <time>2021-11-28T08:51:56.000Z</time>
      </trkpt>
      <trkpt lat="47.29812" lon="-2.29952">
        <ele>-4</ele>
        <time>2021-11-28T08:51:58.000Z</time>
      </trkpt>
      <trkpt lat="47.29824" lon="-2.29953">
        <ele>-4</ele>
        <time>2021-11-28T08:52:00.000Z</time>
      </trkpt>
      <trkpt lat="47.2986" lon="-2.29948">
        <ele>-4</ele>
        <time>2021-11-28T08:52:06.000Z</time>
      </trkpt>
      <trkpt lat="47.29895" lon="-2.2994">
        <ele>-4</ele>
        <time>2021-11-28T08:52:12.000Z</time>
      </trkpt>
      <trkpt lat="47.29901" lon="-2.29937">
        <ele>-4</ele>
        <time>2021-11-28T08:52:13.000Z</time>
      </trkpt>
      <trkpt lat="47.29908" lon="-2.29927">
        <ele>-4.5999999046326</ele>
        <time>2021-11-28T08:52:15.000Z</time>
      </trkpt>
      <trkpt lat="47.29909" lon="-2.29919">
        <ele>-5</ele>
        <time>2021-11-28T08:52:16.000Z</time>
      </trkpt>
      <trkpt lat="47.29908" lon="-2.29912">
        <ele>-5.4000000953674</ele>
        <time>2021-11-28T08:52:17.000Z</time>
      </trkpt>
      <trkpt lat="47.29908" lon="-2.29905">
        <ele>-5.8000001907349</ele>
        <time>2021-11-28T08:52:18.000Z</time>
      </trkpt>
      <trkpt lat="47.29907" lon="-2.29898">
        <ele>-6.1999998092651</ele>
        <time>2021-11-28T08:52:19.000Z</time>
      </trkpt>
      <trkpt lat="47.29902" lon="-2.29865">
        <ele>-5.8000001907349</ele>
        <time>2021-11-28T08:52:24.000Z</time>
      </trkpt>
      <trkpt lat="47.29902" lon="-2.29859">
        <ele>-5.4000000953674</ele>
        <time>2021-11-28T08:52:25.000Z</time>
      </trkpt>
      <trkpt lat="47.29902" lon="-2.29852">
        <ele>-4.4000000953674</ele>
        <time>2021-11-28T08:52:26.000Z</time>
      </trkpt>
      <trkpt lat="47.29903" lon="-2.29846">
        <ele>-4</ele>
        <time>2021-11-28T08:52:27.000Z</time>
      </trkpt>
      <trkpt lat="47.29907" lon="-2.29835">
        <ele>-4</ele>
        <time>2021-11-28T08:52:29.000Z</time>
      </trkpt>
      <trkpt lat="47.29917" lon="-2.29824">
        <ele>-4</ele>
        <time>2021-11-28T08:52:32.000Z</time>
      </trkpt>
      <trkpt lat="47.29921" lon="-2.29821">
        <ele>-4</ele>
        <time>2021-11-28T08:52:33.000Z</time>
      </trkpt>
      <trkpt lat="47.29937" lon="-2.29809">
        <ele>-4</ele>
        <time>2021-11-28T08:52:38.000Z</time>
      </trkpt>
      <trkpt lat="47.29946" lon="-2.29799">
        <ele>-4</ele>
        <time>2021-11-28T08:52:42.000Z</time>
      </trkpt>
      <trkpt lat="47.2995" lon="-2.29784">
        <ele>-4</ele>
        <time>2021-11-28T08:52:45.000Z</time>
      </trkpt>
      <trkpt lat="47.29949" lon="-2.29778">
        <ele>-4</ele>
        <time>2021-11-28T08:52:46.000Z</time>
      </trkpt>
      <trkpt lat="47.2994" lon="-2.29747">
        <ele>-4</ele>
        <time>2021-11-28T08:52:51.000Z</time>
      </trkpt>
      <trkpt lat="47.29923" lon="-2.29696">
        <ele>-4</ele>
        <time>2021-11-28T08:52:59.000Z</time>
      </trkpt>
      <trkpt lat="47.29919" lon="-2.29678">
        <ele>-4</ele>
        <time>2021-11-28T08:53:02.000Z</time>
      </trkpt>
      <trkpt lat="47.29921" lon="-2.29668">
        <ele>-4</ele>
        <time>2021-11-28T08:53:04.000Z</time>
      </trkpt>
      <trkpt lat="47.29934" lon="-2.29657">
        <ele>-4</ele>
        <time>2021-11-28T08:53:07.000Z</time>
      </trkpt>
      <trkpt lat="47.29939" lon="-2.29654">
        <ele>-4</ele>
        <time>2021-11-28T08:53:08.000Z</time>
      </trkpt>
      <trkpt lat="47.29959" lon="-2.29642">
        <ele>-4</ele>
        <time>2021-11-28T08:53:12.000Z</time>
      </trkpt>
      <trkpt lat="47.29964" lon="-2.29639">
        <ele>-4</ele>
        <time>2021-11-28T08:53:13.000Z</time>
      </trkpt>
      <trkpt lat="47.2998" lon="-2.29633">
        <ele>-4</ele>
        <time>2021-11-28T08:53:16.000Z</time>
      </trkpt>
      <trkpt lat="47.29985" lon="-2.29632">
        <ele>-4</ele>
        <time>2021-11-28T08:53:17.000Z</time>
      </trkpt>
      <trkpt lat="47.30021" lon="-2.29629">
        <ele>-4</ele>
        <time>2021-11-28T08:53:23.000Z</time>
      </trkpt>
      <trkpt lat="47.3006" lon="-2.29631">
        <ele>-4</ele>
        <time>2021-11-28T08:53:30.000Z</time>
      </trkpt>
      <trkpt lat="47.30093" lon="-2.29641">
        <ele>-4.4000000953674</ele>
        <time>2021-11-28T08:53:36.000Z</time>
      </trkpt>
      <trkpt lat="47.30098" lon="-2.29643">
        <ele>-4.8000001907349</ele>
        <time>2021-11-28T08:53:37.000Z</time>
      </trkpt>
      <trkpt lat="47.30104" lon="-2.29645">
        <ele>-5.1999998092651</ele>
        <time>2021-11-28T08:53:38.000Z</time>
      </trkpt>
      <trkpt lat="47.30109" lon="-2.29646">
        <ele>-5.5999999046326</ele>
        <time>2021-11-28T08:53:39.000Z</time>
      </trkpt>
      <trkpt lat="47.30115" lon="-2.29648">
        <ele>-6</ele>
        <time>2021-11-28T08:53:40.000Z</time>
      </trkpt>
      <trkpt lat="47.30159" lon="-2.29664">
        <ele>-6</ele>
        <time>2021-11-28T08:53:48.000Z</time>
      </trkpt>
      <trkpt lat="47.3017" lon="-2.29671">
        <ele>-6</ele>
        <time>2021-11-28T08:53:50.000Z</time>
      </trkpt>
      <trkpt lat="47.3018" lon="-2.29678">
        <ele>-6</ele>
        <time>2021-11-28T08:53:52.000Z</time>
      </trkpt>
      <trkpt lat="47.30186" lon="-2.29681">
        <ele>-6</ele>
        <time>2021-11-28T08:53:53.000Z</time>
      </trkpt>
      <trkpt lat="47.30213" lon="-2.29697">
        <ele>-6</ele>
        <time>2021-11-28T08:53:58.000Z</time>
      </trkpt>
      <trkpt lat="47.30219" lon="-2.297">
        <ele>-6</ele>
        <time>2021-11-28T08:53:59.000Z</time>
      </trkpt>
      <trkpt lat="47.3023" lon="-2.29703">
        <ele>-6</ele>
        <time>2021-11-28T08:54:01.000Z</time>
      </trkpt>
      <trkpt lat="47.3024" lon="-2.29708">
        <ele>-6</ele>
        <time>2021-11-28T08:54:03.000Z</time>
      </trkpt>
      <trkpt lat="47.30245" lon="-2.29711">
        <ele>-6</ele>
        <time>2021-11-28T08:54:04.000Z</time>
      </trkpt>
      <trkpt lat="47.30262" lon="-2.29716">
        <ele>-6</ele>
        <time>2021-11-28T08:54:07.000Z</time>
      </trkpt>
      <trkpt lat="47.30273" lon="-2.29715">
        <ele>-6</ele>
        <time>2021-11-28T08:54:09.000Z</time>
      </trkpt>
      <trkpt lat="47.30295" lon="-2.29709">
        <ele>-6</ele>
        <time>2021-11-28T08:54:13.000Z</time>
      </trkpt>
      <trkpt lat="47.30306" lon="-2.29705">
        <ele>-6</ele>
        <time>2021-11-28T08:54:15.000Z</time>
      </trkpt>
      <trkpt lat="47.3033" lon="-2.29696">
        <ele>-6</ele>
        <time>2021-11-28T08:54:19.000Z</time>
      </trkpt>
      <trkpt lat="47.30336" lon="-2.29695">
        <ele>-6</ele>
        <time>2021-11-28T08:54:20.000Z</time>
      </trkpt>
      <trkpt lat="47.30373" lon="-2.29684">
        <ele>-6</ele>
        <time>2021-11-28T08:54:26.000Z</time>
      </trkpt>
      <trkpt lat="47.30424" lon="-2.29668">
        <ele>-6</ele>
        <time>2021-11-28T08:54:34.000Z</time>
      </trkpt>
      <trkpt lat="47.30465" lon="-2.29658">
        <ele>-6</ele>
        <time>2021-11-28T08:54:41.000Z</time>
      </trkpt>
      <trkpt lat="47.30481" lon="-2.29653">
        <ele>-6</ele>
        <time>2021-11-28T08:54:44.000Z</time>
      </trkpt>
      <trkpt lat="47.30498" lon="-2.29648">
        <ele>-6</ele>
        <time>2021-11-28T08:54:47.000Z</time>
      </trkpt>
      <trkpt lat="47.30532" lon="-2.29636">
        <ele>-6</ele>
        <time>2021-11-28T08:54:53.000Z</time>
      </trkpt>
      <trkpt lat="47.30573" lon="-2.29624">
        <ele>-6</ele>
        <time>2021-11-28T08:55:00.000Z</time>
      </trkpt>
      <trkpt lat="47.30614" lon="-2.29611">
        <ele>-6</ele>
        <time>2021-11-28T08:55:07.000Z</time>
      </trkpt>
      <trkpt lat="47.30649" lon="-2.29599">
        <ele>-6</ele>
        <time>2021-11-28T08:55:13.000Z</time>
      </trkpt>
      <trkpt lat="47.30684" lon="-2.29589">
        <ele>-6</ele>
        <time>2021-11-28T08:55:19.000Z</time>
      </trkpt>
      <trkpt lat="47.30716" lon="-2.2958">
        <ele>-6</ele>
        <time>2021-11-28T08:55:25.000Z</time>
      </trkpt>
      <trkpt lat="47.3075" lon="-2.29567">
        <ele>-6</ele>
        <time>2021-11-28T08:55:32.000Z</time>
      </trkpt>
      <trkpt lat="47.30793" lon="-2.29552">
        <ele>-6</ele>
        <time>2021-11-28T08:55:41.000Z</time>
      </trkpt>
      <trkpt lat="47.30811" lon="-2.29545">
        <ele>-6</ele>
        <time>2021-11-28T08:55:45.000Z</time>
      </trkpt>
      <trkpt lat="47.30821" lon="-2.29543">
        <ele>-6</ele>
        <time>2021-11-28T08:55:47.000Z</time>
      </trkpt>
      <trkpt lat="47.30853" lon="-2.29546">
        <ele>-6</ele>
        <time>2021-11-28T08:55:53.000Z</time>
      </trkpt>
      <trkpt lat="47.30873" lon="-2.29551">
        <ele>-5.5999999046326</ele>
        <time>2021-11-28T08:55:57.000Z</time>
      </trkpt>
      <trkpt lat="47.30878" lon="-2.29553">
        <ele>-5.1999998092651</ele>
        <time>2021-11-28T08:55:58.000Z</time>
      </trkpt>
      <trkpt lat="47.30884" lon="-2.29555">
        <ele>-4.8000001907349</ele>
        <time>2021-11-28T08:55:59.000Z</time>
      </trkpt>
      <trkpt lat="47.30889" lon="-2.29557">
        <ele>-4.4000000953674</ele>
        <time>2021-11-28T08:56:00.000Z</time>
      </trkpt>
      <trkpt lat="47.30894" lon="-2.29559">
        <ele>-4</ele>
        <time>2021-11-28T08:56:01.000Z</time>
      </trkpt>
      <trkpt lat="47.30921" lon="-2.29568">
        <ele>-4</ele>
        <time>2021-11-28T08:56:06.000Z</time>
      </trkpt>
      <trkpt lat="47.30954" lon="-2.29579">
        <ele>-4</ele>
        <time>2021-11-28T08:56:12.000Z</time>
      </trkpt>
      <trkpt lat="47.30988" lon="-2.29594">
        <ele>-4</ele>
        <time>2021-11-28T08:56:18.000Z</time>
      </trkpt>
      <trkpt lat="47.30993" lon="-2.29598">
        <ele>-4</ele>
        <time>2021-11-28T08:56:19.000Z</time>
      </trkpt>
      <trkpt lat="47.31007" lon="-2.29616">
        <ele>-4</ele>
        <time>2021-11-28T08:56:22.000Z</time>
      </trkpt>
      <trkpt lat="47.3102" lon="-2.29643">
        <ele>-4</ele>
        <time>2021-11-28T08:56:26.000Z</time>
      </trkpt>
      <trkpt lat="47.31023" lon="-2.29649">
        <ele>-4</ele>
        <time>2021-11-28T08:56:27.000Z</time>
      </trkpt>
      <trkpt lat="47.31039" lon="-2.29695">
        <ele>-4</ele>
        <time>2021-11-28T08:56:34.000Z</time>
      </trkpt>
      <trkpt lat="47.31042" lon="-2.297">
        <ele>-4</ele>
        <time>2021-11-28T08:56:35.000Z</time>
      </trkpt>
      <trkpt lat="47.31051" lon="-2.297">
        <ele>-4</ele>
        <time>2021-11-28T08:56:37.000Z</time>
      </trkpt>
      <trkpt lat="47.31064" lon="-2.29692">
        <ele>-4</ele>
        <time>2021-11-28T08:56:40.000Z</time>
      </trkpt>
      <trkpt lat="47.31073" lon="-2.29684">
        <ele>-4</ele>
        <time>2021-11-28T08:56:42.000Z</time>
      </trkpt>
      <trkpt lat="47.31077" lon="-2.2968">
        <ele>-4</ele>
        <time>2021-11-28T08:56:43.000Z</time>
      </trkpt>
      <trkpt lat="47.31103" lon="-2.29648">
        <ele>-4</ele>
        <time>2021-11-28T08:56:49.000Z</time>
      </trkpt>
      <trkpt lat="47.31135" lon="-2.29611">
        <ele>-4</ele>
        <time>2021-11-28T08:56:56.000Z</time>
      </trkpt>
      <trkpt lat="47.31166" lon="-2.29588">
        <ele>-4</ele>
        <time>2021-11-28T08:57:02.000Z</time>
      </trkpt>
      <trkpt lat="47.31169" lon="-2.29561">
        <ele>-4</ele>
        <time>2021-11-28T08:57:05.000Z</time>
      </trkpt>
      <trkpt lat="47.31162" lon="-2.29536">
        <ele>-4</ele>
        <time>2021-11-28T08:57:08.000Z</time>
      </trkpt>
      <trkpt lat="47.31159" lon="-2.29527">
        <ele>-4</ele>
        <time>2021-11-28T08:57:09.000Z</time>
      </trkpt>
      <trkpt lat="47.31149" lon="-2.29495">
        <ele>-4</ele>
        <time>2021-11-28T08:57:13.000Z</time>
      </trkpt>
      <trkpt lat="47.31146" lon="-2.29479">
        <ele>-4</ele>
        <time>2021-11-28T08:57:15.000Z</time>
      </trkpt>
      <trkpt lat="47.31152" lon="-2.29461">
        <ele>-4</ele>
        <time>2021-11-28T08:57:18.000Z</time>
      </trkpt>
      <trkpt lat="47.31167" lon="-2.29449">
        <ele>-4</ele>
        <time>2021-11-28T08:57:21.000Z</time>
      </trkpt>
      <trkpt lat="47.31208" lon="-2.29418">
        <ele>-4</ele>
        <time>2021-11-28T08:57:29.000Z</time>
      </trkpt>
      <trkpt lat="47.31242" lon="-2.2939">
        <ele>-4</ele>
        <time>2021-11-28T08:57:36.000Z</time>
      </trkpt>
      <trkpt lat="47.3126" lon="-2.2937">
        <ele>-4</ele>
        <time>2021-11-28T08:57:40.000Z</time>
      </trkpt>
      <trkpt lat="47.31264" lon="-2.29363">
        <ele>-4</ele>
        <time>2021-11-28T08:57:41.000Z</time>
      </trkpt>
      <trkpt lat="47.31272" lon="-2.29339">
        <ele>-4</ele>
        <time>2021-11-28T08:57:44.000Z</time>
      </trkpt>
      <trkpt lat="47.31278" lon="-2.29327">
        <ele>-4</ele>
        <time>2021-11-28T08:57:46.000Z</time>
      </trkpt>
      <trkpt lat="47.31292" lon="-2.29305">
        <ele>-4</ele>
        <time>2021-11-28T08:57:51.000Z</time>
      </trkpt>
      <trkpt lat="47.31297" lon="-2.29302">
        <ele>-4</ele>
        <time>2021-11-28T08:57:52.000Z</time>
      </trkpt>
      <trkpt lat="47.31305" lon="-2.29296">
        <ele>-4</ele>
        <time>2021-11-28T08:57:54.000Z</time>
      </trkpt>
      <trkpt lat="47.31315" lon="-2.29295">
        <ele>-4</ele>
        <time>2021-11-28T08:57:56.000Z</time>
      </trkpt>
      <trkpt lat="47.3133" lon="-2.29298">
        <ele>-3.4000000953674</ele>
        <time>2021-11-28T08:57:59.000Z</time>
      </trkpt>
      <trkpt lat="47.31335" lon="-2.293">
        <ele>-3</ele>
        <time>2021-11-28T08:58:00.000Z</time>
      </trkpt>
      <trkpt lat="47.3134" lon="-2.29301">
        <ele>-2.5999999046326</ele>
        <time>2021-11-28T08:58:01.000Z</time>
      </trkpt>
      <trkpt lat="47.31345" lon="-2.29303">
        <ele>-2.2000000476837</ele>
        <time>2021-11-28T08:58:02.000Z</time>
      </trkpt>
      <trkpt lat="47.31349" lon="-2.29305">
        <ele>-1.7999999523163</ele>
        <time>2021-11-28T08:58:03.000Z</time>
      </trkpt>
      <trkpt lat="47.31359" lon="-2.29309">
        <ele>-1.7999999523163</ele>
        <time>2021-11-28T08:58:05.000Z</time>
      </trkpt>
      <trkpt lat="47.31363" lon="-2.29313">
        <ele>-1.7999999523163</ele>
        <time>2021-11-28T08:58:06.000Z</time>
      </trkpt>
      <trkpt lat="47.31391" lon="-2.29324">
        <ele>-1.7999999523163</ele>
        <time>2021-11-28T08:58:12.000Z</time>
      </trkpt>
      <trkpt lat="47.31403" lon="-2.29334">
        <ele>-1.7999999523163</ele>
        <time>2021-11-28T08:58:15.000Z</time>
      </trkpt>
      <trkpt lat="47.31411" lon="-2.29343">
        <ele>-1.3999999761581</ele>
        <time>2021-11-28T08:58:17.000Z</time>
      </trkpt>
      <trkpt lat="47.31414" lon="-2.29346">
        <ele>-1</ele>
        <time>2021-11-28T08:58:18.000Z</time>
      </trkpt>
      <trkpt lat="47.31418" lon="-2.29351">
        <ele>-0.60000002384186</ele>
        <time>2021-11-28T08:58:19.000Z</time>
      </trkpt>
      <trkpt lat="47.31421" lon="-2.29356">
        <ele>-0.20000000298023</ele>
        <time>2021-11-28T08:58:20.000Z</time>
      </trkpt>
      <trkpt lat="47.31424" lon="-2.2936">
        <ele>0.20000000298023</ele>
        <time>2021-11-28T08:58:21.000Z</time>
      </trkpt>
      <trkpt lat="47.31426" lon="-2.29364">
        <ele>0.20000000298023</ele>
        <time>2021-11-28T08:58:22.000Z</time>
      </trkpt>
      <trkpt lat="47.31443" lon="-2.29391">
        <ele>0.20000000298023</ele>
        <time>2021-11-28T08:58:28.000Z</time>
      </trkpt>
      <trkpt lat="47.3146" lon="-2.29404">
        <ele>0.20000000298023</ele>
        <time>2021-11-28T08:58:33.000Z</time>
      </trkpt>
      <trkpt lat="47.31468" lon="-2.29401">
        <ele>0.20000000298023</ele>
        <time>2021-11-28T08:58:35.000Z</time>
      </trkpt>
      <trkpt lat="47.31478" lon="-2.29399">
        <ele>0.20000000298023</ele>
        <time>2021-11-28T08:58:37.000Z</time>
      </trkpt>
      <trkpt lat="47.31488" lon="-2.29397">
        <ele>0.20000000298023</ele>
        <time>2021-11-28T08:58:39.000Z</time>
      </trkpt>
      <trkpt lat="47.31501" lon="-2.29401">
        <ele>0.20000000298023</ele>
        <time>2021-11-28T08:58:42.000Z</time>
      </trkpt>
      <trkpt lat="47.31504" lon="-2.29404">
        <ele>0.60000002384186</ele>
        <time>2021-11-28T08:58:43.000Z</time>
      </trkpt>
      <trkpt lat="47.31507" lon="-2.29408">
        <ele>1</ele>
        <time>2021-11-28T08:58:44.000Z</time>
      </trkpt>
      <trkpt lat="47.31509" lon="-2.29412">
        <ele>1.3999999761581</ele>
        <time>2021-11-28T08:58:45.000Z</time>
      </trkpt>
      <trkpt lat="47.31512" lon="-2.29417">
        <ele>1.7999999523163</ele>
        <time>2021-11-28T08:58:46.000Z</time>
      </trkpt>
      <trkpt lat="47.31514" lon="-2.29422">
        <ele>2.2000000476837</ele>
        <time>2021-11-28T08:58:47.000Z</time>
      </trkpt>
      <trkpt lat="47.31526" lon="-2.29449">
        <ele>2.2000000476837</ele>
        <time>2021-11-28T08:58:52.000Z</time>
      </trkpt>
      <trkpt lat="47.31539" lon="-2.29484">
        <ele>2.2000000476837</ele>
        <time>2021-11-28T08:58:59.000Z</time>
      </trkpt>
      <trkpt lat="47.3154" lon="-2.2949">
        <ele>2.5999999046326</ele>
        <time>2021-11-28T08:59:00.000Z</time>
      </trkpt>
      <trkpt lat="47.31541" lon="-2.29495">
        <ele>3.2000000476837</ele>
        <time>2021-11-28T08:59:01.000Z</time>
      </trkpt>
      <trkpt lat="47.31542" lon="-2.29499">
        <ele>3.5999999046326</ele>
        <time>2021-11-28T08:59:02.000Z</time>
      </trkpt>
      <trkpt lat="47.31544" lon="-2.29504">
        <ele>4.4000000953674</ele>
        <time>2021-11-28T08:59:03.000Z</time>
      </trkpt>
      <trkpt lat="47.31545" lon="-2.29517">
        <ele>4.4000000953674</ele>
        <time>2021-11-28T08:59:05.000Z</time>
      </trkpt>
      <trkpt lat="47.31548" lon="-2.2953">
        <ele>4.4000000953674</ele>
        <time>2021-11-28T08:59:07.000Z</time>
      </trkpt>
      <trkpt lat="47.31557" lon="-2.2955">
        <ele>4.4000000953674</ele>
        <time>2021-11-28T08:59:11.000Z</time>
      </trkpt>
      <trkpt lat="47.31574" lon="-2.29578">
        <ele>4.4000000953674</ele>
        <time>2021-11-28T08:59:17.000Z</time>
      </trkpt>
      <trkpt lat="47.31584" lon="-2.29591">
        <ele>4.4000000953674</ele>
        <time>2021-11-28T08:59:20.000Z</time>
      </trkpt>
      <trkpt lat="47.31598" lon="-2.29603">
        <ele>4.4000000953674</ele>
        <time>2021-11-28T08:59:24.000Z</time>
      </trkpt>
      <trkpt lat="47.31613" lon="-2.29617">
        <ele>4.4000000953674</ele>
        <time>2021-11-28T08:59:29.000Z</time>
      </trkpt>
      <trkpt lat="47.31631" lon="-2.2965">
        <ele>4.8000001907349</ele>
        <time>2021-11-28T08:59:35.000Z</time>
      </trkpt>
      <trkpt lat="47.31633" lon="-2.29657">
        <ele>5.1999998092651</ele>
        <time>2021-11-28T08:59:36.000Z</time>
      </trkpt>
      <trkpt lat="47.31636" lon="-2.29663">
        <ele>5.5999999046326</ele>
        <time>2021-11-28T08:59:37.000Z</time>
      </trkpt>
      <trkpt lat="47.31638" lon="-2.29668">
        <ele>6</ele>
        <time>2021-11-28T08:59:38.000Z</time>
      </trkpt>
      <trkpt lat="47.3164" lon="-2.29674">
        <ele>6.4000000953674</ele>
        <time>2021-11-28T08:59:39.000Z</time>
      </trkpt>
      <trkpt lat="47.31642" lon="-2.29679">
        <ele>6.4000000953674</ele>
        <time>2021-11-28T08:59:40.000Z</time>
      </trkpt>
      <trkpt lat="47.31645" lon="-2.29686">
        <ele>6.4000000953674</ele>
        <time>2021-11-28T08:59:41.000Z</time>
      </trkpt>
      <trkpt lat="47.31662" lon="-2.29729">
        <ele>6.4000000953674</ele>
        <time>2021-11-28T08:59:48.000Z</time>
      </trkpt>
      <trkpt lat="47.31675" lon="-2.29737">
        <ele>6.4000000953674</ele>
        <time>2021-11-28T08:59:51.000Z</time>
      </trkpt>
      <trkpt lat="47.3169" lon="-2.29733">
        <ele>6.4000000953674</ele>
        <time>2021-11-28T08:59:54.000Z</time>
      </trkpt>
      <trkpt lat="47.31705" lon="-2.2973">
        <ele>6.4000000953674</ele>
        <time>2021-11-28T08:59:57.000Z</time>
      </trkpt>
      <trkpt lat="47.31719" lon="-2.29721">
        <ele>6.4000000953674</ele>
        <time>2021-11-28T09:00:00.000Z</time>
      </trkpt>
      <trkpt lat="47.31754" lon="-2.29694">
        <ele>6.4000000953674</ele>
        <time>2021-11-28T09:00:07.000Z</time>
      </trkpt>
      <trkpt lat="47.31785" lon="-2.29672">
        <ele>6.4000000953674</ele>
        <time>2021-11-28T09:00:14.000Z</time>
      </trkpt>
      <trkpt lat="47.31813" lon="-2.29651">
        <ele>6.4000000953674</ele>
        <time>2021-11-28T09:00:21.000Z</time>
      </trkpt>
      <trkpt lat="47.31838" lon="-2.29637">
        <ele>6.4000000953674</ele>
        <time>2021-11-28T09:00:28.000Z</time>
      </trkpt>
      <trkpt lat="47.31843" lon="-2.29634">
        <ele>6</ele>
        <time>2021-11-28T09:00:31.000Z</time>
      </trkpt>
      <trkpt lat="47.31842" lon="-2.29635">
        <ele>5.5999999046326</ele>
        <time>2021-11-28T09:00:32.000Z</time>
      </trkpt>
      <trkpt lat="47.31846" lon="-2.29633">
        <ele>4.4000000953674</ele>
        <time>2021-11-28T09:00:41.000Z</time>
      </trkpt>
      <trkpt lat="47.31851" lon="-2.29628">
        <ele>4.4000000953674</ele>
        <time>2021-11-28T09:00:44.000Z</time>
      </trkpt>
      <trkpt lat="47.31863" lon="-2.29612">
        <ele>4.4000000953674</ele>
        <time>2021-11-28T09:00:49.000Z</time>
      </trkpt>
      <trkpt lat="47.31873" lon="-2.29587">
        <ele>4.4000000953674</ele>
        <time>2021-11-28T09:00:55.000Z</time>
      </trkpt>
      <trkpt lat="47.31869" lon="-2.29561">
        <ele>4.4000000953674</ele>
        <time>2021-11-28T09:01:00.000Z</time>
      </trkpt>
      <trkpt lat="47.31857" lon="-2.29516">
        <ele>4.4000000953674</ele>
        <time>2021-11-28T09:01:08.000Z</time>
      </trkpt>
      <trkpt lat="47.31849" lon="-2.29477">
        <ele>4.4000000953674</ele>
        <time>2021-11-28T09:01:14.000Z</time>
      </trkpt>
      <trkpt lat="47.31848" lon="-2.29471">
        <ele>4.4000000953674</ele>
        <time>2021-11-28T09:01:15.000Z</time>
      </trkpt>
      <trkpt lat="47.31848" lon="-2.29463">
        <ele>4.4000000953674</ele>
        <time>2021-11-28T09:01:16.000Z</time>
      </trkpt>
      <trkpt lat="47.31851" lon="-2.2944">
        <ele>4.4000000953674</ele>
        <time>2021-11-28T09:01:19.000Z</time>
      </trkpt>
      <trkpt lat="47.31852" lon="-2.29433">
        <ele>4.4000000953674</ele>
        <time>2021-11-28T09:01:20.000Z</time>
      </trkpt>
      <trkpt lat="47.31853" lon="-2.29416">
        <ele>4.4000000953674</ele>
        <time>2021-11-28T09:01:22.000Z</time>
      </trkpt>
      <trkpt lat="47.31851" lon="-2.29389">
        <ele>4.4000000953674</ele>
        <time>2021-11-28T09:01:25.000Z</time>
      </trkpt>
      <trkpt lat="47.3184" lon="-2.2934">
        <ele>4.4000000953674</ele>
        <time>2021-11-28T09:01:31.000Z</time>
      </trkpt>
      <trkpt lat="47.31836" lon="-2.29299">
        <ele>4.4000000953674</ele>
        <time>2021-11-28T09:01:36.000Z</time>
      </trkpt>
      <trkpt lat="47.31834" lon="-2.2927">
        <ele>4</ele>
        <time>2021-11-28T09:01:39.000Z</time>
      </trkpt>
      <trkpt lat="47.31832" lon="-2.2926">
        <ele>3.5999999046326</ele>
        <time>2021-11-28T09:01:40.000Z</time>
      </trkpt>
      <trkpt lat="47.31831" lon="-2.29251">
        <ele>3.2000000476837</ele>
        <time>2021-11-28T09:01:41.000Z</time>
      </trkpt>
      <trkpt lat="47.31829" lon="-2.2924">
        <ele>2.7999999523163</ele>
        <time>2021-11-28T09:01:42.000Z</time>
      </trkpt>
      <trkpt lat="47.31827" lon="-2.29231">
        <ele>2.2000000476837</ele>
        <time>2021-11-28T09:01:43.000Z</time>
      </trkpt>
      <trkpt lat="47.31826" lon="-2.29199">
        <ele>1.7999999523163</ele>
        <time>2021-11-28T09:01:46.000Z</time>
      </trkpt>
      <trkpt lat="47.31826" lon="-2.29188">
        <ele>1.3999999761581</ele>
        <time>2021-11-28T09:01:47.000Z</time>
      </trkpt>
      <trkpt lat="47.31827" lon="-2.29176">
        <ele>1</ele>
        <time>2021-11-28T09:01:48.000Z</time>
      </trkpt>
      <trkpt lat="47.31829" lon="-2.29165">
        <ele>0.60000002384186</ele>
        <time>2021-11-28T09:01:49.000Z</time>
      </trkpt>
      <trkpt lat="47.3183" lon="-2.29154">
        <ele>0.20000000298023</ele>
        <time>2021-11-28T09:01:50.000Z</time>
      </trkpt>
      <trkpt lat="47.31835" lon="-2.29119">
        <ele>0.20000000298023</ele>
        <time>2021-11-28T09:01:53.000Z</time>
      </trkpt>
      <trkpt lat="47.31836" lon="-2.29107">
        <ele>-0.20000000298023</ele>
        <time>2021-11-28T09:01:54.000Z</time>
      </trkpt>
      <trkpt lat="47.31838" lon="-2.29096">
        <ele>-0.80000001192093</ele>
        <time>2021-11-28T09:01:55.000Z</time>
      </trkpt>
      <trkpt lat="47.3184" lon="-2.29084">
        <ele>-1.7999999523163</ele>
        <time>2021-11-28T09:01:56.000Z</time>
      </trkpt>
      <trkpt lat="47.31842" lon="-2.29072">
        <ele>-2.2000000476837</ele>
        <time>2021-11-28T09:01:57.000Z</time>
      </trkpt>
      <trkpt lat="47.31847" lon="-2.29051">
        <ele>-2.2000000476837</ele>
        <time>2021-11-28T09:01:59.000Z</time>
      </trkpt>
      <trkpt lat="47.3186" lon="-2.28989">
        <ele>-2.5999999046326</ele>
        <time>2021-11-28T09:02:05.000Z</time>
      </trkpt>
      <trkpt lat="47.31861" lon="-2.2898">
        <ele>-3</ele>
        <time>2021-11-28T09:02:06.000Z</time>
      </trkpt>
      <trkpt lat="47.31861" lon="-2.28969">
        <ele>-3.5999999046326</ele>
        <time>2021-11-28T09:02:07.000Z</time>
      </trkpt>
      <trkpt lat="47.31862" lon="-2.28959">
        <ele>-4</ele>
        <time>2021-11-28T09:02:08.000Z</time>
      </trkpt>
      <trkpt lat="47.31864" lon="-2.28949">
        <ele>-4.4000000953674</ele>
        <time>2021-11-28T09:02:09.000Z</time>
      </trkpt>
      <trkpt lat="47.31867" lon="-2.28888">
        <ele>-4.4000000953674</ele>
        <time>2021-11-28T09:02:15.000Z</time>
      </trkpt>
      <trkpt lat="47.31867" lon="-2.28849">
        <ele>-4.4000000953674</ele>
        <time>2021-11-28T09:02:20.000Z</time>
      </trkpt>
      <trkpt lat="47.31869" lon="-2.28842">
        <ele>-4.4000000953674</ele>
        <time>2021-11-28T09:02:21.000Z</time>
      </trkpt>
      <trkpt lat="47.31872" lon="-2.28827">
        <ele>-4.4000000953674</ele>
        <time>2021-11-28T09:02:23.000Z</time>
      </trkpt>
      <trkpt lat="47.31874" lon="-2.28784">
        <ele>-4.4000000953674</ele>
        <time>2021-11-28T09:02:28.000Z</time>
      </trkpt>
      <trkpt lat="47.31877" lon="-2.28777">
        <ele>-4.4000000953674</ele>
        <time>2021-11-28T09:02:29.000Z</time>
      </trkpt>
      <trkpt lat="47.3188" lon="-2.2875">
        <ele>-4.4000000953674</ele>
        <time>2021-11-28T09:02:32.000Z</time>
      </trkpt>
      <trkpt lat="47.31886" lon="-2.28681">
        <ele>-4.4000000953674</ele>
        <time>2021-11-28T09:02:40.000Z</time>
      </trkpt>
      <trkpt lat="47.31891" lon="-2.28637">
        <ele>-4.4000000953674</ele>
        <time>2021-11-28T09:02:46.000Z</time>
      </trkpt>
      <trkpt lat="47.31899" lon="-2.28587">
        <ele>-4.4000000953674</ele>
        <time>2021-11-28T09:02:53.000Z</time>
      </trkpt>
      <trkpt lat="47.31899" lon="-2.28578">
        <ele>-4.4000000953674</ele>
        <time>2021-11-28T09:02:54.000Z</time>
      </trkpt>
      <trkpt lat="47.31898" lon="-2.28561">
        <ele>-4.4000000953674</ele>
        <time>2021-11-28T09:02:56.000Z</time>
      </trkpt>
      <trkpt lat="47.31897" lon="-2.28544">
        <ele>-4.4000000953674</ele>
        <time>2021-11-28T09:02:58.000Z</time>
      </trkpt>
      <trkpt lat="47.31898" lon="-2.28491">
        <ele>-4.4000000953674</ele>
        <time>2021-11-28T09:03:05.000Z</time>
      </trkpt>
      <trkpt lat="47.31897" lon="-2.28453">
        <ele>-4.4000000953674</ele>
        <time>2021-11-28T09:03:10.000Z</time>
      </trkpt>
      <trkpt lat="47.31899" lon="-2.28439">
        <ele>-4.4000000953674</ele>
        <time>2021-11-28T09:03:12.000Z</time>
      </trkpt>
      <trkpt lat="47.31899" lon="-2.28432">
        <ele>-4.4000000953674</ele>
        <time>2021-11-28T09:03:13.000Z</time>
      </trkpt>
      <trkpt lat="47.31897" lon="-2.28415">
        <ele>-4.4000000953674</ele>
        <time>2021-11-28T09:03:16.000Z</time>
      </trkpt>
      <trkpt lat="47.3189" lon="-2.28372">
        <ele>-4.4000000953674</ele>
        <time>2021-11-28T09:03:23.000Z</time>
      </trkpt>
      <trkpt lat="47.31884" lon="-2.28336">
        <ele>-4.4000000953674</ele>
        <time>2021-11-28T09:03:29.000Z</time>
      </trkpt>
      <trkpt lat="47.31881" lon="-2.28323">
        <ele>-4.4000000953674</ele>
        <time>2021-11-28T09:03:31.000Z</time>
      </trkpt>
      <trkpt lat="47.31872" lon="-2.28278">
        <ele>-4.4000000953674</ele>
        <time>2021-11-28T09:03:39.000Z</time>
      </trkpt>
      <trkpt lat="47.31868" lon="-2.28256">
        <ele>-4.4000000953674</ele>
        <time>2021-11-28T09:03:45.000Z</time>
      </trkpt>
      <trkpt lat="47.31863" lon="-2.28227">
        <ele>-4.4000000953674</ele>
        <time>2021-11-28T09:03:51.000Z</time>
      </trkpt>
      <trkpt lat="47.31861" lon="-2.28183">
        <ele>-4.4000000953674</ele>
        <time>2021-11-28T09:03:59.000Z</time>
      </trkpt>
      <trkpt lat="47.31862" lon="-2.28164">
        <ele>-4.4000000953674</ele>
        <time>2021-11-28T09:04:02.000Z</time>
      </trkpt>
      <trkpt lat="47.31865" lon="-2.28151">
        <ele>-4.4000000953674</ele>
        <time>2021-11-28T09:04:04.000Z</time>
      </trkpt>
      <trkpt lat="47.31872" lon="-2.28141">
        <ele>-4.4000000953674</ele>
        <time>2021-11-28T09:04:06.000Z</time>
      </trkpt>
      <trkpt lat="47.31881" lon="-2.28137">
        <ele>-4.4000000953674</ele>
        <time>2021-11-28T09:04:08.000Z</time>
      </trkpt>
      <trkpt lat="47.31895" lon="-2.28136">
        <ele>-4.4000000953674</ele>
        <time>2021-11-28T09:04:11.000Z</time>
      </trkpt>
      <trkpt lat="47.319" lon="-2.28135">
        <ele>-4.4000000953674</ele>
        <time>2021-11-28T09:04:12.000Z</time>
      </trkpt>
      <trkpt lat="47.31916" lon="-2.28135">
        <ele>-4.4000000953674</ele>
        <time>2021-11-28T09:04:17.000Z</time>
      </trkpt>
      <trkpt lat="47.3194" lon="-2.28134">
        <ele>-4.4000000953674</ele>
        <time>2021-11-28T09:04:23.000Z</time>
      </trkpt>
      <trkpt lat="47.31955" lon="-2.28133">
        <ele>-4.4000000953674</ele>
        <time>2021-11-28T09:04:28.000Z</time>
      </trkpt>
      <trkpt lat="47.31971" lon="-2.28132">
        <ele>-4.4000000953674</ele>
        <time>2021-11-28T09:04:34.000Z</time>
      </trkpt>
      <trkpt lat="47.31985" lon="-2.2813">
        <ele>-4.4000000953674</ele>
        <time>2021-11-28T09:04:40.000Z</time>
      </trkpt>
      <trkpt lat="47.32007" lon="-2.2813">
        <ele>-4.4000000953674</ele>
        <time>2021-11-28T09:04:47.000Z</time>
      </trkpt>
      <trkpt lat="47.3204" lon="-2.2812">
        <ele>-4.4000000953674</ele>
        <time>2021-11-28T09:04:56.000Z</time>
      </trkpt>
      <trkpt lat="47.32055" lon="-2.28114">
        <ele>-4.4000000953674</ele>
        <time>2021-11-28T09:05:02.000Z</time>
      </trkpt>
      <trkpt lat="47.32056" lon="-2.28113">
        <ele>-4.4000000953674</ele>
        <time>2021-11-28T09:05:03.000Z</time>
      </trkpt>
      <trkpt lat="47.32062" lon="-2.28109">
        <ele>-4.4000000953674</ele>
        <time>2021-11-28T09:05:07.000Z</time>
      </trkpt>
      <trkpt lat="47.32062" lon="-2.28116">
        <ele>-4.4000000953674</ele>
        <time>2021-11-28T09:05:11.000Z</time>
      </trkpt>
      <trkpt lat="47.32058" lon="-2.28116">
        <ele>-4.4000000953674</ele>
        <time>2021-11-28T09:05:13.000Z</time>
      </trkpt>
      <trkpt lat="47.32051" lon="-2.28116">
        <ele>-4.4000000953674</ele>
        <time>2021-11-28T09:05:16.000Z</time>
      </trkpt>
      <trkpt lat="47.32048" lon="-2.28115">
        <ele>-4.4000000953674</ele>
        <time>2021-11-28T09:05:17.000Z</time>
      </trkpt>
      <trkpt lat="47.32044" lon="-2.28107">
        <ele>-4.4000000953674</ele>
        <time>2021-11-28T09:05:20.000Z</time>
      </trkpt>
      <trkpt lat="47.32043" lon="-2.28099">
        <ele>-4.4000000953674</ele>
        <time>2021-11-28T09:05:23.000Z</time>
      </trkpt>
      <trkpt lat="47.32043" lon="-2.28088">
        <ele>-4.4000000953674</ele>
        <time>2021-11-28T09:05:27.000Z</time>
      </trkpt>
      <trkpt lat="47.32044" lon="-2.28064">
        <ele>-4.4000000953674</ele>
        <time>2021-11-28T09:05:34.000Z</time>
      </trkpt>
      <trkpt lat="47.32043" lon="-2.28038">
        <ele>-4.4000000953674</ele>
        <time>2021-11-28T09:05:39.000Z</time>
      </trkpt>
      <trkpt lat="47.32046" lon="-2.28007">
        <ele>-4.4000000953674</ele>
        <time>2021-11-28T09:05:45.000Z</time>
      </trkpt>
      <trkpt lat="47.32055" lon="-2.27984">
        <ele>-4.4000000953674</ele>
        <time>2021-11-28T09:05:50.000Z</time>
      </trkpt>
      <trkpt lat="47.32072" lon="-2.2797">
        <ele>-4.4000000953674</ele>
        <time>2021-11-28T09:05:55.000Z</time>
      </trkpt>
      <trkpt lat="47.3208" lon="-2.27965">
        <ele>-4.4000000953674</ele>
        <time>2021-11-28T09:05:57.000Z</time>
      </trkpt>
      <trkpt lat="47.32088" lon="-2.27961">
        <ele>-4.4000000953674</ele>
        <time>2021-11-28T09:05:59.000Z</time>
      </trkpt>
      <trkpt lat="47.32097" lon="-2.27958">
        <ele>-4.4000000953674</ele>
        <time>2021-11-28T09:06:01.000Z</time>
      </trkpt>
      <trkpt lat="47.32109" lon="-2.27955">
        <ele>-4.8000001907349</ele>
        <time>2021-11-28T09:06:04.000Z</time>
      </trkpt>
      <trkpt lat="47.32112" lon="-2.27956">
        <ele>-5.1999998092651</ele>
        <time>2021-11-28T09:06:05.000Z</time>
      </trkpt>
      <trkpt lat="47.32114" lon="-2.27956">
        <ele>-5.5999999046326</ele>
        <time>2021-11-28T09:06:06.000Z</time>
      </trkpt>
      <trkpt lat="47.32115" lon="-2.27956">
        <ele>-6</ele>
        <time>2021-11-28T09:06:07.000Z</time>
      </trkpt>
      <trkpt lat="47.32117" lon="-2.27955">
        <ele>-6.4000000953674</ele>
        <time>2021-11-28T09:06:08.000Z</time>
      </trkpt>
      <trkpt lat="47.32119" lon="-2.27952">
        <ele>-6.4000000953674</ele>
        <time>2021-11-28T09:06:10.000Z</time>
      </trkpt>
      <trkpt lat="47.3212" lon="-2.2795">
        <ele>-6.4000000953674</ele>
        <time>2021-11-28T09:06:11.000Z</time>
      </trkpt>
      <trkpt lat="47.32123" lon="-2.27934">
        <ele>-6.4000000953674</ele>
        <time>2021-11-28T09:06:17.000Z</time>
      </trkpt>
      <trkpt lat="47.32126" lon="-2.27917">
        <ele>-6.4000000953674</ele>
        <time>2021-11-28T09:06:24.000Z</time>
      </trkpt>
      <trkpt lat="47.32127" lon="-2.27915">
        <ele>-6.4000000953674</ele>
        <time>2021-11-28T09:06:25.000Z</time>
      </trkpt>
      <trkpt lat="47.32128" lon="-2.2791">
        <ele>-6.4000000953674</ele>
        <time>2021-11-28T09:06:28.000Z</time>
      </trkpt>
      <trkpt lat="47.3213" lon="-2.27908">
        <ele>-6.4000000953674</ele>
        <time>2021-11-28T09:07:47.000Z</time>
      </trkpt>
      <trkpt lat="47.32131" lon="-2.279">
        <ele>-6.4000000953674</ele>
        <time>2021-11-28T09:07:50.000Z</time>
      </trkpt>
      <trkpt lat="47.32132" lon="-2.27893">
        <ele>-6.4000000953674</ele>
        <time>2021-11-28T09:07:52.000Z</time>
      </trkpt>
      <trkpt lat="47.32135" lon="-2.27874">
        <ele>-6.4000000953674</ele>
        <time>2021-11-28T09:07:56.000Z</time>
      </trkpt>
      <trkpt lat="47.32144" lon="-2.27831">
        <ele>-6.4000000953674</ele>
        <time>2021-11-28T09:08:03.000Z</time>
      </trkpt>
      <trkpt lat="47.32149" lon="-2.27812">
        <ele>-6.4000000953674</ele>
        <time>2021-11-28T09:08:06.000Z</time>
      </trkpt>
      <trkpt lat="47.32157" lon="-2.27799">
        <ele>-6.4000000953674</ele>
        <time>2021-11-28T09:08:09.000Z</time>
      </trkpt>
      <trkpt lat="47.32167" lon="-2.278">
        <ele>-6.4000000953674</ele>
        <time>2021-11-28T09:08:11.000Z</time>
      </trkpt>
      <trkpt lat="47.32171" lon="-2.27801">
        <ele>-6.4000000953674</ele>
        <time>2021-11-28T09:08:12.000Z</time>
      </trkpt>
      <trkpt lat="47.32207" lon="-2.27808">
        <ele>-6.4000000953674</ele>
        <time>2021-11-28T09:08:19.000Z</time>
      </trkpt>
      <trkpt lat="47.32222" lon="-2.27813">
        <ele>-6.4000000953674</ele>
        <time>2021-11-28T09:08:22.000Z</time>
      </trkpt>
      <trkpt lat="47.32237" lon="-2.27819">
        <ele>-6.4000000953674</ele>
        <time>2021-11-28T09:08:25.000Z</time>
      </trkpt>
      <trkpt lat="47.32247" lon="-2.27824">
        <ele>-6.4000000953674</ele>
        <time>2021-11-28T09:08:27.000Z</time>
      </trkpt>
      <trkpt lat="47.32261" lon="-2.27827">
        <ele>-6.4000000953674</ele>
        <time>2021-11-28T09:08:30.000Z</time>
      </trkpt>
      <trkpt lat="47.32297" lon="-2.27835">
        <ele>-6.4000000953674</ele>
        <time>2021-11-28T09:08:37.000Z</time>
      </trkpt>
      <trkpt lat="47.32307" lon="-2.27834">
        <ele>-6.4000000953674</ele>
        <time>2021-11-28T09:08:39.000Z</time>
      </trkpt>
      <trkpt lat="47.32317" lon="-2.27828">
        <ele>-6.4000000953674</ele>
        <time>2021-11-28T09:08:41.000Z</time>
      </trkpt>
      <trkpt lat="47.32334" lon="-2.27805">
        <ele>-6.4000000953674</ele>
        <time>2021-11-28T09:08:45.000Z</time>
      </trkpt>
      <trkpt lat="47.3234" lon="-2.27781">
        <ele>-6.4000000953674</ele>
        <time>2021-11-28T09:08:48.000Z</time>
      </trkpt>
      <trkpt lat="47.32342" lon="-2.27772">
        <ele>-6.4000000953674</ele>
        <time>2021-11-28T09:08:49.000Z</time>
      </trkpt>
      <trkpt lat="47.3235" lon="-2.27719">
        <ele>-6.4000000953674</ele>
        <time>2021-11-28T09:08:55.000Z</time>
      </trkpt>
      <trkpt lat="47.32356" lon="-2.27667">
        <ele>-6.4000000953674</ele>
        <time>2021-11-28T09:09:01.000Z</time>
      </trkpt>
      <trkpt lat="47.32361" lon="-2.27642">
        <ele>-6.4000000953674</ele>
        <time>2021-11-28T09:09:04.000Z</time>
      </trkpt>
      <trkpt lat="47.32362" lon="-2.27625">
        <ele>-6.4000000953674</ele>
        <time>2021-11-28T09:09:06.000Z</time>
      </trkpt>
      <trkpt lat="47.32364" lon="-2.276">
        <ele>-6.4000000953674</ele>
        <time>2021-11-28T09:09:09.000Z</time>
      </trkpt>
      <trkpt lat="47.32368" lon="-2.27574">
        <ele>-6.4000000953674</ele>
        <time>2021-11-28T09:09:12.000Z</time>
      </trkpt>
      <trkpt lat="47.32366" lon="-2.27537">
        <ele>-6.4000000953674</ele>
        <time>2021-11-28T09:09:16.000Z</time>
      </trkpt>
      <trkpt lat="47.32361" lon="-2.2752">
        <ele>-6.4000000953674</ele>
        <time>2021-11-28T09:09:18.000Z</time>
      </trkpt>
      <trkpt lat="47.32352" lon="-2.27509">
        <ele>-6.4000000953674</ele>
        <time>2021-11-28T09:09:20.000Z</time>
      </trkpt>
      <trkpt lat="47.3234" lon="-2.27507">
        <ele>-6.4000000953674</ele>
        <time>2021-11-28T09:09:22.000Z</time>
      </trkpt>
      <trkpt lat="47.32328" lon="-2.27505">
        <ele>-6.4000000953674</ele>
        <time>2021-11-28T09:09:24.000Z</time>
      </trkpt>
      <trkpt lat="47.32281" lon="-2.27501">
        <ele>-6.4000000953674</ele>
        <time>2021-11-28T09:09:32.000Z</time>
      </trkpt>
      <trkpt lat="47.32252" lon="-2.27505">
        <ele>-6.4000000953674</ele>
        <time>2021-11-28T09:09:37.000Z</time>
      </trkpt>
      <trkpt lat="47.32248" lon="-2.27504">
        <ele>-6.4000000953674</ele>
        <time>2021-11-28T09:09:38.000Z</time>
      </trkpt>
      <trkpt lat="47.32243" lon="-2.27495">
        <ele>-6.4000000953674</ele>
        <time>2021-11-28T09:09:40.000Z</time>
      </trkpt>
      <trkpt lat="47.32244" lon="-2.27475">
        <ele>-6.4000000953674</ele>
        <time>2021-11-28T09:09:43.000Z</time>
      </trkpt>
      <trkpt lat="47.32246" lon="-2.27467">
        <ele>-6.4000000953674</ele>
        <time>2021-11-28T09:09:44.000Z</time>
      </trkpt>
      <trkpt lat="47.32247" lon="-2.2746">
        <ele>-6.4000000953674</ele>
        <time>2021-11-28T09:09:45.000Z</time>
      </trkpt>
      <trkpt lat="47.32248" lon="-2.27444">
        <ele>-6.4000000953674</ele>
        <time>2021-11-28T09:09:47.000Z</time>
      </trkpt>
      <trkpt lat="47.3225" lon="-2.27429">
        <ele>-6.4000000953674</ele>
        <time>2021-11-28T09:09:49.000Z</time>
      </trkpt>
      <trkpt lat="47.32254" lon="-2.27387">
        <ele>-6.4000000953674</ele>
        <time>2021-11-28T09:09:54.000Z</time>
      </trkpt>
      <trkpt lat="47.32253" lon="-2.27378">
        <ele>-6.4000000953674</ele>
        <time>2021-11-28T09:09:55.000Z</time>
      </trkpt>
      <trkpt lat="47.32252" lon="-2.27335">
        <ele>-6.4000000953674</ele>
        <time>2021-11-28T09:10:00.000Z</time>
      </trkpt>
      <trkpt lat="47.32253" lon="-2.27327">
        <ele>-6.4000000953674</ele>
        <time>2021-11-28T09:10:01.000Z</time>
      </trkpt>
      <trkpt lat="47.32262" lon="-2.27308">
        <ele>-6.4000000953674</ele>
        <time>2021-11-28T09:10:04.000Z</time>
      </trkpt>
      <trkpt lat="47.32266" lon="-2.27303">
        <ele>-6.4000000953674</ele>
        <time>2021-11-28T09:10:05.000Z</time>
      </trkpt>
      <trkpt lat="47.32281" lon="-2.27292">
        <ele>-6.4000000953674</ele>
        <time>2021-11-28T09:10:08.000Z</time>
      </trkpt>
      <trkpt lat="47.32329" lon="-2.27265">
        <ele>-6.4000000953674</ele>
        <time>2021-11-28T09:10:17.000Z</time>
      </trkpt>
      <trkpt lat="47.32334" lon="-2.27261">
        <ele>-6</ele>
        <time>2021-11-28T09:10:18.000Z</time>
      </trkpt>
      <trkpt lat="47.32339" lon="-2.27257">
        <ele>-5.5999999046326</ele>
        <time>2021-11-28T09:10:19.000Z</time>
      </trkpt>
      <trkpt lat="47.32343" lon="-2.27253">
        <ele>-5.1999998092651</ele>
        <time>2021-11-28T09:10:20.000Z</time>
      </trkpt>
      <trkpt lat="47.32347" lon="-2.27249">
        <ele>-4.8000001907349</ele>
        <time>2021-11-28T09:10:21.000Z</time>
      </trkpt>
      <trkpt lat="47.32351" lon="-2.27245">
        <ele>-4.4000000953674</ele>
        <time>2021-11-28T09:10:22.000Z</time>
      </trkpt>
      <trkpt lat="47.32355" lon="-2.27239">
        <ele>-4.4000000953674</ele>
        <time>2021-11-28T09:10:23.000Z</time>
      </trkpt>
      <trkpt lat="47.32367" lon="-2.27208">
        <ele>-4.4000000953674</ele>
        <time>2021-11-28T09:10:28.000Z</time>
      </trkpt>
      <trkpt lat="47.32383" lon="-2.27157">
        <ele>-4.4000000953674</ele>
        <time>2021-11-28T09:10:35.000Z</time>
      </trkpt>
      <trkpt lat="47.32386" lon="-2.27139">
        <ele>-4.4000000953674</ele>
        <time>2021-11-28T09:10:37.000Z</time>
      </trkpt>
      <trkpt lat="47.32386" lon="-2.2712">
        <ele>-4.4000000953674</ele>
        <time>2021-11-28T09:10:39.000Z</time>
      </trkpt>
      <trkpt lat="47.32386" lon="-2.27111">
        <ele>-4.4000000953674</ele>
        <time>2021-11-28T09:10:40.000Z</time>
      </trkpt>
      <trkpt lat="47.32384" lon="-2.27074">
        <ele>-4.4000000953674</ele>
        <time>2021-11-28T09:10:44.000Z</time>
      </trkpt>
      <trkpt lat="47.32384" lon="-2.27031">
        <ele>-4.4000000953674</ele>
        <time>2021-11-28T09:10:49.000Z</time>
      </trkpt>
      <trkpt lat="47.32387" lon="-2.27025">
        <ele>-4.4000000953674</ele>
        <time>2021-11-28T09:10:50.000Z</time>
      </trkpt>
      <trkpt lat="47.32401" lon="-2.27019">
        <ele>-4.4000000953674</ele>
        <time>2021-11-28T09:10:53.000Z</time>
      </trkpt>
      <trkpt lat="47.32412" lon="-2.27021">
        <ele>-4.4000000953674</ele>
        <time>2021-11-28T09:10:55.000Z</time>
      </trkpt>
      <trkpt lat="47.32434" lon="-2.27024">
        <ele>-4.4000000953674</ele>
        <time>2021-11-28T09:10:59.000Z</time>
      </trkpt>
      <trkpt lat="47.3244" lon="-2.27025">
        <ele>-4.4000000953674</ele>
        <time>2021-11-28T09:11:00.000Z</time>
      </trkpt>
      <trkpt lat="47.32445" lon="-2.27023">
        <ele>-4.8000001907349</ele>
        <time>2021-11-28T09:11:01.000Z</time>
      </trkpt>
      <trkpt lat="47.32449" lon="-2.27019">
        <ele>-5.1999998092651</ele>
        <time>2021-11-28T09:11:02.000Z</time>
      </trkpt>
      <trkpt lat="47.32451" lon="-2.27012">
        <ele>-5.5999999046326</ele>
        <time>2021-11-28T09:11:03.000Z</time>
      </trkpt>
      <trkpt lat="47.32452" lon="-2.27004">
        <ele>-6</ele>
        <time>2021-11-28T09:11:04.000Z</time>
      </trkpt>
      <trkpt lat="47.32452" lon="-2.26995">
        <ele>-6.4000000953674</ele>
        <time>2021-11-28T09:11:05.000Z</time>
      </trkpt>
      <trkpt lat="47.3245" lon="-2.26978">
        <ele>-6.4000000953674</ele>
        <time>2021-11-28T09:11:07.000Z</time>
      </trkpt>
      <trkpt lat="47.32449" lon="-2.2697">
        <ele>-6.4000000953674</ele>
        <time>2021-11-28T09:11:08.000Z</time>
      </trkpt>
      <trkpt lat="47.32438" lon="-2.26913">
        <ele>-6.4000000953674</ele>
        <time>2021-11-28T09:11:15.000Z</time>
      </trkpt>
      <trkpt lat="47.32428" lon="-2.26858">
        <ele>-6.4000000953674</ele>
        <time>2021-11-28T09:11:21.000Z</time>
      </trkpt>
      <trkpt lat="47.32423" lon="-2.2679">
        <ele>-6.4000000953674</ele>
        <time>2021-11-28T09:11:28.000Z</time>
      </trkpt>
      <trkpt lat="47.32422" lon="-2.26731">
        <ele>-6.4000000953674</ele>
        <time>2021-11-28T09:11:34.000Z</time>
      </trkpt>
      <trkpt lat="47.32419" lon="-2.26685">
        <ele>-6.4000000953674</ele>
        <time>2021-11-28T09:11:39.000Z</time>
      </trkpt>
      <trkpt lat="47.32418" lon="-2.26677">
        <ele>-6.4000000953674</ele>
        <time>2021-11-28T09:11:40.000Z</time>
      </trkpt>
      <trkpt lat="47.32411" lon="-2.26651">
        <ele>-6.4000000953674</ele>
        <time>2021-11-28T09:11:43.000Z</time>
      </trkpt>
      <trkpt lat="47.32403" lon="-2.26626">
        <ele>-6.4000000953674</ele>
        <time>2021-11-28T09:11:46.000Z</time>
      </trkpt>
      <trkpt lat="47.32392" lon="-2.26593">
        <ele>-6.4000000953674</ele>
        <time>2021-11-28T09:11:50.000Z</time>
      </trkpt>
      <trkpt lat="47.3239" lon="-2.26585">
        <ele>-6.4000000953674</ele>
        <time>2021-11-28T09:11:51.000Z</time>
      </trkpt>
      <trkpt lat="47.32381" lon="-2.26543">
        <ele>-6.4000000953674</ele>
        <time>2021-11-28T09:11:56.000Z</time>
      </trkpt>
      <trkpt lat="47.32378" lon="-2.26536">
        <ele>-6.4000000953674</ele>
        <time>2021-11-28T09:11:57.000Z</time>
      </trkpt>
      <trkpt lat="47.32362" lon="-2.26528">
        <ele>-6.4000000953674</ele>
        <time>2021-11-28T09:12:00.000Z</time>
      </trkpt>
      <trkpt lat="47.32351" lon="-2.26533">
        <ele>-6.4000000953674</ele>
        <time>2021-11-28T09:12:02.000Z</time>
      </trkpt>
      <trkpt lat="47.32341" lon="-2.2654">
        <ele>-6.4000000953674</ele>
        <time>2021-11-28T09:12:04.000Z</time>
      </trkpt>
      <trkpt lat="47.32314" lon="-2.26567">
        <ele>-6.4000000953674</ele>
        <time>2021-11-28T09:12:10.000Z</time>
      </trkpt>
      <trkpt lat="47.32291" lon="-2.26594">
        <ele>-6.4000000953674</ele>
        <time>2021-11-28T09:12:16.000Z</time>
      </trkpt>
      <trkpt lat="47.32287" lon="-2.26598">
        <ele>-6.4000000953674</ele>
        <time>2021-11-28T09:12:17.000Z</time>
      </trkpt>
      <trkpt lat="47.32278" lon="-2.26603">
        <ele>-6.4000000953674</ele>
        <time>2021-11-28T09:12:19.000Z</time>
      </trkpt>
      <trkpt lat="47.3227" lon="-2.26604">
        <ele>-6.4000000953674</ele>
        <time>2021-11-28T09:12:21.000Z</time>
      </trkpt>
      <trkpt lat="47.32238" lon="-2.26608">
        <ele>-6.4000000953674</ele>
        <time>2021-11-28T09:12:29.000Z</time>
      </trkpt>
      <trkpt lat="47.32207" lon="-2.26608">
        <ele>-6.4000000953674</ele>
        <time>2021-11-28T09:12:36.000Z</time>
      </trkpt>
      <trkpt lat="47.32181" lon="-2.2661">
        <ele>-6.4000000953674</ele>
        <time>2021-11-28T09:12:42.000Z</time>
      </trkpt>
      <trkpt lat="47.32162" lon="-2.26608">
        <ele>-6</ele>
        <time>2021-11-28T09:12:46.000Z</time>
      </trkpt>
      <trkpt lat="47.32158" lon="-2.26607">
        <ele>-5.5999999046326</ele>
        <time>2021-11-28T09:12:47.000Z</time>
      </trkpt>
      <trkpt lat="47.32153" lon="-2.26605">
        <ele>-5.1999998092651</ele>
        <time>2021-11-28T09:12:48.000Z</time>
      </trkpt>
      <trkpt lat="47.32148" lon="-2.26604">
        <ele>-4.8000001907349</ele>
        <time>2021-11-28T09:12:49.000Z</time>
      </trkpt>
      <trkpt lat="47.32144" lon="-2.26603">
        <ele>-4.4000000953674</ele>
        <time>2021-11-28T09:12:50.000Z</time>
      </trkpt>
      <trkpt lat="47.32118" lon="-2.26592">
        <ele>-4.4000000953674</ele>
        <time>2021-11-28T09:12:56.000Z</time>
      </trkpt>
      <trkpt lat="47.321" lon="-2.26588">
        <ele>-4.4000000953674</ele>
        <time>2021-11-28T09:13:00.000Z</time>
      </trkpt>
      <trkpt lat="47.3209" lon="-2.26587">
        <ele>-4.4000000953674</ele>
        <time>2021-11-28T09:13:02.000Z</time>
      </trkpt>
      <trkpt lat="47.32085" lon="-2.26587">
        <ele>-4.4000000953674</ele>
        <time>2021-11-28T09:13:03.000Z</time>
      </trkpt>
      <trkpt lat="47.32067" lon="-2.26591">
        <ele>-4.4000000953674</ele>
        <time>2021-11-28T09:13:06.000Z</time>
      </trkpt>
      <trkpt lat="47.32055" lon="-2.26596">
        <ele>-4.4000000953674</ele>
        <time>2021-11-28T09:13:08.000Z</time>
      </trkpt>
      <trkpt lat="47.32016" lon="-2.26619">
        <ele>-4.4000000953674</ele>
        <time>2021-11-28T09:13:15.000Z</time>
      </trkpt>
      <trkpt lat="47.31982" lon="-2.2664">
        <ele>-4.4000000953674</ele>
        <time>2021-11-28T09:13:22.000Z</time>
      </trkpt>
      <trkpt lat="47.31952" lon="-2.26664">
        <ele>-3.4000000953674</ele>
        <time>2021-11-28T09:13:28.000Z</time>
      </trkpt>
      <trkpt lat="47.31947" lon="-2.26668">
        <ele>-3</ele>
        <time>2021-11-28T09:13:29.000Z</time>
      </trkpt>
      <trkpt lat="47.31942" lon="-2.26672">
        <ele>-2.5999999046326</ele>
        <time>2021-11-28T09:13:30.000Z</time>
      </trkpt>
      <trkpt lat="47.31937" lon="-2.26676">
        <ele>-2</ele>
        <time>2021-11-28T09:13:31.000Z</time>
      </trkpt>
      <trkpt lat="47.31919" lon="-2.2669">
        <ele>-2</ele>
        <time>2021-11-28T09:13:35.000Z</time>
      </trkpt>
      <trkpt lat="47.31893" lon="-2.26711">
        <ele>-2</ele>
        <time>2021-11-28T09:13:40.000Z</time>
      </trkpt>
      <trkpt lat="47.31855" lon="-2.2674">
        <ele>-2</ele>
        <time>2021-11-28T09:13:47.000Z</time>
      </trkpt>
      <trkpt lat="47.31846" lon="-2.26744">
        <ele>-2</ele>
        <time>2021-11-28T09:13:50.000Z</time>
      </trkpt>
      <trkpt lat="47.31829" lon="-2.26736">
        <ele>-2</ele>
        <time>2021-11-28T09:13:57.000Z</time>
      </trkpt>
      <trkpt lat="47.31818" lon="-2.26719">
        <ele>-2</ele>
        <time>2021-11-28T09:14:03.000Z</time>
      </trkpt>
      <trkpt lat="47.31809" lon="-2.267">
        <ele>-2</ele>
        <time>2021-11-28T09:14:10.000Z</time>
      </trkpt>
      <trkpt lat="47.31803" lon="-2.26692">
        <ele>-2</ele>
        <time>2021-11-28T09:14:16.000Z</time>
      </trkpt>
      <trkpt lat="47.31794" lon="-2.26697">
        <ele>-2</ele>
        <time>2021-11-28T09:14:21.000Z</time>
      </trkpt>
      <trkpt lat="47.31787" lon="-2.26699">
        <ele>-2</ele>
        <time>2021-11-28T09:14:26.000Z</time>
      </trkpt>
      <trkpt lat="47.31774" lon="-2.26702">
        <ele>-2</ele>
        <time>2021-11-28T09:14:33.000Z</time>
      </trkpt>
      <trkpt lat="47.31762" lon="-2.26707">
        <ele>-2.5999999046326</ele>
        <time>2021-11-28T09:14:38.000Z</time>
      </trkpt>
      <trkpt lat="47.3176" lon="-2.26707">
        <ele>-3</ele>
        <time>2021-11-28T09:14:39.000Z</time>
      </trkpt>
      <trkpt lat="47.31757" lon="-2.26708">
        <ele>-3.4000000953674</ele>
        <time>2021-11-28T09:14:40.000Z</time>
      </trkpt>
      <trkpt lat="47.31754" lon="-2.26709">
        <ele>-3.7999999523163</ele>
        <time>2021-11-28T09:14:41.000Z</time>
      </trkpt>
      <trkpt lat="47.31751" lon="-2.2671">
        <ele>-4.1999998092651</ele>
        <time>2021-11-28T09:14:42.000Z</time>
      </trkpt>
      <trkpt lat="47.31732" lon="-2.26714">
        <ele>-4.1999998092651</ele>
        <time>2021-11-28T09:14:48.000Z</time>
      </trkpt>
      <trkpt lat="47.31718" lon="-2.26719">
        <ele>-4.1999998092651</ele>
        <time>2021-11-28T09:14:53.000Z</time>
      </trkpt>
      <trkpt lat="47.317" lon="-2.26723">
        <ele>-4.5999999046326</ele>
        <time>2021-11-28T09:15:00.000Z</time>
      </trkpt>
      <trkpt lat="47.31697" lon="-2.26723">
        <ele>-5</ele>
        <time>2021-11-28T09:15:01.000Z</time>
      </trkpt>
      <trkpt lat="47.31694" lon="-2.26724">
        <ele>-5.4000000953674</ele>
        <time>2021-11-28T09:15:02.000Z</time>
      </trkpt>
      <trkpt lat="47.31691" lon="-2.26724">
        <ele>-5.8000001907349</ele>
        <time>2021-11-28T09:15:03.000Z</time>
      </trkpt>
      <trkpt lat="47.31688" lon="-2.26724">
        <ele>-6.1999998092651</ele>
        <time>2021-11-28T09:15:04.000Z</time>
      </trkpt>
      <trkpt lat="47.31682" lon="-2.26724">
        <ele>-6.1999998092651</ele>
        <time>2021-11-28T09:15:06.000Z</time>
      </trkpt>
      <trkpt lat="47.3166" lon="-2.26731">
        <ele>-6.1999998092651</ele>
        <time>2021-11-28T09:15:13.000Z</time>
      </trkpt>
      <trkpt lat="47.31634" lon="-2.26745">
        <ele>-6.1999998092651</ele>
        <time>2021-11-28T09:15:20.000Z</time>
      </trkpt>
      <trkpt lat="47.31621" lon="-2.26755">
        <ele>-6.1999998092651</ele>
        <time>2021-11-28T09:15:23.000Z</time>
      </trkpt>
      <trkpt lat="47.31611" lon="-2.26757">
        <ele>-6.1999998092651</ele>
        <time>2021-11-28T09:15:25.000Z</time>
      </trkpt>
      <trkpt lat="47.31597" lon="-2.26756">
        <ele>-6.1999998092651</ele>
        <time>2021-11-28T09:15:28.000Z</time>
      </trkpt>
      <trkpt lat="47.31588" lon="-2.26754">
        <ele>-6.1999998092651</ele>
        <time>2021-11-28T09:15:30.000Z</time>
      </trkpt>
      <trkpt lat="47.31578" lon="-2.26755">
        <ele>-6.1999998092651</ele>
        <time>2021-11-28T09:15:32.000Z</time>
      </trkpt>
      <trkpt lat="47.31568" lon="-2.26762">
        <ele>-6.1999998092651</ele>
        <time>2021-11-28T09:15:34.000Z</time>
      </trkpt>
      <trkpt lat="47.31559" lon="-2.26781">
        <ele>-6.1999998092651</ele>
        <time>2021-11-28T09:15:37.000Z</time>
      </trkpt>
      <trkpt lat="47.31547" lon="-2.26812">
        <ele>-6.1999998092651</ele>
        <time>2021-11-28T09:15:42.000Z</time>
      </trkpt>
      <trkpt lat="47.31545" lon="-2.26819">
        <ele>-6.1999998092651</ele>
        <time>2021-11-28T09:15:43.000Z</time>
      </trkpt>
      <trkpt lat="47.31538" lon="-2.26839">
        <ele>-6.1999998092651</ele>
        <time>2021-11-28T09:15:46.000Z</time>
      </trkpt>
      <trkpt lat="47.31536" lon="-2.26845">
        <ele>-6.5999999046326</ele>
        <time>2021-11-28T09:15:47.000Z</time>
      </trkpt>
      <trkpt lat="47.31533" lon="-2.26851">
        <ele>-7</ele>
        <time>2021-11-28T09:15:48.000Z</time>
      </trkpt>
      <trkpt lat="47.3153" lon="-2.26857">
        <ele>-7.4000000953674</ele>
        <time>2021-11-28T09:15:49.000Z</time>
      </trkpt>
      <trkpt lat="47.31528" lon="-2.26862">
        <ele>-7.8000001907349</ele>
        <time>2021-11-28T09:15:50.000Z</time>
      </trkpt>
      <trkpt lat="47.31525" lon="-2.26868">
        <ele>-8.1999998092651</ele>
        <time>2021-11-28T09:15:51.000Z</time>
      </trkpt>
      <trkpt lat="47.31517" lon="-2.26893">
        <ele>-8.1999998092651</ele>
        <time>2021-11-28T09:15:55.000Z</time>
      </trkpt>
      <trkpt lat="47.31506" lon="-2.26931">
        <ele>-8.1999998092651</ele>
        <time>2021-11-28T09:16:01.000Z</time>
      </trkpt>
      <trkpt lat="47.31495" lon="-2.26966">
        <ele>-8.1999998092651</ele>
        <time>2021-11-28T09:16:07.000Z</time>
      </trkpt>
      <trkpt lat="47.31492" lon="-2.26976">
        <ele>-7.8000001907349</ele>
        <time>2021-11-28T09:16:09.000Z</time>
      </trkpt>
      <trkpt lat="47.3149" lon="-2.26981">
        <ele>-7.4000000953674</ele>
        <time>2021-11-28T09:16:10.000Z</time>
      </trkpt>
      <trkpt lat="47.31487" lon="-2.26984">
        <ele>-7</ele>
        <time>2021-11-28T09:16:11.000Z</time>
      </trkpt>
      <trkpt lat="47.31482" lon="-2.26988">
        <ele>-6.5999999046326</ele>
        <time>2021-11-28T09:16:12.000Z</time>
      </trkpt>
      <trkpt lat="47.31478" lon="-2.26991">
        <ele>-6.1999998092651</ele>
        <time>2021-11-28T09:16:13.000Z</time>
      </trkpt>
      <trkpt lat="47.31445" lon="-2.27015">
        <ele>-6.1999998092651</ele>
        <time>2021-11-28T09:16:20.000Z</time>
      </trkpt>
      <trkpt lat="47.31427" lon="-2.27028">
        <ele>-6.1999998092651</ele>
        <time>2021-11-28T09:16:24.000Z</time>
      </trkpt>
      <trkpt lat="47.31409" lon="-2.27043">
        <ele>-6.1999998092651</ele>
        <time>2021-11-28T09:16:28.000Z</time>
      </trkpt>
      <trkpt lat="47.3139" lon="-2.27054">
        <ele>-5.8000001907349</ele>
        <time>2021-11-28T09:16:32.000Z</time>
      </trkpt>
      <trkpt lat="47.31385" lon="-2.27056">
        <ele>-5.4000000953674</ele>
        <time>2021-11-28T09:16:33.000Z</time>
      </trkpt>
      <trkpt lat="47.3138" lon="-2.27059">
        <ele>-5</ele>
        <time>2021-11-28T09:16:34.000Z</time>
      </trkpt>
      <trkpt lat="47.31375" lon="-2.27061">
        <ele>-4.5999999046326</ele>
        <time>2021-11-28T09:16:35.000Z</time>
      </trkpt>
      <trkpt lat="47.31371" lon="-2.27063">
        <ele>-4.1999998092651</ele>
        <time>2021-11-28T09:16:36.000Z</time>
      </trkpt>
      <trkpt lat="47.31329" lon="-2.27078">
        <ele>-4.1999998092651</ele>
        <time>2021-11-28T09:16:44.000Z</time>
      </trkpt>
      <trkpt lat="47.31292" lon="-2.27093">
        <ele>-4.1999998092651</ele>
        <time>2021-11-28T09:16:51.000Z</time>
      </trkpt>
      <trkpt lat="47.31279" lon="-2.27103">
        <ele>-4.1999998092651</ele>
        <time>2021-11-28T09:16:54.000Z</time>
      </trkpt>
      <trkpt lat="47.31276" lon="-2.27109">
        <ele>-4.1999998092651</ele>
        <time>2021-11-28T09:16:55.000Z</time>
      </trkpt>
      <trkpt lat="47.31277" lon="-2.27131">
        <ele>-4.1999998092651</ele>
        <time>2021-11-28T09:16:58.000Z</time>
      </trkpt>
      <trkpt lat="47.31278" lon="-2.27139">
        <ele>-4.1999998092651</ele>
        <time>2021-11-28T09:16:59.000Z</time>
      </trkpt>
      <trkpt lat="47.31289" lon="-2.27198">
        <ele>-4.1999998092651</ele>
        <time>2021-11-28T09:17:06.000Z</time>
      </trkpt>
      <trkpt lat="47.31302" lon="-2.27258">
        <ele>-4.1999998092651</ele>
        <time>2021-11-28T09:17:13.000Z</time>
      </trkpt>
      <trkpt lat="47.31311" lon="-2.27282">
        <ele>-4.5999999046326</ele>
        <time>2021-11-28T09:17:16.000Z</time>
      </trkpt>
      <trkpt lat="47.31315" lon="-2.27289">
        <ele>-5</ele>
        <time>2021-11-28T09:17:17.000Z</time>
      </trkpt>
      <trkpt lat="47.31319" lon="-2.27296">
        <ele>-5.4000000953674</ele>
        <time>2021-11-28T09:17:18.000Z</time>
      </trkpt>
      <trkpt lat="47.31324" lon="-2.27303">
        <ele>-5.8000001907349</ele>
        <time>2021-11-28T09:17:19.000Z</time>
      </trkpt>
      <trkpt lat="47.31328" lon="-2.27309">
        <ele>-6.1999998092651</ele>
        <time>2021-11-28T09:17:20.000Z</time>
      </trkpt>
      <trkpt lat="47.31352" lon="-2.27341">
        <ele>-6.1999998092651</ele>
        <time>2021-11-28T09:17:25.000Z</time>
      </trkpt>
      <trkpt lat="47.31381" lon="-2.27382">
        <ele>-6.1999998092651</ele>
        <time>2021-11-28T09:17:31.000Z</time>
      </trkpt>
      <trkpt lat="47.31412" lon="-2.27414">
        <ele>-6.1999998092651</ele>
        <time>2021-11-28T09:17:37.000Z</time>
      </trkpt>
      <trkpt lat="47.31427" lon="-2.27429">
        <ele>-6.1999998092651</ele>
        <time>2021-11-28T09:17:40.000Z</time>
      </trkpt>
      <trkpt lat="47.31437" lon="-2.27439">
        <ele>-6.1999998092651</ele>
        <time>2021-11-28T09:17:42.000Z</time>
      </trkpt>
      <trkpt lat="47.31442" lon="-2.27444">
        <ele>-6.1999998092651</ele>
        <time>2021-11-28T09:17:43.000Z</time>
      </trkpt>
      <trkpt lat="47.31454" lon="-2.27463">
        <ele>-6.1999998092651</ele>
        <time>2021-11-28T09:17:46.000Z</time>
      </trkpt>
      <trkpt lat="47.3146" lon="-2.27479">
        <ele>-6.1999998092651</ele>
        <time>2021-11-28T09:17:48.000Z</time>
      </trkpt>
      <trkpt lat="47.31463" lon="-2.27489">
        <ele>-6.1999998092651</ele>
        <time>2021-11-28T09:17:49.000Z</time>
      </trkpt>
      <trkpt lat="47.31465" lon="-2.27498">
        <ele>-6.1999998092651</ele>
        <time>2021-11-28T09:17:50.000Z</time>
      </trkpt>
      <trkpt lat="47.31467" lon="-2.27507">
        <ele>-6.5999999046326</ele>
        <time>2021-11-28T09:17:51.000Z</time>
      </trkpt>
      <trkpt lat="47.3147" lon="-2.27515">
        <ele>-7</ele>
        <time>2021-11-28T09:17:52.000Z</time>
      </trkpt>
      <trkpt lat="47.31473" lon="-2.27523">
        <ele>-7.4000000953674</ele>
        <time>2021-11-28T09:17:53.000Z</time>
      </trkpt>
      <trkpt lat="47.31477" lon="-2.27531">
        <ele>-7.8000001907349</ele>
        <time>2021-11-28T09:17:54.000Z</time>
      </trkpt>
      <trkpt lat="47.3148" lon="-2.27539">
        <ele>-8.1999998092651</ele>
        <time>2021-11-28T09:17:55.000Z</time>
      </trkpt>
      <trkpt lat="47.31494" lon="-2.27572">
        <ele>-8.1999998092651</ele>
        <time>2021-11-28T09:17:59.000Z</time>
      </trkpt>
      <trkpt lat="47.31499" lon="-2.2759">
        <ele>-8.1999998092651</ele>
        <time>2021-11-28T09:18:01.000Z</time>
      </trkpt>
      <trkpt lat="47.31501" lon="-2.276">
        <ele>-8.1999998092651</ele>
        <time>2021-11-28T09:18:02.000Z</time>
      </trkpt>
      <trkpt lat="47.315" lon="-2.27627">
        <ele>-8.1999998092651</ele>
        <time>2021-11-28T09:18:05.000Z</time>
      </trkpt>
      <trkpt lat="47.31488" lon="-2.27659">
        <ele>-8.1999998092651</ele>
        <time>2021-11-28T09:18:09.000Z</time>
      </trkpt>
      <trkpt lat="47.3147" lon="-2.27689">
        <ele>-8.1999998092651</ele>
        <time>2021-11-28T09:18:13.000Z</time>
      </trkpt>
      <trkpt lat="47.31459" lon="-2.27701">
        <ele>-8.1999998092651</ele>
        <time>2021-11-28T09:18:15.000Z</time>
      </trkpt>
      <trkpt lat="47.31424" lon="-2.27732">
        <ele>-8.1999998092651</ele>
        <time>2021-11-28T09:18:21.000Z</time>
      </trkpt>
      <trkpt lat="47.31388" lon="-2.27751">
        <ele>-8.1999998092651</ele>
        <time>2021-11-28T09:18:27.000Z</time>
      </trkpt>
      <trkpt lat="47.31352" lon="-2.27765">
        <ele>-8.1999998092651</ele>
        <time>2021-11-28T09:18:33.000Z</time>
      </trkpt>
      <trkpt lat="47.31309" lon="-2.27775">
        <ele>-8.1999998092651</ele>
        <time>2021-11-28T09:18:40.000Z</time>
      </trkpt>
      <trkpt lat="47.31272" lon="-2.2778">
        <ele>-8.1999998092651</ele>
        <time>2021-11-28T09:18:46.000Z</time>
      </trkpt>
      <trkpt lat="47.31241" lon="-2.27783">
        <ele>-8.1999998092651</ele>
        <time>2021-11-28T09:18:51.000Z</time>
      </trkpt>
      <trkpt lat="47.31236" lon="-2.2778">
        <ele>-8.1999998092651</ele>
        <time>2021-11-28T09:18:52.000Z</time>
      </trkpt>
      <trkpt lat="47.31226" lon="-2.27758">
        <ele>-8.1999998092651</ele>
        <time>2021-11-28T09:18:55.000Z</time>
      </trkpt>
      <trkpt lat="47.31214" lon="-2.27729">
        <ele>-8.1999998092651</ele>
        <time>2021-11-28T09:18:59.000Z</time>
      </trkpt>
      <trkpt lat="47.31199" lon="-2.27726">
        <ele>-8.1999998092651</ele>
        <time>2021-11-28T09:19:02.000Z</time>
      </trkpt>
      <trkpt lat="47.31179" lon="-2.27734">
        <ele>-8.1999998092651</ele>
        <time>2021-11-28T09:19:05.000Z</time>
      </trkpt>
      <trkpt lat="47.31173" lon="-2.27736">
        <ele>-8.1999998092651</ele>
        <time>2021-11-28T09:19:06.000Z</time>
      </trkpt>
      <trkpt lat="47.31161" lon="-2.2774">
        <ele>-8.1999998092651</ele>
        <time>2021-11-28T09:19:08.000Z</time>
      </trkpt>
      <trkpt lat="47.31151" lon="-2.2774">
        <ele>-8.1999998092651</ele>
        <time>2021-11-28T09:19:10.000Z</time>
      </trkpt>
      <trkpt lat="47.31143" lon="-2.27753">
        <ele>-8.1999998092651</ele>
        <time>2021-11-28T09:19:13.000Z</time>
      </trkpt>
      <trkpt lat="47.31145" lon="-2.27766">
        <ele>-8.1999998092651</ele>
        <time>2021-11-28T09:19:15.000Z</time>
      </trkpt>
      <trkpt lat="47.31146" lon="-2.27774">
        <ele>-8.1999998092651</ele>
        <time>2021-11-28T09:19:16.000Z</time>
      </trkpt>
      <trkpt lat="47.31156" lon="-2.27824">
        <ele>-8.1999998092651</ele>
        <time>2021-11-28T09:19:22.000Z</time>
      </trkpt>
      <trkpt lat="47.31157" lon="-2.27841">
        <ele>-8.1999998092651</ele>
        <time>2021-11-28T09:19:24.000Z</time>
      </trkpt>
      <trkpt lat="47.31154" lon="-2.27856">
        <ele>-8.1999998092651</ele>
        <time>2021-11-28T09:19:26.000Z</time>
      </trkpt>
      <trkpt lat="47.31133" lon="-2.27893">
        <ele>-8.1999998092651</ele>
        <time>2021-11-28T09:19:31.000Z</time>
      </trkpt>
      <trkpt lat="47.31099" lon="-2.27944">
        <ele>-8.1999998092651</ele>
        <time>2021-11-28T09:19:38.000Z</time>
      </trkpt>
      <trkpt lat="47.31066" lon="-2.27994">
        <ele>-8.1999998092651</ele>
        <time>2021-11-28T09:19:45.000Z</time>
      </trkpt>
      <trkpt lat="47.31038" lon="-2.28034">
        <ele>-8.1999998092651</ele>
        <time>2021-11-28T09:19:51.000Z</time>
      </trkpt>
      <trkpt lat="47.31033" lon="-2.28038">
        <ele>-8.1999998092651</ele>
        <time>2021-11-28T09:19:52.000Z</time>
      </trkpt>
      <trkpt lat="47.30993" lon="-2.28071">
        <ele>-8.1999998092651</ele>
        <time>2021-11-28T09:19:59.000Z</time>
      </trkpt>
      <trkpt lat="47.30959" lon="-2.28101">
        <ele>-8.1999998092651</ele>
        <time>2021-11-28T09:20:05.000Z</time>
      </trkpt>
      <trkpt lat="47.30929" lon="-2.28145">
        <ele>-8.1999998092651</ele>
        <time>2021-11-28T09:20:12.000Z</time>
      </trkpt>
      <trkpt lat="47.30902" lon="-2.28188">
        <ele>-8.1999998092651</ele>
        <time>2021-11-28T09:20:20.000Z</time>
      </trkpt>
      <trkpt lat="47.30874" lon="-2.28227">
        <ele>-8.1999998092651</ele>
        <time>2021-11-28T09:20:26.000Z</time>
      </trkpt>
      <trkpt lat="47.30859" lon="-2.28243">
        <ele>-8.1999998092651</ele>
        <time>2021-11-28T09:20:29.000Z</time>
      </trkpt>
      <trkpt lat="47.30848" lon="-2.28251">
        <ele>-8.1999998092651</ele>
        <time>2021-11-28T09:20:31.000Z</time>
      </trkpt>
      <trkpt lat="47.30831" lon="-2.28256">
        <ele>-8.1999998092651</ele>
        <time>2021-11-28T09:20:34.000Z</time>
      </trkpt>
      <trkpt lat="47.3082" lon="-2.28259">
        <ele>-8.1999998092651</ele>
        <time>2021-11-28T09:20:36.000Z</time>
      </trkpt>
      <trkpt lat="47.30814" lon="-2.28259">
        <ele>-8.1999998092651</ele>
        <time>2021-11-28T09:20:37.000Z</time>
      </trkpt>
      <trkpt lat="47.30795" lon="-2.28255">
        <ele>-8.1999998092651</ele>
        <time>2021-11-28T09:20:40.000Z</time>
      </trkpt>
      <trkpt lat="47.30771" lon="-2.28236">
        <ele>-8.1999998092651</ele>
        <time>2021-11-28T09:20:44.000Z</time>
      </trkpt>
      <trkpt lat="47.30761" lon="-2.28223">
        <ele>-8.1999998092651</ele>
        <time>2021-11-28T09:20:46.000Z</time>
      </trkpt>
      <trkpt lat="47.30746" lon="-2.28202">
        <ele>-8.1999998092651</ele>
        <time>2021-11-28T09:20:49.000Z</time>
      </trkpt>
      <trkpt lat="47.30718" lon="-2.28161">
        <ele>-8.1999998092651</ele>
        <time>2021-11-28T09:20:55.000Z</time>
      </trkpt>
      <trkpt lat="47.30705" lon="-2.28147">
        <ele>-8.1999998092651</ele>
        <time>2021-11-28T09:20:58.000Z</time>
      </trkpt>
      <trkpt lat="47.307" lon="-2.28146">
        <ele>-8.1999998092651</ele>
        <time>2021-11-28T09:20:59.000Z</time>
      </trkpt>
      <trkpt lat="47.3069" lon="-2.28158">
        <ele>-8.1999998092651</ele>
        <time>2021-11-28T09:21:02.000Z</time>
      </trkpt>
      <trkpt lat="47.30687" lon="-2.28171">
        <ele>-8.1999998092651</ele>
        <time>2021-11-28T09:21:04.000Z</time>
      </trkpt>
      <trkpt lat="47.30684" lon="-2.28181">
        <ele>-8.1999998092651</ele>
        <time>2021-11-28T09:21:06.000Z</time>
      </trkpt>
      <trkpt lat="47.30679" lon="-2.28207">
        <ele>-8.1999998092651</ele>
        <time>2021-11-28T09:21:12.000Z</time>
      </trkpt>
      <trkpt lat="47.30676" lon="-2.28235">
        <ele>-8.1999998092651</ele>
        <time>2021-11-28T09:21:18.000Z</time>
      </trkpt>
      <trkpt lat="47.30664" lon="-2.28249">
        <ele>-8.1999998092651</ele>
        <time>2021-11-28T09:21:22.000Z</time>
      </trkpt>
      <trkpt lat="47.30644" lon="-2.2826">
        <ele>-8.1999998092651</ele>
        <time>2021-11-28T09:21:26.000Z</time>
      </trkpt>
      <trkpt lat="47.30604" lon="-2.28274">
        <ele>-8.1999998092651</ele>
        <time>2021-11-28T09:21:33.000Z</time>
      </trkpt>
      <trkpt lat="47.30562" lon="-2.28296">
        <ele>-8.1999998092651</ele>
        <time>2021-11-28T09:21:40.000Z</time>
      </trkpt>
      <trkpt lat="47.30526" lon="-2.2832">
        <ele>-8.1999998092651</ele>
        <time>2021-11-28T09:21:46.000Z</time>
      </trkpt>
      <trkpt lat="47.30486" lon="-2.28349">
        <ele>-8.1999998092651</ele>
        <time>2021-11-28T09:21:53.000Z</time>
      </trkpt>
      <trkpt lat="47.30451" lon="-2.28373">
        <ele>-8.1999998092651</ele>
        <time>2021-11-28T09:21:59.000Z</time>
      </trkpt>
      <trkpt lat="47.30415" lon="-2.28397">
        <ele>-8.1999998092651</ele>
        <time>2021-11-28T09:22:05.000Z</time>
      </trkpt>
      <trkpt lat="47.30386" lon="-2.28419">
        <ele>-8.1999998092651</ele>
        <time>2021-11-28T09:22:10.000Z</time>
      </trkpt>
      <trkpt lat="47.3038" lon="-2.28425">
        <ele>-7.8000001907349</ele>
        <time>2021-11-28T09:22:11.000Z</time>
      </trkpt>
      <trkpt lat="47.30375" lon="-2.2843">
        <ele>-7.4000000953674</ele>
        <time>2021-11-28T09:22:12.000Z</time>
      </trkpt>
      <trkpt lat="47.30369" lon="-2.28434">
        <ele>-7</ele>
        <time>2021-11-28T09:22:13.000Z</time>
      </trkpt>
      <trkpt lat="47.30364" lon="-2.28439">
        <ele>-6.4000000953674</ele>
        <time>2021-11-28T09:22:14.000Z</time>
      </trkpt>
      <trkpt lat="47.30359" lon="-2.28444">
        <ele>-6</ele>
        <time>2021-11-28T09:22:15.000Z</time>
      </trkpt>
      <trkpt lat="47.30349" lon="-2.28454">
        <ele>-6</ele>
        <time>2021-11-28T09:22:17.000Z</time>
      </trkpt>
      <trkpt lat="47.30306" lon="-2.28498">
        <ele>-6</ele>
        <time>2021-11-28T09:22:26.000Z</time>
      </trkpt>
      <trkpt lat="47.30272" lon="-2.28516">
        <ele>-6</ele>
        <time>2021-11-28T09:22:32.000Z</time>
      </trkpt>
      <trkpt lat="47.30266" lon="-2.28517">
        <ele>-6</ele>
        <time>2021-11-28T09:22:33.000Z</time>
      </trkpt>
      <trkpt lat="47.30243" lon="-2.28521">
        <ele>-6</ele>
        <time>2021-11-28T09:22:37.000Z</time>
      </trkpt>
      <trkpt lat="47.30205" lon="-2.28507">
        <ele>-6</ele>
        <time>2021-11-28T09:22:43.000Z</time>
      </trkpt>
      <trkpt lat="47.30174" lon="-2.2849">
        <ele>-5.5999999046326</ele>
        <time>2021-11-28T09:22:48.000Z</time>
      </trkpt>
      <trkpt lat="47.30168" lon="-2.28486">
        <ele>-5.1999998092651</ele>
        <time>2021-11-28T09:22:49.000Z</time>
      </trkpt>
      <trkpt lat="47.30162" lon="-2.28483">
        <ele>-4.8000001907349</ele>
        <time>2021-11-28T09:22:50.000Z</time>
      </trkpt>
      <trkpt lat="47.30155" lon="-2.28478">
        <ele>-4.4000000953674</ele>
        <time>2021-11-28T09:22:51.000Z</time>
      </trkpt>
      <trkpt lat="47.30149" lon="-2.28472">
        <ele>-4</ele>
        <time>2021-11-28T09:22:52.000Z</time>
      </trkpt>
      <trkpt lat="47.30127" lon="-2.28452">
        <ele>-4</ele>
        <time>2021-11-28T09:22:56.000Z</time>
      </trkpt>
      <trkpt lat="47.30099" lon="-2.28424">
        <ele>-4</ele>
        <time>2021-11-28T09:23:02.000Z</time>
      </trkpt>
      <trkpt lat="47.30092" lon="-2.28417">
        <ele>-4</ele>
        <time>2021-11-28T09:23:04.000Z</time>
      </trkpt>
      <trkpt lat="47.30081" lon="-2.2841">
        <ele>-4</ele>
        <time>2021-11-28T09:23:07.000Z</time>
      </trkpt>
      <trkpt lat="47.30076" lon="-2.28409">
        <ele>-4</ele>
        <time>2021-11-28T09:23:08.000Z</time>
      </trkpt>
      <trkpt lat="47.30072" lon="-2.28409">
        <ele>-3.5999999046326</ele>
        <time>2021-11-28T09:23:09.000Z</time>
      </trkpt>
      <trkpt lat="47.30067" lon="-2.28411">
        <ele>-3.2000000476837</ele>
        <time>2021-11-28T09:23:10.000Z</time>
      </trkpt>
      <trkpt lat="47.30063" lon="-2.28413">
        <ele>-2.7999999523163</ele>
        <time>2021-11-28T09:23:11.000Z</time>
      </trkpt>
      <trkpt lat="47.30058" lon="-2.28415">
        <ele>-2.4000000953674</ele>
        <time>2021-11-28T09:23:12.000Z</time>
      </trkpt>
      <trkpt lat="47.30053" lon="-2.28417">
        <ele>-2</ele>
        <time>2021-11-28T09:23:13.000Z</time>
      </trkpt>
      <trkpt lat="47.30031" lon="-2.28426">
        <ele>-2</ele>
        <time>2021-11-28T09:23:17.000Z</time>
      </trkpt>
      <trkpt lat="47.29997" lon="-2.28438">
        <ele>-2</ele>
        <time>2021-11-28T09:23:23.000Z</time>
      </trkpt>
      <trkpt lat="47.29965" lon="-2.28455">
        <ele>-2</ele>
        <time>2021-11-28T09:23:29.000Z</time>
      </trkpt>
      <trkpt lat="47.29961" lon="-2.2846">
        <ele>-2</ele>
        <time>2021-11-28T09:23:30.000Z</time>
      </trkpt>
      <trkpt lat="47.29953" lon="-2.28469">
        <ele>-1.6000000238419</ele>
        <time>2021-11-28T09:23:32.000Z</time>
      </trkpt>
      <trkpt lat="47.29949" lon="-2.28474">
        <ele>-1.2000000476837</ele>
        <time>2021-11-28T09:23:33.000Z</time>
      </trkpt>
      <trkpt lat="47.29945" lon="-2.28479">
        <ele>-0.80000001192093</ele>
        <time>2021-11-28T09:23:34.000Z</time>
      </trkpt>
      <trkpt lat="47.29942" lon="-2.28485">
        <ele>-0.40000000596046</ele>
        <time>2021-11-28T09:23:35.000Z</time>
      </trkpt>
      <trkpt lat="47.2994" lon="-2.28488">
        <ele>11</ele>
        <time>2021-11-28T09:23:36.000Z</time>
      </trkpt>
      <trkpt lat="47.29937" lon="-2.28489">
        <ele>11</ele>
        <time>2021-11-28T09:23:37.000Z</time>
      </trkpt>
      <trkpt lat="47.29934" lon="-2.28483">
        <ele>11</ele>
        <time>2021-11-28T09:23:39.000Z</time>
      </trkpt>
      <trkpt lat="47.29934" lon="-2.28475">
        <ele>11</ele>
        <time>2021-11-28T09:23:41.000Z</time>
      </trkpt>
      <trkpt lat="47.29936" lon="-2.28466">
        <ele>11.1</ele>
        <time>2021-11-28T09:23:43.000Z</time>
      </trkpt>
      <trkpt lat="47.29939" lon="-2.28444">
        <ele>11.2</ele>
        <time>2021-11-28T09:23:47.000Z</time>
      </trkpt>
      <trkpt lat="47.29941" lon="-2.28439">
        <ele>11.1</ele>
        <time>2021-11-28T09:23:48.000Z</time>
      </trkpt>
      <trkpt lat="47.29946" lon="-2.28412">
        <ele>10.9</ele>
        <time>2021-11-28T09:23:52.000Z</time>
      </trkpt>
      <trkpt lat="47.29945" lon="-2.28396">
        <ele>11</ele>
        <time>2021-11-28T09:23:54.000Z</time>
      </trkpt>
      <trkpt lat="47.29945" lon="-2.28388">
        <ele>11</ele>
        <time>2021-11-28T09:23:55.000Z</time>
      </trkpt>
      <trkpt lat="47.29947" lon="-2.28372">
        <ele>11</ele>
        <time>2021-11-28T09:23:57.000Z</time>
      </trkpt>
      <trkpt lat="47.29949" lon="-2.28349">
        <ele>11</ele>
        <time>2021-11-28T09:24:00.000Z</time>
      </trkpt>
      <trkpt lat="47.29949" lon="-2.2834">
        <ele>11</ele>
        <time>2021-11-28T09:24:01.000Z</time>
      </trkpt>
      <trkpt lat="47.29947" lon="-2.28318">
        <ele>11</ele>
        <time>2021-11-28T09:24:04.000Z</time>
      </trkpt>
      <trkpt lat="47.29947" lon="-2.2829">
        <ele>11</ele>
        <time>2021-11-28T09:24:07.000Z</time>
      </trkpt>
      <trkpt lat="47.29946" lon="-2.28273">
        <ele>11</ele>
        <time>2021-11-28T09:24:09.000Z</time>
      </trkpt>
      <trkpt lat="47.29943" lon="-2.28231">
        <ele>11.7</ele>
        <time>2021-11-28T09:24:14.000Z</time>
      </trkpt>
      <trkpt lat="47.29942" lon="-2.28224">
        <ele>12</ele>
        <time>2021-11-28T09:24:15.000Z</time>
      </trkpt>
      <trkpt lat="47.29943" lon="-2.28217">
        <ele>12</ele>
        <time>2021-11-28T09:24:16.000Z</time>
      </trkpt>
      <trkpt lat="47.29948" lon="-2.28198">
        <ele>12</ele>
        <time>2021-11-28T09:24:19.000Z</time>
      </trkpt>
      <trkpt lat="47.29952" lon="-2.28184">
        <ele>12</ele>
        <time>2021-11-28T09:24:21.000Z</time>
      </trkpt>
      <trkpt lat="47.29959" lon="-2.28162">
        <ele>12</ele>
        <time>2021-11-28T09:24:24.000Z</time>
      </trkpt>
      <trkpt lat="47.29961" lon="-2.28154">
        <ele>12</ele>
        <time>2021-11-28T09:24:25.000Z</time>
      </trkpt>
      <trkpt lat="47.29971" lon="-2.28108">
        <ele>12</ele>
        <time>2021-11-28T09:24:30.000Z</time>
      </trkpt>
      <trkpt lat="47.29985" lon="-2.28057">
        <ele>12</ele>
        <time>2021-11-28T09:24:36.000Z</time>
      </trkpt>
      <trkpt lat="47.29987" lon="-2.2804">
        <ele>12</ele>
        <time>2021-11-28T09:24:39.000Z</time>
      </trkpt>
      <trkpt lat="47.29985" lon="-2.28038">
        <ele>12</ele>
        <time>2021-11-28T09:24:40.000Z</time>
      </trkpt>
      <trkpt lat="47.29975" lon="-2.28041">
        <ele>12</ele>
        <time>2021-11-28T09:24:43.000Z</time>
      </trkpt>
      <trkpt lat="47.29972" lon="-2.28043">
        <ele>12</ele>
        <time>2021-11-28T09:24:44.000Z</time>
      </trkpt>
      <trkpt lat="47.29951" lon="-2.28049">
        <ele>12</ele>
        <time>2021-11-28T09:24:49.000Z</time>
      </trkpt>
      <trkpt lat="47.29941" lon="-2.28036">
        <ele>12</ele>
        <time>2021-11-28T09:24:52.000Z</time>
      </trkpt>
      <trkpt lat="47.29938" lon="-2.28031">
        <ele>12</ele>
        <time>2021-11-28T09:24:53.000Z</time>
      </trkpt>
      <trkpt lat="47.29936" lon="-2.28025">
        <ele>12</ele>
        <time>2021-11-28T09:24:54.000Z</time>
      </trkpt>
      <trkpt lat="47.29933" lon="-2.28007">
        <ele>12.3</ele>
        <time>2021-11-28T09:24:57.000Z</time>
      </trkpt>
      <trkpt lat="47.29931" lon="-2.27987">
        <ele>12.5</ele>
        <time>2021-11-28T09:25:00.000Z</time>
      </trkpt>
      <trkpt lat="47.29931" lon="-2.2798">
        <ele>12.5</ele>
        <time>2021-11-28T09:25:01.000Z</time>
      </trkpt>
      <trkpt lat="47.29932" lon="-2.27973">
        <ele>12.5</ele>
        <time>2021-11-28T09:25:02.000Z</time>
      </trkpt>
      <trkpt lat="47.29935" lon="-2.2793">
        <ele>12.4</ele>
        <time>2021-11-28T09:25:09.000Z</time>
      </trkpt>
      <trkpt lat="47.29939" lon="-2.27885">
        <ele>12.2</ele>
        <time>2021-11-28T09:25:16.000Z</time>
      </trkpt>
      <trkpt lat="47.29943" lon="-2.27837">
        <ele>12</ele>
        <time>2021-11-28T09:25:23.000Z</time>
      </trkpt>
      <trkpt lat="47.29947" lon="-2.2779">
        <ele>12</ele>
        <time>2021-11-28T09:25:29.000Z</time>
      </trkpt>
      <trkpt lat="47.29951" lon="-2.27731">
        <ele>12</ele>
        <time>2021-11-28T09:25:36.000Z</time>
      </trkpt>
      <trkpt lat="47.29956" lon="-2.27681">
        <ele>11</ele>
        <time>2021-11-28T09:25:42.000Z</time>
      </trkpt>
      <trkpt lat="47.2996" lon="-2.27639">
        <ele>10.4</ele>
        <time>2021-11-28T09:25:47.000Z</time>
      </trkpt>
      <trkpt lat="47.29962" lon="-2.27631">
        <ele>10.3</ele>
        <time>2021-11-28T09:25:48.000Z</time>
      </trkpt>
      <trkpt lat="47.29977" lon="-2.27562">
        <ele>9</ele>
        <time>2021-11-28T09:25:56.000Z</time>
      </trkpt>
      <trkpt lat="47.29989" lon="-2.27506">
        <ele>8.5</ele>
        <time>2021-11-28T09:26:02.000Z</time>
      </trkpt>
      <trkpt lat="47.30007" lon="-2.27454">
        <ele>-0.40000000596046</ele>
        <time>2021-11-28T09:26:08.000Z</time>
      </trkpt>
      <trkpt lat="47.30011" lon="-2.27445">
        <ele>-0.80000001192093</ele>
        <time>2021-11-28T09:26:09.000Z</time>
      </trkpt>
      <trkpt lat="47.30016" lon="-2.27438">
        <ele>-1.2000000476837</ele>
        <time>2021-11-28T09:26:10.000Z</time>
      </trkpt>
      <trkpt lat="47.3002" lon="-2.27431">
        <ele>-1.6000000238419</ele>
        <time>2021-11-28T09:26:11.000Z</time>
      </trkpt>
      <trkpt lat="47.30026" lon="-2.27425">
        <ele>-2</ele>
        <time>2021-11-28T09:26:12.000Z</time>
      </trkpt>
      <trkpt lat="47.30031" lon="-2.27418">
        <ele>-2</ele>
        <time>2021-11-28T09:26:13.000Z</time>
      </trkpt>
      <trkpt lat="47.30064" lon="-2.27368">
        <ele>-2</ele>
        <time>2021-11-28T09:26:20.000Z</time>
      </trkpt>
      <trkpt lat="47.30086" lon="-2.27317">
        <ele>-2</ele>
        <time>2021-11-28T09:26:26.000Z</time>
      </trkpt>
      <trkpt lat="47.30111" lon="-2.27271">
        <ele>-2</ele>
        <time>2021-11-28T09:26:32.000Z</time>
      </trkpt>
      <trkpt lat="47.30142" lon="-2.27231">
        <ele>-2</ele>
        <time>2021-11-28T09:26:38.000Z</time>
      </trkpt>
      <trkpt lat="47.30175" lon="-2.27191">
        <ele>-2</ele>
        <time>2021-11-28T09:26:45.000Z</time>
      </trkpt>
      <trkpt lat="47.30202" lon="-2.27159">
        <ele>-2</ele>
        <time>2021-11-28T09:26:51.000Z</time>
      </trkpt>
      <trkpt lat="47.30216" lon="-2.27147">
        <ele>-2</ele>
        <time>2021-11-28T09:26:54.000Z</time>
      </trkpt>
      <trkpt lat="47.3022" lon="-2.27147">
        <ele>-2</ele>
        <time>2021-11-28T09:26:55.000Z</time>
      </trkpt>
      <trkpt lat="47.30235" lon="-2.27156">
        <ele>-2</ele>
        <time>2021-11-28T09:26:58.000Z</time>
      </trkpt>
      <trkpt lat="47.30242" lon="-2.27159">
        <ele>-2</ele>
        <time>2021-11-28T09:26:59.000Z</time>
      </trkpt>
      <trkpt lat="47.30269" lon="-2.27173">
        <ele>-2</ele>
        <time>2021-11-28T09:27:03.000Z</time>
      </trkpt>
      <trkpt lat="47.30303" lon="-2.27181">
        <ele>-2</ele>
        <time>2021-11-28T09:27:08.000Z</time>
      </trkpt>
      <trkpt lat="47.30335" lon="-2.27175">
        <ele>-2.4000000953674</ele>
        <time>2021-11-28T09:27:13.000Z</time>
      </trkpt>
      <trkpt lat="47.30341" lon="-2.27173">
        <ele>-2.7999999523163</ele>
        <time>2021-11-28T09:27:14.000Z</time>
      </trkpt>
      <trkpt lat="47.30347" lon="-2.27171">
        <ele>-3.2000000476837</ele>
        <time>2021-11-28T09:27:15.000Z</time>
      </trkpt>
      <trkpt lat="47.30352" lon="-2.2717">
        <ele>-3.7999999523163</ele>
        <time>2021-11-28T09:27:16.000Z</time>
      </trkpt>
      <trkpt lat="47.30358" lon="-2.27168">
        <ele>-4.1999998092651</ele>
        <time>2021-11-28T09:27:17.000Z</time>
      </trkpt>
      <trkpt lat="47.30373" lon="-2.27165">
        <ele>-4.1999998092651</ele>
        <time>2021-11-28T09:27:20.000Z</time>
      </trkpt>
      <trkpt lat="47.30401" lon="-2.27157">
        <ele>-4.1999998092651</ele>
        <time>2021-11-28T09:27:26.000Z</time>
      </trkpt>
      <trkpt lat="47.30404" lon="-2.27157">
        <ele>-4.1999998092651</ele>
        <time>2021-11-28T09:27:27.000Z</time>
      </trkpt>
      <trkpt lat="47.30409" lon="-2.27155">
        <ele>-4.1999998092651</ele>
        <time>2021-11-28T09:27:28.000Z</time>
      </trkpt>
      <trkpt lat="47.30415" lon="-2.27145">
        <ele>-4.1999998092651</ele>
        <time>2021-11-28T09:27:30.000Z</time>
      </trkpt>
      <trkpt lat="47.30414" lon="-2.27123">
        <ele>-4.1999998092651</ele>
        <time>2021-11-28T09:27:33.000Z</time>
      </trkpt>
      <trkpt lat="47.30413" lon="-2.27116">
        <ele>-4.1999998092651</ele>
        <time>2021-11-28T09:27:34.000Z</time>
      </trkpt>
      <trkpt lat="47.30406" lon="-2.27087">
        <ele>-4.1999998092651</ele>
        <time>2021-11-28T09:27:38.000Z</time>
      </trkpt>
      <trkpt lat="47.30399" lon="-2.27073">
        <ele>-4.1999998092651</ele>
        <time>2021-11-28T09:27:40.000Z</time>
      </trkpt>
      <trkpt lat="47.30381" lon="-2.2706">
        <ele>-4.1999998092651</ele>
        <time>2021-11-28T09:27:44.000Z</time>
      </trkpt>
      <trkpt lat="47.30372" lon="-2.27041">
        <ele>-4.1999998092651</ele>
        <time>2021-11-28T09:27:47.000Z</time>
      </trkpt>
      <trkpt lat="47.30371" lon="-2.27015">
        <ele>-4.1999998092651</ele>
        <time>2021-11-28T09:27:51.000Z</time>
      </trkpt>
      <trkpt lat="47.3037" lon="-2.26969">
        <ele>-4.1999998092651</ele>
        <time>2021-11-28T09:27:57.000Z</time>
      </trkpt>
      <trkpt lat="47.30366" lon="-2.26938">
        <ele>-4.1999998092651</ele>
        <time>2021-11-28T09:28:01.000Z</time>
      </trkpt>
      <trkpt lat="47.30363" lon="-2.26923">
        <ele>-4.1999998092651</ele>
        <time>2021-11-28T09:28:03.000Z</time>
      </trkpt>
      <trkpt lat="47.30361" lon="-2.26916">
        <ele>-3.7999999523163</ele>
        <time>2021-11-28T09:28:04.000Z</time>
      </trkpt>
      <trkpt lat="47.3036" lon="-2.26909">
        <ele>-3.4000000953674</ele>
        <time>2021-11-28T09:28:05.000Z</time>
      </trkpt>
      <trkpt lat="47.30359" lon="-2.26901">
        <ele>-3</ele>
        <time>2021-11-28T09:28:06.000Z</time>
      </trkpt>
      <trkpt lat="47.30357" lon="-2.26893">
        <ele>-2.5999999046326</ele>
        <time>2021-11-28T09:28:07.000Z</time>
      </trkpt>
      <trkpt lat="47.30355" lon="-2.26885">
        <ele>-2</ele>
        <time>2021-11-28T09:28:08.000Z</time>
      </trkpt>
      <trkpt lat="47.30354" lon="-2.26878">
        <ele>-2</ele>
        <time>2021-11-28T09:28:09.000Z</time>
      </trkpt>
      <trkpt lat="47.30348" lon="-2.26828">
        <ele>-2</ele>
        <time>2021-11-28T09:28:15.000Z</time>
      </trkpt>
      <trkpt lat="47.30345" lon="-2.26804">
        <ele>-2</ele>
        <time>2021-11-28T09:28:18.000Z</time>
      </trkpt>
      <trkpt lat="47.30345" lon="-2.26788">
        <ele>-2</ele>
        <time>2021-11-28T09:28:20.000Z</time>
      </trkpt>
      <trkpt lat="47.30354" lon="-2.26767">
        <ele>-2</ele>
        <time>2021-11-28T09:28:23.000Z</time>
      </trkpt>
      <trkpt lat="47.30357" lon="-2.2676">
        <ele>-2</ele>
        <time>2021-11-28T09:28:24.000Z</time>
      </trkpt>
      <trkpt lat="47.30375" lon="-2.26728">
        <ele>-2</ele>
        <time>2021-11-28T09:28:29.000Z</time>
      </trkpt>
      <trkpt lat="47.30378" lon="-2.26722">
        <ele>-2</ele>
        <time>2021-11-28T09:28:30.000Z</time>
      </trkpt>
      <trkpt lat="47.30394" lon="-2.26691">
        <ele>-2</ele>
        <time>2021-11-28T09:28:35.000Z</time>
      </trkpt>
      <trkpt lat="47.30413" lon="-2.26653">
        <ele>-2</ele>
        <time>2021-11-28T09:28:41.000Z</time>
      </trkpt>
      <trkpt lat="47.30434" lon="-2.26604">
        <ele>-2</ele>
        <time>2021-11-28T09:28:48.000Z</time>
      </trkpt>
      <trkpt lat="47.30455" lon="-2.26562">
        <ele>-2</ele>
        <time>2021-11-28T09:28:54.000Z</time>
      </trkpt>
      <trkpt lat="47.30486" lon="-2.26499">
        <ele>-2</ele>
        <time>2021-11-28T09:29:04.000Z</time>
      </trkpt>
      <trkpt lat="47.30507" lon="-2.26457">
        <ele>-2</ele>
        <time>2021-11-28T09:29:11.000Z</time>
      </trkpt>
      <trkpt lat="47.30518" lon="-2.26433">
        <ele>-2</ele>
        <time>2021-11-28T09:29:15.000Z</time>
      </trkpt>
      <trkpt lat="47.30523" lon="-2.2642">
        <ele>-2</ele>
        <time>2021-11-28T09:29:17.000Z</time>
      </trkpt>
      <trkpt lat="47.30544" lon="-2.26361">
        <ele>-2</ele>
        <time>2021-11-28T09:29:25.000Z</time>
      </trkpt>
      <trkpt lat="47.30547" lon="-2.26353">
        <ele>-2</ele>
        <time>2021-11-28T09:29:26.000Z</time>
      </trkpt>
      <trkpt lat="47.30553" lon="-2.26321">
        <ele>-2</ele>
        <time>2021-11-28T09:29:30.000Z</time>
      </trkpt>
      <trkpt lat="47.30566" lon="-2.26276">
        <ele>-2</ele>
        <time>2021-11-28T09:29:36.000Z</time>
      </trkpt>
      <trkpt lat="47.30583" lon="-2.26213">
        <ele>-2</ele>
        <time>2021-11-28T09:29:44.000Z</time>
      </trkpt>
      <trkpt lat="47.30595" lon="-2.26176">
        <ele>-2</ele>
        <time>2021-11-28T09:29:49.000Z</time>
      </trkpt>
      <trkpt lat="47.30601" lon="-2.26162">
        <ele>-2</ele>
        <time>2021-11-28T09:29:51.000Z</time>
      </trkpt>
      <trkpt lat="47.30608" lon="-2.26148">
        <ele>-2</ele>
        <time>2021-11-28T09:29:53.000Z</time>
      </trkpt>
      <trkpt lat="47.30621" lon="-2.26127">
        <ele>-2</ele>
        <time>2021-11-28T09:29:57.000Z</time>
      </trkpt>
      <trkpt lat="47.30634" lon="-2.26109">
        <ele>-1.6000000238419</ele>
        <time>2021-11-28T09:30:01.000Z</time>
      </trkpt>
      <trkpt lat="47.30638" lon="-2.26105">
        <ele>-1.2000000476837</ele>
        <time>2021-11-28T09:30:02.000Z</time>
      </trkpt>
      <trkpt lat="47.30642" lon="-2.26102">
        <ele>-0.80000001192093</ele>
        <time>2021-11-28T09:30:03.000Z</time>
      </trkpt>
      <trkpt lat="47.30647" lon="-2.26099">
        <ele>-0.40000000596046</ele>
        <time>2021-11-28T09:30:04.000Z</time>
      </trkpt>
      <trkpt lat="47.30651" lon="-2.26096">
        <ele>10.4</ele>
        <time>2021-11-28T09:30:05.000Z</time>
      </trkpt>
      <trkpt lat="47.30661" lon="-2.2609">
        <ele>10.8</ele>
        <time>2021-11-28T09:30:07.000Z</time>
      </trkpt>
      <trkpt lat="47.30716" lon="-2.26061">
        <ele>12</ele>
        <time>2021-11-28T09:30:18.000Z</time>
      </trkpt>
      <trkpt lat="47.30721" lon="-2.26058">
        <ele>12</ele>
        <time>2021-11-28T09:30:19.000Z</time>
      </trkpt>
      <trkpt lat="47.30726" lon="-2.26056">
        <ele>0.40000000596046</ele>
        <time>2021-11-28T09:30:20.000Z</time>
      </trkpt>
      <trkpt lat="47.30732" lon="-2.26053">
        <ele>0.80000001192093</ele>
        <time>2021-11-28T09:30:21.000Z</time>
      </trkpt>
      <trkpt lat="47.30736" lon="-2.2605">
        <ele>1.2000000476837</ele>
        <time>2021-11-28T09:30:22.000Z</time>
      </trkpt>
      <trkpt lat="47.30741" lon="-2.26047">
        <ele>1.6000000238419</ele>
        <time>2021-11-28T09:30:23.000Z</time>
      </trkpt>
      <trkpt lat="47.30746" lon="-2.26044">
        <ele>2</ele>
        <time>2021-11-28T09:30:24.000Z</time>
      </trkpt>
      <trkpt lat="47.30756" lon="-2.26038">
        <ele>2</ele>
        <time>2021-11-28T09:30:26.000Z</time>
      </trkpt>
      <trkpt lat="47.30788" lon="-2.2602">
        <ele>2</ele>
        <time>2021-11-28T09:30:33.000Z</time>
      </trkpt>
      <trkpt lat="47.30809" lon="-2.26008">
        <ele>2</ele>
        <time>2021-11-28T09:30:39.000Z</time>
      </trkpt>
      <trkpt lat="47.30811" lon="-2.26009">
        <ele>2</ele>
        <time>2021-11-28T09:30:40.000Z</time>
      </trkpt>
      <trkpt lat="47.30821" lon="-2.2602">
        <ele>2</ele>
        <time>2021-11-28T09:30:44.000Z</time>
      </trkpt>
      <trkpt lat="47.30832" lon="-2.26021">
        <ele>2</ele>
        <time>2021-11-28T09:30:47.000Z</time>
      </trkpt>
      <trkpt lat="47.30836" lon="-2.26022">
        <ele>2</ele>
        <time>2021-11-28T09:30:48.000Z</time>
      </trkpt>
      <trkpt lat="47.30854" lon="-2.26024">
        <ele>2</ele>
        <time>2021-11-28T09:30:52.000Z</time>
      </trkpt>
      <trkpt lat="47.30869" lon="-2.26024">
        <ele>1.6000000238419</ele>
        <time>2021-11-28T09:30:56.000Z</time>
      </trkpt>
      <trkpt lat="47.30874" lon="-2.26023">
        <ele>1.2000000476837</ele>
        <time>2021-11-28T09:30:57.000Z</time>
      </trkpt>
      <trkpt lat="47.30878" lon="-2.26023">
        <ele>0.80000001192093</ele>
        <time>2021-11-28T09:30:58.000Z</time>
      </trkpt>
      <trkpt lat="47.30884" lon="-2.26023">
        <ele>0.40000000596046</ele>
        <time>2021-11-28T09:30:59.000Z</time>
      </trkpt>
      <trkpt lat="47.30889" lon="-2.26022">
        <ele>10.4</ele>
        <time>2021-11-28T09:31:00.000Z</time>
      </trkpt>
      <trkpt lat="47.30913" lon="-2.26017">
        <ele>10.4</ele>
        <time>2021-11-28T09:31:04.000Z</time>
      </trkpt>
      <trkpt lat="47.30946" lon="-2.26013">
        <ele>9.5</ele>
        <time>2021-11-28T09:31:10.000Z</time>
      </trkpt>
      <trkpt lat="47.30975" lon="-2.26008">
        <ele>8.9</ele>
        <time>2021-11-28T09:31:15.000Z</time>
      </trkpt>
      <trkpt lat="47.30985" lon="-2.26009">
        <ele>-0.40000000596046</ele>
        <time>2021-11-28T09:31:17.000Z</time>
      </trkpt>
      <trkpt lat="47.3099" lon="-2.2601">
        <ele>-0.80000001192093</ele>
        <time>2021-11-28T09:31:18.000Z</time>
      </trkpt>
      <trkpt lat="47.30995" lon="-2.2601">
        <ele>-1.2000000476837</ele>
        <time>2021-11-28T09:31:19.000Z</time>
      </trkpt>
      <trkpt lat="47.31" lon="-2.2601">
        <ele>-1.6000000238419</ele>
        <time>2021-11-28T09:31:20.000Z</time>
      </trkpt>
      <trkpt lat="47.31006" lon="-2.26011">
        <ele>-2</ele>
        <time>2021-11-28T09:31:21.000Z</time>
      </trkpt>
      <trkpt lat="47.31018" lon="-2.26011">
        <ele>-2</ele>
        <time>2021-11-28T09:31:23.000Z</time>
      </trkpt>
      <trkpt lat="47.31056" lon="-2.26013">
        <ele>-2</ele>
        <time>2021-11-28T09:31:29.000Z</time>
      </trkpt>
      <trkpt lat="47.31062" lon="-2.26013">
        <ele>-2</ele>
        <time>2021-11-28T09:31:30.000Z</time>
      </trkpt>
      <trkpt lat="47.31079" lon="-2.26006">
        <ele>-2</ele>
        <time>2021-11-28T09:31:33.000Z</time>
      </trkpt>
      <trkpt lat="47.31084" lon="-2.26004">
        <ele>-2</ele>
        <time>2021-11-28T09:31:34.000Z</time>
      </trkpt>
      <trkpt lat="47.31096" lon="-2.26005">
        <ele>-2</ele>
        <time>2021-11-28T09:31:36.000Z</time>
      </trkpt>
      <trkpt lat="47.31113" lon="-2.26013">
        <ele>-2</ele>
        <time>2021-11-28T09:31:39.000Z</time>
      </trkpt>
      <trkpt lat="47.31125" lon="-2.2602">
        <ele>-2.5999999046326</ele>
        <time>2021-11-28T09:31:41.000Z</time>
      </trkpt>
      <trkpt lat="47.31131" lon="-2.26023">
        <ele>-3</ele>
        <time>2021-11-28T09:31:42.000Z</time>
      </trkpt>
      <trkpt lat="47.31137" lon="-2.26027">
        <ele>-3.4000000953674</ele>
        <time>2021-11-28T09:31:43.000Z</time>
      </trkpt>
      <trkpt lat="47.31142" lon="-2.26031">
        <ele>-3.7999999523163</ele>
        <time>2021-11-28T09:31:44.000Z</time>
      </trkpt>
      <trkpt lat="47.31148" lon="-2.26036">
        <ele>-4.1999998092651</ele>
        <time>2021-11-28T09:31:45.000Z</time>
      </trkpt>
      <trkpt lat="47.31159" lon="-2.26044">
        <ele>-4.1999998092651</ele>
        <time>2021-11-28T09:31:47.000Z</time>
      </trkpt>
      <trkpt lat="47.3117" lon="-2.26052">
        <ele>-4.1999998092651</ele>
        <time>2021-11-28T09:31:49.000Z</time>
      </trkpt>
      <trkpt lat="47.31181" lon="-2.26059">
        <ele>-4.5999999046326</ele>
        <time>2021-11-28T09:31:51.000Z</time>
      </trkpt>
      <trkpt lat="47.31186" lon="-2.2606">
        <ele>-5.4000000953674</ele>
        <time>2021-11-28T09:31:52.000Z</time>
      </trkpt>
      <trkpt lat="47.31192" lon="-2.2606">
        <ele>-5.8000001907349</ele>
        <time>2021-11-28T09:31:53.000Z</time>
      </trkpt>
      <trkpt lat="47.31197" lon="-2.26058">
        <ele>-6.1999998092651</ele>
        <time>2021-11-28T09:31:54.000Z</time>
      </trkpt>
      <trkpt lat="47.31206" lon="-2.26054">
        <ele>-6.1999998092651</ele>
        <time>2021-11-28T09:31:56.000Z</time>
      </trkpt>
      <trkpt lat="47.31234" lon="-2.26037">
        <ele>-6.1999998092651</ele>
        <time>2021-11-28T09:32:03.000Z</time>
      </trkpt>
      <trkpt lat="47.31242" lon="-2.2603">
        <ele>-6.1999998092651</ele>
        <time>2021-11-28T09:32:05.000Z</time>
      </trkpt>
      <trkpt lat="47.31258" lon="-2.26017">
        <ele>-6.1999998092651</ele>
        <time>2021-11-28T09:32:09.000Z</time>
      </trkpt>
      <trkpt lat="47.31283" lon="-2.25992">
        <ele>-6.1999998092651</ele>
        <time>2021-11-28T09:32:16.000Z</time>
      </trkpt>
      <trkpt lat="47.31287" lon="-2.2599">
        <ele>-5.8000001907349</ele>
        <time>2021-11-28T09:32:17.000Z</time>
      </trkpt>
      <trkpt lat="47.31291" lon="-2.25988">
        <ele>-5.4000000953674</ele>
        <time>2021-11-28T09:32:18.000Z</time>
      </trkpt>
      <trkpt lat="47.31295" lon="-2.25988">
        <ele>-5</ele>
        <time>2021-11-28T09:32:19.000Z</time>
      </trkpt>
      <trkpt lat="47.31299" lon="-2.25987">
        <ele>-4.5999999046326</ele>
        <time>2021-11-28T09:32:20.000Z</time>
      </trkpt>
      <trkpt lat="47.31303" lon="-2.25989">
        <ele>-4.1999998092651</ele>
        <time>2021-11-28T09:32:21.000Z</time>
      </trkpt>
      <trkpt lat="47.31315" lon="-2.26005">
        <ele>-4.1999998092651</ele>
        <time>2021-11-28T09:32:25.000Z</time>
      </trkpt>
      <trkpt lat="47.3132" lon="-2.26022">
        <ele>-4.1999998092651</ele>
        <time>2021-11-28T09:32:28.000Z</time>
      </trkpt>
      <trkpt lat="47.31325" lon="-2.26035">
        <ele>-4.1999998092651</ele>
        <time>2021-11-28T09:32:30.000Z</time>
      </trkpt>
      <trkpt lat="47.3133" lon="-2.26049">
        <ele>-4.1999998092651</ele>
        <time>2021-11-28T09:32:32.000Z</time>
      </trkpt>
      <trkpt lat="47.31345" lon="-2.26084">
        <ele>-4.1999998092651</ele>
        <time>2021-11-28T09:32:37.000Z</time>
      </trkpt>
      <trkpt lat="47.31354" lon="-2.26104">
        <ele>-4.5999999046326</ele>
        <time>2021-11-28T09:32:40.000Z</time>
      </trkpt>
      <trkpt lat="47.31357" lon="-2.26111">
        <ele>-5</ele>
        <time>2021-11-28T09:32:41.000Z</time>
      </trkpt>
      <trkpt lat="47.3136" lon="-2.26119">
        <ele>-5.4000000953674</ele>
        <time>2021-11-28T09:32:42.000Z</time>
      </trkpt>
      <trkpt lat="47.31363" lon="-2.26126">
        <ele>-5.8000001907349</ele>
        <time>2021-11-28T09:32:43.000Z</time>
      </trkpt>
      <trkpt lat="47.31366" lon="-2.26135">
        <ele>-6.1999998092651</ele>
        <time>2021-11-28T09:32:44.000Z</time>
      </trkpt>
      <trkpt lat="47.31368" lon="-2.26142">
        <ele>-6.1999998092651</ele>
        <time>2021-11-28T09:32:45.000Z</time>
      </trkpt>
      <trkpt lat="47.31377" lon="-2.26148">
        <ele>-6.1999998092651</ele>
        <time>2021-11-28T09:32:47.000Z</time>
      </trkpt>
      <trkpt lat="47.31395" lon="-2.26137">
        <ele>-6.1999998092651</ele>
        <time>2021-11-28T09:32:51.000Z</time>
      </trkpt>
      <trkpt lat="47.31407" lon="-2.26125">
        <ele>-6.1999998092651</ele>
        <time>2021-11-28T09:32:54.000Z</time>
      </trkpt>
      <trkpt lat="47.31414" lon="-2.26114">
        <ele>-6.1999998092651</ele>
        <time>2021-11-28T09:32:56.000Z</time>
      </trkpt>
      <trkpt lat="47.31418" lon="-2.26108">
        <ele>-6.1999998092651</ele>
        <time>2021-11-28T09:32:57.000Z</time>
      </trkpt>
      <trkpt lat="47.3143" lon="-2.26079">
        <ele>-6.1999998092651</ele>
        <time>2021-11-28T09:33:01.000Z</time>
      </trkpt>
      <trkpt lat="47.31448" lon="-2.26046">
        <ele>-6.1999998092651</ele>
        <time>2021-11-28T09:33:06.000Z</time>
      </trkpt>
      <trkpt lat="47.31479" lon="-2.25999">
        <ele>-6.1999998092651</ele>
        <time>2021-11-28T09:33:14.000Z</time>
      </trkpt>
      <trkpt lat="47.31486" lon="-2.25988">
        <ele>-6.1999998092651</ele>
        <time>2021-11-28T09:33:17.000Z</time>
      </trkpt>
      <trkpt lat="47.31488" lon="-2.25988">
        <ele>-6.1999998092651</ele>
        <time>2021-11-28T09:33:18.000Z</time>
      </trkpt>
      <trkpt lat="47.31489" lon="-2.25989">
        <ele>-6.5999999046326</ele>
        <time>2021-11-28T09:33:19.000Z</time>
      </trkpt>
      <trkpt lat="47.3149" lon="-2.2599">
        <ele>-7</ele>
        <time>2021-11-28T09:33:20.000Z</time>
      </trkpt>
      <trkpt lat="47.31491" lon="-2.25992">
        <ele>-7.4000000953674</ele>
        <time>2021-11-28T09:33:21.000Z</time>
      </trkpt>
      <trkpt lat="47.31492" lon="-2.25993">
        <ele>-7.8000001907349</ele>
        <time>2021-11-28T09:33:22.000Z</time>
      </trkpt>
      <trkpt lat="47.31493" lon="-2.25995">
        <ele>-8.1999998092651</ele>
        <time>2021-11-28T09:33:23.000Z</time>
      </trkpt>
      <trkpt lat="47.31492" lon="-2.25996">
        <ele>-8.1999998092651</ele>
        <time>2021-11-28T09:33:24.000Z</time>
      </trkpt>
      <trkpt lat="47.31492" lon="-2.25997">
        <ele>-8.1999998092651</ele>
        <time>2021-11-28T09:33:25.000Z</time>
      </trkpt>
      <trkpt lat="47.31489" lon="-2.25994">
        <ele>-8.1999998092651</ele>
        <time>2021-11-28T09:33:28.000Z</time>
      </trkpt>
      <trkpt lat="47.3149" lon="-2.25982">
        <ele>-8.1999998092651</ele>
        <time>2021-11-28T09:33:31.000Z</time>
      </trkpt>
      <trkpt lat="47.31495" lon="-2.2597">
        <ele>-8.1999998092651</ele>
        <time>2021-11-28T09:33:34.000Z</time>
      </trkpt>
      <trkpt lat="47.31501" lon="-2.25959">
        <ele>-8.1999998092651</ele>
        <time>2021-11-28T09:33:37.000Z</time>
      </trkpt>
      <trkpt lat="47.31519" lon="-2.25931">
        <ele>-8.1999998092651</ele>
        <time>2021-11-28T09:33:45.000Z</time>
      </trkpt>
      <trkpt lat="47.31527" lon="-2.2592">
        <ele>-8.1999998092651</ele>
        <time>2021-11-28T09:33:50.000Z</time>
      </trkpt>
      <trkpt lat="47.31532" lon="-2.25912">
        <ele>-8.1999998092651</ele>
        <time>2021-11-28T09:33:55.000Z</time>
      </trkpt>
      <trkpt lat="47.31534" lon="-2.25912">
        <ele>-8.1999998092651</ele>
        <time>2021-11-28T09:33:57.000Z</time>
      </trkpt>
      <trkpt lat="47.31532" lon="-2.25911">
        <ele>-8.1999998092651</ele>
        <time>2021-11-28T09:43:24.000Z</time>
      </trkpt>
      <trkpt lat="47.31534" lon="-2.25907">
        <ele>-8.1999998092651</ele>
        <time>2021-11-28T09:43:27.000Z</time>
      </trkpt>
      <trkpt lat="47.31536" lon="-2.25901">
        <ele>-8.1999998092651</ele>
        <time>2021-11-28T09:43:33.000Z</time>
      </trkpt>
      <trkpt lat="47.31539" lon="-2.25896">
        <ele>-8.1999998092651</ele>
        <time>2021-11-28T09:43:39.000Z</time>
      </trkpt>
      <trkpt lat="47.31547" lon="-2.25878">
        <ele>-8.1999998092651</ele>
        <time>2021-11-28T09:43:44.000Z</time>
      </trkpt>
      <trkpt lat="47.3155" lon="-2.25845">
        <ele>-8.1999998092651</ele>
        <time>2021-11-28T09:43:50.000Z</time>
      </trkpt>
      <trkpt lat="47.31547" lon="-2.25803">
        <ele>-8.1999998092651</ele>
        <time>2021-11-28T09:43:57.000Z</time>
      </trkpt>
      <trkpt lat="47.31544" lon="-2.25751">
        <ele>-8.1999998092651</ele>
        <time>2021-11-28T09:44:05.000Z</time>
      </trkpt>
      <trkpt lat="47.31542" lon="-2.25738">
        <ele>-8.1999998092651</ele>
        <time>2021-11-28T09:44:07.000Z</time>
      </trkpt>
      <trkpt lat="47.31537" lon="-2.25713">
        <ele>-8.1999998092651</ele>
        <time>2021-11-28T09:44:11.000Z</time>
      </trkpt>
      <trkpt lat="47.31524" lon="-2.25666">
        <ele>-8.1999998092651</ele>
        <time>2021-11-28T09:44:18.000Z</time>
      </trkpt>
      <trkpt lat="47.31512" lon="-2.2562">
        <ele>-8.1999998092651</ele>
        <time>2021-11-28T09:44:24.000Z</time>
      </trkpt>
      <trkpt lat="47.31505" lon="-2.25598">
        <ele>-8.1999998092651</ele>
        <time>2021-11-28T09:44:27.000Z</time>
      </trkpt>
      <trkpt lat="47.31499" lon="-2.25585">
        <ele>-8.1999998092651</ele>
        <time>2021-11-28T09:44:29.000Z</time>
      </trkpt>
      <trkpt lat="47.31495" lon="-2.2558">
        <ele>-8.1999998092651</ele>
        <time>2021-11-28T09:44:30.000Z</time>
      </trkpt>
      <trkpt lat="47.31481" lon="-2.25564">
        <ele>-8.1999998092651</ele>
        <time>2021-11-28T09:44:33.000Z</time>
      </trkpt>
      <trkpt lat="47.31466" lon="-2.25551">
        <ele>-8.1999998092651</ele>
        <time>2021-11-28T09:44:36.000Z</time>
      </trkpt>
      <trkpt lat="47.31438" lon="-2.25518">
        <ele>-8.1999998092651</ele>
        <time>2021-11-28T09:44:42.000Z</time>
      </trkpt>
      <trkpt lat="47.31435" lon="-2.25512">
        <ele>-8.1999998092651</ele>
        <time>2021-11-28T09:44:43.000Z</time>
      </trkpt>
      <trkpt lat="47.31415" lon="-2.25472">
        <ele>-8.1999998092651</ele>
        <time>2021-11-28T09:44:49.000Z</time>
      </trkpt>
      <trkpt lat="47.31394" lon="-2.25428">
        <ele>-8.1999998092651</ele>
        <time>2021-11-28T09:44:56.000Z</time>
      </trkpt>
      <trkpt lat="47.3139" lon="-2.25423">
        <ele>-8.1999998092651</ele>
        <time>2021-11-28T09:44:57.000Z</time>
      </trkpt>
      <trkpt lat="47.31373" lon="-2.25403">
        <ele>-8.1999998092651</ele>
        <time>2021-11-28T09:45:01.000Z</time>
      </trkpt>
      <trkpt lat="47.31361" lon="-2.25387">
        <ele>-8.1999998092651</ele>
        <time>2021-11-28T09:45:04.000Z</time>
      </trkpt>
      <trkpt lat="47.31354" lon="-2.25372">
        <ele>-8.1999998092651</ele>
        <time>2021-11-28T09:45:06.000Z</time>
      </trkpt>
      <trkpt lat="47.31349" lon="-2.25339">
        <ele>-8.1999998092651</ele>
        <time>2021-11-28T09:45:10.000Z</time>
      </trkpt>
      <trkpt lat="47.31348" lon="-2.25321">
        <ele>-8.1999998092651</ele>
        <time>2021-11-28T09:45:12.000Z</time>
      </trkpt>
      <trkpt lat="47.31345" lon="-2.25294">
        <ele>-8.1999998092651</ele>
        <time>2021-11-28T09:45:15.000Z</time>
      </trkpt>
      <trkpt lat="47.3134" lon="-2.25276">
        <ele>-8.1999998092651</ele>
        <time>2021-11-28T09:45:17.000Z</time>
      </trkpt>
      <trkpt lat="47.31329" lon="-2.25254">
        <ele>-8.1999998092651</ele>
        <time>2021-11-28T09:45:21.000Z</time>
      </trkpt>
      <trkpt lat="47.31319" lon="-2.25242">
        <ele>-8.1999998092651</ele>
        <time>2021-11-28T09:45:23.000Z</time>
      </trkpt>
      <trkpt lat="47.31305" lon="-2.25226">
        <ele>-8.1999998092651</ele>
        <time>2021-11-28T09:45:26.000Z</time>
      </trkpt>
      <trkpt lat="47.3127" lon="-2.25175">
        <ele>-8.1999998092651</ele>
        <time>2021-11-28T09:45:34.000Z</time>
      </trkpt>
      <trkpt lat="47.31236" lon="-2.25114">
        <ele>-8.1999998092651</ele>
        <time>2021-11-28T09:45:43.000Z</time>
      </trkpt>
      <trkpt lat="47.3123" lon="-2.251">
        <ele>-8.1999998092651</ele>
        <time>2021-11-28T09:45:45.000Z</time>
      </trkpt>
      <trkpt lat="47.31222" lon="-2.25078">
        <ele>-8.1999998092651</ele>
        <time>2021-11-28T09:45:48.000Z</time>
      </trkpt>
      <trkpt lat="47.31202" lon="-2.25021">
        <ele>-8.1999998092651</ele>
        <time>2021-11-28T09:45:56.000Z</time>
      </trkpt>
      <trkpt lat="47.31195" lon="-2.25004">
        <ele>-8.1999998092651</ele>
        <time>2021-11-28T09:45:59.000Z</time>
      </trkpt>
      <trkpt lat="47.31187" lon="-2.24994">
        <ele>-8.1999998092651</ele>
        <time>2021-11-28T09:46:01.000Z</time>
      </trkpt>
      <trkpt lat="47.31173" lon="-2.24991">
        <ele>-8.1999998092651</ele>
        <time>2021-11-28T09:46:04.000Z</time>
      </trkpt>
      <trkpt lat="47.31161" lon="-2.25001">
        <ele>-8.1999998092651</ele>
        <time>2021-11-28T09:46:07.000Z</time>
      </trkpt>
      <trkpt lat="47.31157" lon="-2.25006">
        <ele>-8.1999998092651</ele>
        <time>2021-11-28T09:46:08.000Z</time>
      </trkpt>
      <trkpt lat="47.31141" lon="-2.25026">
        <ele>-8.1999998092651</ele>
        <time>2021-11-28T09:46:12.000Z</time>
      </trkpt>
      <trkpt lat="47.31137" lon="-2.2503">
        <ele>-8.1999998092651</ele>
        <time>2021-11-28T09:46:13.000Z</time>
      </trkpt>
      <trkpt lat="47.3111" lon="-2.2505">
        <ele>-7.8000001907349</ele>
        <time>2021-11-28T09:46:19.000Z</time>
      </trkpt>
      <trkpt lat="47.31106" lon="-2.25053">
        <ele>-7.4000000953674</ele>
        <time>2021-11-28T09:46:20.000Z</time>
      </trkpt>
      <trkpt lat="47.31102" lon="-2.25055">
        <ele>-7</ele>
        <time>2021-11-28T09:46:21.000Z</time>
      </trkpt>
      <trkpt lat="47.31097" lon="-2.25058">
        <ele>-6.4000000953674</ele>
        <time>2021-11-28T09:46:22.000Z</time>
      </trkpt>
      <trkpt lat="47.31093" lon="-2.2506">
        <ele>-6</ele>
        <time>2021-11-28T09:46:23.000Z</time>
      </trkpt>
      <trkpt lat="47.3108" lon="-2.25066">
        <ele>-6</ele>
        <time>2021-11-28T09:46:26.000Z</time>
      </trkpt>
      <trkpt lat="47.31075" lon="-2.25069">
        <ele>-6</ele>
        <time>2021-11-28T09:46:27.000Z</time>
      </trkpt>
      <trkpt lat="47.31071" lon="-2.25073">
        <ele>-6</ele>
        <time>2021-11-28T09:46:28.000Z</time>
      </trkpt>
      <trkpt lat="47.31062" lon="-2.25082">
        <ele>-6</ele>
        <time>2021-11-28T09:46:30.000Z</time>
      </trkpt>
      <trkpt lat="47.31054" lon="-2.25094">
        <ele>-6</ele>
        <time>2021-11-28T09:46:32.000Z</time>
      </trkpt>
      <trkpt lat="47.31046" lon="-2.25108">
        <ele>-6</ele>
        <time>2021-11-28T09:46:34.000Z</time>
      </trkpt>
      <trkpt lat="47.31034" lon="-2.25131">
        <ele>-6</ele>
        <time>2021-11-28T09:46:37.000Z</time>
      </trkpt>
      <trkpt lat="47.3101" lon="-2.25172">
        <ele>-6</ele>
        <time>2021-11-28T09:46:43.000Z</time>
      </trkpt>
      <trkpt lat="47.31004" lon="-2.25188">
        <ele>-6</ele>
        <time>2021-11-28T09:46:45.000Z</time>
      </trkpt>
      <trkpt lat="47.31" lon="-2.25203">
        <ele>-6</ele>
        <time>2021-11-28T09:46:47.000Z</time>
      </trkpt>
      <trkpt lat="47.30993" lon="-2.25234">
        <ele>-6</ele>
        <time>2021-11-28T09:46:52.000Z</time>
      </trkpt>
      <trkpt lat="47.30992" lon="-2.2524">
        <ele>-5.5999999046326</ele>
        <time>2021-11-28T09:46:53.000Z</time>
      </trkpt>
      <trkpt lat="47.3099" lon="-2.25245">
        <ele>-5.1999998092651</ele>
        <time>2021-11-28T09:46:54.000Z</time>
      </trkpt>
      <trkpt lat="47.30989" lon="-2.25251">
        <ele>-4.8000001907349</ele>
        <time>2021-11-28T09:46:55.000Z</time>
      </trkpt>
      <trkpt lat="47.30988" lon="-2.25258">
        <ele>-4.4000000953674</ele>
        <time>2021-11-28T09:46:56.000Z</time>
      </trkpt>
      <trkpt lat="47.30986" lon="-2.25264">
        <ele>-4</ele>
        <time>2021-11-28T09:46:57.000Z</time>
      </trkpt>
      <trkpt lat="47.30983" lon="-2.25269">
        <ele>-4</ele>
        <time>2021-11-28T09:46:58.000Z</time>
      </trkpt>
      <trkpt lat="47.30975" lon="-2.25285">
        <ele>-4</ele>
        <time>2021-11-28T09:47:01.000Z</time>
      </trkpt>
      <trkpt lat="47.30969" lon="-2.25295">
        <ele>-4</ele>
        <time>2021-11-28T09:47:03.000Z</time>
      </trkpt>
      <trkpt lat="47.30961" lon="-2.25317">
        <ele>-4</ele>
        <time>2021-11-28T09:47:07.000Z</time>
      </trkpt>
      <trkpt lat="47.3096" lon="-2.25324">
        <ele>-4</ele>
        <time>2021-11-28T09:47:08.000Z</time>
      </trkpt>
      <trkpt lat="47.30953" lon="-2.25357">
        <ele>-3.5999999046326</ele>
        <time>2021-11-28T09:47:14.000Z</time>
      </trkpt>
      <trkpt lat="47.30951" lon="-2.25363">
        <ele>-3.2000000476837</ele>
        <time>2021-11-28T09:47:15.000Z</time>
      </trkpt>
      <trkpt lat="47.3095" lon="-2.25368">
        <ele>-2.5999999046326</ele>
        <time>2021-11-28T09:47:16.000Z</time>
      </trkpt>
      <trkpt lat="47.30948" lon="-2.25374">
        <ele>-2.2000000476837</ele>
        <time>2021-11-28T09:47:17.000Z</time>
      </trkpt>
      <trkpt lat="47.30946" lon="-2.25379">
        <ele>-1.7999999523163</ele>
        <time>2021-11-28T09:47:18.000Z</time>
      </trkpt>
      <trkpt lat="47.30943" lon="-2.25389">
        <ele>-1.7999999523163</ele>
        <time>2021-11-28T09:47:20.000Z</time>
      </trkpt>
      <trkpt lat="47.3094" lon="-2.25393">
        <ele>-1.7999999523163</ele>
        <time>2021-11-28T09:47:21.000Z</time>
      </trkpt>
      <trkpt lat="47.30931" lon="-2.25399">
        <ele>-1.7999999523163</ele>
        <time>2021-11-28T09:47:23.000Z</time>
      </trkpt>
      <trkpt lat="47.30923" lon="-2.254">
        <ele>-1.7999999523163</ele>
        <time>2021-11-28T09:47:25.000Z</time>
      </trkpt>
      <trkpt lat="47.30919" lon="-2.25401">
        <ele>-1.7999999523163</ele>
        <time>2021-11-28T09:47:26.000Z</time>
      </trkpt>
      <trkpt lat="47.30915" lon="-2.25401">
        <ele>-1.7999999523163</ele>
        <time>2021-11-28T09:47:27.000Z</time>
      </trkpt>
      <trkpt lat="47.3088" lon="-2.25403">
        <ele>-1.7999999523163</ele>
        <time>2021-11-28T09:47:34.000Z</time>
      </trkpt>
      <trkpt lat="47.30861" lon="-2.25406">
        <ele>-1.7999999523163</ele>
        <time>2021-11-28T09:47:38.000Z</time>
      </trkpt>
      <trkpt lat="47.30852" lon="-2.25409">
        <ele>-1.7999999523163</ele>
        <time>2021-11-28T09:47:40.000Z</time>
      </trkpt>
      <trkpt lat="47.30817" lon="-2.25419">
        <ele>-1.7999999523163</ele>
        <time>2021-11-28T09:47:47.000Z</time>
      </trkpt>
      <trkpt lat="47.30781" lon="-2.25428">
        <ele>-1.7999999523163</ele>
        <time>2021-11-28T09:47:53.000Z</time>
      </trkpt>
      <trkpt lat="47.30763" lon="-2.25431">
        <ele>-2.4000000953674</ele>
        <time>2021-11-28T09:47:56.000Z</time>
      </trkpt>
      <trkpt lat="47.30757" lon="-2.25433">
        <ele>-2.7999999523163</ele>
        <time>2021-11-28T09:47:57.000Z</time>
      </trkpt>
      <trkpt lat="47.30751" lon="-2.25434">
        <ele>-3.2000000476837</ele>
        <time>2021-11-28T09:47:58.000Z</time>
      </trkpt>
      <trkpt lat="47.30745" lon="-2.25436">
        <ele>-3.5999999046326</ele>
        <time>2021-11-28T09:47:59.000Z</time>
      </trkpt>
      <trkpt lat="47.30739" lon="-2.25437">
        <ele>-4.1999998092651</ele>
        <time>2021-11-28T09:48:00.000Z</time>
      </trkpt>
      <trkpt lat="47.30727" lon="-2.25437">
        <ele>-4.1999998092651</ele>
        <time>2021-11-28T09:48:02.000Z</time>
      </trkpt>
      <trkpt lat="47.30715" lon="-2.25436">
        <ele>-4.1999998092651</ele>
        <time>2021-11-28T09:48:04.000Z</time>
      </trkpt>
      <trkpt lat="47.30691" lon="-2.25435">
        <ele>-4.5999999046326</ele>
        <time>2021-11-28T09:48:08.000Z</time>
      </trkpt>
      <trkpt lat="47.30685" lon="-2.25434">
        <ele>-5</ele>
        <time>2021-11-28T09:48:09.000Z</time>
      </trkpt>
      <trkpt lat="47.3068" lon="-2.2543">
        <ele>-5.4000000953674</ele>
        <time>2021-11-28T09:48:10.000Z</time>
      </trkpt>
      <trkpt lat="47.30676" lon="-2.25426">
        <ele>-5.8000001907349</ele>
        <time>2021-11-28T09:48:11.000Z</time>
      </trkpt>
      <trkpt lat="47.30672" lon="-2.25421">
        <ele>-6.1999998092651</ele>
        <time>2021-11-28T09:48:12.000Z</time>
      </trkpt>
      <trkpt lat="47.30665" lon="-2.2541">
        <ele>-6.1999998092651</ele>
        <time>2021-11-28T09:48:14.000Z</time>
      </trkpt>
      <trkpt lat="47.30662" lon="-2.25397">
        <ele>-6.1999998092651</ele>
        <time>2021-11-28T09:48:16.000Z</time>
      </trkpt>
      <trkpt lat="47.30662" lon="-2.25381">
        <ele>-6.1999998092651</ele>
        <time>2021-11-28T09:48:18.000Z</time>
      </trkpt>
      <trkpt lat="47.30662" lon="-2.25364">
        <ele>-6.1999998092651</ele>
        <time>2021-11-28T09:48:20.000Z</time>
      </trkpt>
      <trkpt lat="47.30655" lon="-2.25312">
        <ele>-6.1999998092651</ele>
        <time>2021-11-28T09:48:26.000Z</time>
      </trkpt>
      <trkpt lat="47.30644" lon="-2.25257">
        <ele>-6.1999998092651</ele>
        <time>2021-11-28T09:48:32.000Z</time>
      </trkpt>
      <trkpt lat="47.30626" lon="-2.25203">
        <ele>-6.1999998092651</ele>
        <time>2021-11-28T09:48:38.000Z</time>
      </trkpt>
      <trkpt lat="47.30601" lon="-2.25147">
        <ele>-6.1999998092651</ele>
        <time>2021-11-28T09:48:45.000Z</time>
      </trkpt>
      <trkpt lat="47.30586" lon="-2.25096">
        <ele>-6.1999998092651</ele>
        <time>2021-11-28T09:48:51.000Z</time>
      </trkpt>
      <trkpt lat="47.30577" lon="-2.25041">
        <ele>-6.1999998092651</ele>
        <time>2021-11-28T09:48:57.000Z</time>
      </trkpt>
      <trkpt lat="47.30572" lon="-2.24985">
        <ele>-6.1999998092651</ele>
        <time>2021-11-28T09:49:03.000Z</time>
      </trkpt>
      <trkpt lat="47.30571" lon="-2.24928">
        <ele>-6.1999998092651</ele>
        <time>2021-11-28T09:49:09.000Z</time>
      </trkpt>
      <trkpt lat="47.30573" lon="-2.2491">
        <ele>-6.1999998092651</ele>
        <time>2021-11-28T09:49:11.000Z</time>
      </trkpt>
      <trkpt lat="47.30579" lon="-2.24883">
        <ele>-6.1999998092651</ele>
        <time>2021-11-28T09:49:14.000Z</time>
      </trkpt>
      <trkpt lat="47.30597" lon="-2.24835">
        <ele>-6.1999998092651</ele>
        <time>2021-11-28T09:49:20.000Z</time>
      </trkpt>
      <trkpt lat="47.30625" lon="-2.2479">
        <ele>-6.1999998092651</ele>
        <time>2021-11-28T09:49:27.000Z</time>
      </trkpt>
      <trkpt lat="47.3063" lon="-2.24784">
        <ele>-6.1999998092651</ele>
        <time>2021-11-28T09:49:28.000Z</time>
      </trkpt>
      <trkpt lat="47.30646" lon="-2.24761">
        <ele>-6.1999998092651</ele>
        <time>2021-11-28T09:49:32.000Z</time>
      </trkpt>
      <trkpt lat="47.30648" lon="-2.24749">
        <ele>-6.1999998092651</ele>
        <time>2021-11-28T09:49:34.000Z</time>
      </trkpt>
      <trkpt lat="47.30648" lon="-2.24738">
        <ele>-6.1999998092651</ele>
        <time>2021-11-28T09:49:36.000Z</time>
      </trkpt>
      <trkpt lat="47.30646" lon="-2.2473">
        <ele>-6.1999998092651</ele>
        <time>2021-11-28T09:49:38.000Z</time>
      </trkpt>
      <trkpt lat="47.30635" lon="-2.247">
        <ele>-6.1999998092651</ele>
        <time>2021-11-28T09:49:43.000Z</time>
      </trkpt>
      <trkpt lat="47.30622" lon="-2.24656">
        <ele>-6.1999998092651</ele>
        <time>2021-11-28T09:49:49.000Z</time>
      </trkpt>
      <trkpt lat="47.3061" lon="-2.24612">
        <ele>-6.1999998092651</ele>
        <time>2021-11-28T09:49:55.000Z</time>
      </trkpt>
      <trkpt lat="47.30613" lon="-2.2458">
        <ele>-6.1999998092651</ele>
        <time>2021-11-28T09:49:59.000Z</time>
      </trkpt>
      <trkpt lat="47.30621" lon="-2.24524">
        <ele>-5.8000001907349</ele>
        <time>2021-11-28T09:50:07.000Z</time>
      </trkpt>
      <trkpt lat="47.30622" lon="-2.24517">
        <ele>-5.1999998092651</ele>
        <time>2021-11-28T09:50:08.000Z</time>
      </trkpt>
      <trkpt lat="47.30624" lon="-2.24509">
        <ele>-4.8000001907349</ele>
        <time>2021-11-28T09:50:09.000Z</time>
      </trkpt>
      <trkpt lat="47.30625" lon="-2.24501">
        <ele>-4.4000000953674</ele>
        <time>2021-11-28T09:50:10.000Z</time>
      </trkpt>
      <trkpt lat="47.30626" lon="-2.24492">
        <ele>-4</ele>
        <time>2021-11-28T09:50:11.000Z</time>
      </trkpt>
      <trkpt lat="47.30628" lon="-2.24475">
        <ele>-3.5999999046326</ele>
        <time>2021-11-28T09:50:13.000Z</time>
      </trkpt>
      <trkpt lat="47.30629" lon="-2.24467">
        <ele>-3.2000000476837</ele>
        <time>2021-11-28T09:50:14.000Z</time>
      </trkpt>
      <trkpt lat="47.3063" lon="-2.24458">
        <ele>-2.5999999046326</ele>
        <time>2021-11-28T09:50:15.000Z</time>
      </trkpt>
      <trkpt lat="47.30631" lon="-2.2445">
        <ele>-2.2000000476837</ele>
        <time>2021-11-28T09:50:16.000Z</time>
      </trkpt>
      <trkpt lat="47.30632" lon="-2.24442">
        <ele>-1.7999999523163</ele>
        <time>2021-11-28T09:50:17.000Z</time>
      </trkpt>
      <trkpt lat="47.30633" lon="-2.24434">
        <ele>-1.3999999761581</ele>
        <time>2021-11-28T09:50:18.000Z</time>
      </trkpt>
      <trkpt lat="47.30633" lon="-2.24428">
        <ele>-0.80000001192093</ele>
        <time>2021-11-28T09:50:19.000Z</time>
      </trkpt>
      <trkpt lat="47.30631" lon="-2.24422">
        <ele>-0.40000000596046</ele>
        <time>2021-11-28T09:50:20.000Z</time>
      </trkpt>
      <trkpt lat="47.30628" lon="-2.24418">
        <ele>12.3</ele>
        <time>2021-11-28T09:50:21.000Z</time>
      </trkpt>
      <trkpt lat="47.30624" lon="-2.24416">
        <ele>0.40000000596046</ele>
        <time>2021-11-28T09:50:22.000Z</time>
      </trkpt>
      <trkpt lat="47.3062" lon="-2.24414">
        <ele>1.2000000476837</ele>
        <time>2021-11-28T09:50:23.000Z</time>
      </trkpt>
      <trkpt lat="47.30615" lon="-2.24414">
        <ele>1.7999999523163</ele>
        <time>2021-11-28T09:50:24.000Z</time>
      </trkpt>
      <trkpt lat="47.3061" lon="-2.24413">
        <ele>2.2000000476837</ele>
        <time>2021-11-28T09:50:25.000Z</time>
      </trkpt>
      <trkpt lat="47.30606" lon="-2.24412">
        <ele>2.5999999046326</ele>
        <time>2021-11-28T09:50:26.000Z</time>
      </trkpt>
      <trkpt lat="47.30602" lon="-2.2441">
        <ele>2.5999999046326</ele>
        <time>2021-11-28T09:50:27.000Z</time>
      </trkpt>
      <trkpt lat="47.30586" lon="-2.24392">
        <ele>2.5999999046326</ele>
        <time>2021-11-28T09:50:32.000Z</time>
      </trkpt>
      <trkpt lat="47.30582" lon="-2.24389">
        <ele>2.5999999046326</ele>
        <time>2021-11-28T09:50:33.000Z</time>
      </trkpt>
      <trkpt lat="47.30571" lon="-2.24378">
        <ele>3</ele>
        <time>2021-11-28T09:50:36.000Z</time>
      </trkpt>
      <trkpt lat="47.30567" lon="-2.24375">
        <ele>3.4000000953674</ele>
        <time>2021-11-28T09:50:37.000Z</time>
      </trkpt>
      <trkpt lat="47.30563" lon="-2.24371">
        <ele>3.7999999523163</ele>
        <time>2021-11-28T09:50:38.000Z</time>
      </trkpt>
      <trkpt lat="47.3056" lon="-2.24367">
        <ele>4.1999998092651</ele>
        <time>2021-11-28T09:50:39.000Z</time>
      </trkpt>
      <trkpt lat="47.30556" lon="-2.24364">
        <ele>4.5999999046326</ele>
        <time>2021-11-28T09:50:40.000Z</time>
      </trkpt>
      <trkpt lat="47.30539" lon="-2.24346">
        <ele>4.5999999046326</ele>
        <time>2021-11-28T09:50:45.000Z</time>
      </trkpt>
      <trkpt lat="47.30525" lon="-2.24331">
        <ele>4.5999999046326</ele>
        <time>2021-11-28T09:50:49.000Z</time>
      </trkpt>
      <trkpt lat="47.30518" lon="-2.24323">
        <ele>4.5999999046326</ele>
        <time>2021-11-28T09:50:51.000Z</time>
      </trkpt>
      <trkpt lat="47.30515" lon="-2.2432">
        <ele>4.5999999046326</ele>
        <time>2021-11-28T09:50:52.000Z</time>
      </trkpt>
      <trkpt lat="47.3049" lon="-2.24297">
        <ele>4.5999999046326</ele>
        <time>2021-11-28T09:50:58.000Z</time>
      </trkpt>
      <trkpt lat="47.30461" lon="-2.24284">
        <ele>4.5999999046326</ele>
        <time>2021-11-28T09:51:04.000Z</time>
      </trkpt>
      <trkpt lat="47.30451" lon="-2.24281">
        <ele>4.5999999046326</ele>
        <time>2021-11-28T09:51:06.000Z</time>
      </trkpt>
      <trkpt lat="47.3043" lon="-2.24276">
        <ele>4.5999999046326</ele>
        <time>2021-11-28T09:51:10.000Z</time>
      </trkpt>
      <trkpt lat="47.30416" lon="-2.24269">
        <ele>4.5999999046326</ele>
        <time>2021-11-28T09:51:13.000Z</time>
      </trkpt>
      <trkpt lat="47.30407" lon="-2.24262">
        <ele>4.5999999046326</ele>
        <time>2021-11-28T09:51:15.000Z</time>
      </trkpt>
      <trkpt lat="47.30403" lon="-2.24258">
        <ele>4.5999999046326</ele>
        <time>2021-11-28T09:51:16.000Z</time>
      </trkpt>
      <trkpt lat="47.30386" lon="-2.2424">
        <ele>4.5999999046326</ele>
        <time>2021-11-28T09:51:20.000Z</time>
      </trkpt>
      <trkpt lat="47.30381" lon="-2.24236">
        <ele>4.5999999046326</ele>
        <time>2021-11-28T09:51:21.000Z</time>
      </trkpt>
      <trkpt lat="47.30377" lon="-2.24232">
        <ele>4.5999999046326</ele>
        <time>2021-11-28T09:51:22.000Z</time>
      </trkpt>
      <trkpt lat="47.30364" lon="-2.24219">
        <ele>4.5999999046326</ele>
        <time>2021-11-28T09:51:25.000Z</time>
      </trkpt>
      <trkpt lat="47.3036" lon="-2.24214">
        <ele>4.5999999046326</ele>
        <time>2021-11-28T09:51:26.000Z</time>
      </trkpt>
      <trkpt lat="47.30352" lon="-2.24204">
        <ele>4.5999999046326</ele>
        <time>2021-11-28T09:51:28.000Z</time>
      </trkpt>
      <trkpt lat="47.3035" lon="-2.24189">
        <ele>4.5999999046326</ele>
        <time>2021-11-28T09:51:30.000Z</time>
      </trkpt>
      <trkpt lat="47.30359" lon="-2.2417">
        <ele>4.5999999046326</ele>
        <time>2021-11-28T09:51:33.000Z</time>
      </trkpt>
      <trkpt lat="47.30365" lon="-2.2416">
        <ele>4.5999999046326</ele>
        <time>2021-11-28T09:51:35.000Z</time>
      </trkpt>
      <trkpt lat="47.3037" lon="-2.2415">
        <ele>5</ele>
        <time>2021-11-28T09:51:37.000Z</time>
      </trkpt>
      <trkpt lat="47.30373" lon="-2.24146">
        <ele>5.4000000953674</ele>
        <time>2021-11-28T09:51:38.000Z</time>
      </trkpt>
      <trkpt lat="47.30375" lon="-2.24141">
        <ele>5.8000001907349</ele>
        <time>2021-11-28T09:51:39.000Z</time>
      </trkpt>
      <trkpt lat="47.30378" lon="-2.24137">
        <ele>6.4000000953674</ele>
        <time>2021-11-28T09:51:40.000Z</time>
      </trkpt>
      <trkpt lat="47.30381" lon="-2.24133">
        <ele>6.8000001907349</ele>
        <time>2021-11-28T09:51:41.000Z</time>
      </trkpt>
      <trkpt lat="47.30392" lon="-2.24122">
        <ele>6.8000001907349</ele>
        <time>2021-11-28T09:51:45.000Z</time>
      </trkpt>
      <trkpt lat="47.30412" lon="-2.24096">
        <ele>6.8000001907349</ele>
        <time>2021-11-28T09:51:51.000Z</time>
      </trkpt>
      <trkpt lat="47.30421" lon="-2.24086">
        <ele>6.8000001907349</ele>
        <time>2021-11-28T09:51:53.000Z</time>
      </trkpt>
      <trkpt lat="47.30436" lon="-2.24069">
        <ele>6.8000001907349</ele>
        <time>2021-11-28T09:51:56.000Z</time>
      </trkpt>
      <trkpt lat="47.30441" lon="-2.24063">
        <ele>6.1999998092651</ele>
        <time>2021-11-28T09:51:57.000Z</time>
      </trkpt>
      <trkpt lat="47.30446" lon="-2.24057">
        <ele>5.8000001907349</ele>
        <time>2021-11-28T09:51:58.000Z</time>
      </trkpt>
      <trkpt lat="47.30451" lon="-2.24051">
        <ele>5.4000000953674</ele>
        <time>2021-11-28T09:51:59.000Z</time>
      </trkpt>
      <trkpt lat="47.30455" lon="-2.24046">
        <ele>5</ele>
        <time>2021-11-28T09:52:00.000Z</time>
      </trkpt>
      <trkpt lat="47.3046" lon="-2.24041">
        <ele>4.5999999046326</ele>
        <time>2021-11-28T09:52:01.000Z</time>
      </trkpt>
      <trkpt lat="47.30464" lon="-2.24038">
        <ele>4.5999999046326</ele>
        <time>2021-11-28T09:52:02.000Z</time>
      </trkpt>
      <trkpt lat="47.30474" lon="-2.24031">
        <ele>4.1999998092651</ele>
        <time>2021-11-28T09:52:04.000Z</time>
      </trkpt>
      <trkpt lat="47.30481" lon="-2.24026">
        <ele>3.7999999523163</ele>
        <time>2021-11-28T09:52:05.000Z</time>
      </trkpt>
      <trkpt lat="47.30487" lon="-2.24022">
        <ele>3.2000000476837</ele>
        <time>2021-11-28T09:52:06.000Z</time>
      </trkpt>
      <trkpt lat="47.30493" lon="-2.24018">
        <ele>2.7999999523163</ele>
        <time>2021-11-28T09:52:07.000Z</time>
      </trkpt>
      <trkpt lat="47.30498" lon="-2.24012">
        <ele>2.4000000953674</ele>
        <time>2021-11-28T09:52:08.000Z</time>
      </trkpt>
      <trkpt lat="47.30505" lon="-2.24002">
        <ele>1.7999999523163</ele>
        <time>2021-11-28T09:52:09.000Z</time>
      </trkpt>
      <trkpt lat="47.3051" lon="-2.23991">
        <ele>1.2000000476837</ele>
        <time>2021-11-28T09:52:10.000Z</time>
      </trkpt>
      <trkpt lat="47.30517" lon="-2.23982">
        <ele>0.80000001192093</ele>
        <time>2021-11-28T09:52:11.000Z</time>
      </trkpt>
      <trkpt lat="47.30524" lon="-2.23973">
        <ele>0.20000000298023</ele>
        <time>2021-11-28T09:52:12.000Z</time>
      </trkpt>
      <trkpt lat="47.30531" lon="-2.23963">
        <ele>-0.40000000596046</ele>
        <time>2021-11-28T09:52:13.000Z</time>
      </trkpt>
      <trkpt lat="47.30537" lon="-2.23956">
        <ele>-1</ele>
        <time>2021-11-28T09:52:14.000Z</time>
      </trkpt>
      <trkpt lat="47.30542" lon="-2.23948">
        <ele>-1.3999999761581</ele>
        <time>2021-11-28T09:52:15.000Z</time>
      </trkpt>
      <trkpt lat="47.30547" lon="-2.23941">
        <ele>-2.2000000476837</ele>
        <time>2021-11-28T09:52:16.000Z</time>
      </trkpt>
      <trkpt lat="47.3055" lon="-2.23934">
        <ele>-2.7999999523163</ele>
        <time>2021-11-28T09:52:17.000Z</time>
      </trkpt>
      <trkpt lat="47.3055" lon="-2.23927">
        <ele>-3.4000000953674</ele>
        <time>2021-11-28T09:52:18.000Z</time>
      </trkpt>
      <trkpt lat="47.30549" lon="-2.2392">
        <ele>-4</ele>
        <time>2021-11-28T09:52:19.000Z</time>
      </trkpt>
      <trkpt lat="47.30545" lon="-2.23915">
        <ele>-4.5999999046326</ele>
        <time>2021-11-28T09:52:20.000Z</time>
      </trkpt>
      <trkpt lat="47.30541" lon="-2.23911">
        <ele>-4.5999999046326</ele>
        <time>2021-11-28T09:52:21.000Z</time>
      </trkpt>
      <trkpt lat="47.30536" lon="-2.23906">
        <ele>-4.5999999046326</ele>
        <time>2021-11-28T09:52:22.000Z</time>
      </trkpt>
      <trkpt lat="47.30532" lon="-2.23901">
        <ele>-5</ele>
        <time>2021-11-28T09:52:23.000Z</time>
      </trkpt>
      <trkpt lat="47.30527" lon="-2.23895">
        <ele>-5.4000000953674</ele>
        <time>2021-11-28T09:52:24.000Z</time>
      </trkpt>
      <trkpt lat="47.30523" lon="-2.23889">
        <ele>-5.8000001907349</ele>
        <time>2021-11-28T09:52:25.000Z</time>
      </trkpt>
      <trkpt lat="47.30518" lon="-2.23883">
        <ele>-6.1999998092651</ele>
        <time>2021-11-28T09:52:26.000Z</time>
      </trkpt>
      <trkpt lat="47.30514" lon="-2.23877">
        <ele>-6.5999999046326</ele>
        <time>2021-11-28T09:52:27.000Z</time>
      </trkpt>
      <trkpt lat="47.30497" lon="-2.23853">
        <ele>-6.5999999046326</ele>
        <time>2021-11-28T09:52:31.000Z</time>
      </trkpt>
      <trkpt lat="47.30492" lon="-2.23849">
        <ele>-6.5999999046326</ele>
        <time>2021-11-28T09:52:32.000Z</time>
      </trkpt>
      <trkpt lat="47.3047" lon="-2.23842">
        <ele>-6.5999999046326</ele>
        <time>2021-11-28T09:52:36.000Z</time>
      </trkpt>
      <trkpt lat="47.30459" lon="-2.23843">
        <ele>-6.5999999046326</ele>
        <time>2021-11-28T09:52:38.000Z</time>
      </trkpt>
      <trkpt lat="47.30436" lon="-2.23846">
        <ele>-6.5999999046326</ele>
        <time>2021-11-28T09:52:42.000Z</time>
      </trkpt>
      <trkpt lat="47.30404" lon="-2.23852">
        <ele>-6.5999999046326</ele>
        <time>2021-11-28T09:52:48.000Z</time>
      </trkpt>
      <trkpt lat="47.30393" lon="-2.23855">
        <ele>-6.5999999046326</ele>
        <time>2021-11-28T09:52:50.000Z</time>
      </trkpt>
      <trkpt lat="47.30372" lon="-2.23857">
        <ele>-6.5999999046326</ele>
        <time>2021-11-28T09:52:54.000Z</time>
      </trkpt>
      <trkpt lat="47.3034" lon="-2.2387">
        <ele>-6.5999999046326</ele>
        <time>2021-11-28T09:53:00.000Z</time>
      </trkpt>
      <trkpt lat="47.303" lon="-2.23888">
        <ele>-6.5999999046326</ele>
        <time>2021-11-28T09:53:08.000Z</time>
      </trkpt>
      <trkpt lat="47.30279" lon="-2.23887">
        <ele>-6.5999999046326</ele>
        <time>2021-11-28T09:53:12.000Z</time>
      </trkpt>
      <trkpt lat="47.30266" lon="-2.239">
        <ele>-6.5999999046326</ele>
        <time>2021-11-28T09:53:15.000Z</time>
      </trkpt>
      <trkpt lat="47.30261" lon="-2.23928">
        <ele>-6.5999999046326</ele>
        <time>2021-11-28T09:53:19.000Z</time>
      </trkpt>
      <trkpt lat="47.30262" lon="-2.23935">
        <ele>-6.5999999046326</ele>
        <time>2021-11-28T09:53:20.000Z</time>
      </trkpt>
      <trkpt lat="47.30263" lon="-2.23943">
        <ele>-6.5999999046326</ele>
        <time>2021-11-28T09:53:21.000Z</time>
      </trkpt>
      <trkpt lat="47.30268" lon="-2.23962">
        <ele>-6.1999998092651</ele>
        <time>2021-11-28T09:53:24.000Z</time>
      </trkpt>
      <trkpt lat="47.3027" lon="-2.23969">
        <ele>-5.8000001907349</ele>
        <time>2021-11-28T09:53:25.000Z</time>
      </trkpt>
      <trkpt lat="47.30272" lon="-2.23975">
        <ele>-5.4000000953674</ele>
        <time>2021-11-28T09:53:26.000Z</time>
      </trkpt>
      <trkpt lat="47.30273" lon="-2.23981">
        <ele>-5</ele>
        <time>2021-11-28T09:53:27.000Z</time>
      </trkpt>
      <trkpt lat="47.30275" lon="-2.23987">
        <ele>-4.5999999046326</ele>
        <time>2021-11-28T09:53:28.000Z</time>
      </trkpt>
      <trkpt lat="47.30277" lon="-2.23999">
        <ele>-4.5999999046326</ele>
        <time>2021-11-28T09:53:30.000Z</time>
      </trkpt>
      <trkpt lat="47.30278" lon="-2.24017">
        <ele>-4.1999998092651</ele>
        <time>2021-11-28T09:53:33.000Z</time>
      </trkpt>
      <trkpt lat="47.30279" lon="-2.24023">
        <ele>-3.7999999523163</ele>
        <time>2021-11-28T09:53:34.000Z</time>
      </trkpt>
      <trkpt lat="47.3028" lon="-2.24027">
        <ele>-3.4000000953674</ele>
        <time>2021-11-28T09:53:35.000Z</time>
      </trkpt>
      <trkpt lat="47.3028" lon="-2.24032">
        <ele>-3</ele>
        <time>2021-11-28T09:53:36.000Z</time>
      </trkpt>
      <trkpt lat="47.30281" lon="-2.24037">
        <ele>-2.5999999046326</ele>
        <time>2021-11-28T09:53:37.000Z</time>
      </trkpt>
      <trkpt lat="47.30281" lon="-2.24055">
        <ele>-1.7999999523163</ele>
        <time>2021-11-28T09:53:41.000Z</time>
      </trkpt>
      <trkpt lat="47.30278" lon="-2.24057">
        <ele>-1.3999999761581</ele>
        <time>2021-11-28T09:53:42.000Z</time>
      </trkpt>
      <trkpt lat="47.30275" lon="-2.24059">
        <ele>-1</ele>
        <time>2021-11-28T09:53:43.000Z</time>
      </trkpt>
      <trkpt lat="47.30272" lon="-2.24059">
        <ele>-0.60000002384186</ele>
        <time>2021-11-28T09:53:44.000Z</time>
      </trkpt>
      <trkpt lat="47.30268" lon="-2.24059">
        <ele>-0.60000002384186</ele>
        <time>2021-11-28T09:53:45.000Z</time>
      </trkpt>
      <trkpt lat="47.3026" lon="-2.24059">
        <ele>-0.60000002384186</ele>
        <time>2021-11-28T09:53:47.000Z</time>
      </trkpt>
      <trkpt lat="47.30241" lon="-2.24057">
        <ele>-0.60000002384186</ele>
        <time>2021-11-28T09:53:52.000Z</time>
      </trkpt>
      <trkpt lat="47.30216" lon="-2.24055">
        <ele>-0.60000002384186</ele>
        <time>2021-11-28T09:53:58.000Z</time>
      </trkpt>
      <trkpt lat="47.302" lon="-2.24055">
        <ele>-0.20000000298023</ele>
        <time>2021-11-28T09:54:02.000Z</time>
      </trkpt>
      <trkpt lat="47.30196" lon="-2.24056">
        <ele>0.20000000298023</ele>
        <time>2021-11-28T09:54:03.000Z</time>
      </trkpt>
      <trkpt lat="47.30191" lon="-2.24057">
        <ele>0.60000002384186</ele>
        <time>2021-11-28T09:54:04.000Z</time>
      </trkpt>
      <trkpt lat="47.30187" lon="-2.24057">
        <ele>1</ele>
        <time>2021-11-28T09:54:05.000Z</time>
      </trkpt>
      <trkpt lat="47.30183" lon="-2.24058">
        <ele>1.6000000238419</ele>
        <time>2021-11-28T09:54:06.000Z</time>
      </trkpt>
      <trkpt lat="47.30163" lon="-2.24067">
        <ele>1.6000000238419</ele>
        <time>2021-11-28T09:54:11.000Z</time>
      </trkpt>
      <trkpt lat="47.30159" lon="-2.24069">
        <ele>1.6000000238419</ele>
        <time>2021-11-28T09:54:12.000Z</time>
      </trkpt>
      <trkpt lat="47.30134" lon="-2.24081">
        <ele>1.6000000238419</ele>
        <time>2021-11-28T09:54:19.000Z</time>
      </trkpt>
      <trkpt lat="47.30116" lon="-2.24092">
        <ele>1.6000000238419</ele>
        <time>2021-11-28T09:54:24.000Z</time>
      </trkpt>
      <trkpt lat="47.30092" lon="-2.24105">
        <ele>1.6000000238419</ele>
        <time>2021-11-28T09:54:30.000Z</time>
      </trkpt>
      <trkpt lat="47.30072" lon="-2.24117">
        <ele>1.6000000238419</ele>
        <time>2021-11-28T09:54:35.000Z</time>
      </trkpt>
      <trkpt lat="47.30045" lon="-2.2413">
        <ele>1.6000000238419</ele>
        <time>2021-11-28T09:54:41.000Z</time>
      </trkpt>
      <trkpt lat="47.30026" lon="-2.24141">
        <ele>1.6000000238419</ele>
        <time>2021-11-28T09:54:46.000Z</time>
      </trkpt>
      <trkpt lat="47.30025" lon="-2.24143">
        <ele>1.6000000238419</ele>
        <time>2021-11-28T09:54:47.000Z</time>
      </trkpt>
      <trkpt lat="47.30025" lon="-2.24147">
        <ele>1.6000000238419</ele>
        <time>2021-11-28T09:54:49.000Z</time>
      </trkpt>
      <trkpt lat="47.30029" lon="-2.24171">
        <ele>1.6000000238419</ele>
        <time>2021-11-28T09:54:54.000Z</time>
      </trkpt>
      <trkpt lat="47.30029" lon="-2.24202">
        <ele>1.6000000238419</ele>
        <time>2021-11-28T09:55:00.000Z</time>
      </trkpt>
      <trkpt lat="47.30029" lon="-2.24206">
        <ele>2</ele>
        <time>2021-11-28T09:55:01.000Z</time>
      </trkpt>
      <trkpt lat="47.30028" lon="-2.2421">
        <ele>2.4000000953674</ele>
        <time>2021-11-28T09:55:02.000Z</time>
      </trkpt>
      <trkpt lat="47.30028" lon="-2.24216">
        <ele>3</ele>
        <time>2021-11-28T09:55:03.000Z</time>
      </trkpt>
      <trkpt lat="47.30027" lon="-2.24221">
        <ele>3.4000000953674</ele>
        <time>2021-11-28T09:55:04.000Z</time>
      </trkpt>
      <trkpt lat="47.30026" lon="-2.24227">
        <ele>4</ele>
        <time>2021-11-28T09:55:05.000Z</time>
      </trkpt>
      <trkpt lat="47.30028" lon="-2.24251">
        <ele>4</ele>
        <time>2021-11-28T09:55:10.000Z</time>
      </trkpt>
      <trkpt lat="47.30028" lon="-2.24258">
        <ele>4.4000000953674</ele>
        <time>2021-11-28T09:55:12.000Z</time>
      </trkpt>
      <trkpt lat="47.30029" lon="-2.24261">
        <ele>4.8000001907349</ele>
        <time>2021-11-28T09:55:13.000Z</time>
      </trkpt>
      <trkpt lat="47.30029" lon="-2.24263">
        <ele>5.1999998092651</ele>
        <time>2021-11-28T09:55:14.000Z</time>
      </trkpt>
      <trkpt lat="47.3003" lon="-2.24266">
        <ele>5.5999999046326</ele>
        <time>2021-11-28T09:55:15.000Z</time>
      </trkpt>
      <trkpt lat="47.3003" lon="-2.24268">
        <ele>6.1999998092651</ele>
        <time>2021-11-28T09:55:16.000Z</time>
      </trkpt>
      <trkpt lat="47.30027" lon="-2.24274">
        <ele>6.1999998092651</ele>
        <time>2021-11-28T09:55:18.000Z</time>
      </trkpt>
      <trkpt lat="47.30025" lon="-2.24277">
        <ele>6.1999998092651</ele>
        <time>2021-11-28T09:55:19.000Z</time>
      </trkpt>
      <trkpt lat="47.30023" lon="-2.24278">
        <ele>6.1999998092651</ele>
        <time>2021-11-28T09:55:20.000Z</time>
      </trkpt>
      <trkpt lat="47.30018" lon="-2.24291">
        <ele>6.1999998092651</ele>
        <time>2021-11-28T09:55:23.000Z</time>
      </trkpt>
      <trkpt lat="47.30015" lon="-2.24305">
        <ele>6.1999998092651</ele>
        <time>2021-11-28T09:55:26.000Z</time>
      </trkpt>
      <trkpt lat="47.3001" lon="-2.24317">
        <ele>6.1999998092651</ele>
        <time>2021-11-28T09:55:29.000Z</time>
      </trkpt>
      <trkpt lat="47.30006" lon="-2.24326">
        <ele>6.5999999046326</ele>
        <time>2021-11-28T09:55:31.000Z</time>
      </trkpt>
      <trkpt lat="47.30005" lon="-2.24331">
        <ele>7</ele>
        <time>2021-11-28T09:55:32.000Z</time>
      </trkpt>
      <trkpt lat="47.30004" lon="-2.24334">
        <ele>7.4000000953674</ele>
        <time>2021-11-28T09:55:33.000Z</time>
      </trkpt>
      <trkpt lat="47.30003" lon="-2.24338">
        <ele>7.8000001907349</ele>
        <time>2021-11-28T09:55:34.000Z</time>
      </trkpt>
      <trkpt lat="47.30002" lon="-2.24342">
        <ele>8.1999998092651</ele>
        <time>2021-11-28T09:55:35.000Z</time>
      </trkpt>
      <trkpt lat="47.29993" lon="-2.24359">
        <ele>8.1999998092651</ele>
        <time>2021-11-28T09:55:39.000Z</time>
      </trkpt>
      <trkpt lat="47.29984" lon="-2.24353">
        <ele>8.1999998092651</ele>
        <time>2021-11-28T09:55:42.000Z</time>
      </trkpt>
      <trkpt lat="47.29981" lon="-2.24349">
        <ele>8.1999998092651</ele>
        <time>2021-11-28T09:55:43.000Z</time>
      </trkpt>
      <trkpt lat="47.29965" lon="-2.24329">
        <ele>8.1999998092651</ele>
        <time>2021-11-28T09:55:49.000Z</time>
      </trkpt>
      <trkpt lat="47.29963" lon="-2.24328">
        <ele>8.1999998092651</ele>
        <time>2021-11-28T09:55:52.000Z</time>
      </trkpt>
      <trkpt lat="47.2996" lon="-2.24326">
        <ele>8.1999998092651</ele>
        <time>2021-11-28T09:56:05.000Z</time>
      </trkpt>
      <trkpt lat="47.29956" lon="-2.24323">
        <ele>8.1999998092651</ele>
        <time>2021-11-28T09:56:07.000Z</time>
      </trkpt>
      <trkpt lat="47.29946" lon="-2.24313">
        <ele>8.1999998092651</ele>
        <time>2021-11-28T09:56:12.000Z</time>
      </trkpt>
      <trkpt lat="47.2994" lon="-2.24292">
        <ele>8.1999998092651</ele>
        <time>2021-11-28T09:56:17.000Z</time>
      </trkpt>
      <trkpt lat="47.29949" lon="-2.24271">
        <ele>8.1999998092651</ele>
        <time>2021-11-28T09:56:21.000Z</time>
      </trkpt>
      <trkpt lat="47.29966" lon="-2.24234">
        <ele>8.1999998092651</ele>
        <time>2021-11-28T09:56:28.000Z</time>
      </trkpt>
      <trkpt lat="47.29981" lon="-2.24201">
        <ele>7.8000001907349</ele>
        <time>2021-11-28T09:56:34.000Z</time>
      </trkpt>
      <trkpt lat="47.29984" lon="-2.24194">
        <ele>7.4000000953674</ele>
        <time>2021-11-28T09:56:35.000Z</time>
      </trkpt>
      <trkpt lat="47.29986" lon="-2.24188">
        <ele>7</ele>
        <time>2021-11-28T09:56:36.000Z</time>
      </trkpt>
      <trkpt lat="47.29987" lon="-2.24181">
        <ele>6.5999999046326</ele>
        <time>2021-11-28T09:56:37.000Z</time>
      </trkpt>
      <trkpt lat="47.29988" lon="-2.24174">
        <ele>6.1999998092651</ele>
        <time>2021-11-28T09:56:38.000Z</time>
      </trkpt>
      <trkpt lat="47.2999" lon="-2.24168">
        <ele>6.1999998092651</ele>
        <time>2021-11-28T09:56:39.000Z</time>
      </trkpt>
      <trkpt lat="47.29994" lon="-2.24153">
        <ele>5.8000001907349</ele>
        <time>2021-11-28T09:56:42.000Z</time>
      </trkpt>
      <trkpt lat="47.29995" lon="-2.2415">
        <ele>5.4000000953674</ele>
        <time>2021-11-28T09:56:43.000Z</time>
      </trkpt>
      <trkpt lat="47.29996" lon="-2.24148">
        <ele>5</ele>
        <time>2021-11-28T09:56:44.000Z</time>
      </trkpt>
      <trkpt lat="47.29997" lon="-2.24147">
        <ele>4.4000000953674</ele>
        <time>2021-11-28T09:56:45.000Z</time>
      </trkpt>
      <trkpt lat="47.29997" lon="-2.24146">
        <ele>4</ele>
        <time>2021-11-28T09:56:46.000Z</time>
      </trkpt>
      <trkpt lat="47.29997" lon="-2.24146">
        <ele>4</ele>
        <time>2021-11-28T09:56:47.000Z</time>
      </trkpt>
      <trkpt lat="47.29999" lon="-2.24138">
        <ele>4</ele>
        <time>2021-11-28T09:57:22.000Z</time>
      </trkpt>
      <trkpt lat="47.3" lon="-2.24132">
        <ele>3.5999999046326</ele>
        <time>2021-11-28T09:57:23.000Z</time>
      </trkpt>
      <trkpt lat="47.30002" lon="-2.24126">
        <ele>3.2000000476837</ele>
        <time>2021-11-28T09:57:24.000Z</time>
      </trkpt>
      <trkpt lat="47.30003" lon="-2.24121">
        <ele>2.7999999523163</ele>
        <time>2021-11-28T09:57:25.000Z</time>
      </trkpt>
      <trkpt lat="47.30004" lon="-2.24116">
        <ele>2.4000000953674</ele>
        <time>2021-11-28T09:57:26.000Z</time>
      </trkpt>
      <trkpt lat="47.30005" lon="-2.24109">
        <ele>2</ele>
        <time>2021-11-28T09:57:27.000Z</time>
      </trkpt>
      <trkpt lat="47.30006" lon="-2.24095">
        <ele>2</ele>
        <time>2021-11-28T09:57:29.000Z</time>
      </trkpt>
      <trkpt lat="47.30005" lon="-2.24087">
        <ele>1.6000000238419</ele>
        <time>2021-11-28T09:57:30.000Z</time>
      </trkpt>
      <trkpt lat="47.30005" lon="-2.24079">
        <ele>1.2000000476837</ele>
        <time>2021-11-28T09:57:31.000Z</time>
      </trkpt>
      <trkpt lat="47.30004" lon="-2.24071">
        <ele>0.60000002384186</ele>
        <time>2021-11-28T09:57:32.000Z</time>
      </trkpt>
      <trkpt lat="47.30004" lon="-2.24062">
        <ele>0.20000000298023</ele>
        <time>2021-11-28T09:57:33.000Z</time>
      </trkpt>
      <trkpt lat="47.30004" lon="-2.24053">
        <ele>-0.20000000298023</ele>
        <time>2021-11-28T09:57:34.000Z</time>
      </trkpt>
      <trkpt lat="47.30003" lon="-2.24036">
        <ele>-0.20000000298023</ele>
        <time>2021-11-28T09:57:36.000Z</time>
      </trkpt>
      <trkpt lat="47.30003" lon="-2.24006">
        <ele>-0.60000002384186</ele>
        <time>2021-11-28T09:57:40.000Z</time>
      </trkpt>
      <trkpt lat="47.30003" lon="-2.23998">
        <ele>-1</ele>
        <time>2021-11-28T09:57:41.000Z</time>
      </trkpt>
      <trkpt lat="47.30003" lon="-2.2399">
        <ele>-1.6000000238419</ele>
        <time>2021-11-28T09:57:42.000Z</time>
      </trkpt>
      <trkpt lat="47.30004" lon="-2.23983">
        <ele>-2</ele>
        <time>2021-11-28T09:57:43.000Z</time>
      </trkpt>
      <trkpt lat="47.30004" lon="-2.23976">
        <ele>-2.4000000953674</ele>
        <time>2021-11-28T09:57:44.000Z</time>
      </trkpt>
      <trkpt lat="47.30006" lon="-2.23954">
        <ele>-2.4000000953674</ele>
        <time>2021-11-28T09:57:47.000Z</time>
      </trkpt>
      <trkpt lat="47.30005" lon="-2.23948">
        <ele>-2.4000000953674</ele>
        <time>2021-11-28T09:57:48.000Z</time>
      </trkpt>
      <trkpt lat="47.30003" lon="-2.23921">
        <ele>-2.4000000953674</ele>
        <time>2021-11-28T09:57:52.000Z</time>
      </trkpt>
      <trkpt lat="47.30003" lon="-2.23913">
        <ele>-2.4000000953674</ele>
        <time>2021-11-28T09:57:53.000Z</time>
      </trkpt>
      <trkpt lat="47.30004" lon="-2.23897">
        <ele>-2.4000000953674</ele>
        <time>2021-11-28T09:57:55.000Z</time>
      </trkpt>
      <trkpt lat="47.30004" lon="-2.23889">
        <ele>-2.7999999523163</ele>
        <time>2021-11-28T09:57:56.000Z</time>
      </trkpt>
      <trkpt lat="47.30002" lon="-2.23882">
        <ele>-3.2000000476837</ele>
        <time>2021-11-28T09:57:57.000Z</time>
      </trkpt>
      <trkpt lat="47.3" lon="-2.23875">
        <ele>-3.5999999046326</ele>
        <time>2021-11-28T09:57:58.000Z</time>
      </trkpt>
      <trkpt lat="47.29996" lon="-2.23868">
        <ele>-4</ele>
        <time>2021-11-28T09:57:59.000Z</time>
      </trkpt>
      <trkpt lat="47.29992" lon="-2.23862">
        <ele>-4.4000000953674</ele>
        <time>2021-11-28T09:58:00.000Z</time>
      </trkpt>
      <trkpt lat="47.29974" lon="-2.23848">
        <ele>-4.4000000953674</ele>
        <time>2021-11-28T09:58:04.000Z</time>
      </trkpt>
      <trkpt lat="47.29956" lon="-2.23835">
        <ele>-4.4000000953674</ele>
        <time>2021-11-28T09:58:08.000Z</time>
      </trkpt>
      <trkpt lat="47.29947" lon="-2.2383">
        <ele>-4.4000000953674</ele>
        <time>2021-11-28T09:58:10.000Z</time>
      </trkpt>
      <trkpt lat="47.29943" lon="-2.23827">
        <ele>-4.4000000953674</ele>
        <time>2021-11-28T09:58:11.000Z</time>
      </trkpt>
      <trkpt lat="47.29928" lon="-2.23821">
        <ele>-4.4000000953674</ele>
        <time>2021-11-28T09:58:14.000Z</time>
      </trkpt>
      <trkpt lat="47.29905" lon="-2.23816">
        <ele>-4.4000000953674</ele>
        <time>2021-11-28T09:58:18.000Z</time>
      </trkpt>
      <trkpt lat="47.29894" lon="-2.23817">
        <ele>-4.4000000953674</ele>
        <time>2021-11-28T09:58:20.000Z</time>
      </trkpt>
      <trkpt lat="47.29856" lon="-2.23822">
        <ele>-4.4000000953674</ele>
        <time>2021-11-28T09:58:27.000Z</time>
      </trkpt>
      <trkpt lat="47.29834" lon="-2.23811">
        <ele>-4.4000000953674</ele>
        <time>2021-11-28T09:58:31.000Z</time>
      </trkpt>
      <trkpt lat="47.29829" lon="-2.23808">
        <ele>-4.4000000953674</ele>
        <time>2021-11-28T09:58:32.000Z</time>
      </trkpt>
      <trkpt lat="47.29802" lon="-2.23792">
        <ele>-4.4000000953674</ele>
        <time>2021-11-28T09:58:37.000Z</time>
      </trkpt>
      <trkpt lat="47.29796" lon="-2.2379">
        <ele>-4.4000000953674</ele>
        <time>2021-11-28T09:58:38.000Z</time>
      </trkpt>
      <trkpt lat="47.29778" lon="-2.23788">
        <ele>-4.4000000953674</ele>
        <time>2021-11-28T09:58:41.000Z</time>
      </trkpt>
      <trkpt lat="47.29773" lon="-2.2379">
        <ele>-4.4000000953674</ele>
        <time>2021-11-28T09:58:42.000Z</time>
      </trkpt>
      <trkpt lat="47.29752" lon="-2.23811">
        <ele>-4.4000000953674</ele>
        <time>2021-11-28T09:58:46.000Z</time>
      </trkpt>
      <trkpt lat="47.29738" lon="-2.2384">
        <ele>-4.4000000953674</ele>
        <time>2021-11-28T09:58:50.000Z</time>
      </trkpt>
      <trkpt lat="47.29734" lon="-2.23847">
        <ele>-4.4000000953674</ele>
        <time>2021-11-28T09:58:51.000Z</time>
      </trkpt>
      <trkpt lat="47.29722" lon="-2.23894">
        <ele>-4.4000000953674</ele>
        <time>2021-11-28T09:58:57.000Z</time>
      </trkpt>
      <trkpt lat="47.29715" lon="-2.23934">
        <ele>-4.4000000953674</ele>
        <time>2021-11-28T09:59:02.000Z</time>
      </trkpt>
      <trkpt lat="47.29701" lon="-2.23946">
        <ele>-4.4000000953674</ele>
        <time>2021-11-28T09:59:05.000Z</time>
      </trkpt>
      <trkpt lat="47.2969" lon="-2.2395">
        <ele>-4.4000000953674</ele>
        <time>2021-11-28T09:59:07.000Z</time>
      </trkpt>
      <trkpt lat="47.29684" lon="-2.23954">
        <ele>-4.4000000953674</ele>
        <time>2021-11-28T09:59:08.000Z</time>
      </trkpt>
      <trkpt lat="47.29674" lon="-2.23961">
        <ele>-4.4000000953674</ele>
        <time>2021-11-28T09:59:10.000Z</time>
      </trkpt>
      <trkpt lat="47.29644" lon="-2.23991">
        <ele>-4.4000000953674</ele>
        <time>2021-11-28T09:59:17.000Z</time>
      </trkpt>
      <trkpt lat="47.29637" lon="-2.24011">
        <ele>-4.4000000953674</ele>
        <time>2021-11-28T09:59:20.000Z</time>
      </trkpt>
      <trkpt lat="47.29636" lon="-2.24018">
        <ele>-4.4000000953674</ele>
        <time>2021-11-28T09:59:21.000Z</time>
      </trkpt>
      <trkpt lat="47.29632" lon="-2.24051">
        <ele>-4.4000000953674</ele>
        <time>2021-11-28T09:59:26.000Z</time>
      </trkpt>
      <trkpt lat="47.29628" lon="-2.24063">
        <ele>-4.4000000953674</ele>
        <time>2021-11-28T09:59:29.000Z</time>
      </trkpt>
      <trkpt lat="47.29625" lon="-2.24064">
        <ele>-4.4000000953674</ele>
        <time>2021-11-28T09:59:30.000Z</time>
      </trkpt>
      <trkpt lat="47.2962" lon="-2.24054">
        <ele>-4.4000000953674</ele>
        <time>2021-11-28T09:59:33.000Z</time>
      </trkpt>
      <trkpt lat="47.29621" lon="-2.24025">
        <ele>-4.4000000953674</ele>
        <time>2021-11-28T09:59:37.000Z</time>
      </trkpt>
      <trkpt lat="47.29622" lon="-2.24017">
        <ele>-4.4000000953674</ele>
        <time>2021-11-28T09:59:38.000Z</time>
      </trkpt>
      <trkpt lat="47.29626" lon="-2.23968">
        <ele>-4.4000000953674</ele>
        <time>2021-11-28T09:59:44.000Z</time>
      </trkpt>
      <trkpt lat="47.29632" lon="-2.23914">
        <ele>-4.4000000953674</ele>
        <time>2021-11-28T09:59:51.000Z</time>
      </trkpt>
      <trkpt lat="47.29638" lon="-2.23844">
        <ele>-4.4000000953674</ele>
        <time>2021-11-28T10:00:00.000Z</time>
      </trkpt>
      <trkpt lat="47.29643" lon="-2.23774">
        <ele>-4.4000000953674</ele>
        <time>2021-11-28T10:00:08.000Z</time>
      </trkpt>
      <trkpt lat="47.29649" lon="-2.23702">
        <ele>-4.4000000953674</ele>
        <time>2021-11-28T10:00:16.000Z</time>
      </trkpt>
      <trkpt lat="47.29651" lon="-2.23676">
        <ele>-4.4000000953674</ele>
        <time>2021-11-28T10:00:19.000Z</time>
      </trkpt>
      <trkpt lat="47.29645" lon="-2.23661">
        <ele>-4.4000000953674</ele>
        <time>2021-11-28T10:00:21.000Z</time>
      </trkpt>
      <trkpt lat="47.29627" lon="-2.23655">
        <ele>-4.4000000953674</ele>
        <time>2021-11-28T10:00:24.000Z</time>
      </trkpt>
      <trkpt lat="47.29621" lon="-2.23654">
        <ele>-4.4000000953674</ele>
        <time>2021-11-28T10:00:25.000Z</time>
      </trkpt>
      <trkpt lat="47.29592" lon="-2.2365">
        <ele>-4.4000000953674</ele>
        <time>2021-11-28T10:00:30.000Z</time>
      </trkpt>
      <trkpt lat="47.29561" lon="-2.23646">
        <ele>-4</ele>
        <time>2021-11-28T10:00:35.000Z</time>
      </trkpt>
      <trkpt lat="47.29555" lon="-2.23646">
        <ele>-3.5999999046326</ele>
        <time>2021-11-28T10:00:36.000Z</time>
      </trkpt>
      <trkpt lat="47.29549" lon="-2.23645">
        <ele>-3.2000000476837</ele>
        <time>2021-11-28T10:00:37.000Z</time>
      </trkpt>
      <trkpt lat="47.29544" lon="-2.23644">
        <ele>-2.7999999523163</ele>
        <time>2021-11-28T10:00:38.000Z</time>
      </trkpt>
      <trkpt lat="47.29538" lon="-2.23644">
        <ele>-2.4000000953674</ele>
        <time>2021-11-28T10:00:39.000Z</time>
      </trkpt>
      <trkpt lat="47.29527" lon="-2.23645">
        <ele>-2.4000000953674</ele>
        <time>2021-11-28T10:00:41.000Z</time>
      </trkpt>
      <trkpt lat="47.29516" lon="-2.23648">
        <ele>-2.4000000953674</ele>
        <time>2021-11-28T10:00:43.000Z</time>
      </trkpt>
      <trkpt lat="47.29505" lon="-2.23653">
        <ele>-1.7999999523163</ele>
        <time>2021-11-28T10:00:45.000Z</time>
      </trkpt>
      <trkpt lat="47.29499" lon="-2.23656">
        <ele>-1.3999999761581</ele>
        <time>2021-11-28T10:00:46.000Z</time>
      </trkpt>
      <trkpt lat="47.29494" lon="-2.23658">
        <ele>-1</ele>
        <time>2021-11-28T10:00:47.000Z</time>
      </trkpt>
      <trkpt lat="47.29489" lon="-2.23661">
        <ele>-0.60000002384186</ele>
        <time>2021-11-28T10:00:48.000Z</time>
      </trkpt>
      <trkpt lat="47.29484" lon="-2.23664">
        <ele>-0.20000000298023</ele>
        <time>2021-11-28T10:00:49.000Z</time>
      </trkpt>
      <trkpt lat="47.29471" lon="-2.23672">
        <ele>0.20000000298023</ele>
        <time>2021-11-28T10:00:52.000Z</time>
      </trkpt>
      <trkpt lat="47.29468" lon="-2.23675">
        <ele>0.60000002384186</ele>
        <time>2021-11-28T10:00:53.000Z</time>
      </trkpt>
      <trkpt lat="47.29464" lon="-2.23677">
        <ele>1</ele>
        <time>2021-11-28T10:00:54.000Z</time>
      </trkpt>
      <trkpt lat="47.29459" lon="-2.2368">
        <ele>1.3999999761581</ele>
        <time>2021-11-28T10:00:55.000Z</time>
      </trkpt>
      <trkpt lat="47.29455" lon="-2.23683">
        <ele>1.7999999523163</ele>
        <time>2021-11-28T10:00:56.000Z</time>
      </trkpt>
      <trkpt lat="47.29427" lon="-2.23695">
        <ele>1.7999999523163</ele>
        <time>2021-11-28T10:01:01.000Z</time>
      </trkpt>
      <trkpt lat="47.29408" lon="-2.23701">
        <ele>1.3999999761581</ele>
        <time>2021-11-28T10:01:04.000Z</time>
      </trkpt>
      <trkpt lat="47.29401" lon="-2.23703">
        <ele>1</ele>
        <time>2021-11-28T10:01:05.000Z</time>
      </trkpt>
      <trkpt lat="47.29393" lon="-2.23707">
        <ele>0.20000000298023</ele>
        <time>2021-11-28T10:01:06.000Z</time>
      </trkpt>
      <trkpt lat="47.29387" lon="-2.23713">
        <ele>-0.20000000298023</ele>
        <time>2021-11-28T10:01:07.000Z</time>
      </trkpt>
      <trkpt lat="47.29378" lon="-2.23731">
        <ele>-0.80000001192093</ele>
        <time>2021-11-28T10:01:09.000Z</time>
      </trkpt>
      <trkpt lat="47.29376" lon="-2.23741">
        <ele>-1.2000000476837</ele>
        <time>2021-11-28T10:01:10.000Z</time>
      </trkpt>
      <trkpt lat="47.29375" lon="-2.23751">
        <ele>-1.6000000238419</ele>
        <time>2021-11-28T10:01:11.000Z</time>
      </trkpt>
      <trkpt lat="47.29374" lon="-2.2376">
        <ele>-2</ele>
        <time>2021-11-28T10:01:12.000Z</time>
      </trkpt>
      <trkpt lat="47.29373" lon="-2.2377">
        <ele>-2.4000000953674</ele>
        <time>2021-11-28T10:01:13.000Z</time>
      </trkpt>
      <trkpt lat="47.29372" lon="-2.23778">
        <ele>-2.4000000953674</ele>
        <time>2021-11-28T10:01:14.000Z</time>
      </trkpt>
      <trkpt lat="47.29369" lon="-2.23793">
        <ele>-2.4000000953674</ele>
        <time>2021-11-28T10:01:16.000Z</time>
      </trkpt>
      <trkpt lat="47.29364" lon="-2.23797">
        <ele>-2.4000000953674</ele>
        <time>2021-11-28T10:01:17.000Z</time>
      </trkpt>
      <trkpt lat="47.29351" lon="-2.23793">
        <ele>-2.4000000953674</ele>
        <time>2021-11-28T10:01:20.000Z</time>
      </trkpt>
      <trkpt lat="47.29342" lon="-2.23786">
        <ele>-2.7999999523163</ele>
        <time>2021-11-28T10:01:22.000Z</time>
      </trkpt>
      <trkpt lat="47.29337" lon="-2.23782">
        <ele>-3.2000000476837</ele>
        <time>2021-11-28T10:01:23.000Z</time>
      </trkpt>
      <trkpt lat="47.29332" lon="-2.2378">
        <ele>-3.5999999046326</ele>
        <time>2021-11-28T10:01:24.000Z</time>
      </trkpt>
      <trkpt lat="47.29326" lon="-2.23779">
        <ele>-4.1999998092651</ele>
        <time>2021-11-28T10:01:25.000Z</time>
      </trkpt>
      <trkpt lat="47.29322" lon="-2.23779">
        <ele>-4.5999999046326</ele>
        <time>2021-11-28T10:01:26.000Z</time>
      </trkpt>
      <trkpt lat="47.29313" lon="-2.23774">
        <ele>-4.5999999046326</ele>
        <time>2021-11-28T10:01:29.000Z</time>
      </trkpt>
      <trkpt lat="47.2931" lon="-2.23755">
        <ele>-4.5999999046326</ele>
        <time>2021-11-28T10:01:32.000Z</time>
      </trkpt>
      <trkpt lat="47.2931" lon="-2.23737">
        <ele>-4.5999999046326</ele>
        <time>2021-11-28T10:01:34.000Z</time>
      </trkpt>
      <trkpt lat="47.2931" lon="-2.23711">
        <ele>-4.5999999046326</ele>
        <time>2021-11-28T10:01:37.000Z</time>
      </trkpt>
      <trkpt lat="47.2931" lon="-2.23648">
        <ele>-4.5999999046326</ele>
        <time>2021-11-28T10:01:44.000Z</time>
      </trkpt>
      <trkpt lat="47.2931" lon="-2.23579">
        <ele>-4.5999999046326</ele>
        <time>2021-11-28T10:01:51.000Z</time>
      </trkpt>
      <trkpt lat="47.29301" lon="-2.23502">
        <ele>-4.5999999046326</ele>
        <time>2021-11-28T10:01:59.000Z</time>
      </trkpt>
      <trkpt lat="47.29289" lon="-2.23448">
        <ele>-4.5999999046326</ele>
        <time>2021-11-28T10:02:05.000Z</time>
      </trkpt>
      <trkpt lat="47.29279" lon="-2.23399">
        <ele>-4.5999999046326</ele>
        <time>2021-11-28T10:02:11.000Z</time>
      </trkpt>
      <trkpt lat="47.29277" lon="-2.23392">
        <ele>-4.5999999046326</ele>
        <time>2021-11-28T10:02:12.000Z</time>
      </trkpt>
      <trkpt lat="47.29266" lon="-2.23337">
        <ele>-4.5999999046326</ele>
        <time>2021-11-28T10:02:19.000Z</time>
      </trkpt>
      <trkpt lat="47.29259" lon="-2.23313">
        <ele>-4.5999999046326</ele>
        <time>2021-11-28T10:02:22.000Z</time>
      </trkpt>
      <trkpt lat="47.2925" lon="-2.23292">
        <ele>-4.5999999046326</ele>
        <time>2021-11-28T10:02:25.000Z</time>
      </trkpt>
      <trkpt lat="47.29229" lon="-2.23262">
        <ele>-4.5999999046326</ele>
        <time>2021-11-28T10:02:30.000Z</time>
      </trkpt>
      <trkpt lat="47.29199" lon="-2.2322">
        <ele>-4.5999999046326</ele>
        <time>2021-11-28T10:02:37.000Z</time>
      </trkpt>
      <trkpt lat="47.29185" lon="-2.23194">
        <ele>-4.5999999046326</ele>
        <time>2021-11-28T10:02:41.000Z</time>
      </trkpt>
      <trkpt lat="47.2918" lon="-2.2318">
        <ele>-4.5999999046326</ele>
        <time>2021-11-28T10:02:43.000Z</time>
      </trkpt>
      <trkpt lat="47.29172" lon="-2.23166">
        <ele>-4.5999999046326</ele>
        <time>2021-11-28T10:02:45.000Z</time>
      </trkpt>
      <trkpt lat="47.2916" lon="-2.23146">
        <ele>-4.5999999046326</ele>
        <time>2021-11-28T10:02:48.000Z</time>
      </trkpt>
      <trkpt lat="47.29134" lon="-2.23116">
        <ele>-4.5999999046326</ele>
        <time>2021-11-28T10:02:53.000Z</time>
      </trkpt>
      <trkpt lat="47.29096" lon="-2.23068">
        <ele>-4.5999999046326</ele>
        <time>2021-11-28T10:03:01.000Z</time>
      </trkpt>
      <trkpt lat="47.2905" lon="-2.23012">
        <ele>-4.5999999046326</ele>
        <time>2021-11-28T10:03:11.000Z</time>
      </trkpt>
      <trkpt lat="47.29037" lon="-2.22998">
        <ele>-4.5999999046326</ele>
        <time>2021-11-28T10:03:14.000Z</time>
      </trkpt>
      <trkpt lat="47.29028" lon="-2.22996">
        <ele>-4.5999999046326</ele>
        <time>2021-11-28T10:03:16.000Z</time>
      </trkpt>
      <trkpt lat="47.29016" lon="-2.23009">
        <ele>-4.5999999046326</ele>
        <time>2021-11-28T10:03:19.000Z</time>
      </trkpt>
      <trkpt lat="47.29015" lon="-2.23017">
        <ele>-4.5999999046326</ele>
        <time>2021-11-28T10:03:20.000Z</time>
      </trkpt>
      <trkpt lat="47.29012" lon="-2.23035">
        <ele>-4.5999999046326</ele>
        <time>2021-11-28T10:03:22.000Z</time>
      </trkpt>
      <trkpt lat="47.28998" lon="-2.23083">
        <ele>-4.5999999046326</ele>
        <time>2021-11-28T10:03:28.000Z</time>
      </trkpt>
      <trkpt lat="47.28997" lon="-2.23091">
        <ele>-4.5999999046326</ele>
        <time>2021-11-28T10:03:29.000Z</time>
      </trkpt>
      <trkpt lat="47.28992" lon="-2.23125">
        <ele>-3.5999999046326</ele>
        <time>2021-11-28T10:03:33.000Z</time>
      </trkpt>
      <trkpt lat="47.28991" lon="-2.23133">
        <ele>-3.2000000476837</ele>
        <time>2021-11-28T10:03:34.000Z</time>
      </trkpt>
      <trkpt lat="47.28991" lon="-2.23141">
        <ele>-2.7999999523163</ele>
        <time>2021-11-28T10:03:35.000Z</time>
      </trkpt>
      <trkpt lat="47.2899" lon="-2.23149">
        <ele>-2.4000000953674</ele>
        <time>2021-11-28T10:03:36.000Z</time>
      </trkpt>
      <trkpt lat="47.28984" lon="-2.23186">
        <ele>-2.4000000953674</ele>
        <time>2021-11-28T10:03:41.000Z</time>
      </trkpt>
      <trkpt lat="47.28983" lon="-2.23201">
        <ele>-2</ele>
        <time>2021-11-28T10:03:43.000Z</time>
      </trkpt>
      <trkpt lat="47.28982" lon="-2.23209">
        <ele>-1.6000000238419</ele>
        <time>2021-11-28T10:03:44.000Z</time>
      </trkpt>
      <trkpt lat="47.28981" lon="-2.23217">
        <ele>-1.2000000476837</ele>
        <time>2021-11-28T10:03:45.000Z</time>
      </trkpt>
      <trkpt lat="47.2898" lon="-2.23224">
        <ele>-0.60000002384186</ele>
        <time>2021-11-28T10:03:46.000Z</time>
      </trkpt>
      <trkpt lat="47.28979" lon="-2.23232">
        <ele>-0.20000000298023</ele>
        <time>2021-11-28T10:03:47.000Z</time>
      </trkpt>
      <trkpt lat="47.28978" lon="-2.23247">
        <ele>-0.20000000298023</ele>
        <time>2021-11-28T10:03:49.000Z</time>
      </trkpt>
      <trkpt lat="47.28977" lon="-2.23262">
        <ele>0.20000000298023</ele>
        <time>2021-11-28T10:03:51.000Z</time>
      </trkpt>
      <trkpt lat="47.28977" lon="-2.23269">
        <ele>0.60000002384186</ele>
        <time>2021-11-28T10:03:52.000Z</time>
      </trkpt>
      <trkpt lat="47.28976" lon="-2.23276">
        <ele>1</ele>
        <time>2021-11-28T10:03:53.000Z</time>
      </trkpt>
      <trkpt lat="47.28975" lon="-2.23284">
        <ele>1.3999999761581</ele>
        <time>2021-11-28T10:03:54.000Z</time>
      </trkpt>
      <trkpt lat="47.28975" lon="-2.23291">
        <ele>1.7999999523163</ele>
        <time>2021-11-28T10:03:55.000Z</time>
      </trkpt>
      <trkpt lat="47.28972" lon="-2.23332">
        <ele>2.2000000476837</ele>
        <time>2021-11-28T10:04:01.000Z</time>
      </trkpt>
      <trkpt lat="47.28971" lon="-2.23338">
        <ele>2.5999999046326</ele>
        <time>2021-11-28T10:04:02.000Z</time>
      </trkpt>
      <trkpt lat="47.2897" lon="-2.23345">
        <ele>3</ele>
        <time>2021-11-28T10:04:03.000Z</time>
      </trkpt>
      <trkpt lat="47.2897" lon="-2.23351">
        <ele>3.5999999046326</ele>
        <time>2021-11-28T10:04:04.000Z</time>
      </trkpt>
      <trkpt lat="47.28969" lon="-2.23358">
        <ele>4</ele>
        <time>2021-11-28T10:04:05.000Z</time>
      </trkpt>
      <trkpt lat="47.28967" lon="-2.23389">
        <ele>4</ele>
        <time>2021-11-28T10:04:10.000Z</time>
      </trkpt>
      <trkpt lat="47.28963" lon="-2.23433">
        <ele>4</ele>
        <time>2021-11-28T10:04:17.000Z</time>
      </trkpt>
      <trkpt lat="47.28958" lon="-2.23482">
        <ele>4</ele>
        <time>2021-11-28T10:04:25.000Z</time>
      </trkpt>
      <trkpt lat="47.28956" lon="-2.23492">
        <ele>4</ele>
        <time>2021-11-28T10:04:27.000Z</time>
      </trkpt>
      <trkpt lat="47.28953" lon="-2.23494">
        <ele>4</ele>
        <time>2021-11-28T10:04:28.000Z</time>
      </trkpt>
      <trkpt lat="47.28936" lon="-2.23495">
        <ele>4</ele>
        <time>2021-11-28T10:04:32.000Z</time>
      </trkpt>
      <trkpt lat="47.28913" lon="-2.23502">
        <ele>4</ele>
        <time>2021-11-28T10:04:37.000Z</time>
      </trkpt>
      <trkpt lat="47.28908" lon="-2.23503">
        <ele>4</ele>
        <time>2021-11-28T10:04:38.000Z</time>
      </trkpt>
      <trkpt lat="47.28898" lon="-2.23505">
        <ele>4</ele>
        <time>2021-11-28T10:04:40.000Z</time>
      </trkpt>
      <trkpt lat="47.28881" lon="-2.23505">
        <ele>4</ele>
        <time>2021-11-28T10:04:43.000Z</time>
      </trkpt>
      <trkpt lat="47.28876" lon="-2.23505">
        <ele>4</ele>
        <time>2021-11-28T10:04:44.000Z</time>
      </trkpt>
      <trkpt lat="47.28851" lon="-2.23507">
        <ele>4</ele>
        <time>2021-11-28T10:04:48.000Z</time>
      </trkpt>
      <trkpt lat="47.28814" lon="-2.23509">
        <ele>3.5999999046326</ele>
        <time>2021-11-28T10:04:54.000Z</time>
      </trkpt>
      <trkpt lat="47.28808" lon="-2.2351">
        <ele>3.2000000476837</ele>
        <time>2021-11-28T10:04:55.000Z</time>
      </trkpt>
      <trkpt lat="47.28802" lon="-2.23511">
        <ele>2.5999999046326</ele>
        <time>2021-11-28T10:04:56.000Z</time>
      </trkpt>
      <trkpt lat="47.28796" lon="-2.23512">
        <ele>2.2000000476837</ele>
        <time>2021-11-28T10:04:57.000Z</time>
      </trkpt>
      <trkpt lat="47.2879" lon="-2.23514">
        <ele>1.7999999523163</ele>
        <time>2021-11-28T10:04:58.000Z</time>
      </trkpt>
      <trkpt lat="47.28771" lon="-2.2352">
        <ele>1.7999999523163</ele>
        <time>2021-11-28T10:05:01.000Z</time>
      </trkpt>
      <trkpt lat="47.2876" lon="-2.23526">
        <ele>1.3999999761581</ele>
        <time>2021-11-28T10:05:03.000Z</time>
      </trkpt>
      <trkpt lat="47.28755" lon="-2.2353">
        <ele>1</ele>
        <time>2021-11-28T10:05:04.000Z</time>
      </trkpt>
      <trkpt lat="47.28749" lon="-2.23534">
        <ele>0.40000000596046</ele>
        <time>2021-11-28T10:05:05.000Z</time>
      </trkpt>
      <trkpt lat="47.28744" lon="-2.23539">
        <ele>7.3</ele>
        <time>2021-11-28T10:05:06.000Z</time>
      </trkpt>
      <trkpt lat="47.28738" lon="-2.23545">
        <ele>-0.40000000596046</ele>
        <time>2021-11-28T10:05:07.000Z</time>
      </trkpt>
      <trkpt lat="47.28734" lon="-2.23551">
        <ele>-0.80000001192093</ele>
        <time>2021-11-28T10:05:08.000Z</time>
      </trkpt>
      <trkpt lat="47.28729" lon="-2.23558">
        <ele>-1.2000000476837</ele>
        <time>2021-11-28T10:05:09.000Z</time>
      </trkpt>
      <trkpt lat="47.28726" lon="-2.23566">
        <ele>-1.7999999523163</ele>
        <time>2021-11-28T10:05:10.000Z</time>
      </trkpt>
      <trkpt lat="47.28722" lon="-2.23573">
        <ele>-2.2000000476837</ele>
        <time>2021-11-28T10:05:11.000Z</time>
      </trkpt>
      <trkpt lat="47.28718" lon="-2.2358">
        <ele>-2.5999999046326</ele>
        <time>2021-11-28T10:05:12.000Z</time>
      </trkpt>
      <trkpt lat="47.2871" lon="-2.23588">
        <ele>-2.5999999046326</ele>
        <time>2021-11-28T10:05:14.000Z</time>
      </trkpt>
      <trkpt lat="47.28697" lon="-2.23592">
        <ele>-3</ele>
        <time>2021-11-28T10:05:17.000Z</time>
      </trkpt>
      <trkpt lat="47.28693" lon="-2.2359">
        <ele>-3.4000000953674</ele>
        <time>2021-11-28T10:05:18.000Z</time>
      </trkpt>
      <trkpt lat="47.28691" lon="-2.23587">
        <ele>-3.7999999523163</ele>
        <time>2021-11-28T10:05:19.000Z</time>
      </trkpt>
      <trkpt lat="47.28688" lon="-2.23584">
        <ele>-4.1999998092651</ele>
        <time>2021-11-28T10:05:20.000Z</time>
      </trkpt>
      <trkpt lat="47.28685" lon="-2.2358">
        <ele>-4.5999999046326</ele>
        <time>2021-11-28T10:05:21.000Z</time>
      </trkpt>
      <trkpt lat="47.28679" lon="-2.23572">
        <ele>-4.5999999046326</ele>
        <time>2021-11-28T10:05:23.000Z</time>
      </trkpt>
      <trkpt lat="47.28658" lon="-2.23558">
        <ele>-4.5999999046326</ele>
        <time>2021-11-28T10:05:29.000Z</time>
      </trkpt>
      <trkpt lat="47.28654" lon="-2.23556">
        <ele>-4.5999999046326</ele>
        <time>2021-11-28T10:05:30.000Z</time>
      </trkpt>
      <trkpt lat="47.28652" lon="-2.23546">
        <ele>-4.5999999046326</ele>
        <time>2021-11-28T10:05:32.000Z</time>
      </trkpt>
      <trkpt lat="47.2865" lon="-2.23534">
        <ele>-4.5999999046326</ele>
        <time>2021-11-28T10:05:34.000Z</time>
      </trkpt>
      <trkpt lat="47.28649" lon="-2.23517">
        <ele>-4.5999999046326</ele>
        <time>2021-11-28T10:05:37.000Z</time>
      </trkpt>
      <trkpt lat="47.2865" lon="-2.23511">
        <ele>-4.5999999046326</ele>
        <time>2021-11-28T10:05:38.000Z</time>
      </trkpt>
      <trkpt lat="47.28654" lon="-2.23491">
        <ele>-4.5999999046326</ele>
        <time>2021-11-28T10:05:41.000Z</time>
      </trkpt>
      <trkpt lat="47.28656" lon="-2.23478">
        <ele>-4.5999999046326</ele>
        <time>2021-11-28T10:05:43.000Z</time>
      </trkpt>
      <trkpt lat="47.28657" lon="-2.23463">
        <ele>-4.5999999046326</ele>
        <time>2021-11-28T10:05:45.000Z</time>
      </trkpt>
      <trkpt lat="47.28657" lon="-2.23456">
        <ele>-4.5999999046326</ele>
        <time>2021-11-28T10:05:46.000Z</time>
      </trkpt>
      <trkpt lat="47.28649" lon="-2.23428">
        <ele>-4.5999999046326</ele>
        <time>2021-11-28T10:05:50.000Z</time>
      </trkpt>
      <trkpt lat="47.28643" lon="-2.234">
        <ele>-4.5999999046326</ele>
        <time>2021-11-28T10:05:53.000Z</time>
      </trkpt>
      <trkpt lat="47.28643" lon="-2.23378">
        <ele>-4.5999999046326</ele>
        <time>2021-11-28T10:05:56.000Z</time>
      </trkpt>
      <trkpt lat="47.28644" lon="-2.23371">
        <ele>-4.5999999046326</ele>
        <time>2021-11-28T10:05:57.000Z</time>
      </trkpt>
      <trkpt lat="47.28646" lon="-2.23364">
        <ele>-4.5999999046326</ele>
        <time>2021-11-28T10:05:58.000Z</time>
      </trkpt>
      <trkpt lat="47.28656" lon="-2.23359">
        <ele>-4.5999999046326</ele>
        <time>2021-11-28T10:06:01.000Z</time>
      </trkpt>
      <trkpt lat="47.28664" lon="-2.2336">
        <ele>-4.5999999046326</ele>
        <time>2021-11-28T10:06:05.000Z</time>
      </trkpt>
      <trkpt lat="47.28668" lon="-2.23349">
        <ele>-4.5999999046326</ele>
        <time>2021-11-28T10:06:08.000Z</time>
      </trkpt>
      <trkpt lat="47.28669" lon="-2.23345">
        <ele>-4.5999999046326</ele>
        <time>2021-11-28T10:06:09.000Z</time>
      </trkpt>
      <trkpt lat="47.28672" lon="-2.23325">
        <ele>-4.5999999046326</ele>
        <time>2021-11-28T10:06:12.000Z</time>
      </trkpt>
      <trkpt lat="47.28673" lon="-2.23307">
        <ele>-4.1999998092651</ele>
        <time>2021-11-28T10:06:16.000Z</time>
      </trkpt>
      <trkpt lat="47.28674" lon="-2.23303">
        <ele>-3.7999999523163</ele>
        <time>2021-11-28T10:06:17.000Z</time>
      </trkpt>
      <trkpt lat="47.28674" lon="-2.23301">
        <ele>-3.4000000953674</ele>
        <time>2021-11-28T10:06:18.000Z</time>
      </trkpt>
      <trkpt lat="47.28673" lon="-2.23296">
        <ele>-3</ele>
        <time>2021-11-28T10:06:19.000Z</time>
      </trkpt>
      <trkpt lat="47.28672" lon="-2.23289">
        <ele>-2.5999999046326</ele>
        <time>2021-11-28T10:06:20.000Z</time>
      </trkpt>
      <trkpt lat="47.28672" lon="-2.23284">
        <ele>-2.5999999046326</ele>
        <time>2021-11-28T10:06:21.000Z</time>
      </trkpt>
      <trkpt lat="47.28676" lon="-2.23267">
        <ele>-2.5999999046326</ele>
        <time>2021-11-28T10:06:25.000Z</time>
      </trkpt>
      <trkpt lat="47.28685" lon="-2.23254">
        <ele>-2.5999999046326</ele>
        <time>2021-11-28T10:06:29.000Z</time>
      </trkpt>
      <trkpt lat="47.28683" lon="-2.2324">
        <ele>-2.5999999046326</ele>
        <time>2021-11-28T10:06:33.000Z</time>
      </trkpt>
      <trkpt lat="47.2868" lon="-2.23231">
        <ele>-2.5999999046326</ele>
        <time>2021-11-28T10:06:35.000Z</time>
      </trkpt>
      <trkpt lat="47.28674" lon="-2.23214">
        <ele>-2.5999999046326</ele>
        <time>2021-11-28T10:06:37.000Z</time>
      </trkpt>
      <trkpt lat="47.28665" lon="-2.23197">
        <ele>-3</ele>
        <time>2021-11-28T10:06:39.000Z</time>
      </trkpt>
      <trkpt lat="47.28659" lon="-2.23191">
        <ele>-4</ele>
        <time>2021-11-28T10:06:40.000Z</time>
      </trkpt>
      <trkpt lat="47.28653" lon="-2.23187">
        <ele>-4.5999999046326</ele>
        <time>2021-11-28T10:06:41.000Z</time>
      </trkpt>
      <trkpt lat="47.28648" lon="-2.23184">
        <ele>-5</ele>
        <time>2021-11-28T10:06:42.000Z</time>
      </trkpt>
      <trkpt lat="47.28643" lon="-2.23184">
        <ele>-5</ele>
        <time>2021-11-28T10:06:43.000Z</time>
      </trkpt>
      <trkpt lat="47.28633" lon="-2.23185">
        <ele>-5</ele>
        <time>2021-11-28T10:06:45.000Z</time>
      </trkpt>
      <trkpt lat="47.2862" lon="-2.23189">
        <ele>-5</ele>
        <time>2021-11-28T10:06:48.000Z</time>
      </trkpt>
      <trkpt lat="47.28616" lon="-2.23193">
        <ele>-5</ele>
        <time>2021-11-28T10:06:49.000Z</time>
      </trkpt>
      <trkpt lat="47.28605" lon="-2.23204">
        <ele>-5</ele>
        <time>2021-11-28T10:06:52.000Z</time>
      </trkpt>
      <trkpt lat="47.28599" lon="-2.23213">
        <ele>-5</ele>
        <time>2021-11-28T10:06:54.000Z</time>
      </trkpt>
      <trkpt lat="47.28594" lon="-2.23233">
        <ele>-5</ele>
        <time>2021-11-28T10:06:58.000Z</time>
      </trkpt>
      <trkpt lat="47.2859" lon="-2.23266">
        <ele>-5</ele>
        <time>2021-11-28T10:07:04.000Z</time>
      </trkpt>
      <trkpt lat="47.28591" lon="-2.2327">
        <ele>-5</ele>
        <time>2021-11-28T10:07:05.000Z</time>
      </trkpt>
      <trkpt lat="47.28594" lon="-2.23282">
        <ele>-5</ele>
        <time>2021-11-28T10:07:07.000Z</time>
      </trkpt>
      <trkpt lat="47.28596" lon="-2.23288">
        <ele>-5</ele>
        <time>2021-11-28T10:07:08.000Z</time>
      </trkpt>
      <trkpt lat="47.28603" lon="-2.23295">
        <ele>-5</ele>
        <time>2021-11-28T10:07:10.000Z</time>
      </trkpt>
      <trkpt lat="47.28617" lon="-2.233">
        <ele>-5</ele>
        <time>2021-11-28T10:07:13.000Z</time>
      </trkpt>
      <trkpt lat="47.28627" lon="-2.23301">
        <ele>-5</ele>
        <time>2021-11-28T10:07:15.000Z</time>
      </trkpt>
      <trkpt lat="47.28644" lon="-2.23299">
        <ele>-5</ele>
        <time>2021-11-28T10:07:19.000Z</time>
      </trkpt>
      <trkpt lat="47.28652" lon="-2.23301">
        <ele>-5</ele>
        <time>2021-11-28T10:07:21.000Z</time>
      </trkpt>
      <trkpt lat="47.2866" lon="-2.23304">
        <ele>-5</ele>
        <time>2021-11-28T10:07:23.000Z</time>
      </trkpt>
      <trkpt lat="47.28665" lon="-2.23303">
        <ele>-5</ele>
        <time>2021-11-28T10:07:25.000Z</time>
      </trkpt>
      <trkpt lat="47.28667" lon="-2.23302">
        <ele>-4.5999999046326</ele>
        <time>2021-11-28T10:07:27.000Z</time>
      </trkpt>
      <trkpt lat="47.28668" lon="-2.23301">
        <ele>-4.1999998092651</ele>
        <time>2021-11-28T10:07:28.000Z</time>
      </trkpt>
      <trkpt lat="47.2867" lon="-2.23301">
        <ele>-3.4000000953674</ele>
        <time>2021-11-28T10:07:29.000Z</time>
      </trkpt>
      <trkpt lat="47.28671" lon="-2.23302">
        <ele>-3</ele>
        <time>2021-11-28T10:07:30.000Z</time>
      </trkpt>
      <trkpt lat="47.28671" lon="-2.23307">
        <ele>-3</ele>
        <time>2021-11-28T10:07:32.000Z</time>
      </trkpt>
      <trkpt lat="47.28669" lon="-2.23327">
        <ele>-3</ele>
        <time>2021-11-28T10:07:36.000Z</time>
      </trkpt>
      <trkpt lat="47.28669" lon="-2.23349">
        <ele>-3</ele>
        <time>2021-11-28T10:07:40.000Z</time>
      </trkpt>
      <trkpt lat="47.28667" lon="-2.23355">
        <ele>-3</ele>
        <time>2021-11-28T10:07:42.000Z</time>
      </trkpt>
      <trkpt lat="47.28664" lon="-2.23356">
        <ele>-3</ele>
        <time>2021-11-28T10:07:43.000Z</time>
      </trkpt>
      <trkpt lat="47.28654" lon="-2.23358">
        <ele>-3</ele>
        <time>2021-11-28T10:07:46.000Z</time>
      </trkpt>
      <trkpt lat="47.2865" lon="-2.23362">
        <ele>-3</ele>
        <time>2021-11-28T10:07:47.000Z</time>
      </trkpt>
      <trkpt lat="47.28647" lon="-2.23367">
        <ele>-3.4000000953674</ele>
        <time>2021-11-28T10:07:48.000Z</time>
      </trkpt>
      <trkpt lat="47.28646" lon="-2.23373">
        <ele>-3.7999999523163</ele>
        <time>2021-11-28T10:07:49.000Z</time>
      </trkpt>
      <trkpt lat="47.28645" lon="-2.23379">
        <ele>-4.1999998092651</ele>
        <time>2021-11-28T10:07:50.000Z</time>
      </trkpt>
      <trkpt lat="47.28645" lon="-2.23386">
        <ele>-4.5999999046326</ele>
        <time>2021-11-28T10:07:51.000Z</time>
      </trkpt>
      <trkpt lat="47.28644" lon="-2.23393">
        <ele>-5</ele>
        <time>2021-11-28T10:07:52.000Z</time>
      </trkpt>
      <trkpt lat="47.28645" lon="-2.23412">
        <ele>-5</ele>
        <time>2021-11-28T10:07:55.000Z</time>
      </trkpt>
      <trkpt lat="47.28648" lon="-2.23425">
        <ele>-5</ele>
        <time>2021-11-28T10:07:57.000Z</time>
      </trkpt>
      <trkpt lat="47.28654" lon="-2.23439">
        <ele>-5</ele>
        <time>2021-11-28T10:08:00.000Z</time>
      </trkpt>
      <trkpt lat="47.28658" lon="-2.23468">
        <ele>-5</ele>
        <time>2021-11-28T10:08:05.000Z</time>
      </trkpt>
      <trkpt lat="47.28653" lon="-2.23506">
        <ele>-5</ele>
        <time>2021-11-28T10:08:11.000Z</time>
      </trkpt>
      <trkpt lat="47.28649" lon="-2.23546">
        <ele>-5</ele>
        <time>2021-11-28T10:08:17.000Z</time>
      </trkpt>
      <trkpt lat="47.28645" lon="-2.23557">
        <ele>-5</ele>
        <time>2021-11-28T10:08:20.000Z</time>
      </trkpt>
      <trkpt lat="47.28634" lon="-2.23562">
        <ele>-5</ele>
        <time>2021-11-28T10:08:24.000Z</time>
      </trkpt>
      <trkpt lat="47.28631" lon="-2.23566">
        <ele>-5</ele>
        <time>2021-11-28T10:08:25.000Z</time>
      </trkpt>
      <trkpt lat="47.28628" lon="-2.23578">
        <ele>-5</ele>
        <time>2021-11-28T10:08:27.000Z</time>
      </trkpt>
      <trkpt lat="47.28625" lon="-2.23599">
        <ele>-5</ele>
        <time>2021-11-28T10:08:31.000Z</time>
      </trkpt>
      <trkpt lat="47.28624" lon="-2.2361">
        <ele>-5</ele>
        <time>2021-11-28T10:08:35.000Z</time>
      </trkpt>
      <trkpt lat="47.28624" lon="-2.23611">
        <ele>-5</ele>
        <time>2021-11-28T10:08:36.000Z</time>
      </trkpt>
      <trkpt lat="47.28623" lon="-2.23617">
        <ele>-5</ele>
        <time>2021-11-28T10:08:39.000Z</time>
      </trkpt>
      <trkpt lat="47.28623" lon="-2.23619">
        <ele>-5</ele>
        <time>2021-11-28T10:08:40.000Z</time>
      </trkpt>
      <trkpt lat="47.28624" lon="-2.23634">
        <ele>-5</ele>
        <time>2021-11-28T10:08:46.000Z</time>
      </trkpt>
      <trkpt lat="47.28624" lon="-2.23638">
        <ele>-5</ele>
        <time>2021-11-28T10:08:47.000Z</time>
      </trkpt>
      <trkpt lat="47.28625" lon="-2.23655">
        <ele>-5</ele>
        <time>2021-11-28T10:08:53.000Z</time>
      </trkpt>
      <trkpt lat="47.28626" lon="-2.23663">
        <ele>-5</ele>
        <time>2021-11-28T10:08:55.000Z</time>
      </trkpt>
      <trkpt lat="47.28626" lon="-2.23672">
        <ele>-5</ele>
        <time>2021-11-28T10:08:57.000Z</time>
      </trkpt>
      <trkpt lat="47.2863" lon="-2.23703">
        <ele>-5</ele>
        <time>2021-11-28T10:09:03.000Z</time>
      </trkpt>
      <trkpt lat="47.28632" lon="-2.23726">
        <ele>-4.1999998092651</ele>
        <time>2021-11-28T10:09:08.000Z</time>
      </trkpt>
      <trkpt lat="47.28632" lon="-2.23731">
        <ele>-3.7999999523163</ele>
        <time>2021-11-28T10:09:09.000Z</time>
      </trkpt>
      <trkpt lat="47.28633" lon="-2.23737">
        <ele>-3.4000000953674</ele>
        <time>2021-11-28T10:09:10.000Z</time>
      </trkpt>
      <trkpt lat="47.28634" lon="-2.23742">
        <ele>-3</ele>
        <time>2021-11-28T10:09:11.000Z</time>
      </trkpt>
      <trkpt lat="47.28638" lon="-2.2377">
        <ele>-3</ele>
        <time>2021-11-28T10:09:16.000Z</time>
      </trkpt>
      <trkpt lat="47.28642" lon="-2.23807">
        <ele>-3</ele>
        <time>2021-11-28T10:09:22.000Z</time>
      </trkpt>
      <trkpt lat="47.28643" lon="-2.23813">
        <ele>-3</ele>
        <time>2021-11-28T10:09:23.000Z</time>
      </trkpt>
      <trkpt lat="47.2865" lon="-2.23862">
        <ele>-3</ele>
        <time>2021-11-28T10:09:30.000Z</time>
      </trkpt>
      <trkpt lat="47.28654" lon="-2.23906">
        <ele>-3</ele>
        <time>2021-11-28T10:09:36.000Z</time>
      </trkpt>
      <trkpt lat="47.28659" lon="-2.23947">
        <ele>-3</ele>
        <time>2021-11-28T10:09:41.000Z</time>
      </trkpt>
      <trkpt lat="47.28666" lon="-2.24006">
        <ele>-3</ele>
        <time>2021-11-28T10:09:48.000Z</time>
      </trkpt>
      <trkpt lat="47.28668" lon="-2.24053">
        <ele>-3</ele>
        <time>2021-11-28T10:09:54.000Z</time>
      </trkpt>
      <trkpt lat="47.28675" lon="-2.24105">
        <ele>-3</ele>
        <time>2021-11-28T10:10:01.000Z</time>
      </trkpt>
      <trkpt lat="47.2868" lon="-2.24159">
        <ele>-3</ele>
        <time>2021-11-28T10:10:08.000Z</time>
      </trkpt>
      <trkpt lat="47.28687" lon="-2.2422">
        <ele>-3</ele>
        <time>2021-11-28T10:10:16.000Z</time>
      </trkpt>
      <trkpt lat="47.2869" lon="-2.2426">
        <ele>-3</ele>
        <time>2021-11-28T10:10:21.000Z</time>
      </trkpt>
      <trkpt lat="47.28688" lon="-2.24269">
        <ele>-3</ele>
        <time>2021-11-28T10:10:22.000Z</time>
      </trkpt>
      <trkpt lat="47.28679" lon="-2.24307">
        <ele>-3</ele>
        <time>2021-11-28T10:10:27.000Z</time>
      </trkpt>
      <trkpt lat="47.28666" lon="-2.24358">
        <ele>-3</ele>
        <time>2021-11-28T10:10:34.000Z</time>
      </trkpt>
      <trkpt lat="47.28654" lon="-2.24407">
        <ele>-3</ele>
        <time>2021-11-28T10:10:41.000Z</time>
      </trkpt>
      <trkpt lat="47.28641" lon="-2.24457">
        <ele>-3</ele>
        <time>2021-11-28T10:10:48.000Z</time>
      </trkpt>
      <trkpt lat="47.28624" lon="-2.24521">
        <ele>-3</ele>
        <time>2021-11-28T10:10:57.000Z</time>
      </trkpt>
      <trkpt lat="47.28612" lon="-2.24563">
        <ele>-3</ele>
        <time>2021-11-28T10:11:04.000Z</time>
      </trkpt>
      <trkpt lat="47.28604" lon="-2.24599">
        <ele>-3</ele>
        <time>2021-11-28T10:11:11.000Z</time>
      </trkpt>
      <trkpt lat="47.2859" lon="-2.24613">
        <ele>-3</ele>
        <time>2021-11-28T10:11:16.000Z</time>
      </trkpt>
      <trkpt lat="47.28585" lon="-2.24622">
        <ele>-3</ele>
        <time>2021-11-28T10:11:19.000Z</time>
      </trkpt>
      <trkpt lat="47.28583" lon="-2.24625">
        <ele>-3</ele>
        <time>2021-11-28T10:11:20.000Z</time>
      </trkpt>
      <trkpt lat="47.2857" lon="-2.24635">
        <ele>-3</ele>
        <time>2021-11-28T10:11:24.000Z</time>
      </trkpt>
      <trkpt lat="47.28566" lon="-2.24638">
        <ele>-3</ele>
        <time>2021-11-28T10:11:25.000Z</time>
      </trkpt>
      <trkpt lat="47.28563" lon="-2.24642">
        <ele>-3</ele>
        <time>2021-11-28T10:11:26.000Z</time>
      </trkpt>
      <trkpt lat="47.28556" lon="-2.2465">
        <ele>-3</ele>
        <time>2021-11-28T10:11:28.000Z</time>
      </trkpt>
      <trkpt lat="47.28548" lon="-2.24657">
        <ele>-3</ele>
        <time>2021-11-28T10:11:30.000Z</time>
      </trkpt>
      <trkpt lat="47.28519" lon="-2.2468">
        <ele>-3</ele>
        <time>2021-11-28T10:11:37.000Z</time>
      </trkpt>
      <trkpt lat="47.28487" lon="-2.24703">
        <ele>-3</ele>
        <time>2021-11-28T10:11:44.000Z</time>
      </trkpt>
      <trkpt lat="47.28473" lon="-2.24713">
        <ele>-3</ele>
        <time>2021-11-28T10:11:47.000Z</time>
      </trkpt>
      <trkpt lat="47.28465" lon="-2.2472">
        <ele>-3</ele>
        <time>2021-11-28T10:11:49.000Z</time>
      </trkpt>
      <trkpt lat="47.28456" lon="-2.24726">
        <ele>-3</ele>
        <time>2021-11-28T10:11:51.000Z</time>
      </trkpt>
      <trkpt lat="47.28444" lon="-2.24734">
        <ele>-3</ele>
        <time>2021-11-28T10:11:54.000Z</time>
      </trkpt>
      <trkpt lat="47.28418" lon="-2.2475">
        <ele>-3</ele>
        <time>2021-11-28T10:12:00.000Z</time>
      </trkpt>
      <trkpt lat="47.28414" lon="-2.24754">
        <ele>-3</ele>
        <time>2021-11-28T10:12:01.000Z</time>
      </trkpt>
      <trkpt lat="47.28399" lon="-2.24766">
        <ele>-3</ele>
        <time>2021-11-28T10:12:05.000Z</time>
      </trkpt>
      <trkpt lat="47.28385" lon="-2.24773">
        <ele>-3</ele>
        <time>2021-11-28T10:12:10.000Z</time>
      </trkpt>
      <trkpt lat="47.28368" lon="-2.24769">
        <ele>-3</ele>
        <time>2021-11-28T10:12:14.000Z</time>
      </trkpt>
      <trkpt lat="47.28364" lon="-2.24767">
        <ele>-3</ele>
        <time>2021-11-28T10:12:15.000Z</time>
      </trkpt>
      <trkpt lat="47.28352" lon="-2.24759">
        <ele>-3</ele>
        <time>2021-11-28T10:12:18.000Z</time>
      </trkpt>
      <trkpt lat="47.28342" lon="-2.24755">
        <ele>-3</ele>
        <time>2021-11-28T10:12:21.000Z</time>
      </trkpt>
      <trkpt lat="47.28325" lon="-2.24758">
        <ele>-3</ele>
        <time>2021-11-28T10:12:26.000Z</time>
      </trkpt>
      <trkpt lat="47.28319" lon="-2.24761">
        <ele>-2.5999999046326</ele>
        <time>2021-11-28T10:12:28.000Z</time>
      </trkpt>
      <trkpt lat="47.28317" lon="-2.24762">
        <ele>-2.2000000476837</ele>
        <time>2021-11-28T10:12:29.000Z</time>
      </trkpt>
      <trkpt lat="47.28315" lon="-2.24764">
        <ele>-1.7999999523163</ele>
        <time>2021-11-28T10:12:30.000Z</time>
      </trkpt>
      <trkpt lat="47.28312" lon="-2.24766">
        <ele>-1.3999999761581</ele>
        <time>2021-11-28T10:12:31.000Z</time>
      </trkpt>
      <trkpt lat="47.2831" lon="-2.24768">
        <ele>-1</ele>
        <time>2021-11-28T10:12:32.000Z</time>
      </trkpt>
      <trkpt lat="47.28289" lon="-2.24781">
        <ele>-1</ele>
        <time>2021-11-28T10:12:39.000Z</time>
      </trkpt>
      <trkpt lat="47.28279" lon="-2.24787">
        <ele>-0.60000002384186</ele>
        <time>2021-11-28T10:12:43.000Z</time>
      </trkpt>
      <trkpt lat="47.28277" lon="-2.24788">
        <ele>-0.20000000298023</ele>
        <time>2021-11-28T10:12:44.000Z</time>
      </trkpt>
      <trkpt lat="47.28274" lon="-2.2479">
        <ele>0.20000000298023</ele>
        <time>2021-11-28T10:12:45.000Z</time>
      </trkpt>
      <trkpt lat="47.28271" lon="-2.24792">
        <ele>0.60000002384186</ele>
        <time>2021-11-28T10:12:46.000Z</time>
      </trkpt>
      <trkpt lat="47.28268" lon="-2.24796">
        <ele>1</ele>
        <time>2021-11-28T10:12:47.000Z</time>
      </trkpt>
      <trkpt lat="47.28257" lon="-2.24803">
        <ele>1</ele>
        <time>2021-11-28T10:12:50.000Z</time>
      </trkpt>
      <trkpt lat="47.28231" lon="-2.24815">
        <ele>1</ele>
        <time>2021-11-28T10:12:57.000Z</time>
      </trkpt>
      <trkpt lat="47.28213" lon="-2.24814">
        <ele>1.6000000238419</ele>
        <time>2021-11-28T10:13:02.000Z</time>
      </trkpt>
      <trkpt lat="47.2821" lon="-2.24813">
        <ele>2</ele>
        <time>2021-11-28T10:13:03.000Z</time>
      </trkpt>
      <trkpt lat="47.28207" lon="-2.24812">
        <ele>2.4000000953674</ele>
        <time>2021-11-28T10:13:04.000Z</time>
      </trkpt>
      <trkpt lat="47.28204" lon="-2.24812">
        <ele>3</ele>
        <time>2021-11-28T10:13:05.000Z</time>
      </trkpt>
      <trkpt lat="47.28201" lon="-2.24812">
        <ele>3.4000000953674</ele>
        <time>2021-11-28T10:13:06.000Z</time>
      </trkpt>
      <trkpt lat="47.28195" lon="-2.24811">
        <ele>3.7999999523163</ele>
        <time>2021-11-28T10:13:08.000Z</time>
      </trkpt>
      <trkpt lat="47.28192" lon="-2.24811">
        <ele>4.1999998092651</ele>
        <time>2021-11-28T10:13:09.000Z</time>
      </trkpt>
      <trkpt lat="47.2819" lon="-2.2481">
        <ele>4.5999999046326</ele>
        <time>2021-11-28T10:13:10.000Z</time>
      </trkpt>
      <trkpt lat="47.28188" lon="-2.2481">
        <ele>5</ele>
        <time>2021-11-28T10:13:11.000Z</time>
      </trkpt>
      <trkpt lat="47.28185" lon="-2.24809">
        <ele>5.4000000953674</ele>
        <time>2021-11-28T10:13:12.000Z</time>
      </trkpt>
      <trkpt lat="47.28181" lon="-2.24809">
        <ele>5.8000001907349</ele>
        <time>2021-11-28T10:13:14.000Z</time>
      </trkpt>
      <trkpt lat="47.28179" lon="-2.24808">
        <ele>6.8000001907349</ele>
        <time>2021-11-28T10:13:15.000Z</time>
      </trkpt>
      <trkpt lat="47.28176" lon="-2.24807">
        <ele>7.1999998092651</ele>
        <time>2021-11-28T10:13:16.000Z</time>
      </trkpt>
      <trkpt lat="47.28174" lon="-2.24808">
        <ele>7.5999999046326</ele>
        <time>2021-11-28T10:13:17.000Z</time>
      </trkpt>
      <trkpt lat="47.28169" lon="-2.24808">
        <ele>8</ele>
        <time>2021-11-28T10:13:19.000Z</time>
      </trkpt>
      <trkpt lat="47.28167" lon="-2.24808">
        <ele>8.3999996185303</ele>
        <time>2021-11-28T10:13:20.000Z</time>
      </trkpt>
      <trkpt lat="47.28165" lon="-2.2481">
        <ele>8.8000001907349</ele>
        <time>2021-11-28T10:13:21.000Z</time>
      </trkpt>
      <trkpt lat="47.28163" lon="-2.24812">
        <ele>9.1999998092651</ele>
        <time>2021-11-28T10:13:22.000Z</time>
      </trkpt>
      <trkpt lat="47.28162" lon="-2.24814">
        <ele>9.6000003814697</ele>
        <time>2021-11-28T10:13:23.000Z</time>
      </trkpt>
      <trkpt lat="47.28162" lon="-2.24817">
        <ele>9.6000003814697</ele>
        <time>2021-11-28T10:13:24.000Z</time>
      </trkpt>
      <trkpt lat="47.2816" lon="-2.24832">
        <ele>9.6000003814697</ele>
        <time>2021-11-28T10:13:28.000Z</time>
      </trkpt>
      <trkpt lat="47.28152" lon="-2.24847">
        <ele>9.6000003814697</ele>
        <time>2021-11-28T10:13:33.000Z</time>
      </trkpt>
      <trkpt lat="47.28147" lon="-2.2485">
        <ele>10.199999809265</ele>
        <time>2021-11-28T10:13:35.000Z</time>
      </trkpt>
      <trkpt lat="47.28145" lon="-2.24852">
        <ele>10.60000038147</ele>
        <time>2021-11-28T10:13:36.000Z</time>
      </trkpt>
      <trkpt lat="47.28142" lon="-2.24853">
        <ele>11</ele>
        <time>2021-11-28T10:13:37.000Z</time>
      </trkpt>
      <trkpt lat="47.28139" lon="-2.24854">
        <ele>11.39999961853</ele>
        <time>2021-11-28T10:13:38.000Z</time>
      </trkpt>
      <trkpt lat="47.28137" lon="-2.24855">
        <ele>11.800000190735</ele>
        <time>2021-11-28T10:13:39.000Z</time>
      </trkpt>
      <trkpt lat="47.28121" lon="-2.24854">
        <ele>11.800000190735</ele>
        <time>2021-11-28T10:13:45.000Z</time>
      </trkpt>
      <trkpt lat="47.28119" lon="-2.24854">
        <ele>12.39999961853</ele>
        <time>2021-11-28T10:13:46.000Z</time>
      </trkpt>
      <trkpt lat="47.28116" lon="-2.24854">
        <ele>12.800000190735</ele>
        <time>2021-11-28T10:13:47.000Z</time>
      </trkpt>
      <trkpt lat="47.28114" lon="-2.24853">
        <ele>13.199999809265</ele>
        <time>2021-11-28T10:13:48.000Z</time>
      </trkpt>
      <trkpt lat="47.28111" lon="-2.24852">
        <ele>13.60000038147</ele>
        <time>2021-11-28T10:13:49.000Z</time>
      </trkpt>
      <trkpt lat="47.28109" lon="-2.24851">
        <ele>14</ele>
        <time>2021-11-28T10:13:50.000Z</time>
      </trkpt>
      <trkpt lat="47.28106" lon="-2.2485">
        <ele>14</ele>
        <time>2021-11-28T10:13:51.000Z</time>
      </trkpt>
      <trkpt lat="47.2809" lon="-2.24845">
        <ele>14.39999961853</ele>
        <time>2021-11-28T10:13:57.000Z</time>
      </trkpt>
      <trkpt lat="47.28088" lon="-2.24845">
        <ele>14.800000190735</ele>
        <time>2021-11-28T10:13:58.000Z</time>
      </trkpt>
      <trkpt lat="47.28085" lon="-2.24845">
        <ele>15.199999809265</ele>
        <time>2021-11-28T10:13:59.000Z</time>
      </trkpt>
      <trkpt lat="47.28082" lon="-2.24845">
        <ele>15.60000038147</ele>
        <time>2021-11-28T10:14:00.000Z</time>
      </trkpt>
      <trkpt lat="47.28079" lon="-2.24845">
        <ele>16</ele>
        <time>2021-11-28T10:14:01.000Z</time>
      </trkpt>
      <trkpt lat="47.2807" lon="-2.24847">
        <ele>16</ele>
        <time>2021-11-28T10:14:04.000Z</time>
      </trkpt>
      <trkpt lat="47.28054" lon="-2.24843">
        <ele>16</ele>
        <time>2021-11-28T10:14:09.000Z</time>
      </trkpt>
      <trkpt lat="47.28035" lon="-2.2484">
        <ele>16</ele>
        <time>2021-11-28T10:14:14.000Z</time>
      </trkpt>
      <trkpt lat="47.28016" lon="-2.24837">
        <ele>16</ele>
        <time>2021-11-28T10:14:19.000Z</time>
      </trkpt>
      <trkpt lat="47.27994" lon="-2.24832">
        <ele>16</ele>
        <time>2021-11-28T10:14:25.000Z</time>
      </trkpt>
      <trkpt lat="47.27966" lon="-2.24824">
        <ele>16</ele>
        <time>2021-11-28T10:14:32.000Z</time>
      </trkpt>
      <trkpt lat="47.27944" lon="-2.24823">
        <ele>16</ele>
        <time>2021-11-28T10:14:38.000Z</time>
      </trkpt>
      <trkpt lat="47.2793" lon="-2.24818">
        <ele>16</ele>
        <time>2021-11-28T10:14:42.000Z</time>
      </trkpt>
      <trkpt lat="47.27917" lon="-2.24812">
        <ele>16</ele>
        <time>2021-11-28T10:14:46.000Z</time>
      </trkpt>
      <trkpt lat="47.27897" lon="-2.24798">
        <ele>16</ele>
        <time>2021-11-28T10:14:52.000Z</time>
      </trkpt>
      <trkpt lat="47.27897" lon="-2.24791">
        <ele>16</ele>
        <time>2021-11-28T10:14:54.000Z</time>
      </trkpt>
      <trkpt lat="47.27897" lon="-2.24787">
        <ele>16</ele>
        <time>2021-11-28T10:14:55.000Z</time>
      </trkpt>
      <trkpt lat="47.27896" lon="-2.24785">
        <ele>16</ele>
        <time>2021-11-28T10:14:56.000Z</time>
      </trkpt>
      <trkpt lat="47.27892" lon="-2.24784">
        <ele>16</ele>
        <time>2021-11-28T10:14:58.000Z</time>
      </trkpt>
      <trkpt lat="47.27883" lon="-2.24783">
        <ele>16</ele>
        <time>2021-11-28T10:15:02.000Z</time>
      </trkpt>
      <trkpt lat="47.27882" lon="-2.24783">
        <ele>16</ele>
        <time>2021-11-28T10:15:05.000Z</time>
      </trkpt>
      <trkpt lat="47.27875" lon="-2.24784">
        <ele>16</ele>
        <time>2021-11-28T10:15:08.000Z</time>
      </trkpt>
      <trkpt lat="47.2787" lon="-2.24779">
        <ele>16</ele>
        <time>2021-11-28T10:15:10.000Z</time>
      </trkpt>
      <trkpt lat="47.2787" lon="-2.24776">
        <ele>15.60000038147</ele>
        <time>2021-11-28T10:15:11.000Z</time>
      </trkpt>
      <trkpt lat="47.2787" lon="-2.24774">
        <ele>15</ele>
        <time>2021-11-28T10:15:12.000Z</time>
      </trkpt>
      <trkpt lat="47.2787" lon="-2.24773">
        <ele>14.60000038147</ele>
        <time>2021-11-28T10:15:13.000Z</time>
      </trkpt>
      <trkpt lat="47.27869" lon="-2.24772">
        <ele>14</ele>
        <time>2021-11-28T10:15:14.000Z</time>
      </trkpt>
      <trkpt lat="47.27868" lon="-2.24772">
        <ele>13.60000038147</ele>
        <time>2021-11-28T10:15:15.000Z</time>
      </trkpt>
      <trkpt lat="47.27856" lon="-2.24776">
        <ele>13.60000038147</ele>
        <time>2021-11-28T10:15:20.000Z</time>
      </trkpt>
      <trkpt lat="47.27852" lon="-2.24786">
        <ele>13.60000038147</ele>
        <time>2021-11-28T10:15:23.000Z</time>
      </trkpt>
      <trkpt lat="47.27851" lon="-2.24789">
        <ele>13.60000038147</ele>
        <time>2021-11-28T10:15:24.000Z</time>
      </trkpt>
      <trkpt lat="47.27849" lon="-2.24791">
        <ele>13.60000038147</ele>
        <time>2021-11-28T10:15:27.000Z</time>
      </trkpt>
      <trkpt lat="47.27847" lon="-2.24793">
        <ele>13.60000038147</ele>
        <time>2021-11-28T10:16:44.000Z</time>
      </trkpt>
      <trkpt lat="47.27835" lon="-2.24795">
        <ele>13.60000038147</ele>
        <time>2021-11-28T10:16:49.000Z</time>
      </trkpt>
      <trkpt lat="47.27811" lon="-2.24798">
        <ele>13.60000038147</ele>
        <time>2021-11-28T10:16:56.000Z</time>
      </trkpt>
      <trkpt lat="47.27787" lon="-2.24801">
        <ele>13.60000038147</ele>
        <time>2021-11-28T10:17:03.000Z</time>
      </trkpt>
      <trkpt lat="47.27759" lon="-2.24802">
        <ele>13.60000038147</ele>
        <time>2021-11-28T10:17:09.000Z</time>
      </trkpt>
      <trkpt lat="47.27725" lon="-2.24803">
        <ele>13.60000038147</ele>
        <time>2021-11-28T10:17:15.000Z</time>
      </trkpt>
      <trkpt lat="47.27683" lon="-2.24804">
        <ele>13.60000038147</ele>
        <time>2021-11-28T10:17:22.000Z</time>
      </trkpt>
      <trkpt lat="47.27659" lon="-2.248">
        <ele>13.60000038147</ele>
        <time>2021-11-28T10:17:26.000Z</time>
      </trkpt>
      <trkpt lat="47.27654" lon="-2.24796">
        <ele>13.60000038147</ele>
        <time>2021-11-28T10:17:27.000Z</time>
      </trkpt>
      <trkpt lat="47.27645" lon="-2.2479">
        <ele>13.60000038147</ele>
        <time>2021-11-28T10:17:29.000Z</time>
      </trkpt>
      <trkpt lat="47.27636" lon="-2.24789">
        <ele>13.60000038147</ele>
        <time>2021-11-28T10:17:31.000Z</time>
      </trkpt>
      <trkpt lat="47.27612" lon="-2.24792">
        <ele>13.60000038147</ele>
        <time>2021-11-28T10:17:37.000Z</time>
      </trkpt>
      <trkpt lat="47.27583" lon="-2.24789">
        <ele>13.60000038147</ele>
        <time>2021-11-28T10:17:43.000Z</time>
      </trkpt>
      <trkpt lat="47.27568" lon="-2.24788">
        <ele>13.60000038147</ele>
        <time>2021-11-28T10:17:46.000Z</time>
      </trkpt>
      <trkpt lat="47.27553" lon="-2.24788">
        <ele>13.60000038147</ele>
        <time>2021-11-28T10:17:49.000Z</time>
      </trkpt>
      <trkpt lat="47.27538" lon="-2.24788">
        <ele>13.60000038147</ele>
        <time>2021-11-28T10:17:52.000Z</time>
      </trkpt>
      <trkpt lat="47.27529" lon="-2.24789">
        <ele>13.60000038147</ele>
        <time>2021-11-28T10:17:54.000Z</time>
      </trkpt>
      <trkpt lat="47.27498" lon="-2.24788">
        <ele>13.60000038147</ele>
        <time>2021-11-28T10:18:00.000Z</time>
      </trkpt>
      <trkpt lat="47.27486" lon="-2.24787">
        <ele>13</ele>
        <time>2021-11-28T10:18:02.000Z</time>
      </trkpt>
      <trkpt lat="47.2748" lon="-2.24786">
        <ele>12.60000038147</ele>
        <time>2021-11-28T10:18:03.000Z</time>
      </trkpt>
      <trkpt lat="47.27474" lon="-2.24786">
        <ele>12.199999809265</ele>
        <time>2021-11-28T10:18:04.000Z</time>
      </trkpt>
      <trkpt lat="47.27468" lon="-2.24785">
        <ele>11.60000038147</ele>
        <time>2021-11-28T10:18:05.000Z</time>
      </trkpt>
      <trkpt lat="47.27462" lon="-2.24787">
        <ele>11.199999809265</ele>
        <time>2021-11-28T10:18:06.000Z</time>
      </trkpt>
      <trkpt lat="47.27449" lon="-2.24795">
        <ele>10.60000038147</ele>
        <time>2021-11-28T10:18:08.000Z</time>
      </trkpt>
      <trkpt lat="47.27444" lon="-2.24801">
        <ele>10.199999809265</ele>
        <time>2021-11-28T10:18:09.000Z</time>
      </trkpt>
      <trkpt lat="47.27439" lon="-2.24807">
        <ele>9</ele>
        <time>2021-11-28T10:18:10.000Z</time>
      </trkpt>
      <trkpt lat="47.27435" lon="-2.24814">
        <ele>8.6000003814697</ele>
        <time>2021-11-28T10:18:11.000Z</time>
      </trkpt>
      <trkpt lat="47.27434" lon="-2.24822">
        <ele>8</ele>
        <time>2021-11-28T10:18:12.000Z</time>
      </trkpt>
      <trkpt lat="47.2743" lon="-2.24831">
        <ele>7.4000000953674</ele>
        <time>2021-11-28T10:18:13.000Z</time>
      </trkpt>
      <trkpt lat="47.27426" lon="-2.24839">
        <ele>7</ele>
        <time>2021-11-28T10:18:14.000Z</time>
      </trkpt>
      <trkpt lat="47.27423" lon="-2.24848">
        <ele>6.4000000953674</ele>
        <time>2021-11-28T10:18:15.000Z</time>
      </trkpt>
      <trkpt lat="47.27409" lon="-2.24893">
        <ele>6.4000000953674</ele>
        <time>2021-11-28T10:18:21.000Z</time>
      </trkpt>
      <trkpt lat="47.27397" lon="-2.24904">
        <ele>6.4000000953674</ele>
        <time>2021-11-28T10:18:25.000Z</time>
      </trkpt>
      <trkpt lat="47.27391" lon="-2.24912">
        <ele>6.4000000953674</ele>
        <time>2021-11-28T10:18:27.000Z</time>
      </trkpt>
      <trkpt lat="47.27379" lon="-2.24928">
        <ele>6.4000000953674</ele>
        <time>2021-11-28T10:18:31.000Z</time>
      </trkpt>
      <trkpt lat="47.27358" lon="-2.24954">
        <ele>6.4000000953674</ele>
        <time>2021-11-28T10:18:38.000Z</time>
      </trkpt>
      <trkpt lat="47.2734" lon="-2.24977">
        <ele>6.4000000953674</ele>
        <time>2021-11-28T10:18:45.000Z</time>
      </trkpt>
      <trkpt lat="47.27334" lon="-2.24995">
        <ele>6.4000000953674</ele>
        <time>2021-11-28T10:18:49.000Z</time>
      </trkpt>
      <trkpt lat="47.27335" lon="-2.25009">
        <ele>6.4000000953674</ele>
        <time>2021-11-28T10:18:52.000Z</time>
      </trkpt>
      <trkpt lat="47.27336" lon="-2.25014">
        <ele>6.4000000953674</ele>
        <time>2021-11-28T10:18:53.000Z</time>
      </trkpt>
      <trkpt lat="47.27341" lon="-2.25035">
        <ele>6.4000000953674</ele>
        <time>2021-11-28T10:18:57.000Z</time>
      </trkpt>
      <trkpt lat="47.27342" lon="-2.2504">
        <ele>6.4000000953674</ele>
        <time>2021-11-28T10:18:58.000Z</time>
      </trkpt>
      <trkpt lat="47.27353" lon="-2.25083">
        <ele>6.4000000953674</ele>
        <time>2021-11-28T10:19:05.000Z</time>
      </trkpt>
      <trkpt lat="47.27355" lon="-2.25088">
        <ele>6.4000000953674</ele>
        <time>2021-11-28T10:19:06.000Z</time>
      </trkpt>
      <trkpt lat="47.27367" lon="-2.25117">
        <ele>6.4000000953674</ele>
        <time>2021-11-28T10:19:11.000Z</time>
      </trkpt>
      <trkpt lat="47.2738" lon="-2.25148">
        <ele>6.4000000953674</ele>
        <time>2021-11-28T10:19:16.000Z</time>
      </trkpt>
      <trkpt lat="47.27387" lon="-2.25164">
        <ele>6.4000000953674</ele>
        <time>2021-11-28T10:19:19.000Z</time>
      </trkpt>
      <trkpt lat="47.2739" lon="-2.25171">
        <ele>6.4000000953674</ele>
        <time>2021-11-28T10:19:21.000Z</time>
      </trkpt>
      <trkpt lat="47.2739" lon="-2.25175">
        <ele>6.4000000953674</ele>
        <time>2021-11-28T10:19:22.000Z</time>
      </trkpt>
      <trkpt lat="47.27389" lon="-2.25182">
        <ele>6.4000000953674</ele>
        <time>2021-11-28T10:19:24.000Z</time>
      </trkpt>
      <trkpt lat="47.27386" lon="-2.25196">
        <ele>6.4000000953674</ele>
        <time>2021-11-28T10:19:27.000Z</time>
      </trkpt>
      <trkpt lat="47.27386" lon="-2.25201">
        <ele>6.4000000953674</ele>
        <time>2021-11-28T10:19:28.000Z</time>
      </trkpt>
      <trkpt lat="47.2739" lon="-2.2523">
        <ele>6.4000000953674</ele>
        <time>2021-11-28T10:19:34.000Z</time>
      </trkpt>
      <trkpt lat="47.27396" lon="-2.25263">
        <ele>6.4000000953674</ele>
        <time>2021-11-28T10:19:40.000Z</time>
      </trkpt>
      <trkpt lat="47.2739" lon="-2.25288">
        <ele>6.4000000953674</ele>
        <time>2021-11-28T10:19:44.000Z</time>
      </trkpt>
      <trkpt lat="47.27391" lon="-2.25295">
        <ele>6.4000000953674</ele>
        <time>2021-11-28T10:19:45.000Z</time>
      </trkpt>
      <trkpt lat="47.27394" lon="-2.25306">
        <ele>6.4000000953674</ele>
        <time>2021-11-28T10:19:47.000Z</time>
      </trkpt>
      <trkpt lat="47.27395" lon="-2.25341">
        <ele>6.4000000953674</ele>
        <time>2021-11-28T10:19:53.000Z</time>
      </trkpt>
      <trkpt lat="47.27405" lon="-2.25368">
        <ele>6.4000000953674</ele>
        <time>2021-11-28T10:19:58.000Z</time>
      </trkpt>
      <trkpt lat="47.27408" lon="-2.25375">
        <ele>6.4000000953674</ele>
        <time>2021-11-28T10:19:59.000Z</time>
      </trkpt>
      <trkpt lat="47.27415" lon="-2.25392">
        <ele>6.4000000953674</ele>
        <time>2021-11-28T10:20:02.000Z</time>
      </trkpt>
      <trkpt lat="47.2742" lon="-2.254">
        <ele>6.4000000953674</ele>
        <time>2021-11-28T10:20:04.000Z</time>
      </trkpt>
      <trkpt lat="47.27434" lon="-2.25421">
        <ele>6.4000000953674</ele>
        <time>2021-11-28T10:20:08.000Z</time>
      </trkpt>
      <trkpt lat="47.27443" lon="-2.2543">
        <ele>6.4000000953674</ele>
        <time>2021-11-28T10:20:10.000Z</time>
      </trkpt>
      <trkpt lat="47.27454" lon="-2.25437">
        <ele>6.4000000953674</ele>
        <time>2021-11-28T10:20:12.000Z</time>
      </trkpt>
      <trkpt lat="47.27459" lon="-2.25438">
        <ele>6.4000000953674</ele>
        <time>2021-11-28T10:20:13.000Z</time>
      </trkpt>
      <trkpt lat="47.27469" lon="-2.2544">
        <ele>6.4000000953674</ele>
        <time>2021-11-28T10:20:15.000Z</time>
      </trkpt>
      <trkpt lat="47.27485" lon="-2.25438">
        <ele>6.4000000953674</ele>
        <time>2021-11-28T10:20:18.000Z</time>
      </trkpt>
      <trkpt lat="47.2749" lon="-2.25438">
        <ele>6.4000000953674</ele>
        <time>2021-11-28T10:20:19.000Z</time>
      </trkpt>
      <trkpt lat="47.27499" lon="-2.25442">
        <ele>6.4000000953674</ele>
        <time>2021-11-28T10:20:21.000Z</time>
      </trkpt>
      <trkpt lat="47.27502" lon="-2.25448">
        <ele>6.4000000953674</ele>
        <time>2021-11-28T10:20:22.000Z</time>
      </trkpt>
      <trkpt lat="47.27526" lon="-2.25474">
        <ele>6.4000000953674</ele>
        <time>2021-11-28T10:20:28.000Z</time>
      </trkpt>
      <trkpt lat="47.2753" lon="-2.25479">
        <ele>6.4000000953674</ele>
        <time>2021-11-28T10:20:29.000Z</time>
      </trkpt>
      <trkpt lat="47.27538" lon="-2.25498">
        <ele>6.4000000953674</ele>
        <time>2021-11-28T10:20:32.000Z</time>
      </trkpt>
      <trkpt lat="47.2755" lon="-2.25533">
        <ele>6.4000000953674</ele>
        <time>2021-11-28T10:20:38.000Z</time>
      </trkpt>
      <trkpt lat="47.27559" lon="-2.25578">
        <ele>6.4000000953674</ele>
        <time>2021-11-28T10:20:45.000Z</time>
      </trkpt>
      <trkpt lat="47.2756" lon="-2.25616">
        <ele>6.4000000953674</ele>
        <time>2021-11-28T10:20:52.000Z</time>
      </trkpt>
      <trkpt lat="47.27563" lon="-2.25643">
        <ele>6.4000000953674</ele>
        <time>2021-11-28T10:20:57.000Z</time>
      </trkpt>
      <trkpt lat="47.27562" lon="-2.25647">
        <ele>6.4000000953674</ele>
        <time>2021-11-28T10:20:58.000Z</time>
      </trkpt>
      <trkpt lat="47.27558" lon="-2.25656">
        <ele>6.4000000953674</ele>
        <time>2021-11-28T10:21:00.000Z</time>
      </trkpt>
      <trkpt lat="47.27545" lon="-2.25685">
        <ele>6.4000000953674</ele>
        <time>2021-11-28T10:21:06.000Z</time>
      </trkpt>
      <trkpt lat="47.27525" lon="-2.25723">
        <ele>6.4000000953674</ele>
        <time>2021-11-28T10:21:14.000Z</time>
      </trkpt>
      <trkpt lat="47.27522" lon="-2.25726">
        <ele>6.8000001907349</ele>
        <time>2021-11-28T10:21:15.000Z</time>
      </trkpt>
      <trkpt lat="47.2752" lon="-2.25731">
        <ele>7.4000000953674</ele>
        <time>2021-11-28T10:21:16.000Z</time>
      </trkpt>
      <trkpt lat="47.27517" lon="-2.25735">
        <ele>7.8000001907349</ele>
        <time>2021-11-28T10:21:17.000Z</time>
      </trkpt>
      <trkpt lat="47.27514" lon="-2.25739">
        <ele>8.1999998092651</ele>
        <time>2021-11-28T10:21:18.000Z</time>
      </trkpt>
      <trkpt lat="47.27511" lon="-2.25743">
        <ele>8.8000001907349</ele>
        <time>2021-11-28T10:21:19.000Z</time>
      </trkpt>
      <trkpt lat="47.27508" lon="-2.25747">
        <ele>8.8000001907349</ele>
        <time>2021-11-28T10:21:20.000Z</time>
      </trkpt>
      <trkpt lat="47.27487" lon="-2.25773">
        <ele>8.8000001907349</ele>
        <time>2021-11-28T10:21:27.000Z</time>
      </trkpt>
      <trkpt lat="47.27464" lon="-2.25794">
        <ele>8.8000001907349</ele>
        <time>2021-11-28T10:21:34.000Z</time>
      </trkpt>
      <trkpt lat="47.27451" lon="-2.2581">
        <ele>8.8000001907349</ele>
        <time>2021-11-28T10:21:38.000Z</time>
      </trkpt>
      <trkpt lat="47.27435" lon="-2.25841">
        <ele>8.8000001907349</ele>
        <time>2021-11-28T10:21:44.000Z</time>
      </trkpt>
      <trkpt lat="47.27414" lon="-2.25879">
        <ele>8.8000001907349</ele>
        <time>2021-11-28T10:21:52.000Z</time>
      </trkpt>
      <trkpt lat="47.27403" lon="-2.25898">
        <ele>8.8000001907349</ele>
        <time>2021-11-28T10:21:56.000Z</time>
      </trkpt>
      <trkpt lat="47.27397" lon="-2.25906">
        <ele>8.8000001907349</ele>
        <time>2021-11-28T10:21:58.000Z</time>
      </trkpt>
      <trkpt lat="47.27378" lon="-2.2593">
        <ele>8.8000001907349</ele>
        <time>2021-11-28T10:22:04.000Z</time>
      </trkpt>
      <trkpt lat="47.27368" lon="-2.25945">
        <ele>8.8000001907349</ele>
        <time>2021-11-28T10:22:08.000Z</time>
      </trkpt>
      <trkpt lat="47.27351" lon="-2.25956">
        <ele>8.8000001907349</ele>
        <time>2021-11-28T10:22:13.000Z</time>
      </trkpt>
      <trkpt lat="47.27327" lon="-2.25968">
        <ele>8.8000001907349</ele>
        <time>2021-11-28T10:22:19.000Z</time>
      </trkpt>
      <trkpt lat="47.27301" lon="-2.25986">
        <ele>8.8000001907349</ele>
        <time>2021-11-28T10:22:26.000Z</time>
      </trkpt>
      <trkpt lat="47.27293" lon="-2.25999">
        <ele>8.8000001907349</ele>
        <time>2021-11-28T10:22:30.000Z</time>
      </trkpt>
      <trkpt lat="47.27297" lon="-2.2601">
        <ele>8.8000001907349</ele>
        <time>2021-11-28T10:22:33.000Z</time>
      </trkpt>
      <trkpt lat="47.27299" lon="-2.26014">
        <ele>8.8000001907349</ele>
        <time>2021-11-28T10:22:34.000Z</time>
      </trkpt>
      <trkpt lat="47.27313" lon="-2.26036">
        <ele>8.8000001907349</ele>
        <time>2021-11-28T10:22:39.000Z</time>
      </trkpt>
      <trkpt lat="47.27322" lon="-2.26051">
        <ele>9.6000003814697</ele>
        <time>2021-11-28T10:22:42.000Z</time>
      </trkpt>
      <trkpt lat="47.27324" lon="-2.26057">
        <ele>10</ele>
        <time>2021-11-28T10:22:43.000Z</time>
      </trkpt>
      <trkpt lat="47.27327" lon="-2.26063">
        <ele>10.39999961853</ele>
        <time>2021-11-28T10:22:44.000Z</time>
      </trkpt>
      <trkpt lat="47.27329" lon="-2.26068">
        <ele>10.800000190735</ele>
        <time>2021-11-28T10:22:45.000Z</time>
      </trkpt>
      <trkpt lat="47.27345" lon="-2.26105">
        <ele>10.800000190735</ele>
        <time>2021-11-28T10:22:52.000Z</time>
      </trkpt>
      <trkpt lat="47.27347" lon="-2.26121">
        <ele>10.800000190735</ele>
        <time>2021-11-28T10:22:56.000Z</time>
      </trkpt>
      <trkpt lat="47.27336" lon="-2.26128">
        <ele>10.800000190735</ele>
        <time>2021-11-28T10:22:59.000Z</time>
      </trkpt>
      <trkpt lat="47.27326" lon="-2.26132">
        <ele>10.800000190735</ele>
        <time>2021-11-28T10:23:01.000Z</time>
      </trkpt>
      <trkpt lat="47.27311" lon="-2.26137">
        <ele>10.800000190735</ele>
        <time>2021-11-28T10:23:04.000Z</time>
      </trkpt>
      <trkpt lat="47.27274" lon="-2.26153">
        <ele>10.800000190735</ele>
        <time>2021-11-28T10:23:11.000Z</time>
      </trkpt>
      <trkpt lat="47.27238" lon="-2.26169">
        <ele>10.800000190735</ele>
        <time>2021-11-28T10:23:18.000Z</time>
      </trkpt>
      <trkpt lat="47.27205" lon="-2.26193">
        <ele>10.800000190735</ele>
        <time>2021-11-28T10:23:24.000Z</time>
      </trkpt>
      <trkpt lat="47.27184" lon="-2.26213">
        <ele>11.199999809265</ele>
        <time>2021-11-28T10:23:28.000Z</time>
      </trkpt>
      <trkpt lat="47.27179" lon="-2.26218">
        <ele>11.60000038147</ele>
        <time>2021-11-28T10:23:29.000Z</time>
      </trkpt>
      <trkpt lat="47.27174" lon="-2.26223">
        <ele>12</ele>
        <time>2021-11-28T10:23:30.000Z</time>
      </trkpt>
      <trkpt lat="47.27169" lon="-2.26228">
        <ele>12.60000038147</ele>
        <time>2021-11-28T10:23:31.000Z</time>
      </trkpt>
      <trkpt lat="47.27165" lon="-2.26234">
        <ele>13</ele>
        <time>2021-11-28T10:23:32.000Z</time>
      </trkpt>
      <trkpt lat="47.27141" lon="-2.26265">
        <ele>13</ele>
        <time>2021-11-28T10:23:38.000Z</time>
      </trkpt>
      <trkpt lat="47.27114" lon="-2.26303">
        <ele>13</ele>
        <time>2021-11-28T10:23:46.000Z</time>
      </trkpt>
      <trkpt lat="47.27104" lon="-2.26317">
        <ele>13.39999961853</ele>
        <time>2021-11-28T10:23:49.000Z</time>
      </trkpt>
      <trkpt lat="47.27101" lon="-2.26321">
        <ele>13.800000190735</ele>
        <time>2021-11-28T10:23:50.000Z</time>
      </trkpt>
      <trkpt lat="47.27097" lon="-2.26326">
        <ele>14.199999809265</ele>
        <time>2021-11-28T10:23:51.000Z</time>
      </trkpt>
      <trkpt lat="47.27094" lon="-2.2633">
        <ele>14.60000038147</ele>
        <time>2021-11-28T10:23:52.000Z</time>
      </trkpt>
      <trkpt lat="47.27091" lon="-2.26335">
        <ele>15</ele>
        <time>2021-11-28T10:23:53.000Z</time>
      </trkpt>
      <trkpt lat="47.27071" lon="-2.26365">
        <ele>15</ele>
        <time>2021-11-28T10:23:59.000Z</time>
      </trkpt>
      <trkpt lat="47.27067" lon="-2.26369">
        <ele>15</ele>
        <time>2021-11-28T10:24:00.000Z</time>
      </trkpt>
      <trkpt lat="47.27049" lon="-2.26393">
        <ele>15</ele>
        <time>2021-11-28T10:24:05.000Z</time>
      </trkpt>
      <trkpt lat="47.27026" lon="-2.26428">
        <ele>15</ele>
        <time>2021-11-28T10:24:11.000Z</time>
      </trkpt>
      <trkpt lat="47.26999" lon="-2.26467">
        <ele>15</ele>
        <time>2021-11-28T10:24:18.000Z</time>
      </trkpt>
      <trkpt lat="47.26991" lon="-2.26478">
        <ele>15</ele>
        <time>2021-11-28T10:24:20.000Z</time>
      </trkpt>
      <trkpt lat="47.26975" lon="-2.26494">
        <ele>15</ele>
        <time>2021-11-28T10:24:24.000Z</time>
      </trkpt>
      <trkpt lat="47.26971" lon="-2.26498">
        <ele>15</ele>
        <time>2021-11-28T10:24:25.000Z</time>
      </trkpt>
      <trkpt lat="47.26967" lon="-2.26515">
        <ele>15</ele>
        <time>2021-11-28T10:24:28.000Z</time>
      </trkpt>
      <trkpt lat="47.26972" lon="-2.26528">
        <ele>15</ele>
        <time>2021-11-28T10:24:30.000Z</time>
      </trkpt>
      <trkpt lat="47.26978" lon="-2.26542">
        <ele>15</ele>
        <time>2021-11-28T10:24:32.000Z</time>
      </trkpt>
      <trkpt lat="47.26983" lon="-2.26557">
        <ele>15</ele>
        <time>2021-11-28T10:24:34.000Z</time>
      </trkpt>
      <trkpt lat="47.26991" lon="-2.2657">
        <ele>15</ele>
        <time>2021-11-28T10:24:36.000Z</time>
      </trkpt>
      <trkpt lat="47.27" lon="-2.2658">
        <ele>15</ele>
        <time>2021-11-28T10:24:38.000Z</time>
      </trkpt>
      <trkpt lat="47.27004" lon="-2.26585">
        <ele>14.60000038147</ele>
        <time>2021-11-28T10:24:39.000Z</time>
      </trkpt>
      <trkpt lat="47.27008" lon="-2.2659">
        <ele>14.199999809265</ele>
        <time>2021-11-28T10:24:40.000Z</time>
      </trkpt>
      <trkpt lat="47.27011" lon="-2.26595">
        <ele>13.800000190735</ele>
        <time>2021-11-28T10:24:41.000Z</time>
      </trkpt>
      <trkpt lat="47.27015" lon="-2.266">
        <ele>13.39999961853</ele>
        <time>2021-11-28T10:24:42.000Z</time>
      </trkpt>
      <trkpt lat="47.27018" lon="-2.26605">
        <ele>13</ele>
        <time>2021-11-28T10:24:43.000Z</time>
      </trkpt>
      <trkpt lat="47.27022" lon="-2.26609">
        <ele>13</ele>
        <time>2021-11-28T10:24:44.000Z</time>
      </trkpt>
      <trkpt lat="47.27033" lon="-2.26625">
        <ele>13</ele>
        <time>2021-11-28T10:24:47.000Z</time>
      </trkpt>
      <trkpt lat="47.27036" lon="-2.26631">
        <ele>13</ele>
        <time>2021-11-28T10:24:48.000Z</time>
      </trkpt>
      <trkpt lat="47.2704" lon="-2.26641">
        <ele>13</ele>
        <time>2021-11-28T10:24:50.000Z</time>
      </trkpt>
      <trkpt lat="47.2704" lon="-2.26647">
        <ele>13</ele>
        <time>2021-11-28T10:24:51.000Z</time>
      </trkpt>
      <trkpt lat="47.2704" lon="-2.26683">
        <ele>12.60000038147</ele>
        <time>2021-11-28T10:24:57.000Z</time>
      </trkpt>
      <trkpt lat="47.27041" lon="-2.2669">
        <ele>12</ele>
        <time>2021-11-28T10:24:58.000Z</time>
      </trkpt>
      <trkpt lat="47.27041" lon="-2.26696">
        <ele>11.60000038147</ele>
        <time>2021-11-28T10:24:59.000Z</time>
      </trkpt>
      <trkpt lat="47.27041" lon="-2.26702">
        <ele>11.199999809265</ele>
        <time>2021-11-28T10:25:00.000Z</time>
      </trkpt>
      <trkpt lat="47.27041" lon="-2.26708">
        <ele>10.800000190735</ele>
        <time>2021-11-28T10:25:01.000Z</time>
      </trkpt>
      <trkpt lat="47.27041" lon="-2.26712">
        <ele>10.800000190735</ele>
        <time>2021-11-28T10:25:02.000Z</time>
      </trkpt>
      <trkpt lat="47.27038" lon="-2.2673">
        <ele>10.800000190735</ele>
        <time>2021-11-28T10:25:07.000Z</time>
      </trkpt>
      <trkpt lat="47.27036" lon="-2.26735">
        <ele>10.800000190735</ele>
        <time>2021-11-28T10:25:12.000Z</time>
      </trkpt>
      <trkpt lat="47.27033" lon="-2.26742">
        <ele>10.800000190735</ele>
        <time>2021-11-28T10:25:24.000Z</time>
      </trkpt>
      <trkpt lat="47.27023" lon="-2.2675">
        <ele>10.800000190735</ele>
        <time>2021-11-28T10:25:28.000Z</time>
      </trkpt>
      <trkpt lat="47.27022" lon="-2.26754">
        <ele>10.800000190735</ele>
        <time>2021-11-28T10:25:29.000Z</time>
      </trkpt>
      <trkpt lat="47.27017" lon="-2.26765">
        <ele>10.800000190735</ele>
        <time>2021-11-28T10:25:33.000Z</time>
      </trkpt>
      <trkpt lat="47.27015" lon="-2.26768">
        <ele>10.800000190735</ele>
        <time>2021-11-28T10:25:34.000Z</time>
      </trkpt>
      <trkpt lat="47.27005" lon="-2.26777">
        <ele>10.800000190735</ele>
        <time>2021-11-28T10:25:38.000Z</time>
      </trkpt>
      <trkpt lat="47.26992" lon="-2.26787">
        <ele>10.800000190735</ele>
        <time>2021-11-28T10:25:43.000Z</time>
      </trkpt>
      <trkpt lat="47.26974" lon="-2.26802">
        <ele>10.800000190735</ele>
        <time>2021-11-28T10:25:48.000Z</time>
      </trkpt>
      <trkpt lat="47.26961" lon="-2.26822">
        <ele>10.800000190735</ele>
        <time>2021-11-28T10:25:53.000Z</time>
      </trkpt>
      <trkpt lat="47.26961" lon="-2.26842">
        <ele>10.800000190735</ele>
        <time>2021-11-28T10:25:59.000Z</time>
      </trkpt>
      <trkpt lat="47.26961" lon="-2.26856">
        <ele>10.800000190735</ele>
        <time>2021-11-28T10:26:05.000Z</time>
      </trkpt>
      <trkpt lat="47.26961" lon="-2.26863">
        <ele>10.800000190735</ele>
        <time>2021-11-28T10:26:09.000Z</time>
      </trkpt>
      <trkpt lat="47.26962" lon="-2.26865">
        <ele>10.800000190735</ele>
        <time>2021-11-28T10:26:22.000Z</time>
      </trkpt>
      <trkpt lat="47.26963" lon="-2.26867">
        <ele>10.800000190735</ele>
        <time>2021-11-28T10:26:23.000Z</time>
      </trkpt>
      <trkpt lat="47.26966" lon="-2.26882">
        <ele>10.800000190735</ele>
        <time>2021-11-28T10:26:31.000Z</time>
      </trkpt>
      <trkpt lat="47.26967" lon="-2.26886">
        <ele>11.199999809265</ele>
        <time>2021-11-28T10:26:34.000Z</time>
      </trkpt>
      <trkpt lat="47.26967" lon="-2.26893">
        <ele>12.800000190735</ele>
        <time>2021-11-28T10:26:51.000Z</time>
      </trkpt>
      <trkpt lat="47.26968" lon="-2.26896">
        <ele>12.800000190735</ele>
        <time>2021-11-28T10:26:52.000Z</time>
      </trkpt>
      <trkpt lat="47.26967" lon="-2.26915">
        <ele>12.800000190735</ele>
        <time>2021-11-28T10:26:57.000Z</time>
      </trkpt>
      <trkpt lat="47.26963" lon="-2.26939">
        <ele>12.800000190735</ele>
        <time>2021-11-28T10:27:03.000Z</time>
      </trkpt>
      <trkpt lat="47.26958" lon="-2.2697">
        <ele>12.800000190735</ele>
        <time>2021-11-28T10:27:10.000Z</time>
      </trkpt>
      <trkpt lat="47.26957" lon="-2.26976">
        <ele>12.800000190735</ele>
        <time>2021-11-28T10:27:13.000Z</time>
      </trkpt>
      <trkpt lat="47.26956" lon="-2.26981">
        <ele>12.800000190735</ele>
        <time>2021-11-28T10:27:27.000Z</time>
      </trkpt>
      <trkpt lat="47.26949" lon="-2.26995">
        <ele>12.800000190735</ele>
        <time>2021-11-28T10:27:32.000Z</time>
      </trkpt>
      <trkpt lat="47.2694" lon="-2.27014">
        <ele>13.199999809265</ele>
        <time>2021-11-28T10:27:37.000Z</time>
      </trkpt>
      <trkpt lat="47.26938" lon="-2.27018">
        <ele>13.800000190735</ele>
        <time>2021-11-28T10:27:38.000Z</time>
      </trkpt>
      <trkpt lat="47.26935" lon="-2.27022">
        <ele>14.60000038147</ele>
        <time>2021-11-28T10:27:39.000Z</time>
      </trkpt>
      <trkpt lat="47.26933" lon="-2.27027">
        <ele>15</ele>
        <time>2021-11-28T10:27:40.000Z</time>
      </trkpt>
      <trkpt lat="47.26917" lon="-2.2705">
        <ele>15</ele>
        <time>2021-11-28T10:27:46.000Z</time>
      </trkpt>
      <trkpt lat="47.2691" lon="-2.27057">
        <ele>15.39999961853</ele>
        <time>2021-11-28T10:27:48.000Z</time>
      </trkpt>
      <trkpt lat="47.26907" lon="-2.2706">
        <ele>15.800000190735</ele>
        <time>2021-11-28T10:27:49.000Z</time>
      </trkpt>
      <trkpt lat="47.26904" lon="-2.27064">
        <ele>16.200000762939</ele>
        <time>2021-11-28T10:27:50.000Z</time>
      </trkpt>
      <trkpt lat="47.26902" lon="-2.27068">
        <ele>16.60000038147</ele>
        <time>2021-11-28T10:27:51.000Z</time>
      </trkpt>
      <trkpt lat="47.26899" lon="-2.27071">
        <ele>17</ele>
        <time>2021-11-28T10:27:52.000Z</time>
      </trkpt>
      <trkpt lat="47.26896" lon="-2.27074">
        <ele>17</ele>
        <time>2021-11-28T10:27:53.000Z</time>
      </trkpt>
      <trkpt lat="47.26882" lon="-2.27089">
        <ele>17.39999961853</ele>
        <time>2021-11-28T10:27:59.000Z</time>
      </trkpt>
      <trkpt lat="47.2688" lon="-2.27092">
        <ele>18</ele>
        <time>2021-11-28T10:28:00.000Z</time>
      </trkpt>
      <trkpt lat="47.26878" lon="-2.27095">
        <ele>18.39999961853</ele>
        <time>2021-11-28T10:28:01.000Z</time>
      </trkpt>
      <trkpt lat="47.26875" lon="-2.27097">
        <ele>18.799999237061</ele>
        <time>2021-11-28T10:28:02.000Z</time>
      </trkpt>
      <trkpt lat="47.26872" lon="-2.271">
        <ele>19.200000762939</ele>
        <time>2021-11-28T10:28:03.000Z</time>
      </trkpt>
      <trkpt lat="47.26865" lon="-2.27105">
        <ele>19.200000762939</ele>
        <time>2021-11-28T10:28:05.000Z</time>
      </trkpt>
      <trkpt lat="47.26847" lon="-2.27116">
        <ele>19.60000038147</ele>
        <time>2021-11-28T10:28:10.000Z</time>
      </trkpt>
      <trkpt lat="47.26843" lon="-2.27118">
        <ele>20</ele>
        <time>2021-11-28T10:28:11.000Z</time>
      </trkpt>
      <trkpt lat="47.26839" lon="-2.2712">
        <ele>20.39999961853</ele>
        <time>2021-11-28T10:28:12.000Z</time>
      </trkpt>
      <trkpt lat="47.26835" lon="-2.27121">
        <ele>20.799999237061</ele>
        <time>2021-11-28T10:28:13.000Z</time>
      </trkpt>
      <trkpt lat="47.26831" lon="-2.27122">
        <ele>21.200000762939</ele>
        <time>2021-11-28T10:28:14.000Z</time>
      </trkpt>
      <trkpt lat="47.26818" lon="-2.27126">
        <ele>21.200000762939</ele>
        <time>2021-11-28T10:28:17.000Z</time>
      </trkpt>
      <trkpt lat="47.26784" lon="-2.27138">
        <ele>21.200000762939</ele>
        <time>2021-11-28T10:28:25.000Z</time>
      </trkpt>
      <trkpt lat="47.26772" lon="-2.27145">
        <ele>21.200000762939</ele>
        <time>2021-11-28T10:28:28.000Z</time>
      </trkpt>
      <trkpt lat="47.26761" lon="-2.27155">
        <ele>21.60000038147</ele>
        <time>2021-11-28T10:28:31.000Z</time>
      </trkpt>
      <trkpt lat="47.26758" lon="-2.27159">
        <ele>22</ele>
        <time>2021-11-28T10:28:32.000Z</time>
      </trkpt>
      <trkpt lat="47.26755" lon="-2.27163">
        <ele>22.39999961853</ele>
        <time>2021-11-28T10:28:33.000Z</time>
      </trkpt>
      <trkpt lat="47.26751" lon="-2.27166">
        <ele>22.799999237061</ele>
        <time>2021-11-28T10:28:34.000Z</time>
      </trkpt>
      <trkpt lat="47.26747" lon="-2.27169">
        <ele>23.200000762939</ele>
        <time>2021-11-28T10:28:35.000Z</time>
      </trkpt>
      <trkpt lat="47.26743" lon="-2.27172">
        <ele>23.200000762939</ele>
        <time>2021-11-28T10:28:36.000Z</time>
      </trkpt>
      <trkpt lat="47.2673" lon="-2.27186">
        <ele>23.200000762939</ele>
        <time>2021-11-28T10:28:41.000Z</time>
      </trkpt>
      <trkpt lat="47.26721" lon="-2.272">
        <ele>23.799999237061</ele>
        <time>2021-11-28T10:28:46.000Z</time>
      </trkpt>
      <trkpt lat="47.26721" lon="-2.27204">
        <ele>24.200000762939</ele>
        <time>2021-11-28T10:28:47.000Z</time>
      </trkpt>
      <trkpt lat="47.26721" lon="-2.27207">
        <ele>24.60000038147</ele>
        <time>2021-11-28T10:28:48.000Z</time>
      </trkpt>
      <trkpt lat="47.26722" lon="-2.27212">
        <ele>25</ele>
        <time>2021-11-28T10:28:49.000Z</time>
      </trkpt>
      <trkpt lat="47.26723" lon="-2.27217">
        <ele>25.39999961853</ele>
        <time>2021-11-28T10:28:50.000Z</time>
      </trkpt>
      <trkpt lat="47.26731" lon="-2.27254">
        <ele>25.39999961853</ele>
        <time>2021-11-28T10:28:56.000Z</time>
      </trkpt>
      <trkpt lat="47.26739" lon="-2.27304">
        <ele>25.39999961853</ele>
        <time>2021-11-28T10:29:03.000Z</time>
      </trkpt>
      <trkpt lat="47.26741" lon="-2.27346">
        <ele>25.39999961853</ele>
        <time>2021-11-28T10:29:09.000Z</time>
      </trkpt>
      <trkpt lat="47.26738" lon="-2.27351">
        <ele>25.39999961853</ele>
        <time>2021-11-28T10:29:10.000Z</time>
      </trkpt>
      <trkpt lat="47.26724" lon="-2.27359">
        <ele>25.39999961853</ele>
        <time>2021-11-28T10:29:13.000Z</time>
      </trkpt>
      <trkpt lat="47.26687" lon="-2.27377">
        <ele>25.39999961853</ele>
        <time>2021-11-28T10:29:20.000Z</time>
      </trkpt>
      <trkpt lat="47.26657" lon="-2.274">
        <ele>25.39999961853</ele>
        <time>2021-11-28T10:29:26.000Z</time>
      </trkpt>
      <trkpt lat="47.26626" lon="-2.27431">
        <ele>25.39999961853</ele>
        <time>2021-11-28T10:29:33.000Z</time>
      </trkpt>
      <trkpt lat="47.266" lon="-2.27459">
        <ele>25.39999961853</ele>
        <time>2021-11-28T10:29:39.000Z</time>
      </trkpt>
      <trkpt lat="47.26579" lon="-2.27487">
        <ele>25.39999961853</ele>
        <time>2021-11-28T10:29:44.000Z</time>
      </trkpt>
      <trkpt lat="47.26576" lon="-2.27495">
        <ele>25.39999961853</ele>
        <time>2021-11-28T10:29:45.000Z</time>
      </trkpt>
      <trkpt lat="47.26566" lon="-2.27525">
        <ele>25.39999961853</ele>
        <time>2021-11-28T10:29:49.000Z</time>
      </trkpt>
      <trkpt lat="47.26563" lon="-2.27532">
        <ele>25.39999961853</ele>
        <time>2021-11-28T10:29:50.000Z</time>
      </trkpt>
      <trkpt lat="47.26551" lon="-2.2755">
        <ele>25.39999961853</ele>
        <time>2021-11-28T10:29:53.000Z</time>
      </trkpt>
      <trkpt lat="47.26547" lon="-2.27554">
        <ele>25.39999961853</ele>
        <time>2021-11-28T10:29:54.000Z</time>
      </trkpt>
      <trkpt lat="47.26542" lon="-2.27559">
        <ele>25</ele>
        <time>2021-11-28T10:29:55.000Z</time>
      </trkpt>
      <trkpt lat="47.26539" lon="-2.27564">
        <ele>24.60000038147</ele>
        <time>2021-11-28T10:29:56.000Z</time>
      </trkpt>
      <trkpt lat="47.26537" lon="-2.27567">
        <ele>24.200000762939</ele>
        <time>2021-11-28T10:29:57.000Z</time>
      </trkpt>
      <trkpt lat="47.26535" lon="-2.27569">
        <ele>23.799999237061</ele>
        <time>2021-11-28T10:29:58.000Z</time>
      </trkpt>
      <trkpt lat="47.26534" lon="-2.2757">
        <ele>23.200000762939</ele>
        <time>2021-11-28T10:29:59.000Z</time>
      </trkpt>
      <trkpt lat="47.26534" lon="-2.2757">
        <ele>23.200000762939</ele>
        <time>2021-11-28T10:30:00.000Z</time>
      </trkpt>
      <trkpt lat="47.26534" lon="-2.2757">
        <ele>23.200000762939</ele>
        <time>2021-11-28T10:30:33.000Z</time>
      </trkpt>
      <trkpt lat="47.26532" lon="-2.27571">
        <ele>23.200000762939</ele>
        <time>2021-11-28T10:30:34.000Z</time>
      </trkpt>
      <trkpt lat="47.26519" lon="-2.27571">
        <ele>23.200000762939</ele>
        <time>2021-11-28T10:30:41.000Z</time>
      </trkpt>
      <trkpt lat="47.26503" lon="-2.27575">
        <ele>23.200000762939</ele>
        <time>2021-11-28T10:30:46.000Z</time>
      </trkpt>
      <trkpt lat="47.26499" lon="-2.27574">
        <ele>23.200000762939</ele>
        <time>2021-11-28T10:30:47.000Z</time>
      </trkpt>
      <trkpt lat="47.26494" lon="-2.27566">
        <ele>23.200000762939</ele>
        <time>2021-11-28T10:30:49.000Z</time>
      </trkpt>
      <trkpt lat="47.26489" lon="-2.2754">
        <ele>23.200000762939</ele>
        <time>2021-11-28T10:30:53.000Z</time>
      </trkpt>
      <trkpt lat="47.26488" lon="-2.27534">
        <ele>23.200000762939</ele>
        <time>2021-11-28T10:30:54.000Z</time>
      </trkpt>
      <trkpt lat="47.2648" lon="-2.27501">
        <ele>23.200000762939</ele>
        <time>2021-11-28T10:30:59.000Z</time>
      </trkpt>
      <trkpt lat="47.26474" lon="-2.2748">
        <ele>23.200000762939</ele>
        <time>2021-11-28T10:31:04.000Z</time>
      </trkpt>
      <trkpt lat="47.26474" lon="-2.27477">
        <ele>23.200000762939</ele>
        <time>2021-11-28T10:31:07.000Z</time>
      </trkpt>
      <trkpt lat="47.26472" lon="-2.27466">
        <ele>25.60000038147</ele>
        <time>2021-11-28T10:34:03.000Z</time>
      </trkpt>
      <trkpt lat="47.26465" lon="-2.27449">
        <ele>25.60000038147</ele>
        <time>2021-11-28T10:34:09.000Z</time>
      </trkpt>
      <trkpt lat="47.26458" lon="-2.27423">
        <ele>25.60000038147</ele>
        <time>2021-11-28T10:34:15.000Z</time>
      </trkpt>
      <trkpt lat="47.26447" lon="-2.2739">
        <ele>25.60000038147</ele>
        <time>2021-11-28T10:34:22.000Z</time>
      </trkpt>
      <trkpt lat="47.26436" lon="-2.2736">
        <ele>25.60000038147</ele>
        <time>2021-11-28T10:34:28.000Z</time>
      </trkpt>
      <trkpt lat="47.26424" lon="-2.27341">
        <ele>25.60000038147</ele>
        <time>2021-11-28T10:34:33.000Z</time>
      </trkpt>
      <trkpt lat="47.26418" lon="-2.27336">
        <ele>26</ele>
        <time>2021-11-28T10:34:36.000Z</time>
      </trkpt>
      <trkpt lat="47.26417" lon="-2.27335">
        <ele>26.39999961853</ele>
        <time>2021-11-28T10:34:37.000Z</time>
      </trkpt>
      <trkpt lat="47.26416" lon="-2.27334">
        <ele>26.799999237061</ele>
        <time>2021-11-28T10:34:38.000Z</time>
      </trkpt>
      <trkpt lat="47.26415" lon="-2.27333">
        <ele>27.200000762939</ele>
        <time>2021-11-28T10:34:39.000Z</time>
      </trkpt>
      <trkpt lat="47.26414" lon="-2.27332">
        <ele>27.799999237061</ele>
        <time>2021-11-28T10:34:40.000Z</time>
      </trkpt>
      <trkpt lat="47.26414" lon="-2.27332">
        <ele>27.799999237061</ele>
        <time>2021-11-28T10:34:41.000Z</time>
      </trkpt>
      <trkpt lat="47.26411" lon="-2.27333">
        <ele>27.799999237061</ele>
        <time>2021-11-28T10:35:35.000Z</time>
      </trkpt>
      <trkpt lat="47.264" lon="-2.2733">
        <ele>27.799999237061</ele>
        <time>2021-11-28T10:35:40.000Z</time>
      </trkpt>
      <trkpt lat="47.26379" lon="-2.2733">
        <ele>27.799999237061</ele>
        <time>2021-11-28T10:35:45.000Z</time>
      </trkpt>
      <trkpt lat="47.26362" lon="-2.2733">
        <ele>27.799999237061</ele>
        <time>2021-11-28T10:35:49.000Z</time>
      </trkpt>
      <trkpt lat="47.26345" lon="-2.27328">
        <ele>27.799999237061</ele>
        <time>2021-11-28T10:35:53.000Z</time>
      </trkpt>
      <trkpt lat="47.26323" lon="-2.27326">
        <ele>27.799999237061</ele>
        <time>2021-11-28T10:35:58.000Z</time>
      </trkpt>
      <trkpt lat="47.26315" lon="-2.27326">
        <ele>27.799999237061</ele>
        <time>2021-11-28T10:36:00.000Z</time>
      </trkpt>
      <trkpt lat="47.26289" lon="-2.27322">
        <ele>27.799999237061</ele>
        <time>2021-11-28T10:36:06.000Z</time>
      </trkpt>
      <trkpt lat="47.26277" lon="-2.27321">
        <ele>28.200000762939</ele>
        <time>2021-11-28T10:36:09.000Z</time>
      </trkpt>
      <trkpt lat="47.26273" lon="-2.2732">
        <ele>28.60000038147</ele>
        <time>2021-11-28T10:36:10.000Z</time>
      </trkpt>
      <trkpt lat="47.26269" lon="-2.2732">
        <ele>29</ele>
        <time>2021-11-28T10:36:11.000Z</time>
      </trkpt>
      <trkpt lat="47.26265" lon="-2.2732">
        <ele>29.39999961853</ele>
        <time>2021-11-28T10:36:12.000Z</time>
      </trkpt>
      <trkpt lat="47.2626" lon="-2.2732">
        <ele>29.799999237061</ele>
        <time>2021-11-28T10:36:13.000Z</time>
      </trkpt>
      <trkpt lat="47.26236" lon="-2.27317">
        <ele>29.799999237061</ele>
        <time>2021-11-28T10:36:19.000Z</time>
      </trkpt>
      <trkpt lat="47.26209" lon="-2.27312">
        <ele>29.799999237061</ele>
        <time>2021-11-28T10:36:26.000Z</time>
      </trkpt>
      <trkpt lat="47.26185" lon="-2.27315">
        <ele>29.799999237061</ele>
        <time>2021-11-28T10:36:33.000Z</time>
      </trkpt>
      <trkpt lat="47.26155" lon="-2.27317">
        <ele>29.799999237061</ele>
        <time>2021-11-28T10:36:40.000Z</time>
      </trkpt>
      <trkpt lat="47.26143" lon="-2.27317">
        <ele>29.799999237061</ele>
        <time>2021-11-28T10:36:43.000Z</time>
      </trkpt>
      <trkpt lat="47.26136" lon="-2.27322">
        <ele>29.799999237061</ele>
        <time>2021-11-28T10:36:45.000Z</time>
      </trkpt>
      <trkpt lat="47.2613" lon="-2.27329">
        <ele>29.799999237061</ele>
        <time>2021-11-28T10:36:47.000Z</time>
      </trkpt>
      <trkpt lat="47.26115" lon="-2.27343">
        <ele>29.799999237061</ele>
        <time>2021-11-28T10:36:51.000Z</time>
      </trkpt>
      <trkpt lat="47.26095" lon="-2.27367">
        <ele>29.799999237061</ele>
        <time>2021-11-28T10:36:57.000Z</time>
      </trkpt>
      <trkpt lat="47.26076" lon="-2.2739">
        <ele>29.799999237061</ele>
        <time>2021-11-28T10:37:03.000Z</time>
      </trkpt>
      <trkpt lat="47.26064" lon="-2.27415">
        <ele>29.799999237061</ele>
        <time>2021-11-28T10:37:08.000Z</time>
      </trkpt>
      <trkpt lat="47.26046" lon="-2.27449">
        <ele>29.799999237061</ele>
        <time>2021-11-28T10:37:15.000Z</time>
      </trkpt>
      <trkpt lat="47.26035" lon="-2.27479">
        <ele>29.799999237061</ele>
        <time>2021-11-28T10:37:21.000Z</time>
      </trkpt>
      <trkpt lat="47.26034" lon="-2.27484">
        <ele>30.200000762939</ele>
        <time>2021-11-28T10:37:22.000Z</time>
      </trkpt>
      <trkpt lat="47.26032" lon="-2.27489">
        <ele>30.60000038147</ele>
        <time>2021-11-28T10:37:23.000Z</time>
      </trkpt>
      <trkpt lat="47.2603" lon="-2.27495">
        <ele>31</ele>
        <time>2021-11-28T10:37:24.000Z</time>
      </trkpt>
      <trkpt lat="47.26028" lon="-2.27499">
        <ele>31.39999961853</ele>
        <time>2021-11-28T10:37:25.000Z</time>
      </trkpt>
      <trkpt lat="47.26026" lon="-2.27503">
        <ele>31.799999237061</ele>
        <time>2021-11-28T10:37:26.000Z</time>
      </trkpt>
      <trkpt lat="47.26022" lon="-2.27511">
        <ele>31.799999237061</ele>
        <time>2021-11-28T10:37:28.000Z</time>
      </trkpt>
      <trkpt lat="47.26017" lon="-2.27525">
        <ele>31.799999237061</ele>
        <time>2021-11-28T10:37:33.000Z</time>
      </trkpt>
      <trkpt lat="47.26015" lon="-2.27528">
        <ele>31.799999237061</ele>
        <time>2021-11-28T10:37:35.000Z</time>
      </trkpt>
      <trkpt lat="47.26009" lon="-2.27532">
        <ele>31.799999237061</ele>
        <time>2021-11-28T10:37:38.000Z</time>
      </trkpt>
      <trkpt lat="47.25991" lon="-2.27547">
        <ele>31.799999237061</ele>
        <time>2021-11-28T10:37:44.000Z</time>
      </trkpt>
      <trkpt lat="47.25971" lon="-2.27565">
        <ele>31.799999237061</ele>
        <time>2021-11-28T10:37:50.000Z</time>
      </trkpt>
      <trkpt lat="47.25952" lon="-2.27582">
        <ele>31.799999237061</ele>
        <time>2021-11-28T10:37:55.000Z</time>
      </trkpt>
      <trkpt lat="47.25939" lon="-2.27595">
        <ele>32.599998474121</ele>
        <time>2021-11-28T10:37:59.000Z</time>
      </trkpt>
      <trkpt lat="47.25936" lon="-2.27598">
        <ele>33</ele>
        <time>2021-11-28T10:38:00.000Z</time>
      </trkpt>
      <trkpt lat="47.25933" lon="-2.27601">
        <ele>33.400001525879</ele>
        <time>2021-11-28T10:38:01.000Z</time>
      </trkpt>
      <trkpt lat="47.2593" lon="-2.27605">
        <ele>33.799999237061</ele>
        <time>2021-11-28T10:38:02.000Z</time>
      </trkpt>
      <trkpt lat="47.25919" lon="-2.27619">
        <ele>33.799999237061</ele>
        <time>2021-11-28T10:38:06.000Z</time>
      </trkpt>
      <trkpt lat="47.25904" lon="-2.27639">
        <ele>33.799999237061</ele>
        <time>2021-11-28T10:38:12.000Z</time>
      </trkpt>
      <trkpt lat="47.2589" lon="-2.27664">
        <ele>33.799999237061</ele>
        <time>2021-11-28T10:38:18.000Z</time>
      </trkpt>
      <trkpt lat="47.25891" lon="-2.27686">
        <ele>33.799999237061</ele>
        <time>2021-11-28T10:38:22.000Z</time>
      </trkpt>
      <trkpt lat="47.25894" lon="-2.27723">
        <ele>33.799999237061</ele>
        <time>2021-11-28T10:38:29.000Z</time>
      </trkpt>
      <trkpt lat="47.25893" lon="-2.27753">
        <ele>33.799999237061</ele>
        <time>2021-11-28T10:38:36.000Z</time>
      </trkpt>
      <trkpt lat="47.25889" lon="-2.2776">
        <ele>33.799999237061</ele>
        <time>2021-11-28T10:38:40.000Z</time>
      </trkpt>
      <trkpt lat="47.25888" lon="-2.2776">
        <ele>33.799999237061</ele>
        <time>2021-11-28T10:38:41.000Z</time>
      </trkpt>
      <trkpt lat="47.25888" lon="-2.27761">
        <ele>33.799999237061</ele>
        <time>2021-11-28T10:38:42.000Z</time>
      </trkpt>
      <trkpt lat="47.25885" lon="-2.27762">
        <ele>33.799999237061</ele>
        <time>2021-11-28T10:38:47.000Z</time>
      </trkpt>
      <trkpt lat="47.2588" lon="-2.27764">
        <ele>33.799999237061</ele>
        <time>2021-11-28T10:38:49.000Z</time>
      </trkpt>
      <trkpt lat="47.25878" lon="-2.27767">
        <ele>33.799999237061</ele>
        <time>2021-11-28T10:38:50.000Z</time>
      </trkpt>
      <trkpt lat="47.25878" lon="-2.27772">
        <ele>34.400001525879</ele>
        <time>2021-11-28T10:38:51.000Z</time>
      </trkpt>
      <trkpt lat="47.25879" lon="-2.27776">
        <ele>34.799999237061</ele>
        <time>2021-11-28T10:38:52.000Z</time>
      </trkpt>
      <trkpt lat="47.25879" lon="-2.27782">
        <ele>35.200000762939</ele>
        <time>2021-11-28T10:38:53.000Z</time>
      </trkpt>
      <trkpt lat="47.2588" lon="-2.27787">
        <ele>35.599998474121</ele>
        <time>2021-11-28T10:38:54.000Z</time>
      </trkpt>
      <trkpt lat="47.25881" lon="-2.27794">
        <ele>36</ele>
        <time>2021-11-28T10:38:55.000Z</time>
      </trkpt>
      <trkpt lat="47.25883" lon="-2.27812">
        <ele>36</ele>
        <time>2021-11-28T10:38:58.000Z</time>
      </trkpt>
      <trkpt lat="47.2589" lon="-2.27855">
        <ele>36</ele>
        <time>2021-11-28T10:39:05.000Z</time>
      </trkpt>
      <trkpt lat="47.25898" lon="-2.27898">
        <ele>36</ele>
        <time>2021-11-28T10:39:12.000Z</time>
      </trkpt>
      <trkpt lat="47.25908" lon="-2.27956">
        <ele>36</ele>
        <time>2021-11-28T10:39:20.000Z</time>
      </trkpt>
      <trkpt lat="47.25918" lon="-2.28031">
        <ele>36</ele>
        <time>2021-11-28T10:39:30.000Z</time>
      </trkpt>
      <trkpt lat="47.25924" lon="-2.28088">
        <ele>36</ele>
        <time>2021-11-28T10:39:38.000Z</time>
      </trkpt>
      <trkpt lat="47.25922" lon="-2.28118">
        <ele>36</ele>
        <time>2021-11-28T10:39:42.000Z</time>
      </trkpt>
      <trkpt lat="47.25923" lon="-2.28125">
        <ele>36</ele>
        <time>2021-11-28T10:39:43.000Z</time>
      </trkpt>
      <trkpt lat="47.25925" lon="-2.28159">
        <ele>36</ele>
        <time>2021-11-28T10:39:48.000Z</time>
      </trkpt>
      <trkpt lat="47.25924" lon="-2.28165">
        <ele>36</ele>
        <time>2021-11-28T10:39:49.000Z</time>
      </trkpt>
      <trkpt lat="47.25916" lon="-2.28179">
        <ele>36</ele>
        <time>2021-11-28T10:39:52.000Z</time>
      </trkpt>
      <trkpt lat="47.25907" lon="-2.28183">
        <ele>36</ele>
        <time>2021-11-28T10:39:56.000Z</time>
      </trkpt>
      <trkpt lat="47.25891" lon="-2.2818">
        <ele>36</ele>
        <time>2021-11-28T10:40:01.000Z</time>
      </trkpt>
      <trkpt lat="47.25871" lon="-2.28171">
        <ele>36</ele>
        <time>2021-11-28T10:40:07.000Z</time>
      </trkpt>
      <trkpt lat="47.25855" lon="-2.28155">
        <ele>36</ele>
        <time>2021-11-28T10:40:12.000Z</time>
      </trkpt>
      <trkpt lat="47.25851" lon="-2.28151">
        <ele>36</ele>
        <time>2021-11-28T10:40:13.000Z</time>
      </trkpt>
      <trkpt lat="47.25824" lon="-2.28124">
        <ele>36</ele>
        <time>2021-11-28T10:40:20.000Z</time>
      </trkpt>
      <trkpt lat="47.25811" lon="-2.28113">
        <ele>36</ele>
        <time>2021-11-28T10:40:23.000Z</time>
      </trkpt>
      <trkpt lat="47.25803" lon="-2.28105">
        <ele>36</ele>
        <time>2021-11-28T10:40:25.000Z</time>
      </trkpt>
      <trkpt lat="47.2577" lon="-2.28077">
        <ele>36</ele>
        <time>2021-11-28T10:40:32.000Z</time>
      </trkpt>
      <trkpt lat="47.25743" lon="-2.28052">
        <ele>36</ele>
        <time>2021-11-28T10:40:38.000Z</time>
      </trkpt>
      <trkpt lat="47.25739" lon="-2.28048">
        <ele>36</ele>
        <time>2021-11-28T10:40:39.000Z</time>
      </trkpt>
      <trkpt lat="47.2572" lon="-2.28028">
        <ele>36</ele>
        <time>2021-11-28T10:40:44.000Z</time>
      </trkpt>
      <trkpt lat="47.25716" lon="-2.28024">
        <ele>36</ele>
        <time>2021-11-28T10:40:45.000Z</time>
      </trkpt>
      <trkpt lat="47.25696" lon="-2.28">
        <ele>36</ele>
        <time>2021-11-28T10:40:52.000Z</time>
      </trkpt>
      <trkpt lat="47.2569" lon="-2.27994">
        <ele>36</ele>
        <time>2021-11-28T10:40:56.000Z</time>
      </trkpt>
      <trkpt lat="47.25682" lon="-2.27988">
        <ele>36</ele>
        <time>2021-11-28T10:41:00.000Z</time>
      </trkpt>
      <trkpt lat="47.25681" lon="-2.27984">
        <ele>36</ele>
        <time>2021-11-28T10:41:01.000Z</time>
      </trkpt>
      <trkpt lat="47.25669" lon="-2.27953">
        <ele>36</ele>
        <time>2021-11-28T10:41:07.000Z</time>
      </trkpt>
      <trkpt lat="47.25652" lon="-2.27923">
        <ele>36</ele>
        <time>2021-11-28T10:41:12.000Z</time>
      </trkpt>
      <trkpt lat="47.25648" lon="-2.27918">
        <ele>36</ele>
        <time>2021-11-28T10:41:13.000Z</time>
      </trkpt>
      <trkpt lat="47.25644" lon="-2.27913">
        <ele>36</ele>
        <time>2021-11-28T10:41:14.000Z</time>
      </trkpt>
      <trkpt lat="47.25625" lon="-2.27898">
        <ele>36</ele>
        <time>2021-11-28T10:41:18.000Z</time>
      </trkpt>
      <trkpt lat="47.25592" lon="-2.27867">
        <ele>36</ele>
        <time>2021-11-28T10:41:24.000Z</time>
      </trkpt>
      <trkpt lat="47.2557" lon="-2.27842">
        <ele>36</ele>
        <time>2021-11-28T10:41:28.000Z</time>
      </trkpt>
      <trkpt lat="47.25565" lon="-2.27834">
        <ele>35.599998474121</ele>
        <time>2021-11-28T10:41:29.000Z</time>
      </trkpt>
      <trkpt lat="47.2556" lon="-2.27827">
        <ele>35.200000762939</ele>
        <time>2021-11-28T10:41:30.000Z</time>
      </trkpt>
      <trkpt lat="47.25555" lon="-2.2782">
        <ele>34.799999237061</ele>
        <time>2021-11-28T10:41:31.000Z</time>
      </trkpt>
      <trkpt lat="47.2555" lon="-2.27813">
        <ele>34.400001525879</ele>
        <time>2021-11-28T10:41:32.000Z</time>
      </trkpt>
      <trkpt lat="47.25545" lon="-2.27807">
        <ele>34</ele>
        <time>2021-11-28T10:41:33.000Z</time>
      </trkpt>
      <trkpt lat="47.25526" lon="-2.27773">
        <ele>34</ele>
        <time>2021-11-28T10:41:38.000Z</time>
      </trkpt>
      <trkpt lat="47.25506" lon="-2.2775">
        <ele>34</ele>
        <time>2021-11-28T10:41:43.000Z</time>
      </trkpt>
      <trkpt lat="47.25501" lon="-2.27751">
        <ele>34</ele>
        <time>2021-11-28T10:41:44.000Z</time>
      </trkpt>
      <trkpt lat="47.25496" lon="-2.27754">
        <ele>33.599998474121</ele>
        <time>2021-11-28T10:41:45.000Z</time>
      </trkpt>
      <trkpt lat="47.25492" lon="-2.27759">
        <ele>33</ele>
        <time>2021-11-28T10:41:46.000Z</time>
      </trkpt>
      <trkpt lat="47.25488" lon="-2.27763">
        <ele>32.599998474121</ele>
        <time>2021-11-28T10:41:47.000Z</time>
      </trkpt>
      <trkpt lat="47.25484" lon="-2.27767">
        <ele>32.200000762939</ele>
        <time>2021-11-28T10:41:48.000Z</time>
      </trkpt>
      <trkpt lat="47.25479" lon="-2.27773">
        <ele>31.799999237061</ele>
        <time>2021-11-28T10:41:49.000Z</time>
      </trkpt>
      <trkpt lat="47.2546" lon="-2.27796">
        <ele>31.799999237061</ele>
        <time>2021-11-28T10:41:53.000Z</time>
      </trkpt>
      <trkpt lat="47.25424" lon="-2.2783">
        <ele>31.799999237061</ele>
        <time>2021-11-28T10:41:59.000Z</time>
      </trkpt>
      <trkpt lat="47.25398" lon="-2.27847">
        <ele>31.39999961853</ele>
        <time>2021-11-28T10:42:03.000Z</time>
      </trkpt>
      <trkpt lat="47.25392" lon="-2.2785">
        <ele>31</ele>
        <time>2021-11-28T10:42:04.000Z</time>
      </trkpt>
      <trkpt lat="47.25385" lon="-2.27852">
        <ele>30.60000038147</ele>
        <time>2021-11-28T10:42:05.000Z</time>
      </trkpt>
      <trkpt lat="47.25378" lon="-2.27854">
        <ele>29.799999237061</ele>
        <time>2021-11-28T10:42:06.000Z</time>
      </trkpt>
      <trkpt lat="47.25346" lon="-2.27863">
        <ele>29.799999237061</ele>
        <time>2021-11-28T10:42:11.000Z</time>
      </trkpt>
      <trkpt lat="47.25306" lon="-2.27871">
        <ele>29.799999237061</ele>
        <time>2021-11-28T10:42:17.000Z</time>
      </trkpt>
      <trkpt lat="47.25271" lon="-2.27879">
        <ele>29.200000762939</ele>
        <time>2021-11-28T10:42:22.000Z</time>
      </trkpt>
      <trkpt lat="47.25264" lon="-2.27881">
        <ele>28.799999237061</ele>
        <time>2021-11-28T10:42:23.000Z</time>
      </trkpt>
      <trkpt lat="47.25257" lon="-2.27884">
        <ele>28.39999961853</ele>
        <time>2021-11-28T10:42:24.000Z</time>
      </trkpt>
      <trkpt lat="47.2525" lon="-2.27887">
        <ele>28</ele>
        <time>2021-11-28T10:42:25.000Z</time>
      </trkpt>
      <trkpt lat="47.25243" lon="-2.2789">
        <ele>27.60000038147</ele>
        <time>2021-11-28T10:42:26.000Z</time>
      </trkpt>
      <trkpt lat="47.25205" lon="-2.27912">
        <ele>27.60000038147</ele>
        <time>2021-11-28T10:42:32.000Z</time>
      </trkpt>
      <trkpt lat="47.25181" lon="-2.27927">
        <ele>27.200000762939</ele>
        <time>2021-11-28T10:42:36.000Z</time>
      </trkpt>
      <trkpt lat="47.25176" lon="-2.27931">
        <ele>26.799999237061</ele>
        <time>2021-11-28T10:42:37.000Z</time>
      </trkpt>
      <trkpt lat="47.2517" lon="-2.27934">
        <ele>26.39999961853</ele>
        <time>2021-11-28T10:42:38.000Z</time>
      </trkpt>
      <trkpt lat="47.25165" lon="-2.27937">
        <ele>26</ele>
        <time>2021-11-28T10:42:39.000Z</time>
      </trkpt>
      <trkpt lat="47.25159" lon="-2.27942">
        <ele>25.60000038147</ele>
        <time>2021-11-28T10:42:40.000Z</time>
      </trkpt>
      <trkpt lat="47.25136" lon="-2.27961">
        <ele>25.60000038147</ele>
        <time>2021-11-28T10:42:44.000Z</time>
      </trkpt>
      <trkpt lat="47.25114" lon="-2.27995">
        <ele>25.60000038147</ele>
        <time>2021-11-28T10:42:49.000Z</time>
      </trkpt>
      <trkpt lat="47.25104" lon="-2.28019">
        <ele>25.200000762939</ele>
        <time>2021-11-28T10:42:52.000Z</time>
      </trkpt>
      <trkpt lat="47.251" lon="-2.28027">
        <ele>24.799999237061</ele>
        <time>2021-11-28T10:42:53.000Z</time>
      </trkpt>
      <trkpt lat="47.25097" lon="-2.28035">
        <ele>24.39999961853</ele>
        <time>2021-11-28T10:42:54.000Z</time>
      </trkpt>
      <trkpt lat="47.25094" lon="-2.28043">
        <ele>23.60000038147</ele>
        <time>2021-11-28T10:42:55.000Z</time>
      </trkpt>
      <trkpt lat="47.25075" lon="-2.28087">
        <ele>23.60000038147</ele>
        <time>2021-11-28T10:43:01.000Z</time>
      </trkpt>
      <trkpt lat="47.25074" lon="-2.28095">
        <ele>23.60000038147</ele>
        <time>2021-11-28T10:43:02.000Z</time>
      </trkpt>
      <trkpt lat="47.2507" lon="-2.28115">
        <ele>23.60000038147</ele>
        <time>2021-11-28T10:43:05.000Z</time>
      </trkpt>
      <trkpt lat="47.25068" lon="-2.28121">
        <ele>23.60000038147</ele>
        <time>2021-11-28T10:43:06.000Z</time>
      </trkpt>
      <trkpt lat="47.2506" lon="-2.2815">
        <ele>23.60000038147</ele>
        <time>2021-11-28T10:43:10.000Z</time>
      </trkpt>
      <trkpt lat="47.25047" lon="-2.28195">
        <ele>23.60000038147</ele>
        <time>2021-11-28T10:43:16.000Z</time>
      </trkpt>
      <trkpt lat="47.25039" lon="-2.28234">
        <ele>23</ele>
        <time>2021-11-28T10:43:21.000Z</time>
      </trkpt>
      <trkpt lat="47.25037" lon="-2.28242">
        <ele>22.60000038147</ele>
        <time>2021-11-28T10:43:22.000Z</time>
      </trkpt>
      <trkpt lat="47.25036" lon="-2.2825">
        <ele>22.200000762939</ele>
        <time>2021-11-28T10:43:23.000Z</time>
      </trkpt>
      <trkpt lat="47.25034" lon="-2.28258">
        <ele>21.799999237061</ele>
        <time>2021-11-28T10:43:24.000Z</time>
      </trkpt>
      <trkpt lat="47.25032" lon="-2.28266">
        <ele>21.39999961853</ele>
        <time>2021-11-28T10:43:25.000Z</time>
      </trkpt>
      <trkpt lat="47.25029" lon="-2.28298">
        <ele>21.39999961853</ele>
        <time>2021-11-28T10:43:29.000Z</time>
      </trkpt>
      <trkpt lat="47.25027" lon="-2.28313">
        <ele>21.39999961853</ele>
        <time>2021-11-28T10:43:31.000Z</time>
      </trkpt>
      <trkpt lat="47.2502" lon="-2.28326">
        <ele>21.39999961853</ele>
        <time>2021-11-28T10:43:33.000Z</time>
      </trkpt>
      <trkpt lat="47.25014" lon="-2.28331">
        <ele>21</ele>
        <time>2021-11-28T10:43:34.000Z</time>
      </trkpt>
      <trkpt lat="47.25007" lon="-2.28338">
        <ele>20.60000038147</ele>
        <time>2021-11-28T10:43:35.000Z</time>
      </trkpt>
      <trkpt lat="47.25002" lon="-2.28345">
        <ele>20</ele>
        <time>2021-11-28T10:43:36.000Z</time>
      </trkpt>
      <trkpt lat="47.24997" lon="-2.28354">
        <ele>19.60000038147</ele>
        <time>2021-11-28T10:43:37.000Z</time>
      </trkpt>
      <trkpt lat="47.24992" lon="-2.28363">
        <ele>19.200000762939</ele>
        <time>2021-11-28T10:43:38.000Z</time>
      </trkpt>
      <trkpt lat="47.24985" lon="-2.28379">
        <ele>18.799999237061</ele>
        <time>2021-11-28T10:43:40.000Z</time>
      </trkpt>
      <trkpt lat="47.2498" lon="-2.28387">
        <ele>18.39999961853</ele>
        <time>2021-11-28T10:43:41.000Z</time>
      </trkpt>
      <trkpt lat="47.24975" lon="-2.28393">
        <ele>17.799999237061</ele>
        <time>2021-11-28T10:43:42.000Z</time>
      </trkpt>
      <trkpt lat="47.2497" lon="-2.28397">
        <ele>17.39999961853</ele>
        <time>2021-11-28T10:43:43.000Z</time>
      </trkpt>
      <trkpt lat="47.24965" lon="-2.28401">
        <ele>17</ele>
        <time>2021-11-28T10:43:44.000Z</time>
      </trkpt>
      <trkpt lat="47.24948" lon="-2.28407">
        <ele>17</ele>
        <time>2021-11-28T10:43:47.000Z</time>
      </trkpt>
      <trkpt lat="47.24938" lon="-2.28411">
        <ele>17.39999961853</ele>
        <time>2021-11-28T10:43:49.000Z</time>
      </trkpt>
      <trkpt lat="47.24933" lon="-2.28413">
        <ele>17.799999237061</ele>
        <time>2021-11-28T10:43:50.000Z</time>
      </trkpt>
      <trkpt lat="47.24928" lon="-2.28415">
        <ele>18.200000762939</ele>
        <time>2021-11-28T10:43:51.000Z</time>
      </trkpt>
      <trkpt lat="47.24923" lon="-2.28417">
        <ele>18.799999237061</ele>
        <time>2021-11-28T10:43:52.000Z</time>
      </trkpt>
      <trkpt lat="47.24917" lon="-2.28419">
        <ele>19.200000762939</ele>
        <time>2021-11-28T10:43:53.000Z</time>
      </trkpt>
      <trkpt lat="47.24907" lon="-2.28423">
        <ele>19.200000762939</ele>
        <time>2021-11-28T10:43:55.000Z</time>
      </trkpt>
      <trkpt lat="47.24897" lon="-2.28428">
        <ele>19.60000038147</ele>
        <time>2021-11-28T10:43:57.000Z</time>
      </trkpt>
      <trkpt lat="47.24892" lon="-2.28431">
        <ele>20</ele>
        <time>2021-11-28T10:43:58.000Z</time>
      </trkpt>
      <trkpt lat="47.24887" lon="-2.28434">
        <ele>20.39999961853</ele>
        <time>2021-11-28T10:43:59.000Z</time>
      </trkpt>
      <trkpt lat="47.24883" lon="-2.28438">
        <ele>20.799999237061</ele>
        <time>2021-11-28T10:44:00.000Z</time>
      </trkpt>
      <trkpt lat="47.24879" lon="-2.28442">
        <ele>21.200000762939</ele>
        <time>2021-11-28T10:44:01.000Z</time>
      </trkpt>
      <trkpt lat="47.2486" lon="-2.28465">
        <ele>21.60000038147</ele>
        <time>2021-11-28T10:44:06.000Z</time>
      </trkpt>
      <trkpt lat="47.24856" lon="-2.2847">
        <ele>22</ele>
        <time>2021-11-28T10:44:07.000Z</time>
      </trkpt>
      <trkpt lat="47.24852" lon="-2.28474">
        <ele>22.39999961853</ele>
        <time>2021-11-28T10:44:08.000Z</time>
      </trkpt>
      <trkpt lat="47.24848" lon="-2.28478">
        <ele>22.799999237061</ele>
        <time>2021-11-28T10:44:09.000Z</time>
      </trkpt>
      <trkpt lat="47.24843" lon="-2.28482">
        <ele>23.39999961853</ele>
        <time>2021-11-28T10:44:10.000Z</time>
      </trkpt>
      <trkpt lat="47.24839" lon="-2.28486">
        <ele>23.39999961853</ele>
        <time>2021-11-28T10:44:11.000Z</time>
      </trkpt>
      <trkpt lat="47.24834" lon="-2.28488">
        <ele>23.39999961853</ele>
        <time>2021-11-28T10:44:12.000Z</time>
      </trkpt>
      <trkpt lat="47.24825" lon="-2.28494">
        <ele>23.39999961853</ele>
        <time>2021-11-28T10:44:14.000Z</time>
      </trkpt>
      <trkpt lat="47.24817" lon="-2.28501">
        <ele>23.39999961853</ele>
        <time>2021-11-28T10:44:16.000Z</time>
      </trkpt>
      <trkpt lat="47.24796" lon="-2.28518">
        <ele>23.799999237061</ele>
        <time>2021-11-28T10:44:21.000Z</time>
      </trkpt>
      <trkpt lat="47.24792" lon="-2.28521">
        <ele>24.200000762939</ele>
        <time>2021-11-28T10:44:22.000Z</time>
      </trkpt>
      <trkpt lat="47.24788" lon="-2.28524">
        <ele>24.60000038147</ele>
        <time>2021-11-28T10:44:23.000Z</time>
      </trkpt>
      <trkpt lat="47.24784" lon="-2.28528">
        <ele>25</ele>
        <time>2021-11-28T10:44:24.000Z</time>
      </trkpt>
      <trkpt lat="47.24781" lon="-2.28532">
        <ele>25.39999961853</ele>
        <time>2021-11-28T10:44:25.000Z</time>
      </trkpt>
      <trkpt lat="47.24753" lon="-2.28563">
        <ele>25.39999961853</ele>
        <time>2021-11-28T10:44:32.000Z</time>
      </trkpt>
      <trkpt lat="47.24749" lon="-2.28568">
        <ele>25.39999961853</ele>
        <time>2021-11-28T10:44:33.000Z</time>
      </trkpt>
      <trkpt lat="47.24743" lon="-2.2859">
        <ele>25.39999961853</ele>
        <time>2021-11-28T10:44:36.000Z</time>
      </trkpt>
      <trkpt lat="47.24741" lon="-2.28604">
        <ele>25.39999961853</ele>
        <time>2021-11-28T10:44:38.000Z</time>
      </trkpt>
      <trkpt lat="47.2474" lon="-2.28611">
        <ele>25.39999961853</ele>
        <time>2021-11-28T10:44:39.000Z</time>
      </trkpt>
      <trkpt lat="47.24734" lon="-2.28623">
        <ele>25.39999961853</ele>
        <time>2021-11-28T10:44:41.000Z</time>
      </trkpt>
      <trkpt lat="47.24717" lon="-2.28643">
        <ele>25.39999961853</ele>
        <time>2021-11-28T10:44:45.000Z</time>
      </trkpt>
      <trkpt lat="47.24712" lon="-2.28647">
        <ele>25.39999961853</ele>
        <time>2021-11-28T10:44:46.000Z</time>
      </trkpt>
      <trkpt lat="47.24707" lon="-2.28651">
        <ele>25.39999961853</ele>
        <time>2021-11-28T10:44:47.000Z</time>
      </trkpt>
      <trkpt lat="47.24694" lon="-2.28665">
        <ele>25.39999961853</ele>
        <time>2021-11-28T10:44:50.000Z</time>
      </trkpt>
      <trkpt lat="47.24666" lon="-2.28701">
        <ele>25.39999961853</ele>
        <time>2021-11-28T10:44:57.000Z</time>
      </trkpt>
      <trkpt lat="47.24641" lon="-2.28735">
        <ele>25.39999961853</ele>
        <time>2021-11-28T10:45:03.000Z</time>
      </trkpt>
      <trkpt lat="47.24621" lon="-2.28765">
        <ele>25.39999961853</ele>
        <time>2021-11-28T10:45:08.000Z</time>
      </trkpt>
      <trkpt lat="47.24612" lon="-2.28776">
        <ele>25.39999961853</ele>
        <time>2021-11-28T10:45:10.000Z</time>
      </trkpt>
      <trkpt lat="47.24598" lon="-2.2879">
        <ele>25.39999961853</ele>
        <time>2021-11-28T10:45:13.000Z</time>
      </trkpt>
      <trkpt lat="47.24588" lon="-2.28797">
        <ele>25</ele>
        <time>2021-11-28T10:45:15.000Z</time>
      </trkpt>
      <trkpt lat="47.24583" lon="-2.28801">
        <ele>24.39999961853</ele>
        <time>2021-11-28T10:45:16.000Z</time>
      </trkpt>
      <trkpt lat="47.24578" lon="-2.28805">
        <ele>24</ele>
        <time>2021-11-28T10:45:17.000Z</time>
      </trkpt>
      <trkpt lat="47.24573" lon="-2.28809">
        <ele>23.60000038147</ele>
        <time>2021-11-28T10:45:18.000Z</time>
      </trkpt>
      <trkpt lat="47.24568" lon="-2.28814">
        <ele>23.200000762939</ele>
        <time>2021-11-28T10:45:19.000Z</time>
      </trkpt>
      <trkpt lat="47.24563" lon="-2.2882">
        <ele>23.200000762939</ele>
        <time>2021-11-28T10:45:20.000Z</time>
      </trkpt>
      <trkpt lat="47.24536" lon="-2.28854">
        <ele>23.200000762939</ele>
        <time>2021-11-28T10:45:26.000Z</time>
      </trkpt>
      <trkpt lat="47.24528" lon="-2.28866">
        <ele>23.200000762939</ele>
        <time>2021-11-28T10:45:28.000Z</time>
      </trkpt>
      <trkpt lat="47.24523" lon="-2.28882">
        <ele>23.200000762939</ele>
        <time>2021-11-28T10:45:30.000Z</time>
      </trkpt>
      <trkpt lat="47.24527" lon="-2.28906">
        <ele>23.200000762939</ele>
        <time>2021-11-28T10:45:33.000Z</time>
      </trkpt>
      <trkpt lat="47.24535" lon="-2.28927">
        <ele>23.200000762939</ele>
        <time>2021-11-28T10:45:36.000Z</time>
      </trkpt>
      <trkpt lat="47.2454" lon="-2.28942">
        <ele>23.200000762939</ele>
        <time>2021-11-28T10:45:38.000Z</time>
      </trkpt>
      <trkpt lat="47.24542" lon="-2.28949">
        <ele>23.200000762939</ele>
        <time>2021-11-28T10:45:39.000Z</time>
      </trkpt>
      <trkpt lat="47.24551" lon="-2.28986">
        <ele>23.200000762939</ele>
        <time>2021-11-28T10:45:44.000Z</time>
      </trkpt>
      <trkpt lat="47.24554" lon="-2.29016">
        <ele>23.200000762939</ele>
        <time>2021-11-28T10:45:48.000Z</time>
      </trkpt>
      <trkpt lat="47.24553" lon="-2.2903">
        <ele>23.200000762939</ele>
        <time>2021-11-28T10:45:50.000Z</time>
      </trkpt>
      <trkpt lat="47.2455" lon="-2.29066">
        <ele>23.200000762939</ele>
        <time>2021-11-28T10:45:55.000Z</time>
      </trkpt>
      <trkpt lat="47.24548" lon="-2.2908">
        <ele>23.200000762939</ele>
        <time>2021-11-28T10:45:57.000Z</time>
      </trkpt>
      <trkpt lat="47.24545" lon="-2.29094">
        <ele>23.200000762939</ele>
        <time>2021-11-28T10:45:59.000Z</time>
      </trkpt>
      <trkpt lat="47.24539" lon="-2.29122">
        <ele>23.200000762939</ele>
        <time>2021-11-28T10:46:03.000Z</time>
      </trkpt>
      <trkpt lat="47.24527" lon="-2.29162">
        <ele>23.200000762939</ele>
        <time>2021-11-28T10:46:09.000Z</time>
      </trkpt>
      <trkpt lat="47.24525" lon="-2.29168">
        <ele>23.60000038147</ele>
        <time>2021-11-28T10:46:10.000Z</time>
      </trkpt>
      <trkpt lat="47.24524" lon="-2.29175">
        <ele>24.200000762939</ele>
        <time>2021-11-28T10:46:11.000Z</time>
      </trkpt>
      <trkpt lat="47.24523" lon="-2.29181">
        <ele>24.60000038147</ele>
        <time>2021-11-28T10:46:12.000Z</time>
      </trkpt>
      <trkpt lat="47.24522" lon="-2.29188">
        <ele>25.39999961853</ele>
        <time>2021-11-28T10:46:13.000Z</time>
      </trkpt>
      <trkpt lat="47.2452" lon="-2.29202">
        <ele>25.39999961853</ele>
        <time>2021-11-28T10:46:15.000Z</time>
      </trkpt>
      <trkpt lat="47.24518" lon="-2.29213">
        <ele>25.39999961853</ele>
        <time>2021-11-28T10:46:17.000Z</time>
      </trkpt>
      <trkpt lat="47.24516" lon="-2.29234">
        <ele>25.39999961853</ele>
        <time>2021-11-28T10:46:20.000Z</time>
      </trkpt>
      <trkpt lat="47.24515" lon="-2.29283">
        <ele>25.39999961853</ele>
        <time>2021-11-28T10:46:27.000Z</time>
      </trkpt>
      <trkpt lat="47.2452" lon="-2.29331">
        <ele>25.39999961853</ele>
        <time>2021-11-28T10:46:35.000Z</time>
      </trkpt>
      <trkpt lat="47.24523" lon="-2.29367">
        <ele>25.39999961853</ele>
        <time>2021-11-28T10:46:41.000Z</time>
      </trkpt>
      <trkpt lat="47.24525" lon="-2.29419">
        <ele>25.39999961853</ele>
        <time>2021-11-28T10:46:49.000Z</time>
      </trkpt>
      <trkpt lat="47.24524" lon="-2.29469">
        <ele>25.39999961853</ele>
        <time>2021-11-28T10:46:56.000Z</time>
      </trkpt>
      <trkpt lat="47.24525" lon="-2.29528">
        <ele>25.39999961853</ele>
        <time>2021-11-28T10:47:04.000Z</time>
      </trkpt>
      <trkpt lat="47.24533" lon="-2.29578">
        <ele>25.39999961853</ele>
        <time>2021-11-28T10:47:11.000Z</time>
      </trkpt>
      <trkpt lat="47.24548" lon="-2.29642">
        <ele>25.39999961853</ele>
        <time>2021-11-28T10:47:20.000Z</time>
      </trkpt>
      <trkpt lat="47.24556" lon="-2.29686">
        <ele>25.39999961853</ele>
        <time>2021-11-28T10:47:26.000Z</time>
      </trkpt>
      <trkpt lat="47.24558" lon="-2.29701">
        <ele>25.39999961853</ele>
        <time>2021-11-28T10:47:28.000Z</time>
      </trkpt>
      <trkpt lat="47.24561" lon="-2.2973">
        <ele>25.39999961853</ele>
        <time>2021-11-28T10:47:32.000Z</time>
      </trkpt>
      <trkpt lat="47.24562" lon="-2.29759">
        <ele>25.39999961853</ele>
        <time>2021-11-28T10:47:36.000Z</time>
      </trkpt>
      <trkpt lat="47.24562" lon="-2.29781">
        <ele>25.39999961853</ele>
        <time>2021-11-28T10:47:39.000Z</time>
      </trkpt>
      <trkpt lat="47.24565" lon="-2.29832">
        <ele>25.39999961853</ele>
        <time>2021-11-28T10:47:46.000Z</time>
      </trkpt>
      <trkpt lat="47.24569" lon="-2.29882">
        <ele>25.39999961853</ele>
        <time>2021-11-28T10:47:53.000Z</time>
      </trkpt>
      <trkpt lat="47.24575" lon="-2.29901">
        <ele>25.39999961853</ele>
        <time>2021-11-28T10:47:56.000Z</time>
      </trkpt>
      <trkpt lat="47.24582" lon="-2.29918">
        <ele>25.39999961853</ele>
        <time>2021-11-28T10:47:59.000Z</time>
      </trkpt>
      <trkpt lat="47.24606" lon="-2.29955">
        <ele>25.39999961853</ele>
        <time>2021-11-28T10:48:06.000Z</time>
      </trkpt>
      <trkpt lat="47.24624" lon="-2.29994">
        <ele>25.39999961853</ele>
        <time>2021-11-28T10:48:12.000Z</time>
      </trkpt>
      <trkpt lat="47.24641" lon="-2.30055">
        <ele>25.39999961853</ele>
        <time>2021-11-28T10:48:20.000Z</time>
      </trkpt>
      <trkpt lat="47.24656" lon="-2.30111">
        <ele>25.39999961853</ele>
        <time>2021-11-28T10:48:27.000Z</time>
      </trkpt>
      <trkpt lat="47.24676" lon="-2.30187">
        <ele>25.39999961853</ele>
        <time>2021-11-28T10:48:36.000Z</time>
      </trkpt>
      <trkpt lat="47.24698" lon="-2.30248">
        <ele>25.39999961853</ele>
        <time>2021-11-28T10:48:44.000Z</time>
      </trkpt>
      <trkpt lat="47.24712" lon="-2.30283">
        <ele>25.39999961853</ele>
        <time>2021-11-28T10:48:49.000Z</time>
      </trkpt>
      <trkpt lat="47.24731" lon="-2.3033">
        <ele>25.39999961853</ele>
        <time>2021-11-28T10:48:56.000Z</time>
      </trkpt>
      <trkpt lat="47.24739" lon="-2.30348">
        <ele>25.39999961853</ele>
        <time>2021-11-28T10:48:59.000Z</time>
      </trkpt>
      <trkpt lat="47.24748" lon="-2.30366">
        <ele>25.39999961853</ele>
        <time>2021-11-28T10:49:02.000Z</time>
      </trkpt>
      <trkpt lat="47.24769" lon="-2.30396">
        <ele>25.39999961853</ele>
        <time>2021-11-28T10:49:08.000Z</time>
      </trkpt>
      <trkpt lat="47.24797" lon="-2.30426">
        <ele>25.39999961853</ele>
        <time>2021-11-28T10:49:15.000Z</time>
      </trkpt>
      <trkpt lat="47.24814" lon="-2.30444">
        <ele>25.799999237061</ele>
        <time>2021-11-28T10:49:19.000Z</time>
      </trkpt>
      <trkpt lat="47.24818" lon="-2.30449">
        <ele>26.200000762939</ele>
        <time>2021-11-28T10:49:20.000Z</time>
      </trkpt>
      <trkpt lat="47.24823" lon="-2.30454">
        <ele>26.60000038147</ele>
        <time>2021-11-28T10:49:21.000Z</time>
      </trkpt>
      <trkpt lat="47.24827" lon="-2.3046">
        <ele>27</ele>
        <time>2021-11-28T10:49:22.000Z</time>
      </trkpt>
      <trkpt lat="47.24831" lon="-2.30465">
        <ele>27.39999961853</ele>
        <time>2021-11-28T10:49:23.000Z</time>
      </trkpt>
      <trkpt lat="47.24867" lon="-2.3051">
        <ele>27.39999961853</ele>
        <time>2021-11-28T10:49:32.000Z</time>
      </trkpt>
      <trkpt lat="47.24894" lon="-2.30547">
        <ele>27.39999961853</ele>
        <time>2021-11-28T10:49:39.000Z</time>
      </trkpt>
      <trkpt lat="47.24913" lon="-2.30585">
        <ele>27.39999961853</ele>
        <time>2021-11-28T10:49:45.000Z</time>
      </trkpt>
      <trkpt lat="47.24915" lon="-2.30617">
        <ele>27.39999961853</ele>
        <time>2021-11-28T10:49:49.000Z</time>
      </trkpt>
      <trkpt lat="47.24915" lon="-2.30624">
        <ele>27.39999961853</ele>
        <time>2021-11-28T10:49:50.000Z</time>
      </trkpt>
      <trkpt lat="47.24913" lon="-2.30647">
        <ele>27</ele>
        <time>2021-11-28T10:49:53.000Z</time>
      </trkpt>
      <trkpt lat="47.24912" lon="-2.30655">
        <ele>26.60000038147</ele>
        <time>2021-11-28T10:49:54.000Z</time>
      </trkpt>
      <trkpt lat="47.24912" lon="-2.30662">
        <ele>26.200000762939</ele>
        <time>2021-11-28T10:49:55.000Z</time>
      </trkpt>
      <trkpt lat="47.24912" lon="-2.30669">
        <ele>25.200000762939</ele>
        <time>2021-11-28T10:49:56.000Z</time>
      </trkpt>
      <trkpt lat="47.24908" lon="-2.30732">
        <ele>25.200000762939</ele>
        <time>2021-11-28T10:50:04.000Z</time>
      </trkpt>
      <trkpt lat="47.2491" lon="-2.30747">
        <ele>25.200000762939</ele>
        <time>2021-11-28T10:50:06.000Z</time>
      </trkpt>
      <trkpt lat="47.24914" lon="-2.30769">
        <ele>25.200000762939</ele>
        <time>2021-11-28T10:50:09.000Z</time>
      </trkpt>
      <trkpt lat="47.24923" lon="-2.30797">
        <ele>24.799999237061</ele>
        <time>2021-11-28T10:50:13.000Z</time>
      </trkpt>
      <trkpt lat="47.24926" lon="-2.30803">
        <ele>24.39999961853</ele>
        <time>2021-11-28T10:50:14.000Z</time>
      </trkpt>
      <trkpt lat="47.24929" lon="-2.3081">
        <ele>24</ele>
        <time>2021-11-28T10:50:15.000Z</time>
      </trkpt>
      <trkpt lat="47.24932" lon="-2.30816">
        <ele>23.60000038147</ele>
        <time>2021-11-28T10:50:16.000Z</time>
      </trkpt>
      <trkpt lat="47.24935" lon="-2.30822">
        <ele>23.200000762939</ele>
        <time>2021-11-28T10:50:17.000Z</time>
      </trkpt>
      <trkpt lat="47.24949" lon="-2.30846">
        <ele>23.200000762939</ele>
        <time>2021-11-28T10:50:21.000Z</time>
      </trkpt>
      <trkpt lat="47.24951" lon="-2.30853">
        <ele>23.200000762939</ele>
        <time>2021-11-28T10:50:22.000Z</time>
      </trkpt>
      <trkpt lat="47.24956" lon="-2.30867">
        <ele>22.799999237061</ele>
        <time>2021-11-28T10:50:24.000Z</time>
      </trkpt>
      <trkpt lat="47.24958" lon="-2.30874">
        <ele>22.39999961853</ele>
        <time>2021-11-28T10:50:25.000Z</time>
      </trkpt>
      <trkpt lat="47.2496" lon="-2.30881">
        <ele>22</ele>
        <time>2021-11-28T10:50:26.000Z</time>
      </trkpt>
      <trkpt lat="47.24962" lon="-2.30888">
        <ele>21.60000038147</ele>
        <time>2021-11-28T10:50:27.000Z</time>
      </trkpt>
      <trkpt lat="47.24964" lon="-2.30895">
        <ele>21.200000762939</ele>
        <time>2021-11-28T10:50:28.000Z</time>
      </trkpt>
      <trkpt lat="47.24977" lon="-2.30942">
        <ele>21.200000762939</ele>
        <time>2021-11-28T10:50:34.000Z</time>
      </trkpt>
      <trkpt lat="47.2499" lon="-2.30992">
        <ele>21.200000762939</ele>
        <time>2021-11-28T10:50:41.000Z</time>
      </trkpt>
      <trkpt lat="47.25004" lon="-2.31047">
        <ele>21.200000762939</ele>
        <time>2021-11-28T10:50:49.000Z</time>
      </trkpt>
      <trkpt lat="47.25012" lon="-2.31089">
        <ele>21.200000762939</ele>
        <time>2021-11-28T10:50:56.000Z</time>
      </trkpt>
      <trkpt lat="47.25019" lon="-2.31116">
        <ele>21.200000762939</ele>
        <time>2021-11-28T10:51:02.000Z</time>
      </trkpt>
      <trkpt lat="47.25025" lon="-2.31144">
        <ele>21.200000762939</ele>
        <time>2021-11-28T10:51:07.000Z</time>
      </trkpt>
      <trkpt lat="47.25025" lon="-2.31156">
        <ele>21.200000762939</ele>
        <time>2021-11-28T10:51:09.000Z</time>
      </trkpt>
      <trkpt lat="47.25026" lon="-2.31185">
        <ele>21.200000762939</ele>
        <time>2021-11-28T10:51:14.000Z</time>
      </trkpt>
      <trkpt lat="47.25026" lon="-2.31191">
        <ele>21.200000762939</ele>
        <time>2021-11-28T10:51:15.000Z</time>
      </trkpt>
      <trkpt lat="47.25026" lon="-2.3121">
        <ele>21.200000762939</ele>
        <time>2021-11-28T10:51:18.000Z</time>
      </trkpt>
      <trkpt lat="47.25024" lon="-2.31228">
        <ele>21.200000762939</ele>
        <time>2021-11-28T10:51:21.000Z</time>
      </trkpt>
      <trkpt lat="47.25023" lon="-2.31235">
        <ele>21.200000762939</ele>
        <time>2021-11-28T10:51:22.000Z</time>
      </trkpt>
      <trkpt lat="47.25017" lon="-2.31265">
        <ele>21.200000762939</ele>
        <time>2021-11-28T10:51:27.000Z</time>
      </trkpt>
      <trkpt lat="47.25016" lon="-2.31278">
        <ele>21.200000762939</ele>
        <time>2021-11-28T10:51:29.000Z</time>
      </trkpt>
      <trkpt lat="47.25017" lon="-2.31304">
        <ele>21.200000762939</ele>
        <time>2021-11-28T10:51:33.000Z</time>
      </trkpt>
      <trkpt lat="47.25019" lon="-2.31323">
        <ele>21.200000762939</ele>
        <time>2021-11-28T10:51:36.000Z</time>
      </trkpt>
      <trkpt lat="47.25022" lon="-2.31343">
        <ele>21.200000762939</ele>
        <time>2021-11-28T10:51:39.000Z</time>
      </trkpt>
      <trkpt lat="47.25024" lon="-2.3135">
        <ele>21.200000762939</ele>
        <time>2021-11-28T10:51:40.000Z</time>
      </trkpt>
      <trkpt lat="47.25033" lon="-2.31376">
        <ele>21.200000762939</ele>
        <time>2021-11-28T10:51:44.000Z</time>
      </trkpt>
      <trkpt lat="47.25041" lon="-2.31397">
        <ele>21.200000762939</ele>
        <time>2021-11-28T10:51:47.000Z</time>
      </trkpt>
      <trkpt lat="47.25043" lon="-2.31412">
        <ele>21.200000762939</ele>
        <time>2021-11-28T10:51:49.000Z</time>
      </trkpt>
      <trkpt lat="47.25049" lon="-2.31429">
        <ele>21.200000762939</ele>
        <time>2021-11-28T10:51:52.000Z</time>
      </trkpt>
      <trkpt lat="47.25053" lon="-2.3144">
        <ele>21.200000762939</ele>
        <time>2021-11-28T10:51:54.000Z</time>
      </trkpt>
      <trkpt lat="47.25055" lon="-2.31446">
        <ele>20.799999237061</ele>
        <time>2021-11-28T10:51:55.000Z</time>
      </trkpt>
      <trkpt lat="47.25057" lon="-2.31452">
        <ele>20.39999961853</ele>
        <time>2021-11-28T10:51:56.000Z</time>
      </trkpt>
      <trkpt lat="47.25059" lon="-2.31459">
        <ele>20</ele>
        <time>2021-11-28T10:51:57.000Z</time>
      </trkpt>
      <trkpt lat="47.25061" lon="-2.31465">
        <ele>19.60000038147</ele>
        <time>2021-11-28T10:51:58.000Z</time>
      </trkpt>
      <trkpt lat="47.25063" lon="-2.31472">
        <ele>19.200000762939</ele>
        <time>2021-11-28T10:51:59.000Z</time>
      </trkpt>
      <trkpt lat="47.25067" lon="-2.31485">
        <ele>19.200000762939</ele>
        <time>2021-11-28T10:52:01.000Z</time>
      </trkpt>
      <trkpt lat="47.25079" lon="-2.31527">
        <ele>19.200000762939</ele>
        <time>2021-11-28T10:52:07.000Z</time>
      </trkpt>
      <trkpt lat="47.25092" lon="-2.31575">
        <ele>19.200000762939</ele>
        <time>2021-11-28T10:52:14.000Z</time>
      </trkpt>
      <trkpt lat="47.25096" lon="-2.31586">
        <ele>19.200000762939</ele>
        <time>2021-11-28T10:52:16.000Z</time>
      </trkpt>
      <trkpt lat="47.25095" lon="-2.31602">
        <ele>19.200000762939</ele>
        <time>2021-11-28T10:52:19.000Z</time>
      </trkpt>
      <trkpt lat="47.25083" lon="-2.31609">
        <ele>19.200000762939</ele>
        <time>2021-11-28T10:52:22.000Z</time>
      </trkpt>
      <trkpt lat="47.25079" lon="-2.31612">
        <ele>18.799999237061</ele>
        <time>2021-11-28T10:52:23.000Z</time>
      </trkpt>
      <trkpt lat="47.25075" lon="-2.31616">
        <ele>18.39999961853</ele>
        <time>2021-11-28T10:52:24.000Z</time>
      </trkpt>
      <trkpt lat="47.25071" lon="-2.3162">
        <ele>18</ele>
        <time>2021-11-28T10:52:25.000Z</time>
      </trkpt>
      <trkpt lat="47.25067" lon="-2.31624">
        <ele>17.60000038147</ele>
        <time>2021-11-28T10:52:26.000Z</time>
      </trkpt>
      <trkpt lat="47.25062" lon="-2.31627">
        <ele>17.200000762939</ele>
        <time>2021-11-28T10:52:27.000Z</time>
      </trkpt>
      <trkpt lat="47.25059" lon="-2.31631">
        <ele>17.200000762939</ele>
        <time>2021-11-28T10:52:28.000Z</time>
      </trkpt>
      <trkpt lat="47.25052" lon="-2.31641">
        <ele>17.200000762939</ele>
        <time>2021-11-28T10:52:30.000Z</time>
      </trkpt>
      <trkpt lat="47.25052" lon="-2.31656">
        <ele>17.200000762939</ele>
        <time>2021-11-28T10:52:32.000Z</time>
      </trkpt>
      <trkpt lat="47.25055" lon="-2.31671">
        <ele>17.200000762939</ele>
        <time>2021-11-28T10:52:34.000Z</time>
      </trkpt>
      <trkpt lat="47.2506" lon="-2.31692">
        <ele>17.200000762939</ele>
        <time>2021-11-28T10:52:37.000Z</time>
      </trkpt>
      <trkpt lat="47.25073" lon="-2.31749">
        <ele>17.200000762939</ele>
        <time>2021-11-28T10:52:45.000Z</time>
      </trkpt>
      <trkpt lat="47.25085" lon="-2.31795">
        <ele>17.200000762939</ele>
        <time>2021-11-28T10:52:52.000Z</time>
      </trkpt>
      <trkpt lat="47.25096" lon="-2.31853">
        <ele>17.200000762939</ele>
        <time>2021-11-28T10:53:00.000Z</time>
      </trkpt>
      <trkpt lat="47.25105" lon="-2.3192">
        <ele>17.200000762939</ele>
        <time>2021-11-28T10:53:09.000Z</time>
      </trkpt>
      <trkpt lat="47.25109" lon="-2.31944">
        <ele>16.799999237061</ele>
        <time>2021-11-28T10:53:12.000Z</time>
      </trkpt>
      <trkpt lat="47.2511" lon="-2.31951">
        <ele>15.800000190735</ele>
        <time>2021-11-28T10:53:13.000Z</time>
      </trkpt>
      <trkpt lat="47.25111" lon="-2.31958">
        <ele>15.39999961853</ele>
        <time>2021-11-28T10:53:14.000Z</time>
      </trkpt>
      <trkpt lat="47.25113" lon="-2.31966">
        <ele>15</ele>
        <time>2021-11-28T10:53:15.000Z</time>
      </trkpt>
      <trkpt lat="47.25116" lon="-2.31982">
        <ele>15</ele>
        <time>2021-11-28T10:53:17.000Z</time>
      </trkpt>
      <trkpt lat="47.25115" lon="-2.32">
        <ele>15</ele>
        <time>2021-11-28T10:53:19.000Z</time>
      </trkpt>
      <trkpt lat="47.25117" lon="-2.32046">
        <ele>15</ele>
        <time>2021-11-28T10:53:25.000Z</time>
      </trkpt>
      <trkpt lat="47.25118" lon="-2.32061">
        <ele>15</ele>
        <time>2021-11-28T10:53:27.000Z</time>
      </trkpt>
      <trkpt lat="47.2512" lon="-2.32093">
        <ele>15</ele>
        <time>2021-11-28T10:53:31.000Z</time>
      </trkpt>
      <trkpt lat="47.25126" lon="-2.32152">
        <ele>15</ele>
        <time>2021-11-28T10:53:39.000Z</time>
      </trkpt>
      <trkpt lat="47.25132" lon="-2.32212">
        <ele>15</ele>
        <time>2021-11-28T10:53:47.000Z</time>
      </trkpt>
      <trkpt lat="47.25139" lon="-2.32283">
        <ele>15</ele>
        <time>2021-11-28T10:53:57.000Z</time>
      </trkpt>
      <trkpt lat="47.25143" lon="-2.32329">
        <ele>14.60000038147</ele>
        <time>2021-11-28T10:54:03.000Z</time>
      </trkpt>
      <trkpt lat="47.25144" lon="-2.32338">
        <ele>14.199999809265</ele>
        <time>2021-11-28T10:54:04.000Z</time>
      </trkpt>
      <trkpt lat="47.25147" lon="-2.32347">
        <ele>13.60000038147</ele>
        <time>2021-11-28T10:54:05.000Z</time>
      </trkpt>
      <trkpt lat="47.2515" lon="-2.32355">
        <ele>13.199999809265</ele>
        <time>2021-11-28T10:54:06.000Z</time>
      </trkpt>
      <trkpt lat="47.25154" lon="-2.32362">
        <ele>12.800000190735</ele>
        <time>2021-11-28T10:54:07.000Z</time>
      </trkpt>
      <trkpt lat="47.25174" lon="-2.32384">
        <ele>12.800000190735</ele>
        <time>2021-11-28T10:54:11.000Z</time>
      </trkpt>
      <trkpt lat="47.25213" lon="-2.32425">
        <ele>12.800000190735</ele>
        <time>2021-11-28T10:54:19.000Z</time>
      </trkpt>
      <trkpt lat="47.25232" lon="-2.32446">
        <ele>12.39999961853</ele>
        <time>2021-11-28T10:54:23.000Z</time>
      </trkpt>
      <trkpt lat="47.25237" lon="-2.32451">
        <ele>11.800000190735</ele>
        <time>2021-11-28T10:54:24.000Z</time>
      </trkpt>
      <trkpt lat="47.25242" lon="-2.32456">
        <ele>11</ele>
        <time>2021-11-28T10:54:25.000Z</time>
      </trkpt>
      <trkpt lat="47.25246" lon="-2.32461">
        <ele>10.60000038147</ele>
        <time>2021-11-28T10:54:26.000Z</time>
      </trkpt>
      <trkpt lat="47.2525" lon="-2.32465">
        <ele>10.60000038147</ele>
        <time>2021-11-28T10:54:27.000Z</time>
      </trkpt>
      <trkpt lat="47.25294" lon="-2.32515">
        <ele>10.60000038147</ele>
        <time>2021-11-28T10:54:37.000Z</time>
      </trkpt>
      <trkpt lat="47.25316" lon="-2.32542">
        <ele>10.60000038147</ele>
        <time>2021-11-28T10:54:42.000Z</time>
      </trkpt>
      <trkpt lat="47.25324" lon="-2.32556">
        <ele>10.60000038147</ele>
        <time>2021-11-28T10:54:44.000Z</time>
      </trkpt>
      <trkpt lat="47.25352" lon="-2.32606">
        <ele>9.8000001907349</ele>
        <time>2021-11-28T10:54:51.000Z</time>
      </trkpt>
      <trkpt lat="47.25356" lon="-2.32613">
        <ele>9.3999996185303</ele>
        <time>2021-11-28T10:54:52.000Z</time>
      </trkpt>
      <trkpt lat="47.25359" lon="-2.32621">
        <ele>9</ele>
        <time>2021-11-28T10:54:53.000Z</time>
      </trkpt>
      <trkpt lat="47.25363" lon="-2.32629">
        <ele>8.6000003814697</ele>
        <time>2021-11-28T10:54:54.000Z</time>
      </trkpt>
      <trkpt lat="47.25377" lon="-2.32659">
        <ele>8.6000003814697</ele>
        <time>2021-11-28T10:54:58.000Z</time>
      </trkpt>
      <trkpt lat="47.25395" lon="-2.32697">
        <ele>8.1999998092651</ele>
        <time>2021-11-28T10:55:03.000Z</time>
      </trkpt>
      <trkpt lat="47.25399" lon="-2.32704">
        <ele>7.5999999046326</ele>
        <time>2021-11-28T10:55:04.000Z</time>
      </trkpt>
      <trkpt lat="47.25402" lon="-2.32712">
        <ele>7.1999998092651</ele>
        <time>2021-11-28T10:55:05.000Z</time>
      </trkpt>
      <trkpt lat="47.25406" lon="-2.3272">
        <ele>6.8000001907349</ele>
        <time>2021-11-28T10:55:06.000Z</time>
      </trkpt>
      <trkpt lat="47.25409" lon="-2.32728">
        <ele>6.4000000953674</ele>
        <time>2021-11-28T10:55:07.000Z</time>
      </trkpt>
      <trkpt lat="47.25424" lon="-2.32758">
        <ele>6.4000000953674</ele>
        <time>2021-11-28T10:55:11.000Z</time>
      </trkpt>
      <trkpt lat="47.25428" lon="-2.32765">
        <ele>6</ele>
        <time>2021-11-28T10:55:12.000Z</time>
      </trkpt>
      <trkpt lat="47.2543" lon="-2.32773">
        <ele>5.4000000953674</ele>
        <time>2021-11-28T10:55:13.000Z</time>
      </trkpt>
      <trkpt lat="47.2543" lon="-2.32781">
        <ele>5</ele>
        <time>2021-11-28T10:55:14.000Z</time>
      </trkpt>
      <trkpt lat="47.25428" lon="-2.32788">
        <ele>4.5999999046326</ele>
        <time>2021-11-28T10:55:15.000Z</time>
      </trkpt>
      <trkpt lat="47.25425" lon="-2.32795">
        <ele>3.5999999046326</ele>
        <time>2021-11-28T10:55:16.000Z</time>
      </trkpt>
      <trkpt lat="47.25422" lon="-2.32801">
        <ele>3.2000000476837</ele>
        <time>2021-11-28T10:55:17.000Z</time>
      </trkpt>
      <trkpt lat="47.25418" lon="-2.32808">
        <ele>2.7999999523163</ele>
        <time>2021-11-28T10:55:18.000Z</time>
      </trkpt>
      <trkpt lat="47.25413" lon="-2.32813">
        <ele>2.4000000953674</ele>
        <time>2021-11-28T10:55:19.000Z</time>
      </trkpt>
      <trkpt lat="47.25409" lon="-2.32819">
        <ele>2</ele>
        <time>2021-11-28T10:55:20.000Z</time>
      </trkpt>
      <trkpt lat="47.25395" lon="-2.32836">
        <ele>2</ele>
        <time>2021-11-28T10:55:23.000Z</time>
      </trkpt>
      <trkpt lat="47.25359" lon="-2.32876">
        <ele>2</ele>
        <time>2021-11-28T10:55:31.000Z</time>
      </trkpt>
      <trkpt lat="47.25332" lon="-2.32899">
        <ele>2</ele>
        <time>2021-11-28T10:55:37.000Z</time>
      </trkpt>
      <trkpt lat="47.25314" lon="-2.32919">
        <ele>2</ele>
        <time>2021-11-28T10:55:42.000Z</time>
      </trkpt>
      <trkpt lat="47.2531" lon="-2.3293">
        <ele>2</ele>
        <time>2021-11-28T10:55:44.000Z</time>
      </trkpt>
      <trkpt lat="47.25311" lon="-2.3295">
        <ele>2</ele>
        <time>2021-11-28T10:55:47.000Z</time>
      </trkpt>
      <trkpt lat="47.25314" lon="-2.32956">
        <ele>2</ele>
        <time>2021-11-28T10:55:48.000Z</time>
      </trkpt>
      <trkpt lat="47.25327" lon="-2.32992">
        <ele>2</ele>
        <time>2021-11-28T10:55:54.000Z</time>
      </trkpt>
      <trkpt lat="47.25337" lon="-2.33016">
        <ele>1.6000000238419</ele>
        <time>2021-11-28T10:55:58.000Z</time>
      </trkpt>
      <trkpt lat="47.25339" lon="-2.33022">
        <ele>1.2000000476837</ele>
        <time>2021-11-28T10:55:59.000Z</time>
      </trkpt>
      <trkpt lat="47.25341" lon="-2.33028">
        <ele>0.80000001192093</ele>
        <time>2021-11-28T10:56:00.000Z</time>
      </trkpt>
      <trkpt lat="47.25343" lon="-2.33034">
        <ele>0.40000000596046</ele>
        <time>2021-11-28T10:56:01.000Z</time>
      </trkpt>
      <trkpt lat="47.25345" lon="-2.3304">
        <ele>8.1</ele>
        <time>2021-11-28T10:56:02.000Z</time>
      </trkpt>
      <trkpt lat="47.25356" lon="-2.3307">
        <ele>7.9</ele>
        <time>2021-11-28T10:56:08.000Z</time>
      </trkpt>
      <trkpt lat="47.25364" lon="-2.3309">
        <ele>8</ele>
        <time>2021-11-28T10:56:13.000Z</time>
      </trkpt>
      <trkpt lat="47.25364" lon="-2.3309">
        <ele>8</ele>
        <time>2021-11-28T10:56:14.000Z</time>
      </trkpt>
      <trkpt lat="47.25363" lon="-2.3309">
        <ele>8</ele>
        <time>2021-11-28T10:56:15.000Z</time>
      </trkpt>
      <trkpt lat="47.25364" lon="-2.33081">
        <ele>-2</ele>
        <time>2021-11-28T11:30:33.000Z</time>
      </trkpt>
      <trkpt lat="47.25362" lon="-2.33075">
        <ele>-2</ele>
        <time>2021-11-28T11:30:35.000Z</time>
      </trkpt>
      <trkpt lat="47.25352" lon="-2.33049">
        <ele>-2</ele>
        <time>2021-11-28T11:30:42.000Z</time>
      </trkpt>
      <trkpt lat="47.25341" lon="-2.3302">
        <ele>-2</ele>
        <time>2021-11-28T11:30:49.000Z</time>
      </trkpt>
      <trkpt lat="47.25328" lon="-2.32991">
        <ele>-2</ele>
        <time>2021-11-28T11:30:55.000Z</time>
      </trkpt>
      <trkpt lat="47.25309" lon="-2.32942">
        <ele>-2</ele>
        <time>2021-11-28T11:31:05.000Z</time>
      </trkpt>
      <trkpt lat="47.25309" lon="-2.32925">
        <ele>-2</ele>
        <time>2021-11-28T11:31:08.000Z</time>
      </trkpt>
      <trkpt lat="47.2531" lon="-2.32919">
        <ele>-2</ele>
        <time>2021-11-28T11:31:09.000Z</time>
      </trkpt>
      <trkpt lat="47.25318" lon="-2.32907">
        <ele>-2</ele>
        <time>2021-11-28T11:31:12.000Z</time>
      </trkpt>
      <trkpt lat="47.25325" lon="-2.329">
        <ele>-2</ele>
        <time>2021-11-28T11:31:14.000Z</time>
      </trkpt>
      <trkpt lat="47.25343" lon="-2.32883">
        <ele>-2</ele>
        <time>2021-11-28T11:31:19.000Z</time>
      </trkpt>
      <trkpt lat="47.25376" lon="-2.3285">
        <ele>-2</ele>
        <time>2021-11-28T11:31:28.000Z</time>
      </trkpt>
      <trkpt lat="47.254" lon="-2.32822">
        <ele>-2</ele>
        <time>2021-11-28T11:31:35.000Z</time>
      </trkpt>
      <trkpt lat="47.25415" lon="-2.32802">
        <ele>-1.6000000238419</ele>
        <time>2021-11-28T11:31:40.000Z</time>
      </trkpt>
      <trkpt lat="47.25418" lon="-2.32799">
        <ele>-1.2000000476837</ele>
        <time>2021-11-28T11:31:41.000Z</time>
      </trkpt>
      <trkpt lat="47.2542" lon="-2.32795">
        <ele>-0.80000001192093</ele>
        <time>2021-11-28T11:31:42.000Z</time>
      </trkpt>
      <trkpt lat="47.25422" lon="-2.32791">
        <ele>-0.40000000596046</ele>
        <time>2021-11-28T11:31:43.000Z</time>
      </trkpt>
      <trkpt lat="47.25424" lon="-2.32787">
        <ele>11.1</ele>
        <time>2021-11-28T11:31:44.000Z</time>
      </trkpt>
      <trkpt lat="47.25426" lon="-2.32779">
        <ele>11.6</ele>
        <time>2021-11-28T11:31:46.000Z</time>
      </trkpt>
      <trkpt lat="47.25426" lon="-2.32774">
        <ele>11.7</ele>
        <time>2021-11-28T11:31:47.000Z</time>
      </trkpt>
      <trkpt lat="47.25434" lon="-2.32764">
        <ele>11.4</ele>
        <time>2021-11-28T11:31:50.000Z</time>
      </trkpt>
      <trkpt lat="47.25442" lon="-2.32756">
        <ele>11.1</ele>
        <time>2021-11-28T11:31:52.000Z</time>
      </trkpt>
      <trkpt lat="47.25455" lon="-2.3274">
        <ele>11.8</ele>
        <time>2021-11-28T11:31:56.000Z</time>
      </trkpt>
      <trkpt lat="47.25466" lon="-2.32723">
        <ele>0.40000000596046</ele>
        <time>2021-11-28T11:32:00.000Z</time>
      </trkpt>
      <trkpt lat="47.25468" lon="-2.32719">
        <ele>0.80000001192093</ele>
        <time>2021-11-28T11:32:01.000Z</time>
      </trkpt>
      <trkpt lat="47.25471" lon="-2.32716">
        <ele>1.2000000476837</ele>
        <time>2021-11-28T11:32:02.000Z</time>
      </trkpt>
      <trkpt lat="47.25473" lon="-2.32712">
        <ele>1.6000000238419</ele>
        <time>2021-11-28T11:32:03.000Z</time>
      </trkpt>
      <trkpt lat="47.25476" lon="-2.32708">
        <ele>2</ele>
        <time>2021-11-28T11:32:04.000Z</time>
      </trkpt>
      <trkpt lat="47.25485" lon="-2.32689">
        <ele>2</ele>
        <time>2021-11-28T11:32:08.000Z</time>
      </trkpt>
      <trkpt lat="47.25486" lon="-2.32683">
        <ele>2</ele>
        <time>2021-11-28T11:32:09.000Z</time>
      </trkpt>
      <trkpt lat="47.25488" lon="-2.32665">
        <ele>2</ele>
        <time>2021-11-28T11:32:12.000Z</time>
      </trkpt>
      <trkpt lat="47.25488" lon="-2.32658">
        <ele>2</ele>
        <time>2021-11-28T11:32:13.000Z</time>
      </trkpt>
      <trkpt lat="47.25487" lon="-2.32652">
        <ele>2</ele>
        <time>2021-11-28T11:32:14.000Z</time>
      </trkpt>
      <trkpt lat="47.25485" lon="-2.32635">
        <ele>2</ele>
        <time>2021-11-28T11:32:17.000Z</time>
      </trkpt>
      <trkpt lat="47.2548" lon="-2.3261">
        <ele>2</ele>
        <time>2021-11-28T11:32:21.000Z</time>
      </trkpt>
      <trkpt lat="47.25477" lon="-2.32586">
        <ele>2</ele>
        <time>2021-11-28T11:32:25.000Z</time>
      </trkpt>
      <trkpt lat="47.25479" lon="-2.32574">
        <ele>2</ele>
        <time>2021-11-28T11:32:27.000Z</time>
      </trkpt>
      <trkpt lat="47.2549" lon="-2.32549">
        <ele>2</ele>
        <time>2021-11-28T11:32:32.000Z</time>
      </trkpt>
      <trkpt lat="47.25493" lon="-2.32545">
        <ele>2</ele>
        <time>2021-11-28T11:32:33.000Z</time>
      </trkpt>
      <trkpt lat="47.25501" lon="-2.32536">
        <ele>2</ele>
        <time>2021-11-28T11:32:35.000Z</time>
      </trkpt>
      <trkpt lat="47.25511" lon="-2.32527">
        <ele>2</ele>
        <time>2021-11-28T11:32:37.000Z</time>
      </trkpt>
      <trkpt lat="47.25529" lon="-2.3251">
        <ele>2</ele>
        <time>2021-11-28T11:32:41.000Z</time>
      </trkpt>
      <trkpt lat="47.25539" lon="-2.325">
        <ele>2</ele>
        <time>2021-11-28T11:32:43.000Z</time>
      </trkpt>
      <trkpt lat="47.2555" lon="-2.3249">
        <ele>1.6000000238419</ele>
        <time>2021-11-28T11:32:45.000Z</time>
      </trkpt>
      <trkpt lat="47.25556" lon="-2.32485">
        <ele>1</ele>
        <time>2021-11-28T11:32:46.000Z</time>
      </trkpt>
      <trkpt lat="47.25561" lon="-2.3248">
        <ele>0.60000002384186</ele>
        <time>2021-11-28T11:32:47.000Z</time>
      </trkpt>
      <trkpt lat="47.25567" lon="-2.32475">
        <ele>0.20000000298023</ele>
        <time>2021-11-28T11:32:48.000Z</time>
      </trkpt>
      <trkpt lat="47.25573" lon="-2.32469">
        <ele>-0.20000000298023</ele>
        <time>2021-11-28T11:32:49.000Z</time>
      </trkpt>
      <trkpt lat="47.2559" lon="-2.3245">
        <ele>-0.60000002384186</ele>
        <time>2021-11-28T11:32:52.000Z</time>
      </trkpt>
      <trkpt lat="47.25596" lon="-2.32444">
        <ele>-1</ele>
        <time>2021-11-28T11:32:53.000Z</time>
      </trkpt>
      <trkpt lat="47.25602" lon="-2.32437">
        <ele>-1.3999999761581</ele>
        <time>2021-11-28T11:32:54.000Z</time>
      </trkpt>
      <trkpt lat="47.25608" lon="-2.32431">
        <ele>-1.7999999523163</ele>
        <time>2021-11-28T11:32:55.000Z</time>
      </trkpt>
      <trkpt lat="47.25614" lon="-2.32424">
        <ele>-2.4000000953674</ele>
        <time>2021-11-28T11:32:56.000Z</time>
      </trkpt>
      <trkpt lat="47.2562" lon="-2.32418">
        <ele>-2.4000000953674</ele>
        <time>2021-11-28T11:32:57.000Z</time>
      </trkpt>
      <trkpt lat="47.25632" lon="-2.32407">
        <ele>-2.4000000953674</ele>
        <time>2021-11-28T11:32:59.000Z</time>
      </trkpt>
      <trkpt lat="47.25645" lon="-2.32402">
        <ele>-2.4000000953674</ele>
        <time>2021-11-28T11:33:01.000Z</time>
      </trkpt>
      <trkpt lat="47.25656" lon="-2.32401">
        <ele>-2.7999999523163</ele>
        <time>2021-11-28T11:33:03.000Z</time>
      </trkpt>
      <trkpt lat="47.25662" lon="-2.32403">
        <ele>-3.2000000476837</ele>
        <time>2021-11-28T11:33:04.000Z</time>
      </trkpt>
      <trkpt lat="47.25667" lon="-2.32406">
        <ele>-3.5999999046326</ele>
        <time>2021-11-28T11:33:05.000Z</time>
      </trkpt>
      <trkpt lat="47.25671" lon="-2.3241">
        <ele>-4</ele>
        <time>2021-11-28T11:33:06.000Z</time>
      </trkpt>
      <trkpt lat="47.25675" lon="-2.32415">
        <ele>-4.4000000953674</ele>
        <time>2021-11-28T11:33:07.000Z</time>
      </trkpt>
      <trkpt lat="47.2568" lon="-2.32418">
        <ele>-4.4000000953674</ele>
        <time>2021-11-28T11:33:08.000Z</time>
      </trkpt>
      <trkpt lat="47.25685" lon="-2.3242">
        <ele>-4.4000000953674</ele>
        <time>2021-11-28T11:33:09.000Z</time>
      </trkpt>
      <trkpt lat="47.25722" lon="-2.32423">
        <ele>-4.4000000953674</ele>
        <time>2021-11-28T11:33:15.000Z</time>
      </trkpt>
      <trkpt lat="47.25754" lon="-2.32422">
        <ele>-4.4000000953674</ele>
        <time>2021-11-28T11:33:21.000Z</time>
      </trkpt>
      <trkpt lat="47.25771" lon="-2.32414">
        <ele>-4.4000000953674</ele>
        <time>2021-11-28T11:33:25.000Z</time>
      </trkpt>
      <trkpt lat="47.25775" lon="-2.32413">
        <ele>-4.4000000953674</ele>
        <time>2021-11-28T11:33:26.000Z</time>
      </trkpt>
      <trkpt lat="47.25779" lon="-2.32413">
        <ele>-4.4000000953674</ele>
        <time>2021-11-28T11:33:27.000Z</time>
      </trkpt>
      <trkpt lat="47.25786" lon="-2.3242">
        <ele>-4.4000000953674</ele>
        <time>2021-11-28T11:33:29.000Z</time>
      </trkpt>
      <trkpt lat="47.25795" lon="-2.32437">
        <ele>-4.4000000953674</ele>
        <time>2021-11-28T11:33:32.000Z</time>
      </trkpt>
      <trkpt lat="47.25798" lon="-2.32443">
        <ele>-4.4000000953674</ele>
        <time>2021-11-28T11:33:33.000Z</time>
      </trkpt>
      <trkpt lat="47.25802" lon="-2.32447">
        <ele>-4.4000000953674</ele>
        <time>2021-11-28T11:33:34.000Z</time>
      </trkpt>
      <trkpt lat="47.25817" lon="-2.32459">
        <ele>-4.4000000953674</ele>
        <time>2021-11-28T11:33:37.000Z</time>
      </trkpt>
      <trkpt lat="47.25828" lon="-2.32465">
        <ele>-4.4000000953674</ele>
        <time>2021-11-28T11:33:39.000Z</time>
      </trkpt>
      <trkpt lat="47.25849" lon="-2.32471">
        <ele>-4.4000000953674</ele>
        <time>2021-11-28T11:33:43.000Z</time>
      </trkpt>
      <trkpt lat="47.25855" lon="-2.32471">
        <ele>-4.4000000953674</ele>
        <time>2021-11-28T11:33:44.000Z</time>
      </trkpt>
      <trkpt lat="47.25866" lon="-2.32471">
        <ele>-4.4000000953674</ele>
        <time>2021-11-28T11:33:46.000Z</time>
      </trkpt>
      <trkpt lat="47.25881" lon="-2.32467">
        <ele>-4.4000000953674</ele>
        <time>2021-11-28T11:33:49.000Z</time>
      </trkpt>
      <trkpt lat="47.25886" lon="-2.32465">
        <ele>-4.4000000953674</ele>
        <time>2021-11-28T11:33:50.000Z</time>
      </trkpt>
      <trkpt lat="47.25899" lon="-2.32454">
        <ele>-4.8000001907349</ele>
        <time>2021-11-28T11:33:53.000Z</time>
      </trkpt>
      <trkpt lat="47.25904" lon="-2.32449">
        <ele>-5.1999998092651</ele>
        <time>2021-11-28T11:33:54.000Z</time>
      </trkpt>
      <trkpt lat="47.25909" lon="-2.32445">
        <ele>-5.5999999046326</ele>
        <time>2021-11-28T11:33:55.000Z</time>
      </trkpt>
      <trkpt lat="47.25914" lon="-2.3244">
        <ele>-6</ele>
        <time>2021-11-28T11:33:56.000Z</time>
      </trkpt>
      <trkpt lat="47.25918" lon="-2.32435">
        <ele>-6.4000000953674</ele>
        <time>2021-11-28T11:33:57.000Z</time>
      </trkpt>
      <trkpt lat="47.25923" lon="-2.3243">
        <ele>-6.4000000953674</ele>
        <time>2021-11-28T11:33:58.000Z</time>
      </trkpt>
      <trkpt lat="47.25956" lon="-2.32387">
        <ele>-6.4000000953674</ele>
        <time>2021-11-28T11:34:06.000Z</time>
      </trkpt>
      <trkpt lat="47.25992" lon="-2.32338">
        <ele>-6.4000000953674</ele>
        <time>2021-11-28T11:34:15.000Z</time>
      </trkpt>
      <trkpt lat="47.26016" lon="-2.32307">
        <ele>-6.4000000953674</ele>
        <time>2021-11-28T11:34:21.000Z</time>
      </trkpt>
      <trkpt lat="47.26049" lon="-2.32268">
        <ele>-6.4000000953674</ele>
        <time>2021-11-28T11:34:29.000Z</time>
      </trkpt>
      <trkpt lat="47.26085" lon="-2.32224">
        <ele>-6.4000000953674</ele>
        <time>2021-11-28T11:34:38.000Z</time>
      </trkpt>
      <trkpt lat="47.26107" lon="-2.32188">
        <ele>-6.4000000953674</ele>
        <time>2021-11-28T11:34:44.000Z</time>
      </trkpt>
      <trkpt lat="47.2611" lon="-2.32182">
        <ele>-6.4000000953674</ele>
        <time>2021-11-28T11:34:45.000Z</time>
      </trkpt>
      <trkpt lat="47.26121" lon="-2.32155">
        <ele>-6.4000000953674</ele>
        <time>2021-11-28T11:34:49.000Z</time>
      </trkpt>
      <trkpt lat="47.26123" lon="-2.32148">
        <ele>-6.4000000953674</ele>
        <time>2021-11-28T11:34:50.000Z</time>
      </trkpt>
      <trkpt lat="47.26132" lon="-2.32121">
        <ele>-6.4000000953674</ele>
        <time>2021-11-28T11:34:54.000Z</time>
      </trkpt>
      <trkpt lat="47.2614" lon="-2.32093">
        <ele>-6.4000000953674</ele>
        <time>2021-11-28T11:34:58.000Z</time>
      </trkpt>
      <trkpt lat="47.26145" lon="-2.32079">
        <ele>-6.4000000953674</ele>
        <time>2021-11-28T11:35:00.000Z</time>
      </trkpt>
      <trkpt lat="47.26154" lon="-2.32043">
        <ele>-6.4000000953674</ele>
        <time>2021-11-28T11:35:05.000Z</time>
      </trkpt>
      <trkpt lat="47.26156" lon="-2.3203">
        <ele>-6.4000000953674</ele>
        <time>2021-11-28T11:35:07.000Z</time>
      </trkpt>
      <trkpt lat="47.26163" lon="-2.32015">
        <ele>-6.4000000953674</ele>
        <time>2021-11-28T11:35:10.000Z</time>
      </trkpt>
      <trkpt lat="47.26175" lon="-2.32018">
        <ele>-6.4000000953674</ele>
        <time>2021-11-28T11:35:13.000Z</time>
      </trkpt>
      <trkpt lat="47.26186" lon="-2.32022">
        <ele>-6.4000000953674</ele>
        <time>2021-11-28T11:35:16.000Z</time>
      </trkpt>
      <trkpt lat="47.26188" lon="-2.32023">
        <ele>-6.4000000953674</ele>
        <time>2021-11-28T11:35:17.000Z</time>
      </trkpt>
      <trkpt lat="47.26196" lon="-2.32023">
        <ele>-6.4000000953674</ele>
        <time>2021-11-28T11:35:21.000Z</time>
      </trkpt>
      <trkpt lat="47.26197" lon="-2.3202">
        <ele>-6.4000000953674</ele>
        <time>2021-11-28T11:35:22.000Z</time>
      </trkpt>
      <trkpt lat="47.26202" lon="-2.32007">
        <ele>-6.4000000953674</ele>
        <time>2021-11-28T11:35:26.000Z</time>
      </trkpt>
      <trkpt lat="47.26213" lon="-2.31992">
        <ele>-6.4000000953674</ele>
        <time>2021-11-28T11:35:32.000Z</time>
      </trkpt>
      <trkpt lat="47.2623" lon="-2.31974">
        <ele>-6.4000000953674</ele>
        <time>2021-11-28T11:35:37.000Z</time>
      </trkpt>
      <trkpt lat="47.26247" lon="-2.31953">
        <ele>-6.4000000953674</ele>
        <time>2021-11-28T11:35:42.000Z</time>
      </trkpt>
      <trkpt lat="47.2626" lon="-2.31933">
        <ele>-6.4000000953674</ele>
        <time>2021-11-28T11:35:47.000Z</time>
      </trkpt>
      <trkpt lat="47.26273" lon="-2.31911">
        <ele>-6.4000000953674</ele>
        <time>2021-11-28T11:35:52.000Z</time>
      </trkpt>
      <trkpt lat="47.2628" lon="-2.31904">
        <ele>-6.4000000953674</ele>
        <time>2021-11-28T11:35:54.000Z</time>
      </trkpt>
      <trkpt lat="47.26292" lon="-2.31889">
        <ele>-6.4000000953674</ele>
        <time>2021-11-28T11:35:58.000Z</time>
      </trkpt>
      <trkpt lat="47.26297" lon="-2.31863">
        <ele>-6.4000000953674</ele>
        <time>2021-11-28T11:36:03.000Z</time>
      </trkpt>
      <trkpt lat="47.26302" lon="-2.31835">
        <ele>-6.4000000953674</ele>
        <time>2021-11-28T11:36:08.000Z</time>
      </trkpt>
      <trkpt lat="47.26304" lon="-2.31795">
        <ele>-6.4000000953674</ele>
        <time>2021-11-28T11:36:14.000Z</time>
      </trkpt>
      <trkpt lat="47.26307" lon="-2.31763">
        <ele>-6.4000000953674</ele>
        <time>2021-11-28T11:36:19.000Z</time>
      </trkpt>
      <trkpt lat="47.26307" lon="-2.31726">
        <ele>-6.4000000953674</ele>
        <time>2021-11-28T11:36:25.000Z</time>
      </trkpt>
      <trkpt lat="47.26316" lon="-2.31716">
        <ele>-6.4000000953674</ele>
        <time>2021-11-28T11:36:28.000Z</time>
      </trkpt>
      <trkpt lat="47.2632" lon="-2.31714">
        <ele>-6.4000000953674</ele>
        <time>2021-11-28T11:36:29.000Z</time>
      </trkpt>
      <trkpt lat="47.26335" lon="-2.31702">
        <ele>-6.4000000953674</ele>
        <time>2021-11-28T11:36:34.000Z</time>
      </trkpt>
      <trkpt lat="47.26341" lon="-2.31689">
        <ele>-6</ele>
        <time>2021-11-28T11:36:37.000Z</time>
      </trkpt>
      <trkpt lat="47.26342" lon="-2.31686">
        <ele>-5.5999999046326</ele>
        <time>2021-11-28T11:36:38.000Z</time>
      </trkpt>
      <trkpt lat="47.26344" lon="-2.31684">
        <ele>-5.1999998092651</ele>
        <time>2021-11-28T11:36:39.000Z</time>
      </trkpt>
      <trkpt lat="47.26347" lon="-2.31683">
        <ele>-4.8000001907349</ele>
        <time>2021-11-28T11:36:40.000Z</time>
      </trkpt>
      <trkpt lat="47.2635" lon="-2.31681">
        <ele>-4.4000000953674</ele>
        <time>2021-11-28T11:36:41.000Z</time>
      </trkpt>
      <trkpt lat="47.26356" lon="-2.31678">
        <ele>-4.4000000953674</ele>
        <time>2021-11-28T11:36:43.000Z</time>
      </trkpt>
      <trkpt lat="47.26368" lon="-2.31672">
        <ele>-4</ele>
        <time>2021-11-28T11:36:47.000Z</time>
      </trkpt>
      <trkpt lat="47.26371" lon="-2.31671">
        <ele>-3.5999999046326</ele>
        <time>2021-11-28T11:36:48.000Z</time>
      </trkpt>
      <trkpt lat="47.26375" lon="-2.3167">
        <ele>-3.2000000476837</ele>
        <time>2021-11-28T11:36:49.000Z</time>
      </trkpt>
      <trkpt lat="47.26378" lon="-2.31669">
        <ele>-2.7999999523163</ele>
        <time>2021-11-28T11:36:50.000Z</time>
      </trkpt>
      <trkpt lat="47.26381" lon="-2.31667">
        <ele>-2.4000000953674</ele>
        <time>2021-11-28T11:36:51.000Z</time>
      </trkpt>
      <trkpt lat="47.26399" lon="-2.31658">
        <ele>-2.4000000953674</ele>
        <time>2021-11-28T11:36:57.000Z</time>
      </trkpt>
      <trkpt lat="47.26412" lon="-2.31645">
        <ele>-2.4000000953674</ele>
        <time>2021-11-28T11:37:02.000Z</time>
      </trkpt>
      <trkpt lat="47.26415" lon="-2.31623">
        <ele>-2.4000000953674</ele>
        <time>2021-11-28T11:37:07.000Z</time>
      </trkpt>
      <trkpt lat="47.26415" lon="-2.31592">
        <ele>-2.4000000953674</ele>
        <time>2021-11-28T11:37:13.000Z</time>
      </trkpt>
      <trkpt lat="47.26415" lon="-2.31567">
        <ele>-2.4000000953674</ele>
        <time>2021-11-28T11:37:18.000Z</time>
      </trkpt>
      <trkpt lat="47.26418" lon="-2.31553">
        <ele>-2.4000000953674</ele>
        <time>2021-11-28T11:37:22.000Z</time>
      </trkpt>
      <trkpt lat="47.26421" lon="-2.31553">
        <ele>-2</ele>
        <time>2021-11-28T11:37:24.000Z</time>
      </trkpt>
      <trkpt lat="47.26422" lon="-2.31553">
        <ele>-1.3999999761581</ele>
        <time>2021-11-28T11:37:25.000Z</time>
      </trkpt>
      <trkpt lat="47.26422" lon="-2.31554">
        <ele>-1</ele>
        <time>2021-11-28T11:37:26.000Z</time>
      </trkpt>
      <trkpt lat="47.26423" lon="-2.31554">
        <ele>-0.60000002384186</ele>
        <time>2021-11-28T11:37:27.000Z</time>
      </trkpt>
    </trkseg>
  </trk>
</gpx>